<<back to data home page
WILL WE GET ENOUGH RAIN TO BE OUT OF THE DROUGHT? Stay in touch AND help the station - DONATE ANY AMOUNT BY CLICKING THIS LINK!!!


    Month/Day/Year       Maximum   Minimum    Rel    Dew       Rainfall  Seasonal  Soil     Soil      Baro       Wind    Wind        Peak    Peak Gust  Evap     Leaf     Net
    and                  Air Temp  Air Temp   Hum    Point     Inches    Rainfall  Temp     Moisture  Pressure   Speed   Direction   Gust    Direction  Pan      Wetness  Radiation
    Local Time           Deg F     Deg F      %      Deg F               Inches    Deg F    dS/m      mbar       knots   comp deg    knots   comp deg   Inches   mV       W_m2
----------------------------------------------------------------------------------------------------------------------------------------------------------------------------------
   03/27/2017 05:20      46.5      46.2       92     44.3      0.00     18.10      65.0     0.41      1016.0     1       142         2       126        8.80     284      -16.4
   03/27/2017 05:10      47.0      46.5       92     44.7      0.00     18.10      64.8     0.41      1016.0     1       160         1       127        8.80     283      -16.7
   03/27/2017 05:00      47.0      46.8       92     44.8      0.00     18.10      65.0     0.41      1016.0     1       212         3       195        8.80     282      -16.6
   03/27/2017 04:50      47.1      46.7       92     44.7      0.00     18.10      64.9     0.41      1016.0     1         1         1       321        8.80     282      -17.7
   03/27/2017 04:40      47.4      47.1       92     45.2      0.00     18.10      65.2     0.41      1016.0     1       179         1       207        8.80     281      -17.7
   03/27/2017 04:30      47.5      47.2       92     45.2      0.00     18.10      64.9     0.41      1016.0     1       196         2       182        8.80     281      -18.5
   03/27/2017 04:20      47.3      46.8       92     44.8      0.00     18.10      64.8     0.41      1016.0     1       147         2       170        8.80     281      -19.2
   03/27/2017 04:10      47.7      47.3       92     45.3      0.00     18.10      65.0     0.41      1016.0     1       180         1       167        8.80     280      -19.2
   03/27/2017 04:00      47.8      47.3       92     45.4      0.00     18.10      65.0     0.41      1016.0     1       176         1       180        8.80     280      -20.3
   03/27/2017 03:50      47.6      47.1       91     44.8      0.00     18.10      65.5     0.41      1016.0     1       129         2       126        8.80     279      -21.9
   03/27/2017 03:40      47.7      47.3       91     44.9      0.00     18.10      65.4     0.41      1016.0     2       125         2       121        8.80     279      -22.8
   03/27/2017 03:30      48.4      47.9       91     45.6      0.00     18.10      65.1     0.41      1016.0     1       158         2       128        8.80     278      -22.3
   03/27/2017 03:20      48.3      48.0       90     45.5      0.00     18.10      65.1     0.41      1016.0     1       230         1       137        8.80     277      -24.1
   03/27/2017 03:10      48.8      48.3       90     45.9      0.00     18.10      65.3     0.41      1016.0     1       160         1       128        8.80     277      -24.3
   03/27/2017 03:00      48.8      48.6       91     46.1      0.00     18.10      65.4     0.41      1016.0     0       219         1       176        8.80     276      -25.3
   03/27/2017 02:50      49.0      48.7       90     46.1      0.00     18.10      65.4     0.42      1016.0     1       138         1       128        8.80     276      -26.5
   03/27/2017 02:40      49.0      48.8       91     46.3      0.00     18.10      65.4     0.42      1016.0     1       193         1       228        8.80     276      -27.9
   03/27/2017 02:30      48.9      48.4       91     46.0      0.00     18.10      65.6     0.41      1016.0     1       174         1       150        8.80     275      -29.3
   03/27/2017 02:20      48.9      48.6       90     46.0      0.00     18.10      65.5     0.42      1016.0     1       141         1       160        8.80     275      -31.9
   03/27/2017 02:10      49.1      48.4       89     45.7      0.00     18.10      65.4     0.42      1017.0     2       149         3       140        8.80     274      -33.7
   03/27/2017 02:00      49.3      49.1       89     46.0      0.00     18.10      65.6     0.42      1017.0     1       177         2       132        8.80     274      -34.6
   03/27/2017 01:50      49.6      49.4       88     46.1      0.00     18.10      65.2     0.42      1017.0     0       144         1       223        8.80     274      -36.7
   03/27/2017 01:40      49.6      49.3       88     46.0      0.00     18.10      65.7     0.42      1017.0     1       208         1       159        8.80     274      -39.1
   03/27/2017 01:30      49.9      49.7       88     46.3      0.00     18.10      65.4     0.42      1017.0     1       114         1       185        8.80     273      -41.4
   03/27/2017 01:20      49.9      49.4       88     46.1      0.00     18.10      65.8     0.42      1017.0     1       149         1       137        8.80     273      -44.5
   03/27/2017 01:10      49.8      49.5       87     46.0      0.00     18.10      65.4     0.42      1017.0     1       128         2       156        8.81     273      -47.7
   03/27/2017 01:00      50.2      49.8       87     46.2      0.00     18.10      65.8     0.42      1017.0     1       161         2       169        8.81     273      -49.3
   03/27/2017 00:50      50.6      50.0       85     46.1      0.00     18.10      65.4     0.42      1016.0     2       147         2       130        8.81     272      -51.4
   03/27/2017 00:40      51.0      50.7       85     46.5      0.00     18.10      65.5     0.42      1017.0     1       148         2       120        8.81     272      -50.6
   03/27/2017 00:30      51.1      50.7       85     46.5      0.00     18.10      65.8     0.42      1017.0     1       147         1       141        8.81     272      -52.8
   03/27/2017 00:20      50.9      50.7       85     46.5      0.00     18.10      65.7     0.42      1016.0     1       205         1       127        8.81     272      -53.6
   03/27/2017 00:10      51.1      50.9       85     46.6      0.00     18.10      65.6     0.42      1016.0     1       148         2       134        8.81     272      -55.8
   03/27/2017 00:00      51.3      51.1       85     46.7      0.00     18.10      65.8     0.42      1016.0     1       164         2       141        8.81     272      -57.0
   03/26/2017 23:50      51.3      51.0       85     46.8      0.00     18.10      65.9     0.42      1016.0     1       166         1       150        8.81     272      -59.3
   03/26/2017 23:40      51.7      51.2       84     46.7      0.00     18.10      65.7     0.42      1017.0     2       159         2       166        8.81     272      -60.0
   03/26/2017 23:30      52.0      51.7       83     46.8      0.00     18.10      65.7     0.42      1017.0     1       167         2       161        8.81     272      -59.9
   03/26/2017 23:20      52.7      52.3       81     46.7      0.00     18.10      65.6     0.42      1017.0     1       131         1       135        8.81     271      -60.6
   03/26/2017 23:10      52.8      52.1       81     46.8      0.00     18.10      65.6     0.42      1017.0     1       183         2       195        8.81     271      -60.7
   03/26/2017 23:00      52.3      52.0       82     46.8      0.00     18.10      65.7     0.42      1017.0     2       162         3       139        8.81     271      -61.4
   03/26/2017 22:50      53.1      52.3       80     46.6      0.00     18.10      65.7     0.42      1017.0     2       140         2       132        8.81     271      -61.2
   03/26/2017 22:40      53.1      52.8       79     46.8      0.00     18.10      65.5     0.42      1017.0     1       203         1       276        8.82     271      -60.6
   03/26/2017 22:30      53.5      53.2       78     46.8      0.00     18.10      65.5     0.42      1017.0     1       124         1       143        8.82     271      -61.7
   03/26/2017 22:20      53.5      53.2       79     47.1      0.00     18.10      65.5     0.42      1017.0     1       198         1       170        8.82     271      -61.6
   03/26/2017 22:10      53.7      53.0       79     47.0      0.00     18.10      65.5     0.42      1017.0     1       169         2       159        8.82     271      -62.1
   03/26/2017 22:00      54.4      53.8       77     47.2      0.00     18.10      66.0     0.42      1017.0     1       147         2       128        8.82     270      -62.0
   03/26/2017 21:50      54.4      54.2       77     47.3      0.00     18.10      65.7     0.42      1017.0     1       176         1       162        8.82     270      -62.3
   03/26/2017 21:40      55.3      54.6       74     46.9      0.00     18.10      65.7     0.42      1017.0     1       145         2       125        8.82     270      -62.1
   03/26/2017 21:30      55.5      55.1       74     47.0      0.00     18.10      66.1     0.42      1017.0     2       179         2       164        8.82     270      -62.4
   03/26/2017 21:20      55.7      55.5       73     46.9      0.00     18.10      65.8     0.42      1017.0     1       180         2       187        8.82     270      -62.1
   03/26/2017 21:10      56.8      55.7       71     46.9      0.00     18.10      65.7     0.42      1017.0     1       110         1       134        8.83     270      -62.8
   03/26/2017 21:00      57.4      56.6       69     47.0      0.00     18.10      66.0     0.42      1016.0     1       159         2       159        8.83     270      -63.2
   03/26/2017 20:50      58.1      57.4       67     46.9      0.00     18.10      65.3     0.42      1016.0     2       178         3       159        8.83     269      -64.6
   03/26/2017 20:40      58.3      58.0       66     46.9      0.00     18.10      65.9     0.42      1016.0     2       208         3       202        8.83     269      -66.0
   03/26/2017 20:30      58.5      58.3       66     47.0      0.00     18.10      65.6     0.42      1016.0     2       226         3       241        8.83     269      -66.8
   03/26/2017 20:20      59.0      58.5       64     46.8      0.00     18.10      65.6     0.42      1016.0     2       218         3       224        8.84     269      -67.4
   03/26/2017 20:10      59.5      59.2       63     46.8      0.00     18.10      65.8     0.42      1016.0     3       231         4       228        8.84     269      -68.6
   03/26/2017 20:00      59.8      59.3       64     47.3      0.00     18.10      65.8     0.42      1016.0     3       235         5       255        8.84     269      -68.8
   03/26/2017 19:50      60.4      59.8       64     47.8      0.00     18.10      65.6     0.42      1016.0     2       247         4       231        8.84     269      -69.2
   03/26/2017 19:40      60.5      60.3       63     47.8      0.00     18.10      65.3     0.42      1016.0     2       254         3       246        8.84     269      -68.0
   03/26/2017 19:30      60.7      60.4       63     47.7      0.00     18.10      65.6     0.42      1016.0     3       236         4       230        8.85     269      -66.8
   03/26/2017 19:20      61.0      60.8       61     47.4      0.00     18.10      65.4     0.42      1016.0     4       233         5       270        8.85     269      -64.4
   03/26/2017 19:10      61.5      60.9       61     47.4      0.00     18.10      65.1     0.41      1016.0     3       221         5       214        8.85     268      -63.6
   03/26/2017 19:00      62.0      61.5       60     47.6      0.00     18.10      65.5     0.41      1016.0     4       233         6       209        8.85     268      -57.2
   03/26/2017 18:50      62.4      61.9       60     48.0      0.00     18.10      65.1     0.41      1016.0     5       240         7       228        8.86     268      -45.8
   03/26/2017 18:40      63.3      62.5       58     48.0      0.00     18.10      65.3     0.41      1016.0     5       242         7       254        8.86     268      -25.7
   03/26/2017 18:30      63.6      63.3       58     48.3      0.00     18.10      65.3     0.41      1016.0     5       237         7       262        8.86     268        7.2
   03/26/2017 18:20      63.6      63.2       58     48.3      0.00     18.10      65.0     0.41      1016.0     3       212         5       247        8.86     269       34.3
   03/26/2017 18:10      63.3      63.0       58     48.1      0.00     18.10      65.3     0.41      1016.0     3       174         6       138        8.86     268       19.6
   03/26/2017 18:00      64.3      63.4       57     48.3      0.00     18.10      65.4     0.41      1016.0     5       170         7       159        8.87     268       13.8
   03/26/2017 17:50      65.0      64.4       56     48.5      0.00     18.10      65.1     0.41      1016.0     5       155         7       172        8.87     268       13.6
   03/26/2017 17:40      65.2      64.6       56     48.7      0.00     18.10      65.1     0.41      1016.0     4       160         6       144        8.87     268       18.9
   03/26/2017 17:30      67.4      65.4       54     49.0      0.00     18.10      65.2     0.41      1016.0     4       169         6       158        8.87     268       49.0
   03/26/2017 17:20      68.2      67.7       50     48.4      0.00     18.10      65.1     0.41      1016.0     3       222         5       214        8.87     268      201.6
   03/26/2017 17:10      68.1      67.3       50     48.1      0.00     18.10      64.6     0.41      1016.0     4       256         7       227        8.87     268      288.4
   03/26/2017 17:00      68.7      67.6       49     48.2      0.00     18.10      64.5     0.41      1016.0     4       258         6       256        8.87     269      332.5
   03/26/2017 16:50      68.4      66.2       50     48.1      0.00     18.10      64.5     0.41      1016.0     3       296         5       263        8.88     269      271.8
   03/26/2017 16:40      67.2      66.3       53     48.8      0.00     18.10      64.8     0.41      1016.0     3       212         6       205        8.88     268      150.8
   03/26/2017 16:30      66.8      65.5       52     47.9      0.00     18.10      65.0     0.41      1016.0     3       267         5       240        8.88     269      122.0
   03/26/2017 16:20      66.9      66.1       53     48.9      0.00     18.10      64.6     0.41      1016.0     6       258        10       262        8.88     269      265.4
   03/26/2017 16:10      67.1      65.8       54     49.1      0.00     18.10      64.3     0.41      1016.0     4       250         8       249        8.88     269      188.9
   03/26/2017 16:00      66.1      65.7       53     48.2      0.00     18.10      64.6     0.41      1016.0     5       239         8       242        8.89     268      225.9
   03/26/2017 15:50      67.4      66.3       51     48.2      0.00     18.10      64.3     0.41      1016.0     5       257         9       207        8.89     268      362.7
   03/26/2017 15:40      66.8      65.4       53     48.7      0.00     18.10      64.5     0.41      1016.0     5       230         8       227        8.89     269      376.3
   03/26/2017 15:30      66.4      65.8       54     49.1      0.00     18.10      64.3     0.41      1016.0     5       230         8       242        8.89     267      355.8
   03/26/2017 15:20      66.5      65.6       55     49.5      0.00     18.10      64.6     0.41      1016.0     6       248        10       255        8.89     269      406.1
   03/26/2017 15:10      67.0      66.2       54     49.3      0.00     18.10      64.2     0.41      1017.0     5       262         8       286        8.90     269      543.9
   03/26/2017 15:00      65.9      65.1       56     49.4      0.00     18.10      64.0     0.41      1017.0     6       240         7       256        8.90     270      362.6
   03/26/2017 14:50      66.2      64.8       57     49.8      0.00     18.10      64.6     0.41      1017.0     5       242         7       239        8.90     268      259.5
   03/26/2017 14:40      65.5      64.8       58     50.0      0.00     18.10      64.0     0.41      1017.0     5       232         7       220        8.90     269      356.2
   03/26/2017 14:30      65.2      64.3       59     50.0      0.00     18.10      63.8     0.41      1017.0     6       220         9       239        8.90     269      342.8
   03/26/2017 14:20      64.9      64.6       58     49.8      0.00     18.10      64.0     0.41      1017.0     6       221         7       220        8.90     269      319.7
   03/26/2017 14:10      66.3      64.9       55     49.1      0.00     18.10      64.1     0.41      1017.0     5       213         8       249        8.90     269      201.8
   03/26/2017 14:00      66.6      65.8       53     48.8      0.00     18.10      64.0     0.41      1017.0     4       214         6       239        8.90     269      218.7
   03/26/2017 13:50      66.6      65.4       54     49.3      0.00     18.10      64.0     0.41      1017.0     5       147         8       143        8.90     270      587.1
   03/26/2017 13:40      65.4      64.4       57     49.2      0.00     18.10      63.9     0.41      1017.0     4       148         5        99        8.90     271      283.2
   03/26/2017 13:30      64.9      64.3       57     49.3      0.00     18.10      63.8     0.41      1017.0     3       155         5       129        8.90     269      161.6
   03/26/2017 13:20      64.7      64.3       57     48.9      0.00     18.10      63.9     0.41      1017.0     3       135         4       126        8.90     269      167.1
   03/26/2017 13:10      66.3      64.4       57     49.6      0.00     18.10      63.6     0.41      1017.0     4       152         5       177        8.90     269      107.4
   03/26/2017 13:00      66.5      64.9       54     48.6      0.00     18.10      63.5     0.41      1017.0     3       141         5       129        8.90     269      359.9
   03/26/2017 12:50      66.1      64.7       55     48.9      0.00     18.10      63.8     0.41      1017.0     4       161         7       138        8.90     270      568.1
   03/26/2017 12:40      66.1      64.3       54     48.0      0.00     18.10      63.8     0.41      1017.0     4       127         6        69        8.90     270      203.4
   03/26/2017 12:30      67.1      65.0       53     48.4      0.00     18.10      63.8     0.41      1017.0     3        62         5         4        8.90     270      158.9
   03/26/2017 12:20      68.1      66.9       50     48.1      0.00     18.10      63.8     0.41      1017.0     4        55         5        80        8.90     269      573.3
   03/26/2017 12:10      66.5      64.5       54     48.1      0.00     18.10      63.9     0.41      1017.0     3       205         5       184        8.90     270      593.3
   03/26/2017 12:00      66.8      65.2       52     47.9      0.00     18.10      64.0     0.41      1018.0     3        99         7        93        8.90     271      612.9
   03/26/2017 11:50      66.4      64.8       51     47.1      0.00     18.10      63.6     0.41      1018.0     2       356         3         1        8.90     271      561.6
   03/26/2017 11:40      64.9      64.2       52     46.3      0.00     18.10      63.4     0.41      1018.0     2       359         3        10        8.90     271      467.4
   03/26/2017 11:30      65.1      64.7       51     46.2      0.00     18.10      63.9     0.41      1018.0     3        20         5        76        8.90     271      496.4
   03/26/2017 11:20      65.0      63.6       53     46.6      0.00     18.10      63.7     0.41      1018.0     4        28         7        81        8.90     272      487.9
   03/26/2017 11:10      63.9      62.8       55     46.7      0.00     18.10      63.6     0.41      1018.0     4        26         6       355        8.90     272      474.7
   03/26/2017 11:00      63.6      62.0       56     46.8      0.00     18.10      63.7     0.41      1018.0     2         3         5       355        8.90     272      459.3
   03/26/2017 10:50      62.4      61.4       57     46.3      0.00     18.10      63.5     0.41      1018.0     3        39         5        75        8.90     271      443.0
   03/26/2017 10:40      61.8      60.5       61     47.5      0.00     18.10      63.7     0.41      1018.0     2        30         4         1        8.90     271      428.5
   03/26/2017 10:30      60.8      59.0       64     48.1      0.00     18.10      63.8     0.41      1018.0     2       346         3       355        8.90     272      413.2
   03/26/2017 10:20      59.1      57.9       69     48.3      0.00     18.10      63.5     0.41      1018.0     3       333         5       345        8.90     273      395.2
   03/26/2017 10:10      58.4      57.6       70     48.3      0.00     18.10      64.2     0.41      1018.0     2       346         5       356        8.90     273      379.2
   03/26/2017 10:00      57.8      56.7       73     48.6      0.00     18.10      63.5     0.41      1018.0     2       327         3       313        8.90     273      354.6
   03/26/2017 09:50      56.4      55.4       76     48.5      0.00     18.10      64.0     0.41      1018.0     2       306         3        12        8.90     273      336.8
   03/26/2017 09:40      55.5      53.6       81     48.6      0.00     18.10      64.1     0.41      1018.0     2       320         3       343        8.90     274      314.1
   03/26/2017 09:30      53.7      53.1       84     48.8      0.00     18.10      63.7     0.41      1018.0     2       337         3       300        8.90     274      185.3
   03/26/2017 09:20      53.0      52.4       88     49.1      0.00     18.10      64.1     0.41      1018.0     1       278         4       207        8.90     274      165.3
   03/26/2017 09:10      52.5      51.8       91     49.6      0.00     18.10      64.1     0.41      1018.0     1       300         3       322        8.90     274      156.3
   03/26/2017 09:00      51.8      51.1       93     49.3      0.00     18.10      63.5     0.41      1018.0     1       144         2       107        8.90     275      135.9
   03/26/2017 08:50      51.3      50.5       94     49.3      0.00     18.10      64.0     0.41      1018.0     1       121         2        79        8.91     275      154.5
   03/26/2017 08:40      50.8      50.5       95     49.1      0.00     18.10      64.1     0.41      1017.0     1       160         2       178        8.90     276       99.4
   03/26/2017 08:30      50.7      50.2       95     48.9      0.00     18.10      63.8     0.41      1017.0     1        77         2        36        8.91     276       78.8
   03/26/2017 08:20      50.3      49.9       95     48.6      0.00     18.10      63.8     0.41      1017.0     1       347         2        27        8.91     277       72.9
   03/26/2017 08:10      49.9      49.5       95     48.3      0.00     18.10      64.2     0.41      1017.0     1        31         2       117        8.91     277       54.0
   03/26/2017 08:00      50.0      49.7       95     48.4      0.00     18.10      63.9     0.41      1017.0     2       112         4       128        8.91     278       39.1
   03/26/2017 07:50      50.0      49.7       95     48.4      0.00     18.10      64.4     0.41      1017.0     1       110         2       143        8.91     278       31.6
   03/26/2017 07:40      50.0      49.7       94     48.3      0.00     18.10      63.8     0.41      1017.0     2        53         4        75        8.91     278       23.2
   03/26/2017 07:30      50.1      49.7       94     48.2      0.00     18.10      64.5     0.41      1017.0     1       130         2       158        8.91     279       17.5
   03/26/2017 07:20      50.0      49.5       94     48.1      0.00     18.10      64.0     0.41      1017.0     1       142         1       138        8.91     280       12.0
   03/26/2017 07:10      49.7      49.3       94     47.7      0.00     18.10      64.2     0.41      1017.0     1       161         2       190        8.91     281        5.7
   03/26/2017 07:00      49.5      48.8       93     47.1      0.00     18.10      64.2     0.41      1017.0     2       188         2       195        8.91     281        1.7
   03/26/2017 06:50      48.9      48.0       92     46.3      0.00     18.10      64.4     0.41      1017.0     2       163         2       150        8.91     281       -1.3
   03/26/2017 06:40      48.0      47.0       93     45.6      0.00     18.10      64.4     0.42      1017.0     2       158         2       153        8.91     282       -2.3
   03/26/2017 06:30      47.0      46.6       93     44.8      0.00     18.10      64.2     0.41      1017.0     1       154         2       141        8.91     283       -2.5
   03/26/2017 06:20      46.7      46.1       93     44.5      0.00     18.10      64.2     0.42      1017.0     1       107         1       116        8.91     283       -4.9
   03/26/2017 06:10      46.2      45.9       93     44.0      0.00     18.10      64.9     0.42      1016.0     2       146         3       156        8.91     283      -10.3
   03/26/2017 06:00      46.0      45.7       93     43.9      0.00     18.10      64.7     0.42      1016.0     2       158         2       140        8.91     284      -10.4
   03/26/2017 05:50      45.9      45.2       93     43.7      0.00     18.10      64.3     0.42      1016.0     1       207         1       246        8.91     285      -10.2
   03/26/2017 05:40      45.5      45.1       93     43.4      0.00     18.10      64.5     0.42      1016.0     1       104         1       122        8.91     284      -11.1
   03/26/2017 05:30      45.9      45.5       93     43.7      0.00     18.10      64.4     0.42      1016.0     1       159         1       121        8.91     284      -15.8
   03/26/2017 05:20      45.6      45.5       93     43.6      0.00     18.10      64.8     0.42      1016.0     1       213         1       159        8.91     283      -17.1
   03/26/2017 05:10      46.0      45.6       93     43.7      0.00     18.10      64.6     0.42      1016.0     1       142         2       156        8.91     282      -17.4
   03/26/2017 05:00      46.0      45.4       92     43.4      0.00     18.10      64.7     0.42      1016.0     1       136         1       123        8.91     283      -17.9
   03/26/2017 04:50      46.0      45.8       92     43.8      0.00     18.10      64.7     0.42      1016.0     1       161         1       200        8.91     282      -17.5
   03/26/2017 04:40      46.1      45.9       92     43.8      0.00     18.10      64.9     0.42      1016.0     1       229         2       245        8.91     281      -18.0
   03/26/2017 04:30      46.1      46.0       92     43.9      0.00     18.10      64.8     0.42      1016.0     1       125         1       143        8.91     281      -18.9
   03/26/2017 04:20      46.6      46.1       92     44.2      0.00     18.10      65.0     0.42      1016.0     1       125         1       126        8.91     280      -19.3
   03/26/2017 04:10      46.8      46.5       92     44.4      0.00     18.10      64.8     0.42      1016.0     1       158         1       139        8.91     279      -19.8
   03/26/2017 04:00      46.9      46.5       92     44.4      0.00     18.10      64.8     0.42      1016.0     1       157         1       121        8.91     279      -20.8
   03/26/2017 03:50      46.8      46.4       91     44.2      0.00     18.10      65.2     0.42      1016.0     1       146         2       128        8.91     278      -21.8
   03/26/2017 03:40      47.2      46.8       91     44.6      0.00     18.10      65.1     0.42      1016.0     1       141         2       131        8.92     277      -21.9
   03/26/2017 03:30      47.0      46.7       91     44.4      0.00     18.10      64.7     0.42      1016.0     1       161         1       143        8.92     277      -23.3
   03/26/2017 03:20      47.3      46.9       91     44.6      0.00     18.10      64.8     0.42      1016.0     1       172         2       215        8.92     277      -24.4
   03/26/2017 03:10      47.4      47.1       91     44.7      0.00     18.10      64.8     0.42      1016.0     1       204         1       209        8.92     276      -24.6
   03/26/2017 03:00      47.6      47.3       91     44.8      0.00     18.10      65.0     0.42      1016.0     1       120         1       183        8.92     276      -26.9
   03/26/2017 02:50      47.9      47.6       90     45.1      0.00     18.10      64.8     0.42      1016.0     1       117         1       124        8.92     276      -28.2
   03/26/2017 02:40      48.4      47.9       90     45.3      0.00     18.10      65.0     0.42      1016.0     1       138         1       139        8.92     275      -29.9
   03/26/2017 02:30      48.8      48.4       90     45.6      0.00     18.10      65.1     0.42      1016.0     1       149         2       144        8.92     275      -31.5
   03/26/2017 02:20      48.7      48.1       90     45.5      0.00     18.10      65.1     0.42      1016.0     1       163         2       162        8.92     274      -34.4
   03/26/2017 02:10      48.4      48.3       89     45.2      0.00     18.10      65.0     0.42      1016.0     1       166         2       166        8.92     274      -38.5
   03/26/2017 02:00      49.0      48.4       88     45.4      0.00     18.10      65.2     0.42      1016.0     1       149         2       143        8.92     274      -39.3
   03/26/2017 01:50      48.9      48.6       89     45.5      0.00     18.10      65.1     0.42      1017.0     0       342         1       253        8.92     273      -42.6
   03/26/2017 01:40      49.0      48.8       87     45.2      0.00     18.10      65.2     0.42      1017.0     1       120         1       147        8.92     273      -47.5
   03/26/2017 01:30      49.3      49.0       87     45.3      0.00     18.10      65.3     0.42      1017.0     1       164         1       150        8.92     273      -50.5
   03/26/2017 01:20      49.3      49.1       86     45.4      0.00     18.10      65.3     0.42      1017.0     1       183         1       145        8.92     273      -54.1
   03/26/2017 01:10      49.3      49.3       86     45.2      0.00     18.10      65.6     0.42      1017.0     1       155         2       138        8.92     272      -57.6
   03/26/2017 01:00      49.8      49.3       84     44.9      0.00     18.10      65.4     0.42      1017.0     1       143         2       127        8.92     272      -60.7
   03/26/2017 00:50      50.6      49.7       82     44.7      0.00     18.10      65.5     0.42      1017.0     1       136         2       126        8.93     272      -62.4
   03/26/2017 00:40      50.8      50.2       81     45.2      0.00     18.10      65.4     0.42      1017.0     1       187         2       168        8.93     272      -61.8
   03/26/2017 00:30      50.2      49.7       82     44.8      0.00     18.10      65.8     0.42      1017.0     1       150         2       120        8.93     272      -62.7
   03/26/2017 00:20      50.6      50.0       80     44.5      0.00     18.10      65.7     0.42      1017.0     1       158         3       120        8.93     272      -62.1
   03/26/2017 00:10      50.6      50.5       81     44.8      0.00     18.10      65.7     0.42      1017.0     1       157         1       148        8.93     272      -62.4
   03/26/2017 00:00      50.9      50.8       79     44.7      0.00     18.10      65.5     0.42      1017.0     1       161         1       104        8.93     272      -62.5
   03/25/2017 23:50      50.9      50.5       81     45.0      0.00     18.10      65.7     0.42      1017.0     1       154         1       122        8.93     272      -62.4
   03/25/2017 23:40      51.5      50.6       79     44.7      0.00     18.10      65.6     0.42      1017.0     1       101         1        70        8.93     271      -63.6
   03/25/2017 23:30      51.8      51.6       77     44.9      0.00     18.10      65.5     0.42      1017.0     1       128         1       127        8.93     271      -63.8
   03/25/2017 23:20      51.8      51.1       78     44.8      0.00     18.10      65.6     0.42      1017.0     1       173         2       201        8.93     271      -63.6
   03/25/2017 23:10      52.3      51.2       77     44.6      0.00     18.10      65.4     0.42      1017.0     1       125         2       113        8.93     271      -65.4
   03/25/2017 23:00      52.7      52.6       75     44.9      0.00     18.10      65.9     0.42      1017.0     1       187         2       208        8.93     271      -65.2
   03/25/2017 22:50      52.8      52.5       75     45.0      0.00     18.10      65.6     0.42      1017.0     1       320         2       291        8.94     271      -65.7
   03/25/2017 22:40      54.0      52.6       73     44.8      0.00     18.10      65.4     0.42      1017.0     1       119         1       127        8.94     271      -66.3
   03/25/2017 22:30      54.6      54.0       71     45.0      0.00     18.10      65.6     0.42      1017.0     1       188         2       187        8.94     271      -66.5
   03/25/2017 22:20      54.9      54.5       69     44.7      0.00     18.10      65.6     0.42      1017.0     2       200         4       208        8.94     270      -66.8
   03/25/2017 22:10      55.2      54.9       68     44.7      0.00     18.10      65.7     0.42      1017.0     2       203         3       192        8.94     270      -67.3
   03/25/2017 22:00      55.4      54.9       69     45.1      0.00     18.10      65.8     0.42      1017.0     3       210         4       217        8.94     270      -67.2
   03/25/2017 21:50      55.0      54.0       73     46.0      0.00     18.10      65.6     0.42      1017.0     3       176         4       166        8.94     270      -67.8
   03/25/2017 21:40      54.1      53.6       76     46.4      0.00     18.10      65.3     0.42      1017.0     3       165         3       161        8.94     270      -67.7
   03/25/2017 21:30      55.2      54.2       73     46.4      0.00     18.10      65.6     0.42      1017.0     2       148         2       154        8.94     270      -68.1
   03/25/2017 21:20      56.1      55.5       70     46.3      0.00     18.10      65.4     0.42      1017.0     1       171         2       158        8.94     270      -68.8
   03/25/2017 21:10      56.6      56.0       69     46.4      0.00     18.10      65.6     0.42      1017.0     2       183         3       206        8.94     270      -69.2
   03/25/2017 21:00      56.9      56.7       69     46.6      0.00     18.10      65.6     0.42      1017.0     3       212         4       237        8.94     269      -70.3
   03/25/2017 20:50      57.1      56.9       69     47.0      0.00     18.10      65.3     0.42      1017.0     2       226         4       243        8.94     269      -71.6
   03/25/2017 20:40      57.4      57.2       69     47.3      0.00     18.10      65.7     0.42      1017.0     3       210         4       237        8.94     269      -72.4
   03/25/2017 20:30      57.7      57.4       69     47.5      0.00     18.10      65.8     0.42      1017.0     3       214         4       204        8.95     269      -72.6
   03/25/2017 20:20      58.1      57.5       69     47.6      0.00     18.10      65.7     0.42      1017.0     3       216         4       203        8.95     269      -73.3
   03/25/2017 20:10      58.4      58.0       67     47.3      0.00     18.10      65.4     0.42      1017.0     3       232         6       221        8.95     269      -74.4
   03/25/2017 20:00      58.7      58.4       66     47.0      0.00     18.10      65.4     0.42      1017.0     3       223         5       221        8.95     269      -75.2
   03/25/2017 19:50      58.9      58.9       65     47.0      0.00     18.10      65.4     0.42      1016.0     4       235         5       235        8.95     269      -75.8
   03/25/2017 19:40      59.4      58.8       66     47.6      0.00     18.10      65.1     0.42      1016.0     3       221         4       228        8.95     269      -77.1
   03/25/2017 19:30      59.6      59.4       64     47.4      0.00     18.10      65.5     0.42      1016.0     5       233         7       267        8.96     269      -77.2
   03/25/2017 19:20      60.0      59.5       64     47.4      0.00     18.10      65.0     0.42      1016.0     4       233         5       231        8.96     269      -76.8
   03/25/2017 19:10      60.5      60.0       62     47.3      0.00     18.10      65.3     0.42      1016.0     4       236         7       225        8.96     268      -72.9
   03/25/2017 19:00      60.7      60.5       61     47.0      0.00     18.10      65.3     0.42      1016.0     4       243         6       243        8.96     268      -66.9
   03/25/2017 18:50      61.3      60.8       60     46.9      0.00     18.10      65.2     0.42      1016.0     5       238         7       231        8.96     268      -66.1
   03/25/2017 18:40      62.3      61.3       58     46.8      0.00     18.10      65.2     0.42      1016.0     5       229         6       237        8.97     268      -50.4
   03/25/2017 18:30      63.3      62.5       55     46.7      0.00     18.10      65.5     0.42      1016.0     5       254         8       251        8.97     268      -44.6
   03/25/2017 18:20      64.3      63.4       54     46.7      0.00     18.10      65.1     0.42      1016.0     5       280         7       311        8.97     268      -10.7
   03/25/2017 18:10      64.3      63.7       54     47.1      0.00     18.10      65.3     0.42      1016.0     4       258         6       305        8.98     268       20.2
   03/25/2017 18:00      64.7      64.0       54     47.3      0.00     18.10      65.1     0.42      1016.0     6       259         8       267        8.98     268       47.2
   03/25/2017 17:50      64.9      64.5       53     47.3      0.00     18.10      65.0     0.42      1016.0     5       266         9       273        8.98     268       77.9
   03/25/2017 17:40      65.1      64.6       52     46.8      0.00     18.10      64.9     0.42      1016.0     5       251         8       247        8.99     267      104.2
   03/25/2017 17:30      65.5      64.8       52     47.3      0.00     18.10      64.8     0.42      1016.0     5       241         8       269        8.99     267      134.1
   03/25/2017 17:20      65.8      65.2       53     47.7      0.00     18.10      64.9     0.42      1016.0     7       258        10       259        8.99     267      201.8
   03/25/2017 17:10      65.3      64.9       54     48.3      0.00     18.10      65.0     0.42      1016.0     6       215        10       255        8.99     268      217.1
   03/25/2017 17:00      65.7      65.2       55     48.6      0.00     18.10      64.7     0.42      1016.0     7       216         9       199        9.00     267      240.5
   03/25/2017 16:50      66.1      65.4       55     49.3      0.00     18.10      65.0     0.42      1016.0     7       225         9       212        9.00     268      279.9
   03/25/2017 16:40      66.9      66.4       54     49.4      0.00     18.10      64.9     0.42      1016.0     7       230         9       222        9.00     268      361.1
   03/25/2017 16:30      67.7      66.3       52     48.7      0.00     18.10      64.6     0.41      1016.0     6       240        10       239        9.00     268      316.8
   03/25/2017 16:20      67.3      66.6       53     49.3      0.00     18.10      64.9     0.41      1016.0     6       230         9       236        9.01     269      345.8
   03/25/2017 16:10      67.8      66.8       52     49.1      0.00     18.10      64.8     0.41      1016.0     5       230         9       202        9.01     269      350.9
   03/25/2017 16:00      67.4      66.8       52     48.9      0.00     18.10      64.6     0.41      1016.0     5       213         8       204        9.01     269      393.9
   03/25/2017 15:50      67.1      66.6       53     49.0      0.00     18.10      64.7     0.41      1016.0     6       232         9       240        9.01     269      480.8
   03/25/2017 15:40      67.7      67.2       52     49.2      0.00     18.10      64.4     0.41      1016.0     8       219        12       205        9.01     268      506.6
   03/25/2017 15:30      68.2      66.8       53     49.8      0.00     18.10      64.4     0.41      1016.0     6       182         8       177        9.01     269      575.8
   03/25/2017 15:20      67.9      66.3       51     48.4      0.00     18.10      64.1     0.41      1016.0     6       224         8       216        9.02     269      348.8
   03/25/2017 15:10      67.7      66.3       50     47.6      0.00     18.10      64.3     0.41      1016.0     7       228        10       262        9.02     270      407.2
   03/25/2017 15:00      67.8      66.8       51     48.8      0.00     18.10      64.3     0.41      1016.0     4       198         6       235        9.02     269      390.6
   03/25/2017 14:50      67.6      67.0       51     48.7      0.00     18.10      63.9     0.41      1016.0     6       226         9       242        9.02     269      451.4
   03/25/2017 14:40      68.4      68.1       50     48.8      0.00     18.10      64.1     0.41      1017.0     5       226         7       248        9.02     269      469.2
   03/25/2017 14:30      68.0      65.9       52     48.6      0.00     18.10      64.2     0.41      1017.0     5       245        11       249        9.02     271      477.4
   03/25/2017 14:20      66.7      66.2       53     48.7      0.00     18.10      64.3     0.42      1017.0     4       276         9       276        9.02     271      283.7
   03/25/2017 14:10      66.2      65.2       55     49.1      0.00     18.10      64.0     0.42      1017.0     3        49         5       355        9.02     270      227.7
   03/25/2017 14:00      65.8      65.4       54     48.9      0.00     18.10      64.3     0.42      1017.0     4       124         8       143        9.02     271      150.8
   03/25/2017 13:50      65.9      65.7       52     47.8      0.00     18.10      64.3     0.42      1017.0     3       319         5       345        9.02     271       80.6
   03/25/2017 13:40      66.3      65.8       52     47.9      0.00     18.10      64.4     0.42      1017.0     3       306         5       248        9.02     270      129.9
   03/25/2017 13:30      66.9      66.2       50     47.4      0.00     18.10      63.8     0.41      1017.0     4       265         6       249        9.02     271      170.6
   03/25/2017 13:20      67.4      65.8       50     47.4      0.00     18.10      64.0     0.41      1017.0     2       297         4       341        9.02     270      354.2
   03/25/2017 13:10      66.4      65.2       53     48.0      0.00     18.10      64.3     0.41      1018.0     1       206         2       188        9.02     271      217.2
   03/25/2017 13:00      66.1      65.1       53     48.0      0.00     18.10      63.9     0.41      1018.0     3       303         6       319        9.02     271      153.4
   03/25/2017 12:50      66.9      65.3       53     48.7      0.00     18.10      64.2     0.41      1018.0     3       168         6       208        9.02     271      324.4
   03/25/2017 12:40      67.2      65.8       53     49.0      0.00     18.10      64.3     0.41      1018.0     3       176         5       185        9.02     270      471.8
   03/25/2017 12:30      66.3      65.3       54     48.6      0.00     18.10      64.3     0.41      1018.0     2        53         4        78        9.02     271      399.8
   03/25/2017 12:20      65.6      63.3       57     48.5      0.00     18.10      64.0     0.41      1018.0     3        75         4       116        9.02     271      600.5
   03/25/2017 12:10      63.5      63.3       59     48.7      0.00     18.10      64.2     0.42      1018.0     3        89         5        89        9.02     271      116.9
   03/25/2017 12:00      63.3      62.8       59     48.3      0.00     18.10      64.4     0.42      1019.0     2        81         3         7        9.02     271      118.2
   03/25/2017 11:50      62.5      62.2       60     48.2      0.00     18.10      64.5     0.41      1019.0     2       152         4       188        9.02     271      147.5
   03/25/2017 11:40      62.6      62.3       59     47.9      0.00     18.10      64.5     0.41      1019.0     3       192         4       160        9.02     271      184.8
   03/25/2017 11:30      63.9      62.8       58     48.1      0.00     18.10      64.0     0.41      1019.0     4       198         7       189        9.02     271      373.4
   03/25/2017 11:20      63.1      62.0       58     47.5      0.00     18.10      64.1     0.41      1019.0     2       263         3       255        9.02     271      219.8
   03/25/2017 11:10      62.5      61.9       58     47.3      0.00     18.10      64.3     0.41      1019.0     3       276         5       306        9.02     272      263.5
   03/25/2017 11:00      62.4      61.9       59     47.5      0.00     18.10      64.0     0.41      1019.0     3       267         5       228        9.02     272      302.2
   03/25/2017 10:50      62.6      61.6       59     47.7      0.00     18.10      64.4     0.41      1019.0     3       226         4       288        9.02     271      398.7
   03/25/2017 10:40      62.0      61.7       60     47.8      0.00     18.10      64.4     0.41      1019.0     3       187         6       209        9.02     271      390.4
   03/25/2017 10:30      62.2      60.1       62     48.2      0.00     18.10      64.5     0.41      1019.0     2        24         3       350        9.02     273      428.1
   03/25/2017 10:20      60.1      59.5       64     47.6      0.00     18.10      64.2     0.42      1019.0     2       176         3       179        9.02     273      235.6
   03/25/2017 10:10      61.3      59.8       63     48.1      0.00     18.10      64.6     0.42      1019.0     2       108         3       167        9.02     273      227.9
   03/25/2017 10:00      60.9      59.8       65     48.4      0.00     18.10      64.3     0.42      1019.0     2        58         3        58        9.02     273      400.2
   03/25/2017 09:50      60.5      59.7       65     48.5      0.00     18.10      64.7     0.42      1019.0     3        25         4        10        9.02     274      384.3
   03/25/2017 09:40      59.8      58.1       68     48.4      0.00     18.10      64.6     0.42      1019.0     2         2         3        37        9.02     276      374.3
   03/25/2017 09:30      58.7      58.3       68     48.0      0.00     18.10      64.5     0.42      1020.0     2         2         3       357        9.02     280      362.2
   03/25/2017 09:20      58.9      57.2       69     48.1      0.00     18.10      64.6     0.42      1020.0     2        49         3        73        9.02     283      318.6
   03/25/2017 09:10      57.5      55.6       72     47.5      0.00     18.10      64.7     0.42      1020.0     2        13         3        41        9.02     287      313.6
   03/25/2017 09:00      55.5      54.6       74     46.9      0.00     18.10      64.8     0.42      1020.0     1       305         2       351        9.02     291      194.1
   03/25/2017 08:50      54.7      54.5       75     46.9      0.00     18.10      64.7     0.42      1020.0     2       348         4       352        9.02     294      257.6
   03/25/2017 08:40      54.7      54.3       75     46.8      0.00     18.10      64.8     0.42      1020.0     3         1         4       326        9.02     298      235.6
   03/25/2017 08:30      55.1      54.2       76     47.2      0.00     18.10      64.5     0.42      1020.0     1       308         3       327        9.03     301      204.6
   03/25/2017 08:20      54.2      53.1       80     47.6      0.00     18.10      65.1     0.42      1020.0     1       291         2       307        9.03     302      182.7
   03/25/2017 08:10      53.0      51.7       85     47.9      0.00     18.10      64.6     0.42      1020.0     1       295         2       296        9.03     303      154.3
   03/25/2017 08:00      51.7      50.0       89     47.6      0.00     18.10      65.1     0.42      1020.0     1       218         2       181        9.03     304      115.6
   03/25/2017 07:50      50.0      49.3       91     47.2      0.00     18.10      65.3     0.42      1019.0     1       175         2       164        9.03     305       80.2
   03/25/2017 07:40      49.3      47.8       93     46.6      0.00     18.10      64.7     0.42      1019.0     1       328         1       236        9.03     305       46.2
   03/25/2017 07:30      47.6      46.8       93     45.1      0.00     18.10      64.9     0.42      1019.0     1       132         1       125        9.03     305       23.3
   03/25/2017 07:20      46.8      46.6       93     44.8      0.00     18.10      64.7     0.42      1019.0     1       119         2       125        9.03     304        8.4
   03/25/2017 07:10      47.4      46.6       93     44.9      0.00     18.10      64.6     0.42      1019.0     1       146         2       129        9.03     303       -1.3
   03/25/2017 07:00      47.7      47.3       94     45.7      0.00     18.10      65.4     0.42      1020.0     2       219         3       231        9.03     302       -5.9
   03/25/2017 06:50      47.9      47.1       93     45.6      0.00     18.10      65.3     0.42      1020.0     1       222         2       230        9.03     301      -10.4
   03/25/2017 06:40      48.0      47.3       94     46.1      0.00     18.10      64.8     0.42      1019.0     2       232         3       244        9.03     300      -12.2
   03/25/2017 06:30      47.2      46.5       94     45.1      0.00     18.10      64.9     0.42      1019.0     1       194         2       234        9.03     299      -13.5
   03/25/2017 06:20      47.0      46.4       94     44.9      0.00     18.10      65.3     0.42      1019.0     1       246         2       232        9.03     298      -13.8
   03/25/2017 06:10      47.0      46.0       94     44.8      0.00     18.10      65.1     0.42      1019.0     1       194         1       196        9.03     297      -14.7
   03/25/2017 06:00      46.7      46.2       93     44.6      0.00     18.10      65.0     0.42      1019.0     2       135         2       138        9.03     295      -15.5
   03/25/2017 05:50      46.5      46.2       93     44.5      0.00     18.10      65.0     0.42      1019.0     2       146         2       135        9.03     294      -16.1
   03/25/2017 05:40      47.5      46.6       93     45.0      0.00     18.10      65.2     0.42      1019.0     2       169         3       161        9.03     293      -15.8
   03/25/2017 05:30      47.8      47.5       93     45.8      0.00     18.10      64.9     0.42      1019.0     1       192         2       162        9.03     292      -15.6
   03/25/2017 05:20      48.0      47.8       93     45.9      0.00     18.10      65.4     0.42      1019.0     1       186         1       207        9.03     291      -16.7
   03/25/2017 05:10      48.0      47.7       92     45.7      0.00     18.10      65.1     0.42      1019.0     2       153         2       133        9.03     290      -18.3
   03/25/2017 05:00      48.4      47.8       92     45.8      0.00     18.10      65.4     0.42      1019.0     1       142         2       142        9.03     289      -19.7
   03/25/2017 04:50      49.2      48.2       90     45.9      0.00     18.10      65.5     0.42      1019.0     2       147         2       135        9.03     287      -20.0
   03/25/2017 04:40      49.7      49.2       90     46.5      0.00     18.10      65.4     0.42      1019.0     1       206         1       184        9.03     286      -20.6
   03/25/2017 04:30      50.5      49.8       89     47.0      0.00     18.10      64.9     0.42      1019.0     2        66         3       247        9.03     285      -21.2
   03/25/2017 04:20      50.7      50.5       89     47.6      0.00     18.10      65.6     0.42      1019.0     2       252         3       245        9.03     284      -21.9
   03/25/2017 04:10      50.8      50.5       89     47.7      0.00     18.10      65.2     0.42      1020.0     1       261         2       256        9.03     283      -23.0
   03/25/2017 04:00      50.7      50.0       90     47.3      0.00     18.10      65.5     0.42      1020.0     2       255         3       259        9.03     282      -23.6
   03/25/2017 03:50      50.5      50.1       89     47.1      0.00     18.10      65.4     0.42      1020.0     1       198         1       175        9.03     281      -25.2
   03/25/2017 03:40      51.1      50.6       88     47.4      0.00     18.10      65.5     0.42      1020.0     1       236         1       223        9.03     280      -26.3
   03/25/2017 03:30      51.5      51.2       87     47.7      0.00     18.10      65.5     0.42      1019.0     1       231         1       237        9.03     279      -27.2
   03/25/2017 03:20      51.9      51.7       88     48.2      0.00     18.10      65.7     0.42      1020.0     1       213         2       228        9.03     278      -27.3
   03/25/2017 03:10      52.0      51.7       88     48.4      0.00     18.10      65.6     0.42      1020.0     2       211         3       199        9.03     278      -27.5
   03/25/2017 03:00      52.2      51.9       87     48.5      0.00     18.10      65.6     0.42      1020.0     3       195         4       224        9.03     277      -27.5
   03/25/2017 02:50      52.5      52.3       87     48.7      0.00     18.10      66.0     0.42      1020.0     3       174         3       163        9.03     277      -23.4
   03/25/2017 02:40      52.7      52.5       87     48.9      0.00     18.10      65.7     0.42      1020.0     2       160         3       159        9.03     277      -20.3
   03/25/2017 02:30      52.8      52.6       87     48.8      0.00     18.10      65.5     0.42      1020.0     2       195         3       238        9.03     277      -13.8
   03/25/2017 02:20      52.8      52.5       87     48.8      0.00     18.10      66.0     0.42      1020.0     2       216         3       237        9.03     278      -13.6
   03/25/2017 02:10      53.2      52.9       86     48.9      0.00     18.10      66.1     0.42      1020.0     1       106         2       184        9.03     279      -15.9
   03/25/2017 02:00      53.4      53.0       85     48.8      0.00     18.10      65.9     0.42      1020.0     2       299         4       307        9.03     281      -17.4
   03/25/2017 01:50      53.1      52.7       85     48.6      0.00     18.10      66.0     0.42      1020.0     2       298         4       282        9.03     284      -16.0
   03/25/2017 01:40      53.0      52.7       85     48.5      0.00     18.10      65.7     0.42      1020.0     2        66         4       113        9.03     287      -14.9
   03/25/2017 01:30      53.7      53.1       82     48.1      0.00     18.10      65.7     0.42      1021.0     2       104         3       106        9.03     282      -16.2
   03/25/2017 01:20      54.1      53.8       78     47.4      0.00     18.10      65.7     0.42      1021.0     1        61         2       100        9.03     277      -17.8
   03/25/2017 01:10      53.9      53.5       78     47.1      0.00     18.10      65.9     0.42      1022.0     2       288         5       243        9.03     272      -22.1
   03/25/2017 01:00      53.7      53.5       79     47.2      0.00     18.10      65.7     0.42      1022.0     3       255         5       301        9.03     271      -26.1
   03/25/2017 00:50      53.7      53.5       79     47.2      0.00     18.10      65.9     0.42      1022.0     3       239         4       248        9.03     271      -28.3
   03/25/2017 00:40      53.6      53.1       79     47.1      0.00     18.10      65.5     0.42      1021.0     3       234         5       243        9.03     271      -28.3
   03/25/2017 00:30      53.3      53.1       79     46.9      0.00     18.10      66.1     0.42      1021.0     1       229         2       244        9.03     271      -28.0
   03/25/2017 00:20      53.1      53.0       79     46.8      0.00     18.10      66.1     0.42      1021.0     1       191         2       197        9.03     271      -29.9
   03/25/2017 00:10      53.3      53.1       79     46.7      0.00     18.10      66.0     0.42      1021.0     1        99         1        71        9.03     271      -32.9
   03/25/2017 00:00      53.4      52.9       79     46.9      0.00     18.10      65.9     0.42      1021.0     1       174         2       184        9.03     271      -29.5
   03/24/2017 23:50      53.0      52.6       80     46.7      0.00     18.10      66.2     0.42      1021.0     1       210         2       206        9.03     270      -26.4
   03/24/2017 23:40      52.9      52.8       79     46.5      0.00     18.10      66.1     0.42      1021.0     1       203         2       236        9.03     270      -36.5
   03/24/2017 23:30      52.9      52.6       79     46.4      0.00     18.10      65.7     0.42      1021.0     2       200         4       199        9.03     270      -53.9
   03/24/2017 23:20      52.8      52.5       79     46.4      0.00     18.10      65.9     0.42      1021.0     2       198         3       197        9.03     270      -58.6
   03/24/2017 23:10      53.0      52.6       79     46.4      0.00     18.10      66.1     0.42      1021.0     2       190         4       210        9.03     270      -62.5
   03/24/2017 23:00      53.3      53.0       78     46.4      0.00     18.10      66.0     0.42      1021.0     3       237         4       224        9.03     270      -62.4
   03/24/2017 22:50      53.4      53.1       77     46.3      0.00     18.10      66.0     0.42      1021.0     2       242         3       222        9.03     270      -61.8
   03/24/2017 22:40      53.3      53.0       77     46.3      0.00     18.10      65.7     0.42      1021.0     2       219         4       188        9.03     270      -49.5
   03/24/2017 22:30      53.3      53.0       77     46.2      0.00     18.10      66.1     0.42      1022.0     3       207         4       203        9.04     270      -50.4
   03/24/2017 22:20      53.4      53.2       76     46.1      0.00     18.10      65.9     0.42      1021.0     2       215         4       180        9.04     270      -54.8
   03/24/2017 22:10      53.5      53.4       76     45.9      0.00     18.10      66.2     0.42      1022.0     3       227         6       238        9.04     269      -55.0
   03/24/2017 22:00      53.8      53.5       73     45.3      0.00     18.10      66.1     0.42      1022.0     3       224         4       259        9.04     269      -57.5
   03/24/2017 21:50      54.3      53.8       71     44.9      0.00     18.10      66.1     0.42      1022.0     4       230         6       238        9.04     269      -58.6
   03/24/2017 21:40      54.3      54.1       70     44.5      0.00     18.10      66.1     0.42      1022.0     5       245         7       246        9.04     269      -58.2
   03/24/2017 21:30      54.8      54.4       68     44.3      0.00     18.10      66.0     0.42      1022.0     4       234         7       245        9.04     269      -60.4
   03/24/2017 21:20      54.8      54.6       66     43.7      0.00     18.10      65.8     0.42      1021.0     4       226         6       223        9.04     269      -64.4
   03/24/2017 21:10      54.8      54.5       66     43.5      0.00     18.10      66.0     0.42      1021.0     4       201         7       165        9.04     269      -65.7
   03/24/2017 21:00      54.9      54.6       65     43.3      0.00     18.10      65.6     0.42      1021.0     3       213         4       211        9.05     269      -64.7
   03/24/2017 20:50      55.2      54.9       64     43.2      0.00     18.10      65.8     0.42      1021.0     4       220         5       241        9.05     269      -62.7
   03/24/2017 20:40      55.6      55.2       63     43.0      0.00     18.10      65.8     0.42      1021.0     4       228         5       220        9.05     269      -64.6
   03/24/2017 20:30      55.6      55.5       62     42.6      0.00     18.10      66.0     0.42      1021.0     3       220         5       233        9.05     268      -66.1
   03/24/2017 20:20      55.9      55.6       61     42.6      0.00     18.10      65.8     0.42      1021.0     4       233         6       235        9.05     269      -67.8
   03/24/2017 20:10      56.1      55.9       61     42.7      0.00     18.10      65.5     0.42      1021.0     4       229         6       218        9.05     268      -71.4
   03/24/2017 20:00      56.3      56.0       60     42.3      0.00     18.10      65.7     0.42      1021.0     4       228         5       255        9.05     268      -71.9
   03/24/2017 19:50      57.0      56.5       59     42.6      0.00     18.10      65.7     0.42      1021.0     2       211         4       240        9.05     268      -72.4
   03/24/2017 19:40      57.3      57.0       62     44.2      0.00     18.10      65.7     0.42      1021.0     3       227         6       259        9.05     268      -72.1
   03/24/2017 19:30      57.6      57.5       66     46.1      0.00     18.10      65.5     0.42      1021.0     4       238         5       227        9.05     268      -72.0
   03/24/2017 19:20      58.4      57.8       65     46.6      0.00     18.10      65.5     0.42      1021.0     5       234         7       225        9.05     268      -72.4
   03/24/2017 19:10      58.9      58.4       65     47.0      0.00     18.10      65.7     0.42      1021.0     5       235         8       251        9.05     268      -70.9
   03/24/2017 19:00      59.6      58.9       65     47.6      0.00     18.10      65.8     0.42      1021.0     5       241         7       220        9.05     268      -66.5
   03/24/2017 18:50      60.6      59.8       65     48.3      0.00     18.10      65.5     0.42      1021.0     4       238         7       206        9.05     268      -64.7
   03/24/2017 18:40      61.7      60.8       63     48.3      0.00     18.10      65.5     0.42      1021.0     4       253         5       238        9.05     268      -57.5
   03/24/2017 18:30      62.4      61.8       60     48.2      0.00     18.10      65.2     0.42      1021.0     5       255         6       232        9.05     268      -34.1
   03/24/2017 18:20      62.5      61.9       60     48.1      0.00     18.10      65.6     0.42      1020.0     4       243         5       261        9.05     267      -12.9
   03/24/2017 18:10      63.0      62.5       59     48.1      0.00     18.10      65.3     0.42      1020.0     5       243         8       282        9.05     267        3.1
   03/24/2017 18:00      63.9      63.3       56     47.7      0.00     18.10      65.1     0.42      1020.0     5       248         7       252        9.05     267       31.3
   03/24/2017 17:50      64.1      63.5       55     47.3      0.00     18.10      65.2     0.42      1020.0     4       242         7       232        9.05     267       56.0
   03/24/2017 17:40      64.3      63.6       53     46.5      0.00     18.10      65.1     0.42      1020.0     5       220         7       239        9.05     267       83.8
   03/24/2017 17:30      65.0      64.5       51     46.4      0.00     18.10      65.1     0.42      1020.0     5       238         7       208        9.05     267      112.2
   03/24/2017 17:20      65.2      64.5       51     46.5      0.00     18.10      65.0     0.42      1020.0     5       246         7       262        9.05     267      154.8
   03/24/2017 17:10      65.7      64.8       50     46.0      0.00     18.10      64.8     0.42      1021.0     5       237         7       233        9.05     267      184.8
   03/24/2017 17:00      66.4      65.8       47     45.3      0.00     18.10      64.8     0.42      1021.0     5       252         8       240        9.06     267      229.2
   03/24/2017 16:50      66.6      65.8       46     44.7      0.00     18.10      64.7     0.42      1021.0     5       269         8       253        9.06     267      179.5
   03/24/2017 16:40      67.2      66.2       42     43.1      0.00     18.10      64.7     0.42      1021.0     5       251         8       236        9.06     267      187.7
   03/24/2017 16:30      67.6      67.2       40     42.6      0.00     18.10      64.6     0.42      1021.0     5       261         9       269        9.06     267      226.4
   03/24/2017 16:20      67.7      67.0       41     42.8      0.00     18.10      64.6     0.42      1021.0     5       262         6       263        9.06     268      252.1
   03/24/2017 16:10      67.6      66.9       41     42.4      0.00     18.10      64.6     0.42      1021.0     5       257         7       230        9.06     267      259.4
   03/24/2017 16:00      67.3      66.6       39     40.9      0.00     18.10      64.2     0.42      1021.0     7       253        12       258        9.07     267      236.2
   03/24/2017 15:50      68.2      67.2       39     42.0      0.00     18.10      64.3     0.42      1021.0     6       254        10       282        9.07     266      244.0
   03/24/2017 15:40      68.6      67.5       41     43.2      0.00     18.10      64.3     0.42      1021.0     7       256        10       234        9.07     267      385.2
   03/24/2017 15:30      68.5      68.1       41     43.5      0.00     18.10      64.0     0.42      1021.0     6       258        12       273        9.07     267      389.8
   03/24/2017 15:20      69.7      68.3       40     43.8      0.00     18.10      64.2     0.42      1021.0     7       243        10       246        9.08     267      404.7
   03/24/2017 15:10      69.4      68.9       39     43.0      0.00     18.10      64.1     0.42      1021.0     6       265         8       241        9.08     268      418.1
   03/24/2017 15:00      69.7      69.2       38     42.7      0.00     18.10      64.0     0.42      1021.0     6       239         9       254        9.08     268      433.7
   03/24/2017 14:50      70.4      69.5       37     42.8      0.00     18.10      64.0     0.41      1021.0     6       263         9       286        9.09     268      447.0
   03/24/2017 14:40      70.6      69.8       37     42.8      0.00     18.10      64.2     0.41      1021.0     6       257         9       247        9.09     268      458.9
   03/24/2017 14:30      71.0      70.1       38     43.6      0.00     18.10      63.7     0.41      1021.0     5       271         9       266        9.09     268      466.0
   03/24/2017 14:20      69.8      69.5       35     40.9      0.00     18.10      63.7     0.41      1021.0     5       259         8       266        9.09     268      479.8
   03/24/2017 14:10      71.0      69.4       34     40.8      0.00     18.10      64.1     0.41      1021.0     5       248         8       236        9.10     268      490.6
   03/24/2017 14:00      71.3      70.6       35     41.6      0.00     18.10      63.8     0.41      1021.0     5       252         8       293        9.10     268      495.9
   03/24/2017 13:50      70.9      69.2       35     41.2      0.00     18.10      63.6     0.41      1022.0     3       263         5       278        9.10     268      504.8
   03/24/2017 13:40      71.4      69.9       37     43.4      0.00     18.10      63.6     0.41      1022.0     6       242         8       236        9.10     269      509.8
   03/24/2017 13:30      71.1      69.8       38     43.8      0.00     18.10      63.6     0.41      1022.0     3       323         6       263        9.10     269      512.6
   03/24/2017 13:20      69.6      68.7       40     44.2      0.00     18.10      63.5     0.41      1022.0     3       293         4       319        9.10     269      519.1
   03/24/2017 13:10      68.9      68.2       41     44.1      0.00     18.10      63.5     0.41      1022.0     3       342         5       328        9.10     269      520.4
   03/24/2017 13:00      68.2      67.2       42     43.3      0.00     18.10      63.4     0.41      1022.0     4       266         7       242        9.10     269      525.6
   03/24/2017 12:50      68.6      67.2       39     42.0      0.00     18.10      63.6     0.41      1023.0     4       269         7       247        9.10     269      524.9
   03/24/2017 12:40      67.7      66.7       39     41.2      0.00     18.10      63.7     0.41      1023.0     4       198         7       209        9.10     269      523.8
   03/24/2017 12:30      67.5      66.6       39     41.3      0.00     18.10      63.9     0.41      1023.0     3       244         5       200        9.10     269      521.6
   03/24/2017 12:20      67.4      65.8       39     40.7      0.00     18.10      63.7     0.41      1023.0     3       304         6       303        9.10     269      517.0
   03/24/2017 12:10      66.6      65.8       37     39.3      0.00     18.10      63.2     0.41      1023.0     3       238         6       293        9.10     270      512.7
   03/24/2017 12:00      66.8      65.9       38     40.0      0.00     18.10      63.5     0.41      1023.0     3       227         6       243        9.10     270      506.9
   03/24/2017 11:50      66.3      65.3       40     40.7      0.00     18.10      63.7     0.41      1023.0     2       279         5       270        9.10     270      501.8
   03/24/2017 11:40      65.9      64.8       40     40.5      0.00     18.10      63.3     0.41      1023.0     2       327         5       347        9.10     271      495.3
   03/24/2017 11:30      65.2      63.7       39     39.3      0.00     18.10      63.5     0.41      1023.0     2       310         3       280        9.10     272      487.3
   03/24/2017 11:20      64.7      64.2       42     41.0      0.00     18.10      63.7     0.41      1024.0     3       297         6       259        9.10     271      471.6
   03/24/2017 11:10      64.1      62.8       46     42.4      0.00     18.10      63.6     0.41      1024.0     3       339         4       296        9.10     272      460.1
   03/24/2017 11:00      62.9      61.8       49     42.6      0.00     18.10      64.0     0.42      1024.0     3       317         4       295        9.11     271      447.3
   03/24/2017 10:50      63.8      63.0       47     43.0      0.00     18.10      63.6     0.41      1024.0     3       355         4       328        9.11     271      422.0
   03/24/2017 10:40      63.6      62.6       48     42.8      0.00     18.10      63.5     0.42      1024.0     2        70         5       104        9.10     272      416.8
   03/24/2017 10:30      62.3      60.5       52     43.9      0.00     18.10      63.7     0.42      1024.0     3       352         4       129        9.10     272      401.3
   03/24/2017 10:20      60.3      59.9       54     43.6      0.00     18.10      63.6     0.42      1024.0     2       308         3       340        9.10     273      382.1
   03/24/2017 10:10      60.7      60.2       55     44.0      0.00     18.10      64.0     0.42      1024.0     2        11         3       308        9.10     273      369.0
   03/24/2017 10:00      60.5      59.4       54     43.4      0.00     18.10      63.5     0.42      1024.0     2        95         4        93        9.10     273      353.5
   03/24/2017 09:50      60.5      58.7       60     45.9      0.00     18.10      64.2     0.42      1024.0     2        39         3        86        9.11     273      335.3
   03/24/2017 09:40      58.7      57.5       63     45.2      0.00     18.10      64.0     0.42      1024.0     1       354         2        67        9.11     274      315.1
   03/24/2017 09:30      57.7      57.0       66     45.9      0.00     18.10      63.6     0.42      1024.0     2        41         3        99        9.11     276      294.1
   03/24/2017 09:20      57.0      56.3       69     46.7      0.00     18.10      63.9     0.42      1024.0     2       350         3        25        9.11     279      267.8
   03/24/2017 09:10      56.6      55.5       73     47.3      0.00     18.10      63.9     0.42      1024.0     1       195         2       246        9.11     281      242.6
   03/24/2017 09:00      56.6      55.7       73     47.6      0.00     18.10      63.9     0.42      1024.0     2       265         3       236        9.11     283      221.9
   03/24/2017 08:50      56.5      55.7       73     47.6      0.00     18.10      64.0     0.42      1024.0     1       154         1        87        9.11     287      195.3
   03/24/2017 08:40      55.9      54.2       77     48.0      0.00     18.10      63.8     0.42      1024.0     1       338         1        36        9.11     290      177.8
   03/24/2017 08:30      54.1      52.7       82     48.0      0.00     18.10      63.8     0.42      1024.0     1       218         1       239        9.11     292      182.8
   03/24/2017 08:20      52.6      52.1       85     47.9      0.00     18.10      64.2     0.42      1024.0     1       200         2       195        9.11     293      162.0
   03/24/2017 08:10      51.8      50.0       90     48.0      0.00     18.10      64.2     0.42      1024.0     1       266         1       217        9.11     293      129.5
   03/24/2017 08:00      49.9      48.8       92     47.2      0.00     18.10      64.1     0.42      1024.0     0       185         1       189        9.11     294       77.8
   03/24/2017 07:50      48.8      48.0       93     46.5      0.00     18.10      64.3     0.42      1024.0     1       162         1       148        9.11     294       30.6
   03/24/2017 07:40      48.0      47.8       94     46.1      0.00     18.10      64.1     0.42      1024.0     1       161         1       135        9.11     293       25.5
   03/24/2017 07:30      47.7      47.4       94     45.8      0.00     18.10      64.0     0.42      1024.0     1       145         1       129        9.11     293       11.4
   03/24/2017 07:20      47.5      47.0       94     45.4      0.00     18.10      64.3     0.42      1024.0     1       174         2       181        9.11     293        1.2
   03/24/2017 07:10      47.1      46.5       93     44.9      0.00     18.10      64.0     0.42      1024.0     1       208         1       197        9.11     293       -7.2
   03/24/2017 07:00      47.0      46.4       93     44.8      0.00     18.10      64.0     0.42      1024.0     1       171         1       134        9.11     292      -19.8
   03/24/2017 06:50      47.2      46.8       93     45.0      0.00     18.10      64.0     0.42      1024.0     1       143         2       141        9.11     291      -25.3
   03/24/2017 06:40      47.4      47.1       93     45.2      0.00     18.10      64.1     0.42      1024.0     1       199         1       160        9.11     289      -27.7
   03/24/2017 06:30      47.7      47.4       93     45.5      0.00     18.10      64.4     0.42      1023.0     1       198         1       175        9.11     288      -29.2
   03/24/2017 06:20      47.9      47.3       92     45.4      0.00     18.10      64.2     0.42      1023.0     1       154         1       126        9.11     287      -29.0
   03/24/2017 06:10      47.9      47.7       93     45.9      0.00     18.10      64.1     0.42      1023.0     1       227         1       250        9.11     286      -30.4
   03/24/2017 06:00      47.8      47.5       93     45.5      0.00     18.10      64.2     0.42      1023.0     0       247         1       125        9.11     285      -28.1
   03/24/2017 05:50      47.8      47.3       93     45.4      0.00     18.10      64.1     0.42      1023.0     1       175         1       124        9.11     284      -22.6
   03/24/2017 05:40      47.6      47.3       93     45.4      0.00     18.10      64.3     0.42      1023.0     1       115         1       107        9.11     283      -20.6
   03/24/2017 05:30      47.4      47.1       92     45.0      0.00     18.10      64.3     0.42      1023.0     1       151         1       130        9.11     283      -26.8
   03/24/2017 05:20      47.5      47.1       92     45.3      0.00     18.10      64.5     0.42      1023.0     1       122         1       128        9.11     282      -34.0
   03/24/2017 05:10      47.3      46.8       92     44.8      0.00     18.10      64.6     0.42      1023.0     1       174         2       136        9.11     282      -38.6
   03/24/2017 05:00      47.8      47.3       91     45.1      0.00     18.10      64.5     0.42      1023.0     2       139         3       132        9.11     280      -44.5
   03/24/2017 04:50      48.1      47.8       91     45.5      0.00     18.10      64.7     0.42      1023.0     1       173         1       131        9.11     280      -50.8
   03/24/2017 04:40      48.8      48.3       90     45.7      0.00     18.10      64.7     0.42      1023.0     1       171         1       197        9.11     279      -53.6
   03/24/2017 04:30      49.2      48.8       90     46.0      0.00     18.10      64.7     0.42      1023.0     1       140         2       130        9.11     278      -53.8
   03/24/2017 04:20      49.4      49.1       89     46.1      0.00     18.10      64.7     0.42      1023.0     1       159         2       164        9.11     278      -55.3
   03/24/2017 04:10      50.0      49.3       88     46.1      0.00     18.10      64.4     0.42      1023.0     1       145         2       229        9.11     277      -55.9
   03/24/2017 04:00      50.2      49.9       88     46.7      0.00     18.10      64.8     0.42      1023.0     2       221         2       238        9.11     277      -52.4
   03/24/2017 03:50      50.6      50.2       88     46.8      0.00     18.10      64.7     0.42      1023.0     1       145         2       135        9.11     276      -49.4
   03/24/2017 03:40      50.8      50.3       87     47.1      0.00     18.10      65.1     0.42      1023.0     1       154         2       135        9.11     276      -42.5
   03/24/2017 03:30      51.1      50.6       87     47.2      0.00     18.10      65.0     0.42      1023.0     2       176         2       179        9.11     276      -37.2
   03/24/2017 03:20      51.1      50.5       88     47.3      0.00     18.10      64.8     0.42      1023.0     2       222         2       219        9.11     276      -25.5
   03/24/2017 03:10      50.7      50.2       88     46.9      0.00     18.10      65.0     0.42      1023.0     1       216         2       237        9.11     276      -20.2
   03/24/2017 03:00      50.4      50.2       88     46.8      0.00     18.10      64.9     0.42      1023.0     1       130         2       134        9.11     276      -50.5
   03/24/2017 02:50      50.4      49.8       88     46.6      0.00     18.10      64.7     0.42      1023.0     2       143         2       130        9.11     276      -21.7
   03/24/2017 02:40      50.3      49.6       88     46.5      0.00     18.10      64.9     0.42      1023.0     1       171         3       136        9.11     276      -15.6
   03/24/2017 02:30      49.9      49.5       89     46.5      0.00     18.10      65.0     0.42      1023.0     1       184         2       252        9.11     276      -24.9
   03/24/2017 02:20      49.5      49.1       88     45.9      0.00     18.10      64.7     0.42      1023.0     2       162         3       131        9.12     276      -25.9
   03/24/2017 02:10      49.3      49.0       88     45.5      0.00     18.10      65.1     0.42      1023.0     2       154         3       131        9.12     276      -33.0
   03/24/2017 02:00      49.5      48.9       87     45.5      0.00     18.10      65.0     0.42      1023.0     2       151         2       140        9.12     276      -29.2
   03/24/2017 01:50      49.6      48.8       87     45.3      0.00     18.10      65.4     0.42      1023.0     1       164         1       143        9.12     277      -27.5
   03/24/2017 01:40      48.8      48.0       88     45.0      0.00     18.10      65.1     0.42      1023.0     2       134         3       134        9.12     277      -16.1
   03/24/2017 01:30      48.3      47.9       86     44.0      0.00     18.10      65.0     0.42      1023.0     1       102         3       125        9.12     277      -34.0
   03/24/2017 01:20      48.8      48.4       85     44.4      0.00     18.10      65.1     0.42      1023.0     1       240         2       136        9.12     276      -36.5
   03/24/2017 01:10      49.0      48.5       84     44.1      0.00     18.10      65.2     0.42      1023.0     0       358         1        34        9.12     276      -51.3
   03/24/2017 01:00      48.9      48.3       85     44.1      0.00     18.10      65.5     0.42      1023.0     1       356         2       100        9.12     276      -55.2
   03/24/2017 00:50      48.4      47.9       85     43.8      0.00     18.10      65.5     0.42      1023.0     1       121         2       132        9.12     275      -58.1
   03/24/2017 00:40      48.4      48.0       85     43.8      0.00     18.10      65.0     0.42      1023.0     1        53         1        96        9.12     275      -60.4
   03/24/2017 00:30      48.7      48.2       84     43.6      0.00     18.10      65.5     0.42      1023.0     1       122         2       122        9.12     275      -62.4
   03/24/2017 00:20      49.0      48.3       84     43.8      0.00     18.10      65.0     0.42      1023.0     1       161         2       160        9.12     274      -63.9
   03/24/2017 00:10      48.8      48.4       83     43.8      0.00     18.10      65.0     0.42      1023.0     1       173         2       148        9.12     274      -65.0
   03/24/2017 00:00      49.0      48.8       83     43.8      0.00     18.10      65.1     0.42      1023.0     2       165         3       128        9.12     274      -65.1
   03/23/2017 23:50      49.0      48.7       83     43.8      0.00     18.10      65.1     0.42      1023.0     2       164         2       159        9.12     273      -64.7
   03/23/2017 23:40      48.8      48.6       83     43.7      0.00     18.10      65.4     0.42      1023.0     1       199         2       141        9.12     273      -66.3
   03/23/2017 23:30      49.4      49.0       82     43.9      0.00     18.10      65.3     0.42      1023.0     1       128         2       135        9.12     272      -66.8
   03/23/2017 23:20      50.0      49.3       81     43.9      0.00     18.10      65.4     0.42      1023.0     2       134         2       133        9.12     272      -67.4
   03/23/2017 23:10      50.2      50.0       79     43.9      0.00     18.10      65.4     0.42      1023.0     1       197         1       216        9.12     272      -67.8
   03/23/2017 23:00      50.7      50.1       79     44.1      0.00     18.10      65.0     0.42      1022.0     1       152         2       142        9.12     272      -69.3
   03/23/2017 22:50      50.8      50.3       79     44.4      0.00     18.10      65.6     0.42      1022.0     1       161         2       182        9.12     272      -69.8
   03/23/2017 22:40      50.8      50.6       78     44.1      0.00     18.10      65.3     0.42      1022.0     1       199         2       129        9.13     272      -69.6
   03/23/2017 22:30      50.9      50.7       78     44.2      0.00     18.10      65.6     0.42      1022.0     1       189         1       155        9.13     271      -70.0
   03/23/2017 22:20      51.8      50.9       76     44.1      0.00     18.10      65.5     0.42      1022.0     1       146         2       140        9.13     271      -70.2
   03/23/2017 22:10      52.0      51.6       75     44.2      0.00     18.10      65.4     0.42      1022.0     1       123         1       165        9.13     271      -71.0
   03/23/2017 22:00      52.2      51.9       74     44.0      0.00     18.10      65.4     0.42      1022.0     1       122         2       134        9.13     271      -71.3
   03/23/2017 21:50      52.6      52.3       72     43.8      0.00     18.10      65.4     0.42      1022.0     1        51         1       146        9.13     270      -71.8
   03/23/2017 21:40      54.0      52.7       69     43.6      0.00     18.10      65.1     0.42      1022.0     1       170         2       164        9.13     270      -72.6
   03/23/2017 21:30      54.3      53.9       68     43.9      0.00     18.10      65.5     0.42      1022.0     1       215         3       230        9.13     270      -73.4
   03/23/2017 21:20      54.1      53.6       67     43.0      0.00     18.10      65.5     0.42      1022.0     1       179         1       250        9.13     270      -73.3
   03/23/2017 21:10      54.8      54.1       64     42.7      0.00     18.10      65.2     0.42      1022.0     1       167         2       166        9.13     270      -73.1
   03/23/2017 21:00      54.7      54.1       65     42.8      0.00     18.10      65.2     0.42      1022.0     2       193         2       198        9.13     270      -73.1
   03/23/2017 20:50      55.0      54.3       64     42.5      0.00     18.10      65.3     0.42      1022.0     1       157         1       150        9.13     270      -74.2
   03/23/2017 20:40      55.5      54.9       62     42.5      0.00     18.10      65.4     0.42      1021.0     1       156         1       178        9.13     270      -74.8
   03/23/2017 20:30      56.8      55.6       59     42.2      0.00     18.10      65.1     0.42      1021.0     1       163         2       212        9.14     269      -76.3
   03/23/2017 20:20      57.2      56.7       57     42.0      0.00     18.10      65.5     0.42      1021.0     2       210         3       211        9.14     269      -76.9
   03/23/2017 20:10      57.6      57.1       56     41.8      0.00     18.10      65.0     0.42      1021.0     1       204         2       206        9.14     269      -78.6
   03/23/2017 20:00      58.0      57.5       55     41.8      0.00     18.10      65.2     0.42      1021.0     2       191         3       180        9.14     269      -80.6
   03/23/2017 19:50      58.6      58.1       54     41.7      0.00     18.10      65.3     0.42      1021.0     3       199         4       205        9.14     268      -82.3
   03/23/2017 19:40      59.0      58.5       54     42.1      0.00     18.10      64.7     0.42      1020.0     4       206         5       207        9.14     268      -83.6
   03/23/2017 19:30      59.3      58.9       54     42.7      0.00     18.10      65.2     0.42      1020.0     4       218         6       233        9.15     268      -83.5
   03/23/2017 19:20      60.2      59.1       53     42.5      0.00     18.10      64.8     0.42      1020.0     3       204         5       193        9.15     268      -83.8
   03/23/2017 19:10      61.2      60.5       48     41.1      0.00     18.10      65.1     0.42      1020.0     4       231         5       219        9.15     268      -82.3
   03/23/2017 19:00      61.9      61.3       45     40.3      0.00     18.10      65.2     0.42      1020.0     5       232         7       248        9.15     268      -78.6
   03/23/2017 18:50      62.9      61.9       45     40.6      0.00     18.10      64.9     0.42      1020.0     5       233         7       251        9.15     268      -74.8
   03/23/2017 18:40      63.7      63.0       45     41.5      0.00     18.10      65.0     0.42      1020.0     6       236         9       266        9.16     268      -54.3
   03/23/2017 18:30      64.8      63.9       42     40.8      0.00     18.10      64.7     0.42      1019.0     6       237         8       230        9.16     267      -36.8
   03/23/2017 18:20      65.5      64.9       40     40.4      0.00     18.10      64.9     0.42      1019.0     5       238         7       274        9.16     268      -16.2
   03/23/2017 18:10      66.3      65.3       39     40.2      0.00     18.10      64.5     0.42      1019.0     5       242         7       250        9.16     268        7.2
   03/23/2017 18:00      66.4      66.0       37     39.2      0.00     18.10      64.7     0.42      1019.0     4       247         7       254        9.16     267       32.3
   03/23/2017 17:50      66.3      66.0       36     38.5      0.00     18.10      64.8     0.42      1019.0     4       242         6       241        9.16     267       60.3
   03/23/2017 17:40      66.6      66.2       36     38.7      0.00     18.10      64.7     0.42      1019.0     3       244         6       231        9.16     267       88.0
   03/23/2017 17:30      67.0      66.5       36     38.7      0.00     18.10      64.0     0.42      1018.0     4       253         7       246        9.16     267      114.5
   03/23/2017 17:20      66.9      66.4       36     38.6      0.00     18.10      64.5     0.42      1018.0     4       234         7       220        9.16     267      141.2
   03/23/2017 17:10      66.9      66.4       35     38.1      0.00     18.10      64.5     0.42      1018.0     5       269         7       275        9.16     268      167.1
   03/23/2017 17:00      66.8      66.3       36     38.7      0.00     18.10      64.4     0.42      1018.0     5       251         8       222        9.16     267      194.0
   03/23/2017 16:50      67.2      66.4       35     38.5      0.00     18.10      64.4     0.42      1018.0     7       251        11       240        9.16     267      216.4
   03/23/2017 16:40      67.3      66.9       36     39.1      0.00     18.10      64.3     0.42      1018.0     6       247         9       244        9.16     268      239.9
   03/23/2017 16:30      68.1      67.1       35     39.0      0.00     18.10      64.1     0.42      1018.0     7       245         9       273        9.16     267      252.4
   03/23/2017 16:20      68.9      68.1       33     38.3      0.00     18.10      64.0     0.42      1018.0     6       249        11       240        9.16     268      265.1
   03/23/2017 16:10      68.9      68.4       31     36.4      0.00     18.10      64.1     0.42      1018.0     5       259         9       309        9.16     268      285.1
   03/23/2017 16:00      69.8      69.1       27     33.8      0.00     18.10      64.0     0.42      1018.0     4       224         6       227        9.16     268      308.9
   03/23/2017 15:50      69.8      68.8       25     31.5      0.00     18.10      63.9     0.42      1018.0     3       312         5       296        9.16     268      339.2
   03/23/2017 15:40      70.3      68.5       25     31.8      0.00     18.10      63.8     0.42      1018.0     4       266         7       257        9.16     268      360.3
   03/23/2017 15:30      70.5      69.5       22     29.7      0.00     18.10      63.9     0.42      1018.0     2       219         5       270        9.16     268      375.8
   03/23/2017 15:20      69.9      69.0       23     30.0      0.00     18.10      63.9     0.42      1018.0     2       257         4       320        9.16     268      394.8
   03/23/2017 15:10      70.3      69.1       22     28.9      0.00     18.10      63.8     0.42      1018.0     3       351         8       345        9.16     268      411.7
   03/23/2017 15:00      70.3      69.3       22     29.3      0.00     18.10      63.9     0.42      1018.0     4       347         6        43        9.16     269      427.1
   03/23/2017 14:50      69.7      69.3       22     29.4      0.00     18.10      63.6     0.42      1018.0     4        15         7         6        9.16     269      442.4
   03/23/2017 14:40      69.5      68.5       22     28.9      0.00     18.10      63.5     0.42      1018.0     4        28         6        34        9.16     269      458.0
   03/23/2017 14:30      68.9      67.8       22     27.9      0.00     18.10      63.7     0.42      1019.0     4       335         6       309        9.16     269      473.0
   03/23/2017 14:20      68.6      68.2       22     28.1      0.00     18.10      63.7     0.42      1019.0     5       322        10       321        9.16     269      484.7
   03/23/2017 14:10      69.2      68.7       23     29.7      0.00     18.10      63.7     0.42      1019.0     6       358         8       351        9.16     269      493.6
   03/23/2017 14:00      69.1      68.3       25     31.9      0.00     18.10      63.4     0.42      1019.0     4       315         6         3        9.16     269      505.0
   03/23/2017 13:50      69.2      66.9       26     31.6      0.00     18.10      63.6     0.42      1019.0     4       341         8       301        9.16     269      513.4
   03/23/2017 13:40      66.7      66.3       26     30.8      0.00     18.10      63.7     0.42      1019.0     6       319        10       335        9.16     269      525.6
   03/23/2017 13:30      66.9      65.8       27     31.2      0.00     18.10      63.4     0.42      1019.0     6       319         8       325        9.16     269      528.9
   03/23/2017 13:20      67.0      66.3       27     31.9      0.00     18.10      63.8     0.42      1019.0     6       314         8       308        9.16     269      529.9
   03/23/2017 13:10      65.9      65.4       28     31.6      0.00     18.10      64.0     0.42      1020.0     5       296        10       303        9.16     269      534.2
   03/23/2017 13:00      65.7      64.7       29     31.8      0.00     18.10      63.4     0.42      1020.0     5       319         8       314        9.16     269      537.3
   03/23/2017 12:50      65.4      64.5       32     34.0      0.00     18.10      63.1     0.42      1020.0     5       276         8       249        9.16     269      536.9
   03/23/2017 12:40      64.8      63.6       32     33.4      0.00     18.10      63.5     0.42      1020.0     5       295         8       314        9.16     270      536.6
   03/23/2017 12:30      64.7      64.0       32     33.9      0.00     18.10      63.6     0.42      1020.0     5       306        10       326        9.16     269      532.7
   03/23/2017 12:20      64.2      63.0       33     34.0      0.00     18.10      63.4     0.42      1020.0     4       299         6       320        9.16     269      529.2
   03/23/2017 12:10      63.6      62.6       33     33.7      0.00     18.10      63.7     0.42      1020.0     5       322         7       319        9.16     270      526.1
   03/23/2017 12:00      63.8      63.3       33     33.8      0.00     18.10      63.3     0.42      1020.0     5       341        11        11        9.16     271      520.8
   03/23/2017 11:50      63.6      62.5       34     33.8      0.00     18.10      63.4     0.42      1020.0     6       345        10         6        9.16     270      515.8
   03/23/2017 11:40      62.7      62.3       34     33.7      0.00     18.10      63.6     0.42      1020.0     6       299         8       325        9.16     271      508.6
   03/23/2017 11:30      62.4      61.7       33     32.6      0.00     18.10      63.6     0.42      1020.0     6       315         9       326        9.16     271      500.7
   03/23/2017 11:20      62.2      61.3       34     32.7      0.00     18.10      63.7     0.42      1020.0     6       351         9       345        9.16     271      488.6
   03/23/2017 11:10      61.5      61.0       34     32.5      0.00     18.10      63.6     0.42      1020.0     7       324        15       317        9.16     271      476.3
   03/23/2017 11:00      61.3      60.5       35     32.8      0.00     18.10      63.6     0.42      1020.0     7       297         9       323        9.16     271      463.2
   03/23/2017 10:50      60.9      60.2       34     31.8      0.00     18.10      63.8     0.42      1020.0     7       314        11       308        9.16     271      449.3
   03/23/2017 10:40      60.4      59.6       35     32.3      0.00     18.10      64.0     0.42      1019.0     8       325        13       304        9.16     272      433.1
   03/23/2017 10:30      59.9      59.1       36     32.7      0.00     18.10      63.7     0.42      1019.0     9       340        14       351        9.16     274      416.8
   03/23/2017 10:20      59.4      58.5       39     33.7      0.00     18.10      64.2     0.42      1019.0     7       330        10       331        9.16     277      396.9
   03/23/2017 10:10      58.7      58.4       37     32.4      0.00     18.10      63.6     0.42      1019.0     8       323        12       344        9.16     279      380.6
   03/23/2017 10:00      58.5      57.7       38     32.7      0.00     18.10      63.8     0.42      1019.0     8       301        12       312        9.16     281      362.6
   03/23/2017 09:50      57.8      56.6       41     33.7      0.00     18.10      63.7     0.42      1019.0     7       325        10       349        9.15     285      343.2
   03/23/2017 09:40      56.7      56.0       42     33.8      0.00     18.10      64.2     0.42      1019.0     9       345        12       339        9.14     292      322.6
   03/23/2017 09:30      56.1      55.8       43     33.8      0.00     18.10      64.3     0.42      1019.0     9         6        14       357        9.09     300      302.0
   03/23/2017 09:20      56.3      55.8       42     33.4      0.00     18.10      64.3     0.42      1019.0     9       325        13       314        9.01     311      280.1
   03/23/2017 09:10      55.9      55.5       42     33.3      0.00     18.10      64.5     0.42      1018.0     7       315        13       330        8.90     322      259.0
   03/23/2017 09:00      55.8      55.5       43     33.3      0.00     18.10      64.2     0.42      1018.0     7       310         9       339        8.78     329      236.7
   03/23/2017 08:50      55.7      55.1       43     33.5      0.00     18.10      64.0     0.42      1018.0     5       322         8       306        8.70     339      211.8
   03/23/2017 08:40      55.4      54.5       45     33.9      0.00     18.10      64.0     0.42      1018.0     7       309        11       308        8.67     347      184.8
   03/23/2017 08:30      54.6      54.0       48     35.0      0.00     18.10      64.0     0.42      1018.0     5       330        12       334        8.67     354      154.4
   03/23/2017 08:20      53.9      53.3       50     35.1      0.00     18.10      64.0     0.42      1018.0     6       327        13       323        8.67     358      122.6
   03/23/2017 08:10      53.4      53.0       51     35.5      0.00     18.10      64.2     0.42      1018.0     6       335        11       329        8.67     360       91.4
   03/23/2017 08:00      52.9      52.3       53     36.2      0.00     18.10      64.6     0.42      1018.0     5       324         8       335        8.67     361       59.9
   03/23/2017 07:50      52.3      51.7       55     36.6      0.00     18.10      64.3     0.42      1018.0     5       320         7       299        8.67     362       28.7
   03/23/2017 07:40      51.9      51.0       57     36.6      0.00     18.10      64.2     0.42      1018.0     5       302         9       302        8.67     363       -1.0
   03/23/2017 07:30      51.0      48.4       60     36.7      0.00     18.10      64.5     0.42      1018.0     4       284         6       278        8.67     364      -23.5
   03/23/2017 07:20      48.2      47.3       66     37.1      0.00     18.10      64.2     0.42      1018.0     2       220         3       254        8.67     365      -54.6
   03/23/2017 07:10      48.9      48.3       62     36.3      0.00     18.10      64.2     0.42      1018.0     1       113         2       351        8.67     363      -60.6
   03/23/2017 07:00      48.9      47.3       63     36.4      0.00     18.10      64.4     0.42      1017.0     2       301         3       309        8.67     361      -65.9
   03/23/2017 06:50      47.9      47.1       66     36.9      0.00     18.10      64.4     0.42      1017.0     1       291         3       277        8.67     359      -67.6
   03/23/2017 06:40      47.9      47.3       66     36.7      0.00     18.10      64.5     0.42      1017.0     2       250         3       237        8.67     356      -68.3
   03/23/2017 06:30      48.9      47.4       65     36.9      0.00     18.10      64.8     0.42      1017.0     1       142         2        46        8.67     354      -69.6
   03/23/2017 06:20      49.8      49.3       62     36.8      0.00     18.10      64.8     0.42      1017.0     1       323         2       283        8.67     351      -70.2
   03/23/2017 06:10      49.9      49.3       62     37.0      0.00     18.10      64.9     0.43      1017.0     2       254         3       279        8.67     350      -70.3
   03/23/2017 06:00      50.9      50.1       59     36.9      0.00     18.10      64.6     0.43      1017.0     3       242         4       255        8.67     348      -71.1
   03/23/2017 05:50      51.0      50.9       58     36.7      0.00     18.10      64.7     0.43      1017.0     4       310         6       263        8.67     349      -71.0
   03/23/2017 05:40      50.9      49.9       60     37.0      0.00     18.10      65.3     0.43      1017.0     4       275         9       244        8.67     348      -69.7
   03/23/2017 05:30      50.9      50.2       61     37.4      0.00     18.10      65.0     0.43      1017.0     2       245         4       246        8.67     347      -70.0
   03/23/2017 05:20      51.2      50.9       59     37.3      0.00     18.10      64.9     0.43      1017.0     3       271         4       219        8.67     345      -70.0
   03/23/2017 05:10      51.2      50.2       60     37.6      0.00     18.10      65.1     0.43      1017.0     3       317         7       335        8.67     344      -70.0
   03/23/2017 05:00      50.4      47.1       70     39.4      0.00     18.10      65.0     0.43      1017.0     3       316         8       355        8.67     344      -70.8
   03/23/2017 04:50      47.1      45.5       86     42.1      0.00     18.10      65.3     0.43      1017.0     2       300         7       256        8.67     343      -58.6
   03/23/2017 04:40      46.1      45.4       88     42.2      0.00     18.10      64.7     0.43      1017.0     2       134         5        21        8.67     341      -56.3
   03/23/2017 04:30      46.3      46.0       87     42.6      0.00     18.10      64.9     0.43      1016.0     1       260         2       190        8.67     338      -59.5
   03/23/2017 04:20      46.8      46.4       87     43.0      0.00     18.10      64.9     0.43      1016.0     1       347         3         4        8.67     335      -63.2
   03/23/2017 04:10      46.8      46.3       88     43.0      0.00     18.10      65.2     0.43      1016.0     2       197         3       168        8.67     333      -61.4
   03/23/2017 04:00      46.9      46.6       87     43.1      0.00     18.10      65.0     0.43      1016.0     2       111         2        88        8.67     330      -66.2
   03/23/2017 03:50      47.3      46.6       85     42.8      0.00     18.10      65.2     0.43      1016.0     2       145         3       177        8.67     329      -66.5
   03/23/2017 03:40      48.0      47.5       84     43.2      0.00     18.10      65.5     0.43      1016.0     2       209         4       233        8.67     327      -68.2
   03/23/2017 03:30      48.4      48.0       83     43.5      0.00     18.10      65.1     0.43      1016.0     3       245         4       239        8.67     325      -69.8
   03/23/2017 03:20      48.8      48.5       83     43.7      0.00     18.10      65.8     0.43      1016.0     3       253         3       258        8.67     322      -70.8
   03/23/2017 03:10      49.1      48.5       82     43.7      0.00     18.10      65.5     0.43      1016.0     2       237         3       261        8.67     321      -71.0
   03/23/2017 03:00      49.1      48.9       82     43.9      0.00     18.10      65.4     0.43      1016.0     2       255         3       256        8.67     319      -72.0
   03/23/2017 02:50      49.4      49.0       82     43.8      0.00     18.10      65.5     0.43      1016.0     3       222         3       245        8.67     318      -71.6
   03/23/2017 02:40      49.4      49.1       82     44.0      0.00     18.10      65.4     0.43      1016.0     3       235         6       230        8.67     317      -71.7
   03/23/2017 02:30      49.3      48.9       82     43.9      0.00     18.10      65.3     0.43      1016.0     2       207         5       201        8.67     315      -71.7
   03/23/2017 02:20      49.4      49.3       82     43.9      0.00     18.10      65.6     0.43      1016.0     3       215         6       207        8.67     315      -72.0
   03/23/2017 02:10      49.4      49.1       82     44.0      0.00     18.10      65.6     0.43      1016.0     4       203         6       211        8.67     314      -71.6
   03/23/2017 02:00      49.3      49.1       82     43.9      0.00     18.10      65.7     0.43      1016.0     3       190         4       201        8.67     313      -71.0
   03/23/2017 01:50      49.8      49.3       81     44.0      0.00     18.10      65.6     0.43      1016.0     2       220         3       226        8.67     311      -71.4
   03/23/2017 01:40      50.0      49.7       81     44.1      0.00     18.10      65.5     0.43      1016.0     2       248         3       253        8.67     309      -72.0
   03/23/2017 01:30      49.9      49.7       81     44.1      0.00     18.10      65.7     0.43      1016.0     3       226         4       226        8.67     308      -71.8
   03/23/2017 01:20      49.8      49.7       81     44.2      0.00     18.10      65.6     0.43      1016.0     2       223         3       254        8.67     307      -72.0
   03/23/2017 01:10      50.2      49.7       81     44.1      0.00     18.10      65.5     0.43      1016.0     2       215         5       204        8.67     305      -71.5
   03/23/2017 01:00      50.3      50.0       80     44.3      0.00     18.10      65.8     0.43      1016.0     3       207         5       212        8.67     304      -71.7
   03/23/2017 00:50      50.4      50.0       80     44.3      0.00     18.10      65.6     0.43      1016.0     3       217         4       212        8.67     303      -71.1
   03/23/2017 00:40      50.2      50.0       80     44.2      0.00     18.10      65.3     0.43      1016.0     3       216         4       229        8.67     300      -70.4
   03/23/2017 00:30      50.0      49.8       80     44.2      0.00     18.10      66.1     0.43      1016.0     2       214         4       197        8.67     299      -69.7
   03/23/2017 00:20      50.2      49.9       81     44.4      0.00     18.10      65.7     0.43      1016.0     1       221         2       214        8.67     297      -70.0
   03/23/2017 00:10      50.6      49.8       81     44.4      0.00     18.10      65.7     0.43      1016.0     2       186         3       177        8.67     295      -69.8
   03/23/2017 00:00      50.6      50.4       80     44.6      0.00     18.10      66.2     0.43      1016.0     2       219         4       208        8.67     294      -68.7
   03/22/2017 23:50      50.8      50.6       80     44.7      0.00     18.10      66.1     0.43      1016.0     2       237         2       233        8.67     292      -69.1
   03/22/2017 23:40      50.9      50.6       80     44.9      0.00     18.10      66.3     0.43      1015.0     2       231         3       207        8.67     290      -68.7
   03/22/2017 23:30      50.6      50.2       81     45.0      0.00     18.10      66.1     0.43      1015.0     2       216         3       219        8.67     288      -67.8
   03/22/2017 23:20      50.3      49.7       83     45.1      0.00     18.10      65.8     0.43      1015.0     1       222         3       222        8.67     287      -67.0
   03/22/2017 23:10      50.1      49.7       83     45.1      0.00     18.10      66.1     0.43      1015.0     1       236         2       205        8.67     285      -68.6
   03/22/2017 23:00      50.6      50.2       83     45.3      0.00     18.10      66.0     0.43      1015.0     1       209         1       170        8.67     283      -70.1
   03/22/2017 22:50      51.1      50.8       81     45.4      0.00     18.10      66.0     0.43      1015.0     2       177         3       212        8.67     281      -70.8
   03/22/2017 22:40      51.1      50.5       82     45.3      0.00     18.10      66.1     0.43      1015.0     1       174         2       122        8.67     280      -70.8
   03/22/2017 22:30      52.3      51.3       79     45.3      0.00     18.10      66.2     0.43      1015.0     1       151         2       166        8.67     279      -70.7
   03/22/2017 22:20      52.8      52.5       76     45.4      0.00     18.10      66.3     0.43      1015.0     1       268         2       219        8.67     278      -71.6
   03/22/2017 22:10      52.8      52.5       76     45.4      0.00     18.10      66.2     0.43      1015.0     2       203         4       204        8.67     277      -71.7
   03/22/2017 22:00      53.3      52.6       75     45.3      0.00     18.10      66.1     0.43      1015.0     1       227         3       219        8.67     276      -72.3
   03/22/2017 21:50      53.6      53.2       74     45.5      0.00     18.10      66.3     0.43      1015.0     2       239         4       247        8.67     275      -73.3
   03/22/2017 21:40      53.7      53.4       75     45.7      0.00     18.10      66.7     0.43      1015.0     2       234         3       216        8.67     274      -74.5
   03/22/2017 21:30      54.1      53.7       73     45.7      0.00     18.10      66.3     0.43      1015.0     2       216         3       206        8.67     274      -74.2
   03/22/2017 21:20      54.2      53.9       74     45.9      0.00     18.10      65.8     0.43      1015.0     2       199         5       227        8.67     273      -74.3
   03/22/2017 21:10      54.3      54.1       74     45.9      0.00     18.10      66.2     0.43      1015.0     4       201         5       201        8.67     273      -73.3
   03/22/2017 21:00      55.2      54.5       72     46.0      0.00     18.10      66.2     0.43      1015.0     2       203         3       204        8.67     273      -73.3
   03/22/2017 20:50      56.1      55.5       69     46.1      0.00     18.10      66.0     0.43      1015.0     2       256         3       254        8.67     272      -70.2
   03/22/2017 20:40      56.3      56.0       69     46.3      0.00     18.10      66.3     0.43      1015.0     3       295         4       302        8.67     272      -59.7
   03/22/2017 20:30      56.1      55.7       71     46.5      0.00     18.10      66.6     0.43      1015.0     3       292         5       294        8.67     272      -53.8
   03/22/2017 20:20      55.7      55.5       71     46.4      0.00     18.10      66.4     0.43      1015.0     3       263         5       267        8.67     272      -59.7
   03/22/2017 20:10      56.0      55.7       70     46.3      0.00     18.10      66.6     0.43      1015.0     6       242         7       245        8.67     272      -74.1
   03/22/2017 20:00      56.3      55.9       70     46.5      0.00     18.10      66.2     0.43      1014.0     6       237         9       226        8.67     271      -78.2
   03/22/2017 19:50      56.7      56.4       70     47.0      0.00     18.10      66.1     0.43      1014.0     5       242         8       256        8.67     271      -79.2
   03/22/2017 19:40      57.2      57.0       70     47.4      0.00     18.10      66.0     0.43      1014.0     4       256         9       261        8.67     271      -79.3
   03/22/2017 19:30      57.5      57.2       69     47.4      0.00     18.10      66.3     0.43      1014.0     4       274         7       268        8.67     271      -79.5
   03/22/2017 19:20      57.6      57.4       69     47.3      0.00     18.10      66.2     0.43      1014.0     5       260         7       260        8.68     271      -78.9
   03/22/2017 19:10      57.6      57.3       68     47.1      0.00     18.10      65.9     0.43      1014.0     6       250         9       249        8.68     271      -76.9
   03/22/2017 19:00      58.0      57.8       67     47.0      0.00     18.10      66.1     0.43      1014.0     6       245         9       236        8.68     270      -73.4
   03/22/2017 18:50      58.5      57.9       65     46.6      0.00     18.10      66.3     0.43      1014.0     6       235         9       243        8.68     270      -68.0
   03/22/2017 18:40      59.5      58.5       63     46.2      0.00     18.10      66.3     0.43      1014.0     8       239        11       242        8.68     270      -50.6
   03/22/2017 18:30      59.9      59.6       59     45.4      0.00     18.10      65.7     0.43      1014.0     6       236         8       251        8.68     270      -29.3
   03/22/2017 18:20      61.0      59.9       56     44.7      0.00     18.10      66.0     0.43      1014.0     7       237        10       225        8.68     269       -9.2
   03/22/2017 18:10      61.0      60.5       56     44.9      0.00     18.10      65.6     0.43      1014.0     7       261        12       252        8.68     270       16.0
   03/22/2017 18:00      61.1      60.9       56     45.1      0.00     18.10      65.8     0.43      1014.0     8       240        10       218        8.69     270       42.4
   03/22/2017 17:50      61.4      61.0       56     45.5      0.00     18.10      65.5     0.43      1014.0     7       251        10       217        8.69     270       72.3
   03/22/2017 17:40      61.3      61.0       56     45.5      0.00     18.10      65.7     0.43      1014.0     6       219        11       230        8.69     270       97.6
   03/22/2017 17:30      61.4      61.1       58     46.4      0.00     18.10      65.8     0.43      1014.0     6       233         9       217        8.69     270      114.7
   03/22/2017 17:20      61.9      61.3       57     46.0      0.00     18.10      65.5     0.43      1014.0     7       241        12       264        8.69     270      117.4
   03/22/2017 17:10      62.4      61.8       54     45.2      0.00     18.10      65.7     0.43      1014.0     8       261        13       254        8.70     270      183.2
   03/22/2017 17:00      62.9      62.3       55     45.9      0.00     18.10      65.8     0.43      1014.0     8       255        11       254        8.70     270      213.6
   03/22/2017 16:50      63.1      62.2       54     45.4      0.00     18.10      65.9     0.43      1014.0     8       239        15       274        8.70     270      229.2
   03/22/2017 16:40      63.0      62.3       54     45.5      0.00     18.10      65.6     0.43      1014.0     8       250        12       226        8.70     271      256.2
   03/22/2017 16:30      63.3      62.5       52     45.1      0.00     18.10      65.8     0.43      1014.0     9       235        12       259        8.71     270      269.8
   03/22/2017 16:20      63.7      62.9       51     45.0      0.00     18.10      65.5     0.43      1014.0     8       256        11       283        8.71     271      285.9
   03/22/2017 16:10      63.1      62.6       54     46.1      0.00     18.10      65.3     0.43      1014.0     7       228        12       224        8.71     271      314.0
   03/22/2017 16:00      64.0      63.3       53     46.0      0.00     18.10      65.4     0.43      1014.0     9       227        12       260        8.70     271      325.4
   03/22/2017 15:50      64.3      63.5       51     45.3      0.00     18.10      65.1     0.43      1014.0     7       224         8       237        8.71     271      386.6
   03/22/2017 15:40      66.1      64.8       47     44.5      0.00     18.10      65.5     0.43      1014.0     6       233        13       239        8.71     271      405.0
   03/22/2017 15:30      65.9      65.2       46     44.3      0.00     18.10      65.0     0.43      1014.0     5       229         7       268        8.71     271      425.1
   03/22/2017 15:20      65.3      64.6       47     44.3      0.00     18.10      65.6     0.43      1014.0     6       262        10       255        8.71     271      348.1
   03/22/2017 15:10      65.9      65.3       47     44.7      0.00     18.10      65.7     0.43      1014.0     6       239        12       258        8.71     271      439.7
   03/22/2017 15:00      65.3      64.4       47     43.8      0.00     18.10      64.9     0.43      1015.0     6       241         9       229        8.71     272      461.6
   03/22/2017 14:50      64.8      64.3       49     44.9      0.00     18.10      65.1     0.43      1015.0     5       234         8       200        8.71     273      342.8
   03/22/2017 14:40      65.1      63.5       48     44.3      0.00     18.10      65.7     0.43      1015.0     5       248         9       230        8.71     273      445.3
   03/22/2017 14:30      63.9      63.4       48     43.7      0.00     18.10      65.2     0.43      1015.0     5       275         7       271        8.71     273      383.7
   03/22/2017 14:20      63.7      63.3       50     44.7      0.00     18.10      64.9     0.43      1015.0     6       262        11       255        8.71     273      312.0
   03/22/2017 14:10      63.4      62.8       49     43.8      0.00     18.10      65.3     0.43      1015.0     6       253         9       244        8.71     274      293.0
   03/22/2017 14:00      63.9      62.8       52     45.3      0.00     18.10      65.1     0.43      1016.0     6       239         9       260        8.71     273      347.5
   03/22/2017 13:50      63.9      62.8       52     45.7      0.00     18.10      65.1     0.43      1016.0     6       249         9       236        8.71     273      310.2
   03/22/2017 13:40      64.7      63.1       50     44.6      0.00     18.10      64.5     0.43      1016.0     4       245         9       230        8.71     273      484.3
   03/22/2017 13:30      63.4      62.8       48     43.0      0.00     18.10      65.1     0.43      1016.0     7       232        10       239        8.71     274      593.5
   03/22/2017 13:20      63.7      62.8       49     43.8      0.00     18.10      65.1     0.43      1016.0     5       238         7       290        8.71     275      465.1
   03/22/2017 13:10      63.4      62.2       47     42.0      0.00     18.10      65.3     0.43      1016.0     5       244         8       230        8.71     275      392.6
   03/22/2017 13:00      63.3      62.3       45     41.0      0.00     18.10      65.1     0.43      1016.0     5       229         7       333        8.71     274      509.5
   03/22/2017 12:50      63.9      63.1       46     42.1      0.00     18.10      64.6     0.43      1016.0     7       262        10       255        8.71     276      465.3
   03/22/2017 12:40      63.3      62.5       50     43.9      0.00     18.10      64.3     0.43      1017.0     6       261        10       250        8.71     277      541.9
   03/22/2017 12:30      62.9      62.5       52     44.8      0.00     18.10      64.4     0.43      1017.0     5       269         8       278        8.71     279      327.6
   03/22/2017 12:20      62.3      61.9       54     45.3      0.00     18.10      65.2     0.43      1017.0     5       272         7       299        8.71     281      296.0
   03/22/2017 12:10      62.0      61.7       56     45.9      0.00     18.10      64.8     0.43      1017.0     5       234         7       232        8.71     282      259.4
   03/22/2017 12:00      62.0      61.7       55     45.4      0.00     18.10      64.8     0.43      1017.0     6       232         7       216        8.71     284      393.1
   03/22/2017 11:50      61.8      61.3       58     46.6      0.00     18.10      65.0     0.43      1017.0     5       225         8       241        8.71     288      333.2
   03/22/2017 11:40      61.3      60.7       61     47.5      0.00     18.10      64.3     0.43      1017.0     4       232         6       268        8.71     291      232.8
   03/22/2017 11:30      61.1      60.5       62     47.5      0.00     18.10      65.3     0.43      1017.0     3       215         5       194        8.71     292      151.4
   03/22/2017 11:20      61.4      61.1       62     48.1      0.00     18.10      64.9     0.43      1017.0     5       215         7       192        8.71     293      403.1
   03/22/2017 11:10      61.9      60.7       64     49.1      0.00     18.10      64.8     0.43      1017.0     4       229         8       201        8.71     298      529.1
   03/22/2017 11:00      60.9      60.4       64     48.6      0.00     18.10      65.3     0.43      1017.0     5       215         7       213        8.71     307      567.6
   03/22/2017 10:50      60.7      59.4       69     49.8      0.00     18.10      64.7     0.43      1017.0     4       246         7       245        8.71     320      479.5
   03/22/2017 10:40      59.8      59.5       71     50.1      0.00     18.10      64.9     0.43      1017.0     4       237         6       226        8.70     330      228.0
   03/22/2017 10:30      60.6      59.5       70     50.1      0.00     18.10      64.8     0.43      1017.0     5       261         7       273        8.71     334      325.5
   03/22/2017 10:20      60.5      59.0       71     50.2      0.00     18.10      65.2     0.43      1017.0     4       242         8       234        8.70     337      487.7
   03/22/2017 10:10      59.2      58.6       73     50.2      0.00     18.10      64.9     0.43      1017.0     6       260         9       269        8.71     343      515.5
   03/22/2017 10:00      58.9      57.8       75     50.5      0.00     18.10      64.9     0.43      1017.0     4       242         6       250        8.70     349      416.6
   03/22/2017 09:50      57.8      57.4       76     50.2      0.00     18.10      65.0     0.43      1017.0     5       233         7       212        8.70     355      239.5
   03/22/2017 09:40      58.6      57.8       76     50.7      0.00     18.10      65.0     0.43      1017.0     4       228         5       225        8.70     358      192.0
   03/22/2017 09:30      58.8      57.9       79     51.8      0.00     18.10      65.3     0.43      1017.0     3       240         6       220        8.70     357      355.2
   03/22/2017 09:20      57.6      57.0       82     51.7      0.00     18.10      64.9     0.43      1017.0     3       212         5       254        8.70     365      320.0
   03/22/2017 09:10      57.1      56.6       83     51.8      0.00     18.10      65.0     0.43      1017.0     3       216         4       215        8.70     372      162.0
   03/22/2017 09:00      56.6      56.3       84     51.8      0.00     18.10      64.9     0.43      1017.0     3       233         5       202        8.70     374      145.8
   03/22/2017 08:50      56.6      56.0       85     51.8      0.00     18.10      64.9     0.43      1017.0     3       214         5       211        8.70     376      154.1
   03/22/2017 08:40      56.1      55.7       87     52.1      0.00     18.10      65.0     0.43      1017.0     4       229         6       245        8.70     381      128.2
   03/22/2017 08:30      55.8      55.1       91     52.8      0.00     18.10      64.8     0.43      1017.0     3       216         6       215        8.70     387      124.6
   03/22/2017 08:20      55.2      54.4       93     52.9      0.00     18.10      65.2     0.43      1017.0     2       196         4       198        8.70     388      142.1
   03/22/2017 08:10      54.4      53.7       94     52.4      0.00     18.10      65.0     0.43      1017.0     3       177         4       165        8.70     391       85.3
   03/22/2017 08:00      53.8      53.5       94     52.1      0.00     18.10      65.1     0.43      1017.0     3       189         4       178        8.70     393       58.4
   03/22/2017 07:50      53.6      53.2       95     51.8      0.00     18.10      64.8     0.43      1017.0     2       173         4       183        8.70     394       55.2
   03/22/2017 07:40      53.4      53.0       95     51.6      0.00     18.10      65.7     0.43      1016.0     2       170         3       186        8.70     397       43.8
   03/22/2017 07:30      52.9      52.6       95     51.3      0.00     18.10      65.6     0.43      1016.0     1       177         2       174        8.70     398       34.2
   03/22/2017 07:20      52.7      51.9       95     51.0      0.00     18.10      65.0     0.43      1016.0     2       184         3       175        8.70     399       17.1
   03/22/2017 07:10      52.1      51.9       95     50.6      0.00     18.10      64.9     0.43      1016.0     2       192         2       171        8.70     399        5.3
   03/22/2017 07:00      52.1      51.7       94     50.4      0.00     18.10      64.9     0.43      1016.0     2       179         2       160        8.70     397       -2.2
   03/22/2017 06:50      52.5      52.3       94     50.8      0.00     18.10      65.3     0.43      1016.0     1       179         2       166        8.70     395       -3.9
   03/22/2017 06:40      52.9      52.3       94     50.9      0.00     18.10      65.2     0.43      1016.0     1       168         2       212        8.70     392       -4.4
   03/22/2017 06:30      53.4      52.5       94     51.1      0.00     18.10      65.5     0.43      1016.0     2       223         2       233        8.70     391       -4.2
   03/22/2017 06:20      53.5      52.6       94     51.4      0.00     18.10      65.0     0.43      1016.0     1       161         2       101        8.70     389       -5.2
   03/22/2017 06:10      53.5      52.9       93     51.3      0.00     18.10      65.5     0.43      1016.0     2        99         2       126        8.70     386       -5.3
   03/22/2017 06:00      54.1      53.6       93     52.0      0.00     18.10      65.9     0.43      1016.0     2       174         3       141        8.70     384       -4.6
   03/22/2017 05:50      54.7      54.1       94     52.7      0.00     18.10      65.9     0.43      1016.0     2       256         3       251        8.70     381       -5.1
   03/22/2017 05:40      54.8      54.4       94     52.8      0.00     18.10      65.6     0.43      1016.0     3       291         4       302        8.70     379       -5.3
   03/22/2017 05:30      54.6      54.3       93     52.5      0.00     18.10      65.7     0.43      1016.0     1       207         2       306        8.70     406       -5.4
   03/22/2017 05:20      55.0      54.6       93     52.6      0.00     18.10      65.8     0.43      1016.0     2       128         3       136        8.70     403       -6.1
   03/22/2017 05:10      55.5      55.2       93     53.2      0.00     18.10      65.5     0.43      1016.0     1       205         1       231        8.70     401       -6.8
   03/22/2017 05:00      55.6      55.4       93     53.6      0.00     18.10      65.8     0.43      1016.0     1       186         2       158        8.70     401       -6.2
   03/22/2017 04:50      55.9      55.5       93     53.9      0.00     18.10      66.1     0.43      1016.0     2       215         3       205        8.70     400       -5.2
   03/22/2017 04:40      55.9      55.5       94     53.8      0.00     18.10      65.6     0.43      1016.0     1       240         2       261        8.70     400       -5.1
   03/22/2017 04:30      55.8      55.7       93     53.8      0.00     18.10      66.2     0.43      1016.0     1       184         1       171        8.70     400       -5.5
   03/22/2017 04:20      56.0      55.8       94     54.1      0.00     18.10      65.8     0.43      1016.0     1       223         1       248        8.70     400       -5.3
   03/22/2017 04:10      56.1      55.7       94     54.1      0.00     18.10      65.6     0.43      1016.0     1       234         2       260        8.70     399       -5.2
   03/22/2017 04:00      56.0      55.8       94     54.1      0.00     18.10      65.6     0.43      1016.0     1       225         2       224        8.70     405       -4.8
   03/22/2017 03:50      56.0      55.6       94     54.0      0.01     18.10      65.5     0.43      1016.0     0       191         1       181        8.70     407       -4.3
   03/22/2017 03:40      55.8      55.5       94     53.9      0.00     18.09      65.6     0.43      1016.0     1       168         2       165        8.70     395       -4.1
   03/22/2017 03:30      55.9      55.7       94     54.0      0.00     18.09      65.5     0.43      1016.0     1       194         1       167        8.70     391       -3.9
   03/22/2017 03:20      56.0      55.8       94     54.0      0.00     18.09      66.0     0.43      1016.0     1       156         1       203        8.70     391       -4.0
   03/22/2017 03:10      56.0      55.6       94     53.9      0.00     18.09      65.2     0.43      1016.0     0        44         1       342        8.70     391       -4.2
   03/22/2017 03:00      55.7      55.5       93     53.7      0.00     18.09      66.0     0.43      1016.0     1       125         1       128        8.70     390       -4.2
   03/22/2017 02:50      55.7      55.5       93     53.7      0.00     18.09      65.2     0.43      1017.0     1        57         1         2        8.69     390       -4.8
   03/22/2017 02:40      55.6      55.4       93     53.5      0.00     18.09      65.5     0.43      1017.0     1       106         1       117        8.69     390       -4.7
   03/22/2017 02:30      55.9      55.5       93     53.7      0.00     18.09      65.1     0.43      1017.0     1        78         1       358        8.69     390       -6.2
   03/22/2017 02:20      56.1      55.8       92     53.8      0.00     18.09      65.8     0.43      1017.0     1        10         2       354        8.69     388       -7.0
   03/22/2017 02:10      56.2      56.0       92     53.9      0.00     18.09      65.8     0.43      1017.0     0        72         1       199        8.69     385       -6.0
   03/22/2017 02:00      56.2      56.0       92     53.9      0.00     18.09      65.1     0.43      1017.0     1       141         1       116        8.69     383       -5.7
   03/22/2017 01:50      56.1      56.0       92     53.8      0.00     18.09      66.0     0.43      1017.0     1       114         1       117        8.69     381       -5.5
   03/22/2017 01:40      56.3      56.0       92     53.8      0.00     18.09      65.8     0.43      1017.0     0        87         1        76        8.69     380       -5.5
   03/22/2017 01:30      56.1      55.9       92     53.7      0.00     18.09      65.8     0.43      1017.0     1        75         1       145        8.69     378       -5.5
   03/22/2017 01:20      56.0      55.8       92     53.6      0.00     18.09      65.8     0.43      1017.0     1       126         1       147        8.69     376       -5.3
   03/22/2017 01:10      56.0      55.7       92     53.4      0.00     18.09      65.6     0.43      1017.0     2       138         2       152        8.69     391       -5.2
   03/22/2017 01:00      56.1      55.8       92     53.4      0.00     18.09      65.5     0.43      1017.0     2       160         3       159        8.69     389       -5.2
   03/22/2017 00:50      56.4      56.0       91     53.7      0.00     18.09      66.3     0.43      1017.0     2       177         2       156        8.69     387       -5.4
   03/22/2017 00:40      56.6      56.4       92     54.0      0.00     18.09      65.1     0.43      1017.0     0       148         1       147        8.69     385       -5.4
   03/22/2017 00:30      56.6      56.3       92     54.1      0.00     18.09      66.0     0.43      1017.0     1        65         1        77        8.69     385       -5.2
   03/22/2017 00:20      56.5      56.2       92     53.9      0.00     18.09      66.3     0.43      1017.0     1        69         2        69        8.69     383       -5.4
   03/22/2017 00:10      56.4      56.1       92     53.9      0.00     18.09      66.0     0.43      1017.0     1        86         1        76        8.69     382       -5.4
   03/22/2017 00:00      56.5      56.3       92     54.0      0.00     18.09      65.8     0.43      1017.0     1        66         1        77        8.69     381       -5.3
   03/21/2017 23:50      56.6      56.4       92     54.2      0.00     18.09      65.0     0.43      1018.0     1        54         2        68        8.69     379       -5.3
   03/21/2017 23:40      56.6      56.4       92     54.2      0.00     18.09      65.9     0.43      1017.0     1        57         1        33        8.69     378       -5.4
   03/21/2017 23:30      56.6      56.5       92     54.2      0.00     18.09      66.2     0.43      1017.0     1        69         2        66        8.69     378       -5.4
   03/21/2017 23:20      56.6      56.1       92     54.1      0.00     18.09      66.2     0.43      1017.0     1        61         2        84        8.69     378       -5.5
   03/21/2017 23:10      56.5      56.1       92     53.9      0.00     18.09      65.8     0.43      1017.0     1        90         2        68        8.69     377       -5.4
   03/21/2017 23:00      56.8      56.4       91     54.1      0.00     18.09      66.1     0.43      1018.0     1        98         2        89        8.69     376       -5.3
   03/21/2017 22:50      56.8      56.6       91     54.2      0.00     18.09      65.8     0.43      1018.0     1        61         2        78        8.69     374       -5.6
   03/21/2017 22:40      56.9      56.5       91     54.0      0.00     18.09      66.3     0.43      1018.0     1        63         1        37        8.69     374       -6.2
   03/21/2017 22:30      56.6      56.3       91     53.8      0.00     18.09      65.8     0.43      1018.0     0        51         1        80        8.69     373       -6.4
   03/21/2017 22:20      56.6      56.3       91     53.8      0.00     18.09      66.3     0.43      1018.0     1       184         1       200        8.69     372       -6.7
   03/21/2017 22:10      56.6      56.3       91     53.8      0.00     18.09      66.2     0.43      1018.0     1       166         1       165        8.69     371       -6.6
   03/21/2017 22:00      56.4      56.3       91     53.7      0.00     18.09      66.1     0.43      1018.0     1       170         2       165        8.69     370       -6.4
   03/21/2017 21:50      56.4      56.2       91     53.7      0.00     18.09      65.9     0.43      1018.0     1       186         2       185        8.69     368       -6.3
   03/21/2017 21:40      56.5      56.2       91     53.9      0.00     18.09      66.0     0.43      1018.0     1       181         2       185        8.69     368       -6.3
   03/21/2017 21:30      56.4      56.0       91     53.8      0.00     18.09      65.9     0.43      1018.0     1       141         2       120        8.69     367       -6.2
   03/21/2017 21:20      56.4      56.0       92     53.8      0.01     18.09      65.7     0.43      1018.0     2       137         3       130        8.68     366       -6.3
   03/21/2017 21:10      56.7      56.2       92     54.0      0.00     18.08      65.9     0.43      1018.0     2       164         3       169        8.68     364       -6.4
   03/21/2017 21:00      56.6      56.4       92     54.2      0.00     18.08      66.3     0.43      1018.0     1       172         1       186        8.68     363       -6.8
   03/21/2017 20:50      56.6      56.4       92     54.3      0.00     18.08      66.5     0.43      1018.0     1       209         1       210        8.68     362       -6.9
   03/21/2017 20:40      56.6      56.4       92     54.3      0.00     18.08      66.2     0.43      1017.0     1       126         1       127        8.68     361       -6.7
   03/21/2017 20:30      56.6      56.1       92     54.2      0.00     18.08      66.1     0.43      1017.0     1        72         2        67        8.68     360       -6.9
   03/21/2017 20:20      56.3      56.0       92     54.0      0.00     18.08      66.1     0.43      1017.0     2       156         2       178        8.68     359       -7.0
   03/21/2017 20:10      56.5      56.3       93     54.4      0.00     18.08      66.5     0.43      1017.0     2       152         2       116        8.68     357       -6.6
   03/21/2017 20:00      56.6      56.4       93     54.5      0.00     18.08      66.6     0.43      1017.0     2       106         3       100        8.68     355       -6.5
   03/21/2017 19:50      56.6      56.4       93     54.5      0.00     18.08      65.8     0.43      1017.0     2       111         3        99        8.68     356       -6.7
   03/21/2017 19:40      56.7      56.3       93     54.5      0.00     18.08      66.2     0.43      1017.0     1        70         2        96        8.68     355       -6.6
   03/21/2017 19:30      56.6      56.5       93     54.4      0.00     18.08      66.4     0.43      1017.0     2        62         4        71        8.68     354       -6.4
   03/21/2017 19:20      56.6      56.5       92     54.4      0.00     18.08      66.4     0.43      1017.0     2        56         3        72        8.67     352       -6.1
   03/21/2017 19:10      56.9      56.5       92     54.5      0.00     18.08      65.8     0.43      1017.0     2        61         4        72        8.67     350       -5.2
   03/21/2017 19:00      57.1      56.6       92     54.5      0.00     18.08      65.7     0.43      1017.0     2        71         3        81        8.67     348       -2.8
   03/21/2017 18:50      56.8      56.5       92     54.3      0.00     18.08      66.4     0.43      1017.0     2        89         3       131        8.67     347       -0.4
   03/21/2017 18:40      56.8      56.5       91     54.1      0.00     18.08      66.0     0.43      1017.0     2        86         3        81        8.67     345        1.2
   03/21/2017 18:30      57.0      56.6       91     54.3      0.00     18.08      65.7     0.43      1017.0     4        76         7        61        8.67     343        7.7
   03/21/2017 18:20      57.0      56.7       91     54.3      0.00     18.08      66.4     0.43      1017.0     3        96         4        85        8.67     342       17.8
   03/21/2017 18:10      56.9      56.6       91     54.3      0.00     18.08      66.2     0.43      1017.0     3        97         5        68        8.67     341       20.6
   03/21/2017 18:00      57.1      56.7       92     54.5      0.00     18.08      66.0     0.43      1017.0     3        79         6        68        8.67     339       15.2
   03/21/2017 17:50      57.5      57.0       91     54.7      0.00     18.08      66.0     0.43      1017.0     4        99         5       137        8.67     336       19.3
   03/21/2017 17:40      57.5      57.1       91     54.9      0.01     18.08      65.9     0.43      1017.0     2        88         3       103        8.67     334       18.0
   03/21/2017 17:30      57.4      57.0       91     54.5      0.00     18.07      66.2     0.43      1017.0     2        85         4        63        8.67     332       24.8
   03/21/2017 17:20      57.5      57.2       91     54.7      0.00     18.07      66.5     0.43      1017.0     2       101         3        87        8.67     330       32.2
   03/21/2017 17:10      57.5      57.4       90     54.5      0.00     18.07      66.0     0.43      1017.0     2        93         3        77        8.67     328       35.6
   03/21/2017 17:00      57.7      57.5       90     54.6      0.00     18.07      66.2     0.43      1017.0     2        57         4        67        8.67     327       43.0
   03/21/2017 16:50      57.6      57.3       90     54.4      0.00     18.07      66.3     0.43      1018.0     1        78         2        62        8.67     326       60.3
   03/21/2017 16:40      57.5      57.4       89     54.4      0.00     18.07      66.3     0.43      1018.0     3        74         5        99        8.67     325       66.3
   03/21/2017 16:30      57.6      57.4       90     54.5      0.00     18.07      66.0     0.43      1018.0     2        90         3        82        8.67     324       92.1
   03/21/2017 16:20      57.6      57.5       90     54.6      0.00     18.07      66.6     0.43      1018.0     2       103         5       139        8.67     323       77.5
   03/21/2017 16:10      57.8      57.5       90     54.7      0.01     18.07      66.7     0.43      1018.0     2        58         3        60        8.67     328       91.0
   03/21/2017 16:00      57.8      57.5       90     54.7      0.01     18.06      67.0     0.43      1018.0     2        69         4        90        8.67     330       92.3
   03/21/2017 15:50      57.6      57.4       90     54.6      0.00     18.05      66.3     0.43      1018.0     2        69         3        67        8.67     340       61.6
   03/21/2017 15:40      57.8      57.6       90     54.9      0.01     18.05      66.1     0.43      1018.0     2        92         4       100        8.66     345       81.2
   03/21/2017 15:30      58.0      57.5       89     54.7      0.01     18.04      66.1     0.43      1018.0     2        73         3       114        8.66     340      115.8
   03/21/2017 15:20      58.2      58.0       89     55.0      0.01     18.03      66.3     0.43      1018.0     2        63         3        70        8.66     327      104.4
   03/21/2017 15:10      58.1      57.7       89     54.8      0.02     18.02      65.7     0.43      1018.0     1        57         3        73        8.66     314      111.3
   03/21/2017 15:00      58.0      57.8       88     54.3      0.02     18.00      66.1     0.43      1018.0     1        56         2        78        8.66     307       73.0
   03/21/2017 14:50      58.2      57.8       88     54.4      0.01     17.98      66.7     0.43      1018.0     2        70         3       156        8.66     303      128.7
   03/21/2017 14:40      57.9      57.5       86     53.5      0.01     17.97      65.9     0.43      1018.0     3       134         4       103        8.66     299      111.6
   03/21/2017 14:30      58.0      57.6       85     53.2      0.00     17.96      66.0     0.43      1018.0     4       118         8       121        8.66     287      130.4
   03/21/2017 14:20      58.0      57.5       86     53.6      0.00     17.96      66.4     0.43      1018.0     3       113         5        95        8.66     288      142.5
   03/21/2017 14:10      57.6      57.4       85     52.9      0.02     17.96      66.0     0.43      1018.0     3       127         6       134        8.66     287      116.7
   03/21/2017 14:00      58.5      57.9       81     52.5      0.01     17.94      66.0     0.43      1019.0     4       115         6       136        8.66     279       62.1
   03/21/2017 13:50      58.9      58.5       77     51.7      0.00     17.93      66.1     0.43      1019.0     2       131         5       115        8.66     276       21.3
   03/21/2017 13:40      59.4      59.0       74     51.0      0.00     17.93      66.3     0.43      1019.0     3       132         4       144        8.66     276       15.1
   03/21/2017 13:30      59.8      59.4       70     49.7      0.00     17.93      66.4     0.43      1019.0     3       116         4        95        8.66     273       35.9
   03/21/2017 13:20      59.8      59.5       69     49.4      0.00     17.93      66.2     0.43      1019.0     4        98         5        96        8.66     271       62.1
   03/21/2017 13:10      59.5      59.0       70     49.6      0.00     17.93      66.2     0.43      1019.0     4        78         5        87        8.66     270       80.0
   03/21/2017 13:00      60.5      58.9       70     49.8      0.00     17.93      66.3     0.43      1019.0     4       113         7       133        8.66     270       63.3
   03/21/2017 12:50      60.9      60.4       66     49.2      0.00     17.93      66.5     0.43      1019.0     3        89         4        91        8.66     270       92.5
   03/21/2017 12:40      61.0      60.3       65     49.0      0.00     17.93      66.1     0.43      1019.0     4        74         7        83        8.66     270      140.7
   03/21/2017 12:30      60.4      59.9       66     48.8      0.00     17.93      66.4     0.43      1019.0     4        75         6        75        8.66     271      135.2
   03/21/2017 12:20      60.3      59.9       67     48.9      0.00     17.93      66.1     0.43      1019.0     4        89         7        72        8.66     272      142.4
   03/21/2017 12:10      60.4      59.7       69     49.9      0.00     17.93      66.2     0.43      1019.0     3        69         4        40        8.66     273      155.4
   03/21/2017 12:00      59.8      59.5       71     50.2      0.00     17.93      66.2     0.43      1019.0     3        46         4        71        8.66     274      155.2
   03/21/2017 11:50      60.1      59.8       69     49.9      0.00     17.93      66.2     0.43      1019.0     2        49         4        55        8.66     273       87.5
   03/21/2017 11:40      60.3      59.5       72     50.7      0.00     17.93      66.3     0.43      1019.0     3        60         7        96        8.66     271      189.0
   03/21/2017 11:30      59.9      59.3       70     49.7      0.00     17.93      66.3     0.43      1019.0     3        92         5        58        8.66     272      130.0
   03/21/2017 11:20      59.5      59.0       70     49.4      0.00     17.93      66.1     0.43      1019.0     4        75         8       131        8.66     270      112.5
   03/21/2017 11:10      59.6      59.1       69     49.1      0.00     17.93      66.3     0.43      1019.0     4        70         7        71        8.66     270       87.5
   03/21/2017 11:00      60.6      59.4       68     49.4      0.00     17.93      66.2     0.43      1019.0     4       102         6        85        8.66     270      156.3
   03/21/2017 10:50      60.6      59.7       68     49.5      0.00     17.93      66.5     0.43      1019.0  1168       307      1944       999        8.66     270      253.7
   03/21/2017 10:40      59.7      58.4       70     49.2      0.00     17.93      66.3     0.43      1019.0     3        69         6        68        8.66     271      192.7
   03/21/2017 10:30      59.2      58.5       70     49.2      0.00     17.93      66.2     0.43      1019.0     4        95         7       130        8.67     270      168.8
   03/21/2017 10:20      59.3      58.3       72     49.6      0.00     17.93      66.2     0.43      1019.0     3        72         5        95        8.67     271      180.7
   03/21/2017 10:10      58.4      57.8       73     49.3      0.00     17.93      66.2     0.43      1019.0     3        61         5        69        8.67     271       87.7
   03/21/2017 10:00      57.8      57.0       74     49.4      0.00     17.93      65.9     0.43      1019.0     4        60         5        65        8.67     271       82.3
   03/21/2017 09:50      57.5      57.0       74     49.1      0.00     17.93      66.3     0.43      1019.0     4        97         6        76        8.67     271       64.1
   03/21/2017 09:40      57.8      57.5       74     49.4      0.00     17.93      67.1     0.43      1019.0     2        94         4       135        8.67     271       49.3
   03/21/2017 09:30      57.7      57.5       74     49.3      0.00     17.93      66.4     0.43      1019.0     3        57         5        60        8.67     271       83.8
   03/21/2017 09:20      57.6      56.9       76     49.5      0.00     17.93      66.4     0.43      1019.0     3        55         4        52        8.67     271      115.7
   03/21/2017 09:10      57.0      56.6       77     49.6      0.00     17.93      66.4     0.43      1019.0     3        70         4        78        8.67     272       40.4
   03/21/2017 09:00      57.1      56.9       76     49.4      0.00     17.93      66.3     0.43      1019.0     2        58         3        75        8.67     271        7.2
   03/21/2017 08:50      57.1      56.9       77     49.8      0.00     17.93      66.6     0.43      1019.0     2        58         2        54        8.67     271       13.3
   03/21/2017 08:40      56.9      56.6       77     49.5      0.00     17.93      66.5     0.43      1019.0     2        69         3        72        8.67     271       18.6
   03/21/2017 08:30      56.8      56.3       76     49.1      0.00     17.93      66.4     0.43      1019.0     2        71         3        65        8.67     272       32.7
   03/21/2017 08:20      56.4      56.0       77     48.9      0.00     17.93      66.5     0.43      1019.0     2        45         3         0        8.67     272       33.1
   03/21/2017 08:10      56.1      55.8       79     49.5      0.00     17.93      66.3     0.43      1019.0     2        54         3        67        8.67     272       24.6
   03/21/2017 08:00      55.8      55.5       80     49.4      0.00     17.93      66.5     0.43      1019.0     1       207         2       221        8.67     271        2.3
   03/21/2017 07:50      55.7      55.4       81     49.6      0.00     17.93      67.0     0.43      1019.0     2       175         3       187        8.67     271       -3.2
   03/21/2017 07:40      55.5      55.2       81     49.7      0.00     17.93      66.6     0.43      1019.0     1        97         2       109        8.67     272       -2.8
   03/21/2017 07:30      55.2      54.9       83     49.9      0.00     17.93      67.1     0.43      1018.0     2        93         2        76        8.67     271       -1.1
   03/21/2017 07:20      54.9      54.6       83     49.7      0.00     17.93      66.4     0.43      1018.0     1       171         1       149        8.67     271       -3.2
   03/21/2017 07:10      55.1      54.8       83     49.8      0.00     17.93      66.9     0.43      1018.0     1       162         2       213        8.67     271      -18.9
   03/21/2017 07:00      55.1      54.8       83     49.7      0.00     17.93      66.7     0.43      1018.0     1       173         1       114        8.67     270      -16.6
   03/21/2017 06:50      54.9      54.5       84     49.8      0.00     17.93      66.6     0.43      1018.0     1       179         3       236        8.67     271      -12.3
   03/21/2017 06:40      54.7      54.5       83     49.6      0.00     17.93      67.0     0.43      1018.0     3       161         3       145        8.67     271      -35.1
   03/21/2017 06:30      55.1      54.8       83     49.8      0.00     17.93      66.6     0.43      1018.0     2        87         3       119        8.67     271      -42.0
   03/21/2017 06:20      55.3      55.1       81     49.5      0.00     17.93      66.7     0.43      1018.0     2        87         3        92        8.67     271      -26.6
   03/21/2017 06:10      55.6      55.4       80     49.4      0.00     17.93      66.6     0.43      1018.0     1        10         2       307        8.67     271      -27.4
   03/21/2017 06:00      55.5      55.2       81     49.4      0.00     17.93      67.1     0.43      1018.0     3         4         5       356        8.68     271      -22.3
   03/21/2017 05:50      55.4      55.1       80     49.3      0.00     17.93      66.8     0.43      1018.0     2        10         3        11        8.68     271      -26.2
   03/21/2017 05:40      55.5      55.2       79     49.0      0.00     17.93      66.9     0.43      1018.0     2        11         3       358        8.68     270      -28.9
   03/21/2017 05:30      55.5      55.2       79     49.0      0.00     17.93      67.0     0.43      1018.0     2        42         3        32        8.68     270      -26.1
   03/21/2017 05:20      55.6      55.4       77     48.6      0.00     17.93      66.7     0.43      1019.0     2        46         2        31        8.68     271      -13.6
   03/21/2017 05:10      55.9      55.5       76     48.1      0.00     17.93      67.1     0.43      1019.0     1       168         2       211        8.68     270      -13.1
   03/21/2017 05:00      56.0      55.8       74     47.8      0.00     17.93      67.0     0.43      1019.0     1       112         3        75        8.68     270      -11.6
   03/21/2017 04:50      55.9      55.7       71     46.8      0.00     17.93      67.1     0.43      1018.0     2        62         3        91        8.68     270      -11.0
   03/21/2017 04:40      55.9      55.5       71     46.4      0.00     17.93      66.9     0.43      1018.0     2        74         3        78        8.68     270      -10.7
   03/21/2017 04:30      56.1      55.7       71     46.4      0.00     17.93      67.2     0.43      1019.0     1        82         2       104        8.68     270      -11.6
   03/21/2017 04:20      56.0      55.5       71     46.4      0.00     17.93      67.1     0.43      1019.0     1        56         2        64        8.68     270      -14.0
   03/21/2017 04:10      55.9      55.5       72     46.9      0.00     17.93      67.1     0.43      1019.0     1        57         2        57        8.68     270      -14.0
   03/21/2017 04:00      55.7      55.4       73     46.9      0.00     17.93      67.2     0.43      1019.0     1       107         1        56        8.68     270      -12.9
   03/21/2017 03:50      55.5      55.4       73     46.8      0.00     17.93      67.2     0.43      1019.0     1       230         1       235        8.68     270      -13.7
   03/21/2017 03:40      55.5      55.1       72     46.6      0.00     17.93      67.2     0.43      1018.0     1        97         1       101        8.68     270      -12.8
   03/21/2017 03:30      55.3      54.7       73     46.6      0.00     17.93      67.2     0.43      1019.0     1       221         2       196        8.68     270      -11.5
   03/21/2017 03:20      54.8      54.6       74     46.8      0.00     17.93      67.4     0.43      1018.0     1       115         1       142        8.68     270      -16.0
   03/21/2017 03:10      54.7      54.5       75     46.9      0.00     17.93      67.2     0.43      1018.0     1        77         2        61        8.68     270      -13.8
   03/21/2017 03:00      54.6      54.2       76     47.0      0.00     17.93      67.3     0.43      1019.0     1       164         2       211        8.68     270       -9.4
   03/21/2017 02:50      54.2      53.3       77     46.6      0.00     17.93      67.1     0.43      1019.0     2       233         2       225        8.68     270       -9.2
   03/21/2017 02:40      53.4      53.1       78     46.5      0.00     17.93      67.4     0.43      1019.0     1       191         1       199        8.68     270      -16.9
   03/21/2017 02:30      53.6      53.5       77     46.6      0.00     17.93      67.5     0.43      1019.0     1       165         1       224        8.68     269      -38.6
   03/21/2017 02:20      53.6      53.1       77     46.5      0.00     17.93      67.3     0.43      1019.0     2       205         2       231        8.68     269      -31.6
   03/21/2017 02:10      53.5      53.4       77     46.3      0.00     17.93      67.7     0.43      1019.0     1       156         2       160        8.68     269      -40.9
   03/21/2017 02:00      53.7      53.4       77     46.5      0.00     17.93      67.7     0.43      1019.0     1       197         2       122        8.68     269      -42.3
   03/21/2017 01:50      54.5      54.0       75     46.4      0.00     17.93      67.6     0.43      1019.0     1        86         2        77        8.69     269      -51.7
   03/21/2017 01:40      54.6      54.3       75     46.7      0.00     17.93      67.5     0.43      1019.0     1        74         1        64        8.69     269      -48.4
   03/21/2017 01:30      54.6      54.2       75     46.6      0.00     17.93      67.4     0.43      1019.0     1       117         2       142        8.69     269      -28.3
   03/21/2017 01:20      54.3      53.9       75     46.5      0.00     17.93      67.7     0.43      1019.0     1       127         2       204        8.69     269      -12.2
   03/21/2017 01:10      54.1      53.6       76     46.4      0.00     17.93      67.6     0.43      1019.0     2       206         3       198        8.69     269      -31.5
   03/21/2017 01:00      53.7      53.5       76     46.4      0.00     17.93      67.7     0.43      1019.0     1       156         2        77        8.70     269      -38.7
   03/21/2017 00:50      53.7      53.5       76     46.4      0.00     17.93      67.6     0.43      1019.0     1       103         2        73        8.70     269      -37.6
   03/21/2017 00:40      53.7      53.4       77     46.5      0.00     17.93      67.6     0.43      1019.0     1       136         1       122        8.70     269      -41.4
   03/21/2017 00:30      53.7      53.1       76     46.3      0.00     17.93      67.4     0.43      1019.0     1       168         2       161        8.70     269      -27.1
   03/21/2017 00:20      53.5      53.1       77     46.2      0.00     17.93      67.8     0.43      1019.0     1       154         2       187        8.70     269      -32.8
   03/21/2017 00:10      53.8      53.4       75     46.0      0.00     17.93      67.6     0.43      1019.0     1       157         2       201        8.70     268      -54.0
   03/21/2017 00:00      53.3      53.0       77     46.0      0.00     17.93      67.5     0.43      1019.0     1       174         2       172        8.70     269      -48.3
   03/20/2017 23:50      54.1      53.4       75     45.8      0.00     17.93      67.7     0.43      1019.0     1       106         1        98        8.70     268      -46.8
   03/20/2017 23:40      54.1      53.5       74     45.7      0.00     17.93      67.5     0.43      1019.0     1       180         2       199        8.70     268      -50.8
   03/20/2017 23:30      54.3      53.8       74     45.9      0.00     17.93      67.6     0.43      1019.0     1       176         2       180        8.70     268      -54.8
   03/20/2017 23:20      54.6      54.1       73     45.9      0.00     17.93      67.5     0.43      1019.0     2       160         2       163        8.70     268      -56.8
   03/20/2017 23:10      54.6      54.3       72     45.8      0.00     17.93      67.7     0.43      1019.0     2       171         3       195        8.70     268      -60.3
   03/20/2017 23:00      55.0      54.3       71     45.5      0.00     17.93      67.7     0.43      1019.0     1       139         2       159        8.70     268      -60.7
   03/20/2017 22:50      55.9      55.2       68     45.4      0.00     17.93      68.1     0.43      1019.0     1       148         2       167        8.71     268      -58.2
   03/20/2017 22:40      56.1      55.9       68     45.5      0.00     17.93      67.9     0.43      1019.0     2       224         2       216        8.71     268      -57.1
   03/20/2017 22:30      56.2      56.0       67     45.4      0.00     17.93      68.1     0.43      1019.0     1       222         2       239        8.71     268      -53.6
   03/20/2017 22:20      56.5      56.1       67     45.5      0.00     17.93      67.7     0.43      1019.0     2       219         4       208        8.71     267      -52.3
   03/20/2017 22:10      56.6      56.4       66     45.5      0.00     17.93      67.9     0.43      1019.0     3       236         5       233        8.71     267      -53.0
   03/20/2017 22:00      56.6      56.4       66     45.3      0.00     17.93      67.9     0.43      1019.0     4       217         6       224        8.71     267      -52.1
   03/20/2017 21:50      57.1      56.6       66     45.5      0.00     17.93      67.9     0.43      1019.0     4       228         6       241        8.71     267      -51.9
   03/20/2017 21:40      57.3      56.9       66     45.8      0.00     17.93      67.7     0.43      1019.0     4       230         5       247        8.72     267      -48.3
   03/20/2017 21:30      57.1      57.0       66     45.9      0.00     17.93      67.7     0.43      1019.0     3       207         4       248        8.72     267      -40.1
   03/20/2017 21:20      57.2      56.9       66     45.8      0.00     17.93      67.7     0.43      1018.0     2       196         3       197        8.72     267      -35.6
   03/20/2017 21:10      57.2      56.9       66     45.7      0.00     17.93      67.9     0.43      1018.0     2       193         3       185        8.72     267      -36.3
   03/20/2017 21:00      57.2      56.9       65     45.5      0.00     17.93      67.9     0.43      1018.0     2       210         2       200        8.72     267      -36.3
   03/20/2017 20:50      57.0      56.8       65     45.3      0.00     17.93      67.8     0.43      1018.0     2       210         3       213        8.72     267      -39.8
   03/20/2017 20:40      57.0      56.8       64     44.9      0.00     17.93      67.8     0.43      1018.0     2       203         4       196        8.73     267      -47.5
   03/20/2017 20:30      57.2      57.0       62     44.3      0.00     17.93      67.9     0.43      1018.0     2       218         4       202        8.73     267      -59.1
   03/20/2017 20:20      57.5      57.2       61     44.1      0.00     17.93      67.8     0.43      1018.0     3       200         3       192        8.73     267      -68.3
   03/20/2017 20:10      57.8      57.5       61     44.1      0.00     17.93      67.9     0.43      1018.0     2       199         2       192        8.73     267      -71.0
   03/20/2017 20:00      58.3      57.9       60     44.1      0.00     17.93      67.7     0.43      1018.0     2       210         4       182        8.73     267      -71.2
   03/20/2017 19:50      58.6      58.3       59     44.2      0.00     17.93      67.7     0.43      1018.0     2       229         4       226        8.74     267      -69.6
   03/20/2017 19:40      58.9      58.6       58     44.1      0.00     17.93      67.5     0.43      1018.0     3       223         4       225        8.74     266      -65.8
   03/20/2017 19:30      59.3      58.9       57     43.9      0.00     17.93      67.5     0.43      1018.0     3       228         4       216        8.74     266      -61.0
   03/20/2017 19:20      59.5      59.3       56     43.7      0.00     17.93      67.7     0.43      1018.0     4       237         6       239        8.75     266      -61.7
   03/20/2017 19:10      59.9      59.5       55     43.6      0.00     17.93      67.6     0.43      1018.0     4       235         6       226        8.75     266      -62.8
   03/20/2017 19:00      60.4      59.9       55     43.9      0.00     17.93      67.6     0.43      1018.0     5       242         6       262        8.75     266      -58.6
   03/20/2017 18:50      61.1      60.4       54     44.2      0.00     17.93      67.5     0.43      1018.0     4       222         7       221        8.75     266      -53.4
   03/20/2017 18:40      61.6      61.3       52     43.9      0.00     17.93      67.4     0.43      1017.0     6       258         7       241        8.75     266      -52.5
   03/20/2017 18:30      62.3      61.4       52     44.1      0.00     17.93      67.2     0.43      1017.0     5       236         7       267        8.76     266      -49.9
   03/20/2017 18:20      62.8      62.3       57     47.4      0.00     17.93      67.2     0.43      1017.0     3       203         6       232        8.76     266      -57.6
   03/20/2017 18:10      63.3      63.0       57     47.5      0.00     17.93      67.3     0.43      1017.0     4       174         5       136        8.76     266      -31.3
   03/20/2017 18:00      63.6      63.3       56     47.7      0.00     17.93      67.1     0.43      1017.0     5       164         6       180        8.77     266      -21.7
   03/20/2017 17:50      64.7      63.7       55     47.8      0.00     17.93      67.2     0.43      1017.0     5       161         7       159        8.77     265        4.2
   03/20/2017 17:40      64.8      64.2       55     47.8      0.00     17.93      67.2     0.43      1017.0     4       172         6       163        8.77     265       54.6
   03/20/2017 17:30      65.0      64.6       54     47.6      0.00     17.93      67.1     0.43      1017.0     5       161         7       161        8.78     265       74.3
   03/20/2017 17:20      65.4      64.9       53     47.5      0.00     17.93      67.2     0.43      1017.0     6       156         8       166        8.78     265      155.7
   03/20/2017 17:10      65.4      64.9       52     47.4      0.00     17.93      67.2     0.43      1017.0     6       142         8       137        8.78     266      216.5
   03/20/2017 17:00      65.2      64.9       53     47.5      0.00     17.93      66.9     0.43      1017.0     5       162         7       159        8.78     265      149.7
   03/20/2017 16:50      65.3      64.9       53     47.4      0.00     17.93      67.1     0.43      1017.0     6       154         8       160        8.79     265      126.0
   03/20/2017 16:40      65.8      65.2       52     47.4      0.00     17.93      67.0     0.43      1017.0     6       173         8       188        8.79     265      102.8
   03/20/2017 16:30      67.9      65.8       49     47.0      0.00     17.93      66.9     0.43      1017.0     7       165         9       159        8.79     264      107.2
   03/20/2017 16:20      68.3      67.7       47     47.1      0.00     17.93      66.7     0.43      1017.0     6       156         8       159        8.79     266      262.6
   03/20/2017 16:10      68.5      67.6       47     47.0      0.00     17.93      66.8     0.43      1017.0     5       144         8       169        8.80     266      266.7
   03/20/2017 16:00      68.1      67.4       47     47.0      0.00     17.93      66.7     0.43      1017.0     5       180         8       187        8.80     266      295.7
   03/20/2017 15:50      69.3      68.0       46     46.9      0.00     17.93      66.5     0.43      1017.0     6       170         8       168        8.80     266      321.7
   03/20/2017 15:40      69.5      68.8       45     47.2      0.00     17.93      66.5     0.43      1017.0     3       139         6       155        8.80     266      346.3
   03/20/2017 15:30      69.4      68.7       47     48.0      0.00     17.93      66.6     0.43      1017.0     4       150         6       180        8.80     266      359.5
   03/20/2017 15:20      71.5      69.3       45     48.2      0.00     17.93      66.8     0.43      1017.0     4       144         6       164        8.80     266      377.3
   03/20/2017 15:10      70.8      68.9       45     47.7      0.00     17.93      66.6     0.43      1017.0     3       168         5       159        8.80     266      416.5
   03/20/2017 15:00      71.1      70.3       43     47.4      0.00     17.93      66.5     0.43      1017.0     3       336         5       358        8.80     267      379.7
   03/20/2017 14:50      70.8      69.2       44     47.5      0.00     17.93      66.6     0.43      1017.0     3         5         4       294        8.80     267      414.0
   03/20/2017 14:40      69.4      68.7       46     47.4      0.00     17.93      66.3     0.43      1017.0     4        63         7        73        8.80     267      450.0
   03/20/2017 14:30      69.8      68.0       47     47.6      0.00     17.93      66.4     0.43      1017.0     3        42         6        63        8.80     267      459.2
   03/20/2017 14:20      68.3      67.4       48     47.4      0.00     17.93      66.5     0.43      1017.0     4       245         5       185        8.80     267      471.6
   03/20/2017 14:10      68.6      67.8       47     47.1      0.00     17.93      66.4     0.43      1018.0     2        21         4       300        8.80     268      483.6
   03/20/2017 14:00      68.7      67.5       47     47.5      0.00     17.93      66.4     0.43      1018.0     3        72         4       104        8.80     267      400.5
   03/20/2017 13:50      69.8      67.2       47     47.7      0.00     17.93      66.3     0.43      1018.0     2        26         6       115        8.80     267      504.2
   03/20/2017 13:40      67.5      67.0       49     47.3      0.00     17.93      66.4     0.43      1018.0     2        74         4        98        8.80     268      514.4
   03/20/2017 13:30      67.7      66.0       50     47.6      0.00     17.93      66.3     0.43      1018.0     4        85         7        77        8.81     268      528.6
   03/20/2017 13:20      66.9      65.8       50     47.3      0.00     17.93      66.3     0.43      1018.0     4        64         8        78        8.81     268      322.6
   03/20/2017 13:10      67.1      66.3       50     47.4      0.00     17.93      66.3     0.43      1018.0     3        42         6        45        8.80     267      514.8
   03/20/2017 13:00      67.3      65.3       51     47.3      0.00     17.93      66.4     0.43      1019.0     5        51        11        75        8.80     268      539.7
   03/20/2017 12:50      66.7      65.8       50     47.1      0.00     17.93      66.3     0.43      1019.0     3        49         6       120        8.81     268      539.5
   03/20/2017 12:40      66.5      65.7       50     47.1      0.00     17.93      66.1     0.43      1019.0     4        64         8        69        8.81     267      453.0
   03/20/2017 12:30      66.5      65.8       51     47.4      0.00     17.93      66.1     0.43      1019.0     3        33         6       337        8.81     267      561.1
   03/20/2017 12:20      65.5      64.0       53     47.3      0.00     17.93      66.4     0.43      1019.0     3        60         7        71        8.81     268      551.1
   03/20/2017 12:10      66.3      65.2       52     47.6      0.00     17.93      66.1     0.43      1019.0     3        64         5       126        8.81     269      451.5
   03/20/2017 12:00      65.1      62.1       56     47.1      0.00     17.93      66.2     0.43      1020.0     2       346         4       315        8.81     269      464.0
   03/20/2017 11:50      62.4      62.0       57     46.7      0.00     17.93      66.3     0.43      1020.0     3         6         4       355        8.81     268      208.5
   03/20/2017 11:40      63.5      62.6       55     46.8      0.00     17.93      66.2     0.43      1020.0     4         8         7         0        8.81     268      241.6
   03/20/2017 11:30      64.4      62.9       55     47.1      0.00     17.93      66.3     0.43      1020.0     3        49         5        74        8.81     269      548.9
   03/20/2017 11:20      62.8      60.2       59     46.8      0.00     17.93      66.5     0.43      1020.0     2        37         5        43        8.81     269      398.6
   03/20/2017 11:10      61.1      59.9       60     46.8      0.00     17.93      66.4     0.43      1020.0     3       104         4       112        8.81     268      138.2
   03/20/2017 11:00      60.9      60.6       60     46.8      0.00     17.93      66.1     0.43      1020.0     4        82         6        82        8.81     269      338.2
   03/20/2017 10:50      61.1      60.8       59     46.6      0.00     17.93      66.5     0.43      1020.0     5        75         7        84        8.81     269      288.5
   03/20/2017 10:40      61.1      60.5       59     46.4      0.00     17.93      66.4     0.43      1020.0     4        70         6        69        8.81     269      299.5
   03/20/2017 10:30      60.7      59.8       61     46.5      0.00     17.93      66.2     0.43      1020.0     4        91         6       131        8.81     269      253.5
   03/20/2017 10:20      59.4      58.8       64     46.7      0.00     17.93      66.5     0.43      1020.0     3        79         4        82        8.81     269      294.3
   03/20/2017 10:10      59.2      58.4       65     47.0      0.00     17.93      66.5     0.43      1020.0     3       143         6        77        8.81     269      193.0
   03/20/2017 10:00      59.0      58.1       66     47.1      0.00     17.93      66.5     0.43      1020.0     2       117         4        74        8.81     269      188.4
   03/20/2017 09:50      58.2      57.5       68     47.1      0.00     17.93      66.3     0.43      1020.0     3       136         6       108        8.81     269      194.0
   03/20/2017 09:40      57.6      57.1       68     46.9      0.00     17.93      66.5     0.43      1020.0     4       145         6       146        8.81     269      146.6
   03/20/2017 09:30      57.4      57.0       69     47.1      0.00     17.93      66.4     0.43      1020.0     3       160         5       141        8.81     270      123.8
   03/20/2017 09:20      57.5      56.9       69     47.2      0.00     17.93      66.2     0.43      1020.0     3       171         5       177        8.81     270      115.0
   03/20/2017 09:10      57.6      56.8       70     47.2      0.00     17.93      66.6     0.43      1020.0     3       167         4       163        8.82     270       92.5
   03/20/2017 09:00      56.8      56.4       69     46.6      0.00     17.93      66.5     0.43      1020.0     3       170         4       162        8.81     270       79.9
   03/20/2017 08:50      56.7      56.1       70     46.6      0.00     17.93      66.6     0.43      1019.0     2       162         5       151        8.81     271       58.0
   03/20/2017 08:40      56.3      56.0       71     46.7      0.00     17.93      66.3     0.43      1019.0     3       170         4       158        8.82     271       39.0
   03/20/2017 08:30      56.1      56.0       71     46.8      0.00     17.93      66.5     0.43      1019.0     3       152         3       161        8.82     271       30.2
   03/20/2017 08:20      56.1      55.8       70     46.3      0.00     17.93      66.6     0.43      1019.0     3       156         4       159        8.82     271       25.0
   03/20/2017 08:10      56.0      55.6       71     46.3      0.00     17.93      66.6     0.43      1019.0     3       158         4       128        8.82     271       20.2
   03/20/2017 08:00      55.9      55.5       71     46.4      0.00     17.93      66.8     0.43      1019.0     3       168         4       167        8.82     271       12.2
   03/20/2017 07:50      55.7      55.5       72     46.6      0.00     17.93      66.7     0.43      1019.0     2       176         3       140        8.82     271        6.0
   03/20/2017 07:40      55.8      55.4       74     47.3      0.00     17.93      66.8     0.43      1019.0     1       117         1       109        8.82     271        0.3
   03/20/2017 07:30      55.4      54.9       75     47.3      0.00     17.93      66.5     0.43      1019.0     2        99         3       114        8.82     271       -3.9
   03/20/2017 07:20      55.1      54.9       77     47.8      0.00     17.93      66.6     0.43      1019.0     2       147         3       146        8.82     271      -12.3
   03/20/2017 07:10      55.1      54.8       78     48.1      0.00     17.93      66.6     0.43      1019.0     2       208         3       214        8.82     271      -13.1
   03/20/2017 07:00      55.1      54.7       78     48.1      0.00     17.93      66.7     0.43      1019.0     1       190         2       228        8.82     271      -14.3
   03/20/2017 06:50      54.9      54.6       78     48.0      0.00     17.93      66.8     0.43      1019.0     2       219         3       230        8.82     271      -13.8
   03/20/2017 06:40      54.9      54.6       77     47.8      0.00     17.93      66.6     0.43      1019.0     1       222         2       223        8.82     270      -16.8
   03/20/2017 06:30      55.0      54.6       77     47.8      0.00     17.93      66.5     0.43      1019.0     2       251         3       266        8.82     270      -18.1
   03/20/2017 06:20      55.1      54.7       77     47.8      0.00     17.93      67.0     0.44      1019.0     3       221         5       226        8.82     270      -31.0
   03/20/2017 06:10      55.2      54.9       78     48.3      0.00     17.93      67.0     0.43      1019.0     3       187         4       199        8.82     271      -17.2
   03/20/2017 06:00      55.2      54.9       77     48.2      0.00     17.93      66.8     0.43      1019.0     3       206         4       208        8.82     271      -23.6
   03/20/2017 05:50      55.2      55.1       78     48.3      0.00     17.93      66.8     0.43      1018.0     3       203         5       203        8.83     270      -31.0
   03/20/2017 05:40      55.4      55.2       78     48.5      0.00     17.93      66.5     0.44      1019.0     4       193         7       183        8.83     271      -19.8
   03/20/2017 05:30      55.6      55.4       78     48.7      0.00     17.93      66.7     0.43      1018.0     2       176         4       165        8.83     270      -16.4
   03/20/2017 05:20      55.7      55.4       79     49.1      0.00     17.93      66.8     0.44      1018.0     2       138         3       136        8.83     271      -15.0
   03/20/2017 05:10      55.5      55.2       79     49.1      0.00     17.93      66.8     0.43      1018.0     2       138         4       126        8.83     271      -12.2
   03/20/2017 05:00      55.5      55.2       79     49.0      0.00     17.93      66.9     0.43      1017.0     1       172         2       190        8.83     270      -12.6
   03/20/2017 04:50      55.5      55.2       79     48.9      0.00     17.93      66.8     0.43      1017.0     2        72         4        72        8.83     270      -16.3
   03/20/2017 04:40      55.3      55.1       79     49.0      0.00     17.93      66.9     0.43      1017.0     2        82         4       116        8.83     271      -24.0
   03/20/2017 04:30      55.5      55.3       79     49.1      0.00     17.93      66.8     0.43      1017.0     2        93         3        87        8.83     271      -25.8
   03/20/2017 04:20      55.7      55.4       79     49.0      0.00     17.93      67.0     0.44      1018.0     2        73         3        94        8.83     270      -24.0
   03/20/2017 04:10      55.5      55.1       79     48.9      0.00     17.93      67.0     0.44      1018.0     1        37         1        99        8.83     270      -16.4
   03/20/2017 04:00      55.2      54.9       80     48.9      0.00     17.93      67.2     0.43      1018.0     2       310         2       262        8.84     270      -13.9
   03/20/2017 03:50      55.1      54.9       80     48.8      0.00     17.93      67.2     0.44      1018.0     1       248         2       252        8.84     270      -14.5
   03/20/2017 03:40      55.0      54.8       80     48.8      0.00     17.93      67.1     0.44      1018.0     2        76         3        89        8.84     270      -25.6
   03/20/2017 03:30      55.1      54.8       80     48.8      0.00     17.93      67.2     0.43      1018.0     1        43         2        22        8.84     270      -15.8
   03/20/2017 03:20      55.0      54.6       80     48.8      0.00     17.93      67.3     0.43      1018.0     1        67         1        58        8.84     270      -15.5
   03/20/2017 03:10      54.8      54.6       81     48.8      0.00     17.93      67.4     0.43      1019.0     1       165         2       171        8.84     270      -18.2
   03/20/2017 03:00      54.8      54.5       80     48.7      0.00     17.93      67.2     0.43      1019.0     2       202         3       176        8.84     270      -14.9
   03/20/2017 02:50      54.7      54.5       80     48.6      0.00     17.93      67.2     0.43      1019.0     2       210         3       230        8.84     270      -14.5
   03/20/2017 02:40      54.8      54.5       80     48.5      0.00     17.93      67.4     0.43      1019.0     3       203         4       201        8.84     270      -14.5
   03/20/2017 02:30      54.7      54.5       80     48.4      0.00     17.93      67.4     0.43      1019.0     2       183         4       188        8.84     270      -16.4
   03/20/2017 02:20      54.9      54.6       81     49.0      0.00     17.93      67.2     0.43      1019.0     3       187         4       174        8.85     270      -14.6
   03/20/2017 02:10      54.9      54.6       82     49.4      0.00     17.93      67.1     0.44      1019.0     2       123         3       124        8.85     270      -13.0
   03/20/2017 02:00      54.8      54.5       83     49.6      0.00     17.93      67.3     0.43      1019.0     2       114         4       106        8.85     270      -13.0
   03/20/2017 01:50      54.7      54.5       85     50.0      0.00     17.93      67.1     0.43      1019.0     2       121         4       123        8.85     270      -12.6
   03/20/2017 01:40      54.7      54.5       85     50.3      0.00     17.93      67.6     0.44      1018.0     2       139         4       145        8.85     270      -11.8
   03/20/2017 01:30      54.6      54.5       86     50.4      0.00     17.93      67.4     0.44      1018.0     3        82         4        80        8.85     270      -11.0
   03/20/2017 01:20      54.6      54.3       86     50.5      0.00     17.93      67.0     0.43      1018.0     3        80         5        94        8.85     270      -10.8
   03/20/2017 01:10      54.6      54.4       86     50.4      0.00     17.93      67.5     0.44      1018.0     3        73         5        75        8.85     270      -10.6
   03/20/2017 01:00      54.6      54.5       86     50.4      0.00     17.93      67.4     0.44      1018.0     3        58         4        58        8.85     270      -10.9
   03/20/2017 00:50      54.7      54.3       86     50.5      0.00     17.93      67.3     0.43      1018.0     3        56         5        65        8.85     270      -10.8
   03/20/2017 00:40      54.5      54.2       86     50.1      0.00     17.93      67.5     0.44      1018.0     2        84         5       106        8.86     270      -11.2
   03/20/2017 00:30      54.1      53.5       86     49.6      0.00     17.93      67.6     0.43      1018.0     2        91         4       130        8.86     270      -10.6
   03/20/2017 00:20      53.6      52.9       85     48.9      0.00     17.93      67.5     0.44      1018.0     2       105         2        59        8.86     270      -10.3
   03/20/2017 00:10      53.2      52.8       86     48.8      0.00     17.93      67.5     0.44      1018.0     2        79         3        78        8.86     270      -31.2
   03/20/2017 00:00      53.2      53.0       87     49.3      0.00     17.93      67.5     0.44      1018.0     2        89         3        93        8.86     269      -57.3
   03/19/2017 23:50      53.9      53.4       86     49.5      0.00     17.93      67.5     0.44      1018.0     2        83         3        91        8.86     269      -60.5
   03/19/2017 23:40      54.0      53.5       86     49.8      0.00     17.93      67.5     0.44      1019.0     2        40         3        31        8.86     269      -61.9
   03/19/2017 23:30      53.7      53.2       85     49.2      0.00     17.93      67.5     0.44      1019.0     1        33         2        39        8.86     269      -66.2
   03/19/2017 23:20      54.1      53.7       84     49.3      0.00     17.93      67.5     0.44      1019.0     0       307         1       186        8.86     268      -68.6
   03/19/2017 23:10      54.8      54.3       83     49.4      0.00     17.93      67.6     0.44      1019.0     1        89         2        95        8.86     268      -72.3
   03/19/2017 23:00      54.8      54.6       82     49.3      0.00     17.93      67.5     0.44      1019.0     2        34         2        33        8.86     268      -71.0
   03/19/2017 22:50      55.5      54.8       76     47.8      0.00     17.93      67.9     0.44      1019.0     1        57         2        59        8.86     268      -68.5
   03/19/2017 22:40      56.1      55.5       73     47.5      0.00     17.93      67.7     0.44      1019.0     2       132         3       133        8.87     268      -72.1
   03/19/2017 22:30      57.0      56.3       71     47.2      0.00     17.93      67.6     0.44      1019.0     2       149         4       183        8.87     268      -72.2
   03/19/2017 22:20      57.7      57.1       68     46.8      0.00     17.93      67.5     0.44      1019.0     2       171         3       172        8.87     268      -70.5
   03/19/2017 22:10      58.1      57.9       66     46.5      0.00     17.93      67.7     0.44      1019.0     2       222         2       230        8.87     267      -71.6
   03/19/2017 22:00      58.4      57.7       65     46.5      0.00     17.93      67.5     0.44      1019.0     2       189         3       165        8.87     267      -74.1
   03/19/2017 21:50      58.9      58.5       63     46.1      0.00     17.93      67.5     0.44      1018.0     2       178         4       187        8.87     267      -74.6
   03/19/2017 21:40      59.3      58.9       61     45.9      0.00     17.93      67.6     0.44      1018.0     2       152         3       150        8.87     267      -74.3
   03/19/2017 21:30      59.4      58.8       63     46.8      0.00     17.93      67.5     0.44      1018.0     1       189         3       189        8.87     267      -74.2
   03/19/2017 21:20      60.3      59.4       64     47.5      0.00     17.93      67.7     0.44      1018.0     2       163         3       220        8.88     267      -75.4
   03/19/2017 21:10      60.4      60.2       62     47.4      0.00     17.93      67.7     0.44      1018.0     2        96         3        74        8.88     267      -74.0
   03/19/2017 21:00      60.3      59.8       58     45.0      0.00     17.93      67.5     0.44      1018.0     2        80         3        96        8.88     267      -72.0
   03/19/2017 20:50      61.1      59.9       48     40.7      0.00     17.93      67.4     0.44      1018.0     1        87         2        84        8.88     266      -73.8
   03/19/2017 20:40      61.7      61.4       44     39.2      0.00     17.93      67.5     0.44      1018.0     1       132         2       176        8.88     266      -72.6
   03/19/2017 20:30      62.6      61.7       42     38.7      0.00     17.93      67.8     0.44      1017.0     1       183         2       192        8.89     266      -68.6
   03/19/2017 20:20      62.8      61.8       40     37.8      0.00     17.93      67.4     0.44      1017.0     2       157         3       181        8.89     266      -63.6
   03/19/2017 20:10      63.3      62.8       37     36.7      0.00     17.93      67.4     0.44      1017.0     1       130         2       148        8.89     266      -61.5
   03/19/2017 20:00      64.0      63.3       35     35.8      0.00     17.93      67.5     0.44      1017.0     1        99         1       124        8.89     266      -66.3
   03/19/2017 19:50      64.6      63.9       33     34.9      0.00     17.93      67.3     0.44      1017.0     1       124         2       134        8.90     265      -73.6
   03/19/2017 19:40      65.6      64.7       32     34.6      0.00     17.93      67.3     0.44      1017.0     1       214         2       203        8.90     265      -78.8
   03/19/2017 19:30      66.4      65.6       31     34.3      0.00     17.93      67.4     0.44      1017.0     1        18         2        88        8.90     265      -80.2
   03/19/2017 19:20      66.6      66.1       31     34.7      0.00     17.93      67.3     0.44      1017.0     2       116         4       137        8.90     265      -83.7
   03/19/2017 19:10      67.3      66.7       30     34.3      0.00     17.93      67.2     0.44      1016.0     4       147         5       161        8.91     265      -86.5
   03/19/2017 19:00      68.2      67.5       29     34.1      0.00     17.93      67.1     0.44      1017.0     4       162         6       172        8.91     264      -84.8
   03/19/2017 18:50      69.2      68.3       28     34.3      0.00     17.93      67.2     0.43      1016.0     3       147         4       160        8.91     264      -76.6
   03/19/2017 18:40      70.2      69.5       27     34.1      0.00     17.93      67.3     0.43      1016.0     3       155         5       135        8.92     264      -66.2
   03/19/2017 18:30      72.0      70.4       26     34.6      0.00     17.93      67.1     0.43      1017.0     3       153         4       110        8.92     264      -60.6
   03/19/2017 18:20      72.2      71.4       25     34.3      0.00     17.93      67.0     0.43      1017.0     1       179         2       171        8.92     264      -14.7
   03/19/2017 18:10      72.3      71.3       25     34.5      0.00     17.93      67.0     0.43      1016.0     4       164         5       137        8.92     264      -28.9
   03/19/2017 18:00      72.2      71.9       25     34.0      0.00     17.93      66.8     0.43      1016.0     5       155         8       163        8.93     264        2.1
   03/19/2017 17:50      72.7      71.9       24     33.4      0.00     17.93      67.0     0.43      1016.0     6       163         8       161        8.93     263        5.0
   03/19/2017 17:40      73.3      72.8       24     34.0      0.00     17.93      66.8     0.43      1016.0     6       153         7       129        8.93     263       92.1
   03/19/2017 17:30      73.2      72.4       26     35.8      0.00     17.93      66.7     0.43      1016.0     6       156         9       155        8.93     264      124.8
   03/19/2017 17:20      74.4      72.8       24     35.1      0.00     17.93      66.7     0.43      1016.0     5       153         8       166        8.94     264       32.7
   03/19/2017 17:10      75.5      74.4       22     33.7      0.00     17.93      66.7     0.43      1016.0     5       163         8       159        8.94     264       47.3
   03/19/2017 17:00      76.4      75.6       19     30.1      0.00     17.93      66.6     0.43      1016.0     7       148         9       162        8.94     264       92.0
   03/19/2017 16:50      76.8      76.3       19     30.9      0.00     17.93      66.5     0.43      1016.0     5       172         8       182        8.95     264      214.8
   03/19/2017 16:40      76.8      76.3       20     32.4      0.00     17.93      66.5     0.43      1016.0     5       179         7       184        8.95     264      224.5
   03/19/2017 16:30      77.5      77.0       20     33.5      0.00     17.93      66.5     0.43      1016.0     6       170         8       173        8.95     264      230.9
   03/19/2017 16:20      78.7      77.0       19     32.3      0.00     17.93      66.5     0.43      1016.0     6       175         8       222        8.95     265      264.2
   03/19/2017 16:10      79.5      79.3       20     35.0      0.00     17.93      66.3     0.43      1016.0     3       148         6       176        8.95     265      260.9
   03/19/2017 16:00      79.5      78.5       20     34.5      0.00     17.93      66.3     0.43      1016.0     4       188         7       182        8.95     266      262.5
   03/19/2017 15:50      80.1      79.0       19     33.8      0.00     17.93      66.2     0.43      1016.0     3       233         6       179        8.96     266      312.7
   03/19/2017 15:40      80.4      79.0       18     32.9      0.00     17.93      66.2     0.43      1016.0     3       129         5       102        8.96     265      354.9
   03/19/2017 15:30      80.9      79.3       19     33.8      0.00     17.93      66.1     0.43      1016.0     4       209         8       299        8.96     265      365.3
   03/19/2017 15:20      81.4      79.8       18     33.8      0.00     17.93      66.1     0.43      1016.0     4        71         7       258        8.96     265      397.1
   03/19/2017 15:10      79.9      79.2       18     32.1      0.00     17.93      65.9     0.43      1016.0     3       124         4       142        8.96     265      405.9
   03/19/2017 15:00      79.5      79.0       18     31.9      0.00     17.93      66.0     0.43      1016.0     4       158         7       174        8.96     265      400.4
   03/19/2017 14:50      79.0      78.1       19     32.8      0.00     17.93      65.8     0.43      1016.0     5       179         7       162        8.96     266      351.2
   03/19/2017 14:40      79.9      78.7       18     32.6      0.00     17.93      66.0     0.43      1016.0     5       167         7       169        8.96     265      398.8
   03/19/2017 14:30      79.9      78.8       19     33.4      0.00     17.93      65.8     0.43      1017.0     5       168         8       163        8.96     266      484.1
   03/19/2017 14:20      79.5      78.0       17     30.7      0.00     17.93      65.9     0.43      1017.0     5       195         8       175        8.96     266      448.0
   03/19/2017 14:10      80.5      79.5       15     28.9      0.00     17.93      65.7     0.43      1017.0     4       145         7       163        8.96     266      334.2
   03/19/2017 14:00      81.8      80.0       13     26.4      0.00     17.93      65.7     0.43      1017.0     4        90         7        50        8.96     266      202.4
   03/19/2017 13:50      81.6      80.3       13     25.6      0.00     17.93      65.6     0.43      1017.0     4        93         6        76        8.97     266      486.9
   03/19/2017 13:40      81.3      79.5       13     25.1      0.00     17.93      65.7     0.43      1017.0     6       106        11       112        8.97     266      367.0
   03/19/2017 13:30      80.9      80.3       13     24.9      0.00     17.93      65.5     0.43      1017.0     6        87        10        69        8.97     267      504.9
   03/19/2017 13:20      80.9      79.9       12     23.8      0.00     17.93      65.7     0.43      1017.0     6       100        10        73        8.97     267      520.0
   03/19/2017 13:10      80.9      80.2       11     21.9      0.00     17.93      65.5     0.43      1018.0     7        88        10       121        8.97     266      524.7
   03/19/2017 13:00      81.3      79.9       11     20.5      0.00     17.93      65.5     0.43      1018.0     6       110        12       114        8.97     267      518.2
   03/19/2017 12:50      81.5      80.8       14     27.2      0.00     17.93      65.5     0.43      1018.0     4       100         8       137        8.97     267      500.6
   03/19/2017 12:40      81.9      80.0       20     36.2      0.00     17.93      65.6     0.43      1018.0     4        62         5        62        8.97     267      480.8
   03/19/2017 12:30      80.0      78.6       25     40.2      0.00     17.93      65.6     0.43      1018.0     3        23         4        22        8.97     268      512.7
   03/19/2017 12:20      78.6      77.8       29     43.6      0.00     17.93      65.4     0.43      1018.0     2        24         5       357        8.97     269      414.3
   03/19/2017 12:10      78.1      77.1       32     45.8      0.00     17.93      65.6     0.43      1018.0     3        36         4       359        8.97     269      401.0
   03/19/2017 12:00      77.9      77.0       33     46.2      0.00     17.93      65.7     0.43      1018.0     4        73         5         0        8.97     269      461.8
   03/19/2017 11:50      77.4      76.6       34     46.1      0.00     17.93      65.5     0.43      1018.0     2        25         3        34        8.97     269      470.1
   03/19/2017 11:40      76.7      75.7       34     45.8      0.00     17.93      65.7     0.43      1018.0     2       348         4        13        8.97     270      477.4
   03/19/2017 11:30      76.5      75.4       35     46.0      0.00     17.93      65.5     0.43      1018.0     2        64         4        20        8.97     271      461.2
   03/19/2017 11:20      75.6      74.9       36     46.7      0.00     17.93      65.7     0.43      1018.0     2        60         6        66        8.97     272      454.5
   03/19/2017 11:10      74.8      73.6       37     46.8      0.00     17.93      65.7     0.43      1018.0     2        64         3        33        8.97     273      438.2
   03/19/2017 11:00      74.2      73.2       38     46.9      0.00     17.93      65.5     0.43      1018.0     2       213         3       220        8.97     274      428.6
   03/19/2017 10:50      73.9      72.5       39     46.5      0.00     17.93      65.7     0.43      1018.0     2        17         3        62        8.97     275      416.6
   03/19/2017 10:40      73.3      71.3       40     46.5      0.00     17.93      66.1     0.43      1018.0     1       348         2       319        8.97     278      399.0
   03/19/2017 10:30      71.8      70.8       40     46.0      0.00     17.93      65.7     0.43      1018.0     2         7         4         6        8.97     280      384.6
   03/19/2017 10:20      71.1      69.3       46     48.2      0.00     17.93      66.0     0.44      1018.0     1       345         2       328        8.97     281      370.5
   03/19/2017 10:10      69.2      67.6       48     48.0      0.00     17.93      65.8     0.44      1018.0     2        30         3        24        8.97     281      353.4
   03/19/2017 10:00      67.5      66.4       51     48.2      0.00     17.93      65.8     0.44      1018.0     1       346         2       356        8.97     280      335.0
   03/19/2017 09:50      66.3      65.4       54     48.7      0.00     17.93      65.8     0.44      1018.0     2       302         3       274        8.97     277      316.7
   03/19/2017 09:40      65.5      63.5       57     48.7      0.00     17.93      65.9     0.44      1018.0     2       337         3       320        8.97     276      290.8
   03/19/2017 09:30      63.6      63.2       59     49.0      0.00     17.93      66.1     0.44      1018.0     2       351         3       316        8.97     276      277.3
   03/19/2017 09:20      63.5      63.1       59     48.9      0.00     17.93      65.8     0.44      1018.0     2         8         2        17        8.97     280      252.9
   03/19/2017 09:10      62.8      60.9       62     48.8      0.00     17.93      66.0     0.44      1018.0     1       338         3       351        8.97     285      217.6
   03/19/2017 09:00      61.0      59.7       65     48.5      0.00     17.93      65.7     0.44      1018.0     1       348         1       331        8.97     291      202.8
   03/19/2017 08:50      59.7      59.0       68     48.6      0.00     17.93      66.0     0.44      1018.0     1       357         2         4        8.97     297      160.3
   03/19/2017 08:40      59.1      57.3       70     48.9      0.00     17.93      66.4     0.44      1018.0     1       327         2       357        8.97     300      138.9
   03/19/2017 08:30      57.1      55.8       74     48.1      0.00     17.93      66.3     0.44      1018.0     1       274         2       222        8.97     301      138.3
   03/19/2017 08:20      55.8      55.0       74     47.3      0.00     17.93      66.0     0.44      1018.0     1       337         2       342        8.97     300      136.6
   03/19/2017 08:10      54.6      53.1       80     47.8      0.00     17.93      66.4     0.44      1018.0     1       348         1       323        8.97     299      119.0
   03/19/2017 08:00      53.2      51.6       86     48.2      0.00     17.93      66.3     0.44      1018.0     0        55         1       354        8.98     299       96.4
   03/19/2017 07:50      51.7      50.3       90     48.3      0.00     17.93      66.4     0.44      1018.0     1        74         1        88        8.98     299       46.7
   03/19/2017 07:40      50.1      49.1       92     47.4      0.00     17.93      66.4     0.44      1018.0     1        51         1       129        8.98     299       32.3
   03/19/2017 07:30      49.2      48.3       93     46.7      0.00     17.93      66.2     0.44      1018.0     1       190         1       152        8.98     298        8.4
   03/19/2017 07:20      48.5      48.2       92     46.2      0.00     17.93      66.1     0.44      1018.0     0        58         1       126        8.98     297       -1.6
   03/19/2017 07:10      48.8      48.5       93     46.7      0.00     17.93      66.6     0.44      1018.0     0        76         0       114        8.98     296      -10.6
   03/19/2017 07:00      49.0      48.4       92     46.6      0.00     17.93      66.1     0.44      1018.0     1       147         1       135        8.98     295      -16.0
   03/19/2017 06:50      49.1      48.4       92     46.6      0.00     17.93      66.3     0.44      1018.0     1       180         1       201        8.98     293      -18.3
   03/19/2017 06:40      48.9      48.4       92     46.5      0.00     17.93      66.6     0.44      1018.0     1       140         1       145        8.98     292      -20.3
   03/19/2017 06:30      48.8      48.7       92     46.6      0.00     17.93      66.5     0.44      1018.0     0       198         1       183        8.98     291      -21.3
   03/19/2017 06:20      48.9      48.7       92     46.4      0.00     17.93      66.6     0.44      1018.0     1       189         1       201        8.98     291      -23.0
   03/19/2017 06:10      48.7      48.3       91     45.9      0.00     17.93      66.5     0.44      1017.0     1       156         2       140        8.98     276      -25.0
   03/19/2017 06:00      48.3      48.1       91     45.7      0.00     17.93      66.5     0.44      1017.0     1       203         1       191        8.98     275      -27.0
   03/19/2017 05:50      48.3      47.8       90     45.1      0.00     17.93      66.5     0.44      1017.0     1       139         1       128        8.98     275      -30.3
   03/19/2017 05:40      48.7      48.1       89     45.2      0.00     17.93      66.8     0.44      1017.0     1       105         2       120        8.98     275      -32.8
   03/19/2017 05:30      49.0      48.8       88     45.5      0.00     17.93      67.0     0.44      1017.0     1       132         1       143        8.98     275      -34.3
   03/19/2017 05:20      49.3      49.0       87     45.5      0.00     17.93      67.2     0.44      1017.0     1       133         1       127        8.98     274      -37.3
   03/19/2017 05:10      49.5      49.3       86     45.4      0.00     17.93      66.9     0.44      1017.0     0        67         1        74        8.98     274      -39.1
   03/19/2017 05:00      49.8      49.5       86     45.6      0.00     17.93      66.8     0.44      1017.0     0       268         1       262        8.98     274      -41.2
   03/19/2017 04:50      49.9      49.6       86     45.7      0.00     17.93      67.0     0.44      1017.0     0       180         1       128        8.98     274      -43.5
   03/19/2017 04:40      49.8      49.6       86     45.6      0.00     17.93      67.3     0.44      1017.0     1       156         1       145        8.99     274      -46.7
   03/19/2017 04:30      49.9      49.2       86     45.4      0.00     17.93      66.8     0.44      1017.0     1       167         1       143        8.99     273      -50.4
   03/19/2017 04:20      49.6      49.3       85     45.0      0.00     17.93      66.8     0.44      1017.0     1       158         1       143        8.99     273      -55.0
   03/19/2017 04:10      49.5      49.2       84     44.6      0.00     17.93      67.1     0.44      1017.0     1       222         1       141        8.99     272      -58.4
   03/19/2017 04:00      49.8      49.6       83     44.7      0.00     17.93      67.3     0.44      1017.0     1       162         2       144        8.99     272      -60.3
   03/19/2017 03:50      49.9      49.7       82     44.3      0.00     17.93      67.2     0.44      1017.0     2       137         2       136        8.99     272      -61.4
   03/19/2017 03:40      50.1      49.7       79     43.8      0.00     17.93      67.3     0.44      1017.0     1       156         2       140        8.99     272      -61.8
   03/19/2017 03:30      50.7      50.3       77     43.8      0.00     17.93      67.3     0.44      1017.0     1       152         2       134        8.99     272      -62.4
   03/19/2017 03:20      50.9      50.3       77     43.6      0.00     17.93      67.2     0.44      1017.0     1       148         1       142        8.99     272      -62.3
   03/19/2017 03:10      50.4      50.2       78     43.6      0.00     17.93      67.3     0.44      1017.0     1       163         2       131        8.99     272      -62.9
   03/19/2017 03:00      50.5      50.4       77     43.5      0.00     17.93      67.2     0.44      1018.0     1       153         1       139        8.99     271      -63.3
   03/19/2017 02:50      50.8      50.4       75     43.0      0.00     17.93      67.2     0.44      1018.0     2       150         2       136        8.99     272      -63.7
   03/19/2017 02:40      51.3      50.9       72     42.6      0.00     17.93      67.2     0.44      1018.0     1       161         2       170        9.00     271      -63.1
   03/19/2017 02:30      51.7      51.0       72     42.4      0.00     17.93      67.3     0.44      1018.0     1       145         2       131        9.00     271      -64.3
   03/19/2017 02:20      51.8      51.1       71     42.3      0.00     17.93      67.6     0.44      1018.0     0       193         1       159        9.00     271      -64.5
   03/19/2017 02:10      51.4      51.1       71     42.3      0.00     17.93      67.5     0.44      1018.0     1         5         1       339        9.00     271      -64.4
   03/19/2017 02:00      51.6      51.2       72     42.5      0.00     17.93      67.7     0.44      1018.0     1       244         2       142        9.00     271      -65.3
   03/19/2017 01:50      51.9      51.7       70     42.4      0.00     17.93      67.3     0.44      1018.0     1       162         2       139        9.00     271      -65.5
   03/19/2017 01:40      51.9      51.8       72     43.0      0.00     17.93      67.8     0.44      1018.0     1       138         2       139        9.00     270      -66.1
   03/19/2017 01:30      52.3      52.0       71     43.2      0.00     17.93      67.7     0.44      1018.0     1       132         2       141        9.00     270      -66.3
   03/19/2017 01:20      52.6      52.0       70     43.0      0.00     17.93      67.5     0.44      1018.0     2       136         2       134        9.01     270      -66.3
   03/19/2017 01:10      52.7      52.5       69     42.8      0.00     17.93      67.6     0.44      1018.0     1       141         2       140        9.01     270      -66.4
   03/19/2017 01:00      54.0      53.1       65     42.1      0.00     17.93      67.8     0.44      1018.0     2       139         2       136        9.01     270      -66.1
   03/19/2017 00:50      54.2      54.0       63     41.9      0.00     17.93      67.7     0.44      1018.0     1       152         1       145        9.01     270      -65.3
   03/19/2017 00:40      54.2      53.6       64     42.1      0.00     17.93      67.8     0.44      1018.0     1       144         1       143        9.01     270      -64.8
   03/19/2017 00:30      54.5      53.6       64     42.0      0.00     17.93      67.6     0.44      1018.0     1       138         2       134        9.01     270      -65.3
   03/19/2017 00:20      54.8      54.6       61     41.6      0.00     17.93      68.0     0.44      1018.0     1       222         1       243        9.01     270      -64.9
   03/19/2017 00:10      55.1      54.8       60     41.4      0.00     17.93      67.9     0.44      1018.0     1       162         1       130        9.01     270      -64.5
   03/19/2017 00:00      55.3      55.1       58     40.9      0.00     17.93      67.5     0.44      1018.0     1       188         1       214        9.01     269      -64.7
   03/18/2017 23:50      55.6      55.1       59     41.3      0.00     17.93      67.7     0.44      1018.0     0       149         1       133        9.01     270      -65.5
   03/18/2017 23:40      56.1      55.7       58     41.2      0.00     17.93      67.6     0.44      1018.0     0        52         1        54        9.01     269      -66.0
   03/18/2017 23:30      56.2      55.9       58     41.4      0.00     17.93      68.0     0.44      1018.0     1       148         1       135        9.01     269      -65.4
   03/18/2017 23:20      56.5      55.9       57     41.3      0.00     17.93      67.8     0.44      1018.0     1       155         1       141        9.01     269      -66.0
   03/18/2017 23:10      56.5      56.3       57     41.3      0.00     17.93      67.8     0.44      1018.0     1       147         2       138        9.02     269      -66.5
   03/18/2017 23:00      57.1      56.5       56     41.4      0.00     17.93      68.1     0.44      1018.0     1       153         2       138        9.02     269      -66.8
   03/18/2017 22:50      57.1      56.9       56     41.3      0.00     17.93      67.9     0.44      1018.0     1       192         1       188        9.02     269      -67.7
   03/18/2017 22:40      57.4      57.0       56     41.9      0.00     17.93      67.9     0.44      1018.0     1       165         2       147        9.02     269      -68.8
   03/18/2017 22:30      57.9      57.4       57     42.2      0.00     17.93      67.8     0.44      1018.0     2       143         2       141        9.02     268      -69.1
   03/18/2017 22:20      58.0      57.6       55     41.6      0.00     17.93      67.8     0.44      1018.0     1       193         1       168        9.02     268      -69.3
   03/18/2017 22:10      58.8      58.0       52     41.1      0.00     17.93      67.8     0.44      1018.0     1       152         2       133        9.02     268      -69.8
   03/18/2017 22:00      59.0      58.5       51     40.5      0.00     17.93      67.7     0.44      1018.0     1       194         1       197        9.03     268      -70.2
   03/18/2017 21:50      59.4      58.7       50     40.2      0.00     17.93      67.9     0.44      1018.0     1       181         2       133        9.03     268      -70.2
   03/18/2017 21:40      59.5      59.2       48     39.7      0.00     17.93      67.9     0.44      1018.0     1       187         2       134        9.03     268      -70.7
   03/18/2017 21:30      59.7      59.3       48     39.5      0.00     17.93      68.0     0.44      1018.0     1       195         3       144        9.03     268      -71.7
   03/18/2017 21:20      60.1      59.9       44     38.3      0.00     17.93      67.7     0.44      1018.0     2       174         3       135        9.03     268      -71.6
   03/18/2017 21:10      61.2      60.0       41     37.1      0.00     17.93      67.8     0.44      1017.0     2       161         3       159        9.03     268      -71.0
   03/18/2017 21:00      61.3      60.9       39     36.0      0.00     17.93      67.7     0.44      1017.0     1       164         1       163        9.03     267      -71.2
   03/18/2017 20:50      61.6      61.4       38     35.5      0.00     17.93      67.8     0.44      1017.0     1       203         1       305        9.03     267      -73.2
   03/18/2017 20:40      61.8      61.2       40     36.7      0.00     17.93      67.7     0.44      1017.0     1       316         1       235        9.03     267      -74.2
   03/18/2017 20:30      62.4      61.9       38     36.3      0.00     17.93      67.8     0.44      1017.0     1       138         1       131        9.04     267      -75.9
   03/18/2017 20:20      63.0      62.4       39     37.0      0.00     17.93      67.8     0.44      1017.0     1       213         2       188        9.04     267      -77.3
   03/18/2017 20:10      63.8      62.9       39     37.6      0.00     17.93      67.6     0.44      1017.0     2       170         3       172        9.04     267      -78.8
   03/18/2017 20:00      65.5      64.1       34     36.2      0.00     17.93      67.8     0.44      1017.0     1       165         2       175        9.04     267      -79.7
   03/18/2017 19:50      66.2      65.6       33     36.2      0.00     17.93      67.7     0.44      1016.0     1       206         1       142        9.04     267      -81.4
   03/18/2017 19:40      67.5      66.2       33     37.1      0.00     17.93      67.7     0.44      1016.0     1       220         2       158        9.04     267      -82.0
   03/18/2017 19:30      68.6      67.8       32     37.0      0.00     17.93      67.6     0.44      1016.0     3       168         3       176        9.04     266      -84.6
   03/18/2017 19:20      68.6      68.1       31     36.5      0.00     17.93      67.6     0.44      1016.0     3       160         4       177        9.04     266      -85.8
   03/18/2017 19:10      69.9      68.5       29     35.8      0.00     17.93      67.6     0.44      1016.0     3       148         4       164        9.04     266      -85.9
   03/18/2017 19:00      72.6      70.2       27     35.4      0.00     17.93      67.5     0.44      1016.0     2       117         2        98        9.04     266      -84.9
   03/18/2017 18:50      74.0      72.9       24     34.8      0.00     17.93      67.5     0.44      1016.0     1        58         2        37        9.04     266      -84.8
   03/18/2017 18:40      75.0      74.1       24     34.8      0.00     17.93      67.5     0.44      1016.0     2       100         3       131        9.04     265      -78.1
   03/18/2017 18:30      75.4      74.9       23     34.9      0.00     17.93      67.4     0.44      1016.0     3       127         6       151        9.04     265      -55.4
   03/18/2017 18:20      76.0      75.3       23     35.1      0.00     17.93      67.4     0.44      1016.0     5       127         7       149        9.04     265      -29.2
   03/18/2017 18:10      76.6      76.4       23     35.6      0.00     17.93      67.4     0.44      1016.0     4       138         6       166        9.04     265       -2.2
   03/18/2017 18:00      77.2      76.6       22     35.8      0.00     17.93      67.3     0.44      1016.0     5       143         7       134        9.04     265       13.2
   03/18/2017 17:50      77.9      77.3       23     37.1      0.00     17.93      67.4     0.44      1016.0     4       151         6       141        9.05     265       35.9
   03/18/2017 17:40      78.0      77.3       23     36.8      0.00     17.93      67.2     0.44      1016.0     3       120         6       134        9.05     265       66.8
   03/18/2017 17:30      78.4      77.3       24     37.9      0.00     17.93      67.1     0.44      1016.0     6       126         7       125        9.05     265       95.2
   03/18/2017 17:20      79.3      78.7       23     38.2      0.00     17.93      67.2     0.44      1016.0     5       119         7       130        9.05     266      126.1
   03/18/2017 17:10      81.0      79.2       22     38.1      0.00     17.93      67.0     0.44      1016.0     5       100         6        89        9.05     266      149.4
   03/18/2017 17:00      81.0      80.2       21     37.8      0.00     17.93      66.9     0.44      1016.0     3        89         4       130        9.05     266      181.9
   03/18/2017 16:50      81.3      79.9       21     36.7      0.00     17.93      67.0     0.44      1016.0     4        69         8       134        9.05     266      177.5
   03/18/2017 16:40      81.4      80.9       20     35.8      0.00     17.93      66.9     0.44      1016.0     3        76         6        66        9.05     266      208.5
   03/18/2017 16:30      81.3      80.7       19     35.4      0.00     17.93      66.8     0.44      1016.0     3        23         4        32        9.06     266      215.5
   03/18/2017 16:20      81.3      80.4       19     34.6      0.00     17.93      66.9     0.44      1016.0     4        31         6        21        9.06     266      246.8
   03/18/2017 16:10      81.3      80.7       19     34.6      0.00     17.93      66.8     0.44      1016.0     3        27         5        68        9.06     266      282.4
   03/18/2017 16:00      80.7      80.4       19     34.3      0.00     17.93      66.7     0.44      1016.0     3        31         5         5        9.06     267      282.6
   03/18/2017 15:50      80.9      80.2       19     34.2      0.00     17.93      66.7     0.44      1016.0     4        21         6        21        9.06     266      296.7
   03/18/2017 15:40      80.5      79.6       19     33.8      0.00     17.93      66.5     0.44      1016.0     4        31         6        59        9.06     266      350.5
   03/18/2017 15:30      80.9      79.6       19     34.5      0.00     17.93      66.5     0.44      1016.0     4        50         6        67        9.07     266      385.6
   03/18/2017 15:20      79.6      79.1       19     34.2      0.00     17.93      66.5     0.44      1017.0     3        54         5        35        9.07     266      311.1
   03/18/2017 15:10      80.9      79.6       20     35.0      0.00     17.93      66.3     0.44      1017.0     4        35         6        34        9.07     266      437.9
   03/18/2017 15:00      80.4      79.6       20     35.3      0.00     17.93      66.5     0.44      1017.0     4        37         7        21        9.07     266      217.9
   03/18/2017 14:50      80.4      79.5       16     30.2      0.00     17.93      66.3     0.44      1017.0     3        64         4        65        9.07     266      266.7
   03/18/2017 14:40      80.9      79.8       14     27.1      0.00     17.93      66.3     0.44      1017.0     3        93         6       121        9.07     266      264.5
   03/18/2017 14:30      80.8      79.6       13     25.0      0.00     17.93      66.3     0.44      1017.0     3        79         4        67        9.07     266      311.1
   03/18/2017 14:20      79.9      79.6       11     20.2      0.00     17.93      66.2     0.44      1017.0     3        74         6        78        9.08     266      240.1
   03/18/2017 14:10      79.9      78.7       14     25.2      0.00     17.93      66.1     0.44      1017.0     3       124         6       142        9.08     266      266.4
   03/18/2017 14:00      80.1      79.0       14     25.4      0.00     17.93      66.1     0.44      1017.0     4       128         8       150        9.08     266      354.7
   03/18/2017 13:50      80.6      79.8       14     27.2      0.00     17.93      65.9     0.44      1017.0     3        80         6        84        9.08     266      326.5
   03/18/2017 13:40      80.3      79.6       15     28.0      0.00     17.93      66.0     0.44      1018.0     4       117         8       131        9.08     267      515.3
   03/18/2017 13:30      79.8      79.0       21     36.0      0.00     17.93      66.0     0.44      1018.0     4       138         6       129        9.08     267      382.7
   03/18/2017 13:20      79.2      78.4       22     36.2      0.00     17.93      65.9     0.44      1018.0     4       137         6       135        9.08     267      466.2
   03/18/2017 13:10      78.6      76.8       30     43.3      0.00     17.93      66.0     0.44      1018.0     4       159         6       120        9.08     267      508.3
   03/18/2017 13:00      78.5      77.5       34     47.1      0.00     17.93      66.0     0.44      1018.0     5       290         8       241        9.08     267      506.4
   03/18/2017 12:50      78.8      77.5       34     47.0      0.00     17.93      66.0     0.44      1018.0     3        28         4        89        9.08     268      500.6
   03/18/2017 12:40      78.3      77.4       34     47.0      0.00     17.93      66.0     0.44      1018.0     4        47         6        69        9.08     267      491.9
   03/18/2017 12:30      77.7      76.9       35     47.6      0.00     17.93      65.9     0.44      1018.0     4        39         5        31        9.08     267      502.2
   03/18/2017 12:20      77.9      76.8       38     49.6      0.00     17.93      66.1     0.44      1018.0     3        34         5        81        9.08     268      491.7
   03/18/2017 12:10      76.9      75.2       41     50.8      0.00     17.93      65.9     0.44      1019.0     3        43         6        69        9.08     268      486.9
   03/18/2017 12:00      75.3      73.9       45     51.5      0.00     17.93      65.9     0.44      1019.0     3        27         4        11        9.08     268      483.0
   03/18/2017 11:50      74.5      73.8       45     51.6      0.00     17.93      66.0     0.44      1019.0     2        22         4        41        9.08     268      474.8
   03/18/2017 11:40      73.7      72.1       48     51.8      0.00     17.93      65.8     0.44      1019.0     3        33         5        69        9.08     269      466.1
   03/18/2017 11:30      72.5      71.6       49     51.7      0.00     17.93      66.1     0.44      1019.0     2        34         3        98        9.08     270      442.1
   03/18/2017 11:20      71.6      70.5       49     51.2      0.00     17.93      66.0     0.44      1019.0     2        30         4        71        9.08     270      450.4
   03/18/2017 11:10      70.4      70.0       49     50.4      0.00     17.93      65.7     0.44      1019.0     2        56         4       109        9.08     269      427.3
   03/18/2017 11:00      69.9      68.6       49     49.1      0.00     17.93      65.9     0.44      1019.0     2        23         4        26        9.08     270      357.1
   03/18/2017 10:50      68.8      67.4       50     48.7      0.00     17.93      66.2     0.44      1019.0     3        27         4        77        9.08     270      363.5
   03/18/2017 10:40      67.4      66.7       52     48.8      0.00     17.93      66.1     0.44      1019.0     3        23         3       358        9.08     270      365.0
   03/18/2017 10:30      66.5      65.3       55     48.9      0.00     17.93      66.1     0.44      1019.0     2        29         3        78        9.08     269      363.1
   03/18/2017 10:20      65.4      65.0       56     49.2      0.00     17.93      66.1     0.44      1019.0     3        57         4        62        9.08     271      274.1
   03/18/2017 10:10      65.2      64.1       58     49.9      0.00     17.93      66.1     0.44      1019.0     3        10         5       353        9.08     271      332.7
   03/18/2017 10:00      64.3      62.9       61     50.1      0.00     17.93      66.3     0.44      1019.0     2        39         4        75        9.08     271      310.9
   03/18/2017 09:50      62.8      61.6       66     50.8      0.00     17.93      66.3     0.44      1019.0     2        29         3        92        9.08     271      276.8
   03/18/2017 09:40      61.5      60.4       69     50.8      0.00     17.93      66.2     0.44      1019.0     1         9         3       327        9.08     271      250.2
   03/18/2017 09:30      60.3      57.9       74     50.7      0.00     17.93      66.3     0.44      1019.0     1       352         1       326        9.08     271      281.7
   03/18/2017 09:20      58.2      57.7       78     51.0      0.00     17.93      66.3     0.44      1019.0     2       316         3       304        9.08     272      252.8
   03/18/2017 09:10      57.9      55.5       87     52.5      0.00     17.93      66.3     0.44      1019.0     1       304         2       321        9.08     272      227.2
   03/18/2017 09:00      55.5      53.5       92     52.2      0.00     17.93      66.0     0.44      1019.0     1         2         2         0        9.08     272      169.6
   03/18/2017 08:50      53.4      52.6       93     51.0      0.00     17.93      66.0     0.44      1019.0     1       223         2       207        9.08     272       89.3
   03/18/2017 08:40      53.1      52.6       94     51.1      0.00     17.93      66.2     0.44      1019.0     2       161         3       169        9.08     272       52.9
   03/18/2017 08:30      53.0      52.6       94     51.2      0.00     17.93      66.3     0.44      1019.0     1       200         2       178        9.08     272       58.5
   03/18/2017 08:20      52.9      52.6       95     51.1      0.00     17.93      66.5     0.44      1019.0     1       292         4       226        9.08     272       50.9
   03/18/2017 08:10      52.6      52.1       95     50.8      0.00     17.93      66.8     0.44      1019.0     2       292         4       300        9.08     272       38.6
   03/18/2017 08:00      52.5      52.1       95     50.7      0.00     17.93      66.5     0.44      1019.0     1       333         2       339        9.08     272       23.2
   03/18/2017 07:50      52.1      51.6       95     50.5      0.00     17.93      66.4     0.44      1019.0     1       261         2       303        9.08     272       19.4
   03/18/2017 07:40      51.8      51.2       95     50.0      0.00     17.93      66.7     0.44      1019.0     1       166         2       166        9.08     272        9.7
   03/18/2017 07:30      51.4      50.9       95     49.5      0.00     17.93      66.7     0.44      1019.0     2       148         3       148        9.08     272        3.8
   03/18/2017 07:20      51.3      50.9       94     49.5      0.00     17.93      66.9     0.44      1019.0     3       150         3       140        9.08     273        1.0
   03/18/2017 07:10      51.3      51.1       94     49.7      0.00     17.93      66.8     0.44      1019.0     2       167         2       153        9.08     273       -1.6
   03/18/2017 07:00      51.5      51.1       94     49.5      0.00     17.93      66.6     0.44      1018.0     2       186         2       195        9.08     273       -3.4
   03/18/2017 06:50      51.4      51.3       93     49.5      0.00     17.93      66.7     0.44      1018.0     1       108         2        70        9.08     273       -4.7
   03/18/2017 06:40      51.7      51.4       92     49.6      0.00     17.93      66.8     0.44      1018.0     2       119         3       130        9.08     273       -6.3
   03/18/2017 06:30      51.9      51.6       92     49.4      0.00     17.93      66.5     0.44      1018.0     2        82         3        86        9.08     273       -5.8
   03/18/2017 06:20      51.8      51.2       90     48.8      0.00     17.93      66.5     0.44      1018.0     2       111         3        88        9.08     274       -6.5
   03/18/2017 06:10      51.3      50.2       89     47.7      0.00     17.93      67.1     0.44      1018.0     1       117         2       132        9.08     274       -6.0
   03/18/2017 06:00      50.3      49.7       88     46.5      0.00     17.93      66.9     0.45      1018.0     2       127         2       104        9.08     274       -7.1
   03/18/2017 05:50      49.9      49.6       88     46.4      0.00     17.93      67.1     0.45      1018.0     0       194         1       171        9.08     274      -21.7
   03/18/2017 05:40      50.0      49.7       88     46.6      0.00     17.93      66.8     0.45      1018.0     0       120         1       144        9.08     273      -31.1
   03/18/2017 05:30      50.0      49.7       89     46.7      0.00     17.93      67.1     0.45      1018.0     0       150         1       135        9.08     273      -32.5
   03/18/2017 05:20      50.0      49.7       89     46.8      0.00     17.93      66.9     0.45      1018.0     1        89         1       129        9.08     273      -34.8
   03/18/2017 05:10      50.2      50.1       89     47.0      0.00     17.93      66.8     0.45      1018.0     0       354         1        21        9.08     272      -36.8
   03/18/2017 05:00      50.6      50.2       88     47.0      0.00     17.93      67.3     0.45      1018.0     1       128         1       118        9.08     272      -40.3
   03/18/2017 04:50      50.8      50.6       87     47.1      0.00     17.93      67.3     0.45      1018.0     1       135         1       137        9.09     272      -44.1
   03/18/2017 04:40      51.3      50.8       87     47.0      0.00     17.93      67.3     0.45      1018.0     2       123         2       126        9.09     272      -46.9
   03/18/2017 04:30      51.3      50.9       86     47.1      0.00     17.93      67.2     0.45      1017.0     2       133         2       126        9.09     272      -48.9
   03/18/2017 04:20      51.6      50.7       86     47.2      0.00     17.93      67.5     0.45      1017.0     2       138         3       141        9.09     272      -51.5
   03/18/2017 04:10      51.3      50.8       86     46.9      0.00     17.93      67.3     0.45      1017.0     2       137         2       125        9.09     272      -53.3
   03/18/2017 04:00      51.6      51.2       85     47.2      0.00     17.93      67.1     0.45      1017.0     2       150         2       137        9.09     272      -54.2
   03/18/2017 03:50      51.6      51.4       85     47.1      0.00     17.93      67.2     0.45      1017.0     1       165         2       133        9.09     271      -56.5
   03/18/2017 03:40      51.9      51.4       84     46.9      0.00     17.93      67.5     0.45      1017.0     1       174         2       145        9.09     271      -59.5
   03/18/2017 03:30      52.6      52.2       83     47.3      0.00     17.93      67.4     0.45      1017.0     1       171         2       206        9.09     271      -60.1
   03/18/2017 03:20      53.2      52.8       81     47.3      0.00     17.93      67.3     0.45      1017.0     1       158         1       148        9.09     271      -60.5
   03/18/2017 03:10      53.4      53.0       80     47.2      0.00     17.93      67.4     0.45      1017.0     1       148         1       137        9.09     271      -61.7
   03/18/2017 03:00      54.0      53.5       79     47.4      0.00     17.93      67.4     0.45      1017.0     1       157         1       124        9.09     271      -62.5
   03/18/2017 02:50      54.1      53.6       77     46.8      0.00     17.93      67.3     0.45      1017.0     1       166         1       142        9.09     271      -62.6
   03/18/2017 02:40      53.8      53.4       72     44.9      0.00     17.93      67.8     0.45      1017.0     1       155         2       142        9.09     270      -62.2
   03/18/2017 02:30      53.4      53.1       71     44.1      0.00     17.93      67.7     0.45      1017.0     1       153         1       137        9.10     271      -62.7
   03/18/2017 02:20      53.7      53.5       68     43.5      0.00     17.93      67.5     0.45      1018.0     1       235         1       248        9.10     270      -63.4
   03/18/2017 02:10      53.7      53.5       70     44.0      0.00     17.93      67.5     0.45      1017.0     1       179         1       152        9.10     270      -64.1
   03/18/2017 02:00      54.0      53.4       70     44.3      0.00     17.93      67.5     0.45      1017.0     1       136         2       133        9.10     270      -65.2
   03/18/2017 01:50      54.5      54.1       68     44.0      0.00     17.93      67.5     0.45      1017.0     1       138         2       127        9.10     270      -64.9
   03/18/2017 01:40      55.1      54.6       66     43.9      0.00     17.93      67.8     0.45      1017.0     1       139         2       139        9.10     270      -64.4
   03/18/2017 01:30      55.4      55.0       65     43.6      0.00     17.93      67.6     0.45      1017.0     1       140         2       143        9.10     270      -63.9
   03/18/2017 01:20      55.5      55.4       65     43.8      0.00     17.93      67.3     0.45      1017.0     1       177         1       149        9.10     270      -64.0
   03/18/2017 01:10      55.7      55.4       65     44.0      0.00     17.93      67.8     0.45      1017.0     1       151         1       126        9.10     270      -65.4
   03/18/2017 01:00      55.8      55.5       65     43.9      0.00     17.93      67.7     0.45      1017.0     1       174         1       133        9.10     269      -66.2
   03/18/2017 00:50      56.0      55.6       64     43.9      0.00     17.93      67.6     0.45      1017.0     1       165         2       147        9.10     270      -66.0
   03/18/2017 00:40      57.2      56.3       62     43.9      0.00     17.93      67.8     0.45      1017.0     2       138         2       128        9.11     269      -66.1
   03/18/2017 00:30      57.4      57.2       60     43.4      0.00     17.93      67.9     0.45      1017.0     1       180         1       201        9.11     269      -65.2
   03/18/2017 00:20      57.6      57.4       59     43.4      0.00     17.93      67.9     0.45      1017.0     1       193         2       209        9.11     269      -64.8
   03/18/2017 00:10      57.9      57.4       59     43.4      0.00     17.93      67.8     0.45      1017.0     1       158         2       143        9.11     269      -64.2
   03/18/2017 00:00      58.0      57.5       59     43.4      0.00     17.93      67.9     0.45      1017.0     1       162         2       136        9.11     269      -64.1
   03/17/2017 23:50      58.1      57.9       57     42.9      0.00     17.93      67.8     0.45      1017.0     1       179         2       194        9.11     268      -64.6
   03/17/2017 23:40      58.6      57.9       57     43.1      0.00     17.93      68.0     0.45      1017.0     2       147         2       144        9.11     268      -65.0
   03/17/2017 23:30      58.8      58.5       56     42.9      0.00     17.93      67.7     0.45      1017.0     2       157         2       148        9.11     268      -64.1
   03/17/2017 23:20      58.9      58.5       56     42.9      0.00     17.93      68.0     0.45      1017.0     2       155         3       158        9.12     268      -63.4
   03/17/2017 23:10      59.5      58.8       55     43.1      0.00     17.93      67.8     0.45      1017.0     2       160         2       142        9.12     268      -63.1
   03/17/2017 23:00      60.5      59.8       50     41.6      0.00     17.93      67.9     0.45      1017.0     2       174         2       130        9.12     268      -64.2
   03/17/2017 22:50      60.5      60.3       50     41.4      0.00     17.93      67.6     0.45      1017.0     1       186         1       200        9.12     268      -65.0
   03/17/2017 22:40      61.6      60.7       48     41.5      0.00     17.93      67.7     0.45      1017.0     1       184         1       161        9.12     268      -65.8
   03/17/2017 22:30      62.5      61.9       47     41.6      0.00     17.93      67.8     0.45      1017.0     1       165         1       164        9.12     268      -65.8
   03/17/2017 22:20      62.4      62.1       50     43.4      0.00     17.93      67.7     0.45      1017.0     1       144         2       132        9.12     268      -64.9
   03/17/2017 22:10      63.3      62.7       46     41.9      0.00     17.93      67.8     0.45      1017.0     1       145         2       137        9.12     268      -65.0
   03/17/2017 22:00      63.7      63.4       45     42.0      0.00     17.93      67.9     0.45      1017.0     1       139         2       140        9.13     267      -65.2
   03/17/2017 21:50      63.9      63.2       48     43.4      0.00     17.93      67.8     0.45      1017.0     1       120         2        88        9.13     267      -65.6
   03/17/2017 21:40      63.5      62.9       52     45.4      0.00     17.93      67.8     0.45      1016.0     1        41         1       353        9.13     267      -65.6
   03/17/2017 21:30      64.3      63.3       50     44.9      0.00     17.93      67.5     0.45      1016.0     1       124         2       114        9.13     267      -66.0
   03/17/2017 21:20      66.0      64.4       52     47.3      0.00     17.93      67.7     0.45      1016.0     1       207         3       224        9.13     267      -67.8
   03/17/2017 21:10      66.0      64.5       48     44.6      0.00     17.93      67.8     0.45      1016.0     1       194         3       206        9.13     267      -67.2
   03/17/2017 21:00      66.1      65.2       47     44.9      0.00     17.93      67.7     0.45      1016.0     1       173         2       207        9.13     267      -69.1
   03/17/2017 20:50      66.3      65.3       42     42.0      0.00     17.93      67.8     0.45      1016.0     1       151         1       148        9.13     267      -69.9
   03/17/2017 20:40      67.4      65.8       39     40.8      0.00     17.93      67.8     0.45      1016.0     1       114         2       141        9.13     267      -72.4
   03/17/2017 20:30      69.5      67.9       37     41.2      0.00     17.93      67.8     0.45      1016.0     1       208         2       221        9.14     266      -72.4
   03/17/2017 20:20      69.7      68.0       35     39.9      0.00     17.93      67.6     0.45      1015.0     2       209         4       197        9.14     266      -71.6
   03/17/2017 20:10      69.5      68.2       31     37.0      0.00     17.93      67.5     0.45      1015.0     1       149         1       126        9.14     266      -71.8
   03/17/2017 20:00      69.1      68.5       31     36.6      0.00     17.93      67.5     0.45      1015.0     2       157         3       146        9.14     266      -72.3
   03/17/2017 19:50      70.3      68.5       32     38.2      0.00     17.93      67.5     0.45      1015.0     3       138         4       140        9.14     266      -74.2
   03/17/2017 19:40      70.7      70.2       31     38.4      0.00     17.93      67.7     0.45      1015.0     2       135         2       119        9.14     265      -74.9
   03/17/2017 19:30      71.9      70.6       30     38.4      0.00     17.93      67.5     0.45      1015.0     2       163         3       155        9.15     265      -76.5
   03/17/2017 19:20      73.3      72.0       27     37.0      0.00     17.93      67.5     0.45      1015.0     1       187         2       174        9.15     265      -76.7
   03/17/2017 19:10      74.8      73.5       25     36.0      0.00     17.93      67.5     0.45      1015.0     2       162         3       157        9.15     265      -77.1
   03/17/2017 19:00      76.8      75.1       23     35.2      0.00     17.93      67.1     0.45      1015.0     3       147         3       144        9.15     265      -77.6
   03/17/2017 18:50      78.3      76.9       19     32.5      0.00     17.93      67.4     0.45      1015.0     2       182         2       165        9.15     264      -72.5
   03/17/2017 18:40      79.1      78.4       17     30.0      0.00     17.93      67.3     0.44      1014.0     2       151         5       150        9.15     264      -60.6
   03/17/2017 18:30      80.4      79.3       15     28.4      0.00     17.93      67.2     0.44      1014.0     4       170         6       177        9.15     264      -41.1
   03/17/2017 18:20      81.1      80.4       16     30.6      0.00     17.93      67.2     0.44      1014.0     4       162         5       156        9.15     264        0.4
   03/17/2017 18:10      81.3      81.1       15     29.8      0.00     17.93      67.1     0.44      1014.0     4       157         5       144        9.15     264       45.8
   03/17/2017 18:00      81.1      80.7       15     28.9      0.00     17.93      67.2     0.44      1014.0     3       167         4       160        9.15     264       65.6
   03/17/2017 17:50      81.0      80.8       15     29.0      0.00     17.93      67.0     0.44      1014.0     3       172         4       185        9.15     264       41.1
   03/17/2017 17:40      81.5      80.9       15     29.4      0.00     17.93      66.8     0.44      1014.0     3       175         5       175        9.15     264       23.5
   03/17/2017 17:30      82.6      81.8       15     30.6      0.00     17.93      66.9     0.44      1014.0     3       167         4       163        9.15     264       17.3
   03/17/2017 17:20      82.9      82.7       14     28.9      0.00     17.93      66.8     0.44      1014.0     2       147         3       125        9.15     264       17.7
   03/17/2017 17:10      83.8      83.1       14     29.4      0.00     17.93      66.6     0.44      1014.0     3       127         4       109        9.15     264        4.0
   03/17/2017 17:00      84.0      83.6       14     29.3      0.00     17.93      66.8     0.44      1014.0     3       134         5       140        9.15     264      105.1
   03/17/2017 16:50      84.3      83.9       14     29.6      0.00     17.93      66.8     0.44      1014.0     3       147         5       130        9.15     265      133.4
   03/17/2017 16:40      84.7      84.1       14     29.4      0.00     17.93      66.5     0.44      1014.0     4       141         5       137        9.15     265      181.8
   03/17/2017 16:30      85.1      84.2       13     28.6      0.00     17.93      66.6     0.44      1014.0     3        97         5       100        9.15     265      190.4
   03/17/2017 16:20      84.4      84.0       13     28.8      0.00     17.93      66.5     0.44      1014.0     3       138         6       130        9.15     265      194.6
   03/17/2017 16:10      85.2      84.3       14     29.8      0.00     17.93      66.4     0.44      1014.0     4       112         5       158        9.15     265      242.1
   03/17/2017 16:00      84.9      84.1       14     30.8      0.00     17.93      66.3     0.44      1014.0     4       138         7       162        9.15     265      250.2
   03/17/2017 15:50      84.9      84.4       15     32.0      0.00     17.93      66.2     0.44      1014.0     4       156         6       171        9.15     265      261.5
   03/17/2017 15:40      86.1      84.8       14     31.2      0.00     17.93      66.2     0.44      1014.0     4       130         6       144        9.15     265      298.9
   03/17/2017 15:30      87.1      86.0       14     31.7      0.00     17.93      66.1     0.44      1015.0     4       122         6       127        9.15     266      332.6
   03/17/2017 15:20      87.2      86.6       14     32.4      0.00     17.93      66.0     0.44      1015.0     4        37         6        66        9.15     266      310.1
   03/17/2017 15:10      87.1      86.6       15     33.0      0.00     17.93      66.1     0.44      1015.0     4        56         8        81        9.15     266      351.8
   03/17/2017 15:00      87.1      86.6       16     34.5      0.00     17.93      66.0     0.44      1015.0     3        39         5        10        9.15     266      379.3
   03/17/2017 14:50      87.0      85.9       16     34.9      0.00     17.93      65.9     0.44      1015.0     4        53         6        88        9.15     267      394.8
   03/17/2017 14:40      86.4      85.7       16     35.5      0.00     17.93      65.9     0.44      1015.0     3        51         6        67        9.15     267      438.1
   03/17/2017 14:30      86.3      85.5       17     36.1      0.00     17.93      65.9     0.44      1015.0     4        48         5        74        9.15     267      435.8
   03/17/2017 14:20      86.6      84.3       19     38.4      0.00     17.93      65.9     0.44      1015.0     4        55         6        82        9.15     267      451.2
   03/17/2017 14:10      85.5      84.0       20     39.7      0.00     17.93      65.7     0.44      1015.0     4        38         6        63        9.15     267      462.3
   03/17/2017 14:00      85.0      83.6       20     39.6      0.00     17.93      65.6     0.44      1015.0     3        55         4       140        9.15     267      398.2
   03/17/2017 13:50      85.0      84.0       22     41.1      0.00     17.93      65.8     0.44      1016.0     3       115         5       133        9.15     267      448.2
   03/17/2017 13:40      84.2      83.5       24     43.1      0.00     17.93      65.7     0.44      1016.0     3        33         4        90        9.15     267      488.7
   03/17/2017 13:30      83.6      82.7       25     44.1      0.00     17.93      65.7     0.44      1016.0     2        77         4        86        9.15     268      469.6
   03/17/2017 13:20      82.9      81.9       29     46.5      0.00     17.93      65.8     0.44      1016.0     3        14         5        66        9.15     268      463.8
   03/17/2017 13:10      82.1      81.4       29     46.9      0.00     17.93      65.7     0.44      1016.0     4         1         6       359        9.15     267      461.7
   03/17/2017 13:00      82.3      81.5       28     46.0      0.00     17.93      65.6     0.44      1016.0     2       306         5       350        9.15     267      495.7
   03/17/2017 12:50      81.8      80.4       29     45.9      0.00     17.93      65.5     0.44      1016.0     3        15         5         3        9.15     267      479.9
   03/17/2017 12:40      80.7      79.7       30     46.3      0.00     17.93      65.7     0.44      1016.0     3        44         5       133        9.15     267      451.4
   03/17/2017 12:30      80.3      79.3       29     45.0      0.00     17.93      65.5     0.44      1016.0     3       349         5         2        9.15     267      470.5
   03/17/2017 12:20      79.9      79.2       29     44.7      0.00     17.93      65.6     0.44      1017.0     2       336         4       358        9.14     267      453.7
   03/17/2017 12:10      80.0      78.5       30     44.7      0.00     17.93      65.7     0.44      1017.0     2        62         5        28        9.14     267      402.3
   03/17/2017 12:00      80.1      77.2       30     44.6      0.00     17.93      65.7     0.44      1017.0     2        28         4         1        9.14     267      498.0
   03/17/2017 11:50      77.2      76.3       31     43.9      0.00     17.93      65.5     0.44      1017.0     3       349         4       347        9.13     267      394.0
   03/17/2017 11:40      76.6      76.2       34     45.8      0.00     17.93      65.5     0.44      1017.0     3       328         4       332        9.13     268      462.7
   03/17/2017 11:30      76.3      75.7       36     47.3      0.00     17.93      66.0     0.44      1017.0     3       338         4         5        9.12     268      464.3
   03/17/2017 11:20      76.3      75.5       37     47.8      0.00     17.93      65.9     0.44      1017.0     2        37         3        20        9.11     268      420.2
   03/17/2017 11:10      75.8      74.3       39     48.3      0.00     17.93      65.7     0.44      1017.0     2         4         3       358        9.10     269      389.5
   03/17/2017 11:00      74.2      72.4       42     48.8      0.00     17.93      65.5     0.44      1017.0     2        25         3       358        9.09     269      338.6
   03/17/2017 10:50      72.8      72.5       43     48.6      0.00     17.93      65.8     0.44      1017.0     2       344         3       340        9.08     269      360.9
   03/17/2017 10:40      72.3      71.2       44     49.1      0.00     17.93      65.8     0.44      1018.0     2        25         3       358        9.07     269      334.6
   03/17/2017 10:30      70.9      70.2       46     48.6      0.00     17.93      66.0     0.44      1018.0     1        16         3       350        9.07     269      294.3
   03/17/2017 10:20      71.2      70.0       46     48.6      0.00     17.93      66.0     0.44      1018.0     1       359         2       333        9.07     270      308.4
   03/17/2017 10:10      71.3      69.3       45     48.3      0.00     17.93      66.0     0.44      1018.0     1        17         1       324        9.05     270      317.6
   03/17/2017 10:00      69.7      69.0       46     47.9      0.00     17.93      66.1     0.45      1018.0     1       289         2       270        9.03     270      289.8
   03/17/2017 09:50      69.1      67.4       48     47.7      0.00     17.93      65.7     0.45      1018.0     1        47         1       135        9.00     270      306.4
   03/17/2017 09:40      67.3      65.3       51     47.4      0.00     17.93      66.2     0.45      1018.0     1        45         2        26        8.97     270      257.5
   03/17/2017 09:30      65.6      64.3       52     47.1      0.00     17.93      66.3     0.45      1018.0     1       337         2        20        8.96     270      253.6
   03/17/2017 09:20      64.4      63.4       55     47.3      0.00     17.93      65.9     0.45      1018.0     1       282         2       304        8.96     271      195.9
   03/17/2017 09:10      63.7      63.4       55     47.3      0.00     17.93      66.1     0.45      1018.0     1       307         2       295        8.96     271      188.4
   03/17/2017 09:00      63.6      63.3       57     47.7      0.00     17.93      66.2     0.45      1018.0     1       357         2         0        8.96     272      169.6
   03/17/2017 08:50      63.3      61.8       58     47.8      0.00     17.93      66.3     0.45      1018.0     1        13         1        16        8.96     273      148.3
   03/17/2017 08:40      62.1      61.6       59     47.4      0.00     17.93      66.5     0.45      1018.0     1         1         2       359        8.96     275      108.6
   03/17/2017 08:30      62.0      60.8       61     47.8      0.00     17.93      66.2     0.45      1018.0     1       354         1       340        8.96     275       78.9
   03/17/2017 08:20      60.6      57.9       66     47.9      0.00     17.93      66.4     0.45      1018.0     0         9         1        20        8.96     276       63.4
   03/17/2017 08:10      57.8      56.2       69     47.3      0.00     17.93      66.3     0.45      1017.0     1       345         2       322        8.96     277       37.0
   03/17/2017 08:00      56.0      54.1       75     47.1      0.00     17.93      66.5     0.45      1017.0     1       334         1       324        8.96     277      -12.4
   03/17/2017 07:50      54.1      52.5       80     47.1      0.00     17.93      66.5     0.45      1017.0     1       119         2       130        8.96     277       -7.0
   03/17/2017 07:40      52.4      51.0       83     46.8      0.00     17.93      66.3     0.45      1017.0     1       171         2       136        8.96     278      -15.2
   03/17/2017 07:30      51.0      50.4       85     46.3      0.00     17.93      67.0     0.45      1017.0     1       156         2       148        8.97     278      -31.6
   03/17/2017 07:20      50.4      50.2       85     46.0      0.00     17.93      66.2     0.45      1017.0     2       163         3       144        8.96     278      -41.6
   03/17/2017 07:10      50.3      50.1       85     45.9      0.00     17.93      66.4     0.45      1017.0     2       167         3       134        8.97     276      -49.1
   03/17/2017 07:00      50.3      50.1       85     45.8      0.00     17.93      66.5     0.45      1017.0     1       157         2       194        8.97     275      -53.1
   03/17/2017 06:50      50.6      50.2       83     45.5      0.00     17.93      66.5     0.45      1017.0     1       148         2       128        8.97     274      -57.4
   03/17/2017 06:40      50.7      50.5       83     45.6      0.00     17.93      66.7     0.45      1017.0     1       163         2       143        8.97     274      -58.3
   03/17/2017 06:30      50.9      50.5       82     45.4      0.00     17.93      66.5     0.45      1017.0     1       151         1       135        8.97     274      -59.7
   03/17/2017 06:20      51.3      50.8       81     45.4      0.00     17.93      66.6     0.45      1017.0     1       228         2       253        8.97     275      -60.0
   03/17/2017 06:10      51.4      51.3       81     45.7      0.00     17.93      66.5     0.45      1017.0     1       201         1       194        8.97     274      -59.3
   03/17/2017 06:00      51.4      51.0       82     45.9      0.00     17.93      66.9     0.45      1017.0     1       137         1       330        8.97     274      -58.2
   03/17/2017 05:50      51.4      51.0       81     45.7      0.00     17.93      66.7     0.45      1017.0     1        75         2       129        8.97     273      -58.6
   03/17/2017 05:40      51.5      50.9       82     46.0      0.00     17.93      66.7     0.45      1017.0     1       125         1       135        8.97     273      -57.3
   03/17/2017 05:30      51.1      50.6       83     45.6      0.00     17.93      66.6     0.45      1017.0     2       160         2       137        8.97     273      -58.5
   03/17/2017 05:20      52.2      51.2       79     45.4      0.00     17.93      67.1     0.45      1017.0     2       154         3       160        8.97     272      -60.0
   03/17/2017 05:10      52.2      51.7       79     45.6      0.00     17.93      66.7     0.45      1017.0     1       181         1       136        8.97     272      -60.1
   03/17/2017 05:00      52.2      51.7       80     45.8      0.00     17.93      66.7     0.45      1017.0     1       140         1       144        8.97     272      -60.8
   03/17/2017 04:50      52.4      52.0       80     46.0      0.00     17.93      67.0     0.45      1017.0     1       321         1       314        8.97     271      -60.5
   03/17/2017 04:40      52.5      52.1       79     46.0      0.00     17.93      67.2     0.45      1016.0     1        24         1       306        8.97     271      -60.5
   03/17/2017 04:30      53.1      52.6       78     46.1      0.00     17.93      67.1     0.45      1016.0     1       135         2       126        8.97     271      -60.1
   03/17/2017 04:20      53.3      52.9       77     46.0      0.00     17.93      67.1     0.45      1017.0     1       152         1       134        8.97     271      -59.5
   03/17/2017 04:10      53.1      52.6       76     45.7      0.00     17.93      67.2     0.45      1017.0     1       220         2       148        8.97     271      -59.4
   03/17/2017 04:00      53.6      53.1       76     45.9      0.00     17.93      67.1     0.45      1017.0     1       143         1       126        8.97     270      -60.1
   03/17/2017 03:50      53.6      53.4       76     46.1      0.00     17.93      67.1     0.45      1017.0     1       185         1       206        8.97     270      -59.8
   03/17/2017 03:40      53.6      53.4       77     46.6      0.00     17.93      67.2     0.45      1017.0     0       129         1       155        8.98     270      -59.8
   03/17/2017 03:30      53.4      52.9       79     46.8      0.00     17.93      67.2     0.45      1017.0     1       153         2       142        8.98     270      -60.3
   03/17/2017 03:20      53.7      53.1       77     46.5      0.00     17.93      67.3     0.45      1017.0     2       139         3       136        8.98     270      -60.8
   03/17/2017 03:10      54.4      53.6       75     46.4      0.00     17.93      67.4     0.45      1017.0     2       140         2       146        8.98     270      -60.7
   03/17/2017 03:00      54.7      54.5       73     46.2      0.00     17.93      67.2     0.45      1017.0     1       162         1       143        8.98     270      -60.1
   03/17/2017 02:50      54.8      54.6       73     46.2      0.00     17.93      67.2     0.45      1017.0     0       305         1       171        8.98     269      -60.6
   03/17/2017 02:40      54.6      54.2       75     46.5      0.00     17.93      67.3     0.45      1017.0     0       317         1       302        8.98     269      -60.5
   03/17/2017 02:30      54.5      54.0       75     46.6      0.00     17.93      67.3     0.45      1017.0     1       157         3       163        8.98     270      -60.5
   03/17/2017 02:20      55.1      54.5       73     46.1      0.00     17.93      67.5     0.45      1017.0     2       162         3       134        8.98     270      -60.0
   03/17/2017 02:10      55.2      55.0       71     46.0      0.00     17.93      67.3     0.45      1018.0     1       170         2       142        8.98     270      -60.1
   03/17/2017 02:00      55.4      55.1       71     45.9      0.00     17.93      67.5     0.45      1018.0     0        26         1       326        8.98     270      -60.4
   03/17/2017 01:50      55.8      55.4       72     46.7      0.00     17.93      67.6     0.45      1017.0     1       141         1       134        8.98     270      -60.6
   03/17/2017 01:40      56.2      55.8       69     46.2      0.00     17.93      67.5     0.45      1018.0     1       158         2       129        8.98     270      -60.8
   03/17/2017 01:30      56.1      55.8       72     47.0      0.00     17.93      67.3     0.45      1018.0     1       156         2       135        8.99     270      -60.9
   03/17/2017 01:20      56.1      55.9       72     47.1      0.00     17.93      67.3     0.45      1018.0     1       135         2       139        8.99     269      -60.9
   03/17/2017 01:10      57.3      56.3       68     46.6      0.00     17.93      67.3     0.45      1018.0     1       138         2       139        8.99     269      -60.5
   03/17/2017 01:00      57.4      57.1       67     46.6      0.00     17.93      67.6     0.45      1018.0     1       162         1       156        8.99     269      -59.7
   03/17/2017 00:50      57.6      57.3       68     46.8      0.00     17.93      67.6     0.45      1018.0     1       151         1       159        8.99     269      -59.7
   03/17/2017 00:40      57.5      57.3       68     47.0      0.00     17.93      67.3     0.45      1018.0     1       138         1       126        8.99     269      -60.1
   03/17/2017 00:30      57.9      57.5       69     47.4      0.00     17.93      67.6     0.45      1017.0     1       128         2       130        8.99     269      -60.7
   03/17/2017 00:20      58.2      58.0       68     47.4      0.00     17.93      67.4     0.45      1017.0     0       129         1       157        8.99     269      -60.0
   03/17/2017 00:10      58.5      57.9       67     47.4      0.00     17.93      67.4     0.45      1017.0     1       150         2       134        8.99     269      -60.5
   03/17/2017 00:00      59.2      58.4       66     47.4      0.00     17.93      67.4     0.45      1017.0     1       142         1       130        9.00     268      -61.1
   03/16/2017 23:50      59.3      59.2       65     47.4      0.00     17.93      67.4     0.45      1018.0     0       202         0       166        9.00     269      -60.7
   03/16/2017 23:40      59.3      59.0       66     47.8      0.00     17.93      67.7     0.45      1018.0     1       162         2       134        9.00     268      -61.2
   03/16/2017 23:30      59.8      59.3       64     47.5      0.00     17.93      67.7     0.45      1018.0     1       156         2       132        9.00     268      -61.8
   03/16/2017 23:20      59.7      59.3       64     47.4      0.00     17.93      67.7     0.45      1018.0     1       181         2       146        9.00     268      -61.8
   03/16/2017 23:10      59.8      59.4       64     47.4      0.00     17.93      67.6     0.45      1018.0     1       161         1       156        9.00     268      -61.1
   03/16/2017 23:00      60.1      59.4       64     47.7      0.00     17.93      67.7     0.45      1018.0     1       158         2       139        9.00     268      -61.7
   03/16/2017 22:50      60.4      59.9       63     47.6      0.00     17.93      67.6     0.45      1018.0     1       181         1       126        9.00     268      -62.5
   03/16/2017 22:40      60.1      59.9       64     47.9      0.00     17.93      67.6     0.45      1018.0     1       147         2       142        9.01     268      -63.3
   03/16/2017 22:30      60.5      60.3       63     48.0      0.00     17.93      67.6     0.45      1018.0     1       166         1       140        9.01     267      -64.0
   03/16/2017 22:20      60.9      60.5       63     47.9      0.00     17.93      68.0     0.45      1018.0     2       140         2       140        9.01     267      -64.8
   03/16/2017 22:10      61.3      60.9       61     47.7      0.00     17.93      67.7     0.45      1018.0     1       159         2       167        9.01     267      -64.8
   03/16/2017 22:00      61.5      61.2       60     47.5      0.00     17.93      67.9     0.45      1018.0     1       172         2       145        9.01     267      -66.2
   03/16/2017 21:50      61.9      61.6       59     47.4      0.00     17.93      67.7     0.45      1018.0     1       174         2       146        9.01     267      -66.1
   03/16/2017 21:40      62.3      61.9       58     47.4      0.00     17.93      67.6     0.45      1018.0     1       155         2       149        9.02     267      -66.2
   03/16/2017 21:30      63.0      62.5       57     47.2      0.00     17.93      67.5     0.45      1018.0     2       139         3       135        9.02     267      -67.0
   03/16/2017 21:20      63.8      63.3       54     46.5      0.00     17.93      67.6     0.45      1018.0     1       174         1       143        9.02     267      -67.1
   03/16/2017 21:10      64.8      64.1       51     46.0      0.00     17.93      67.4     0.45      1017.0     1       188         2       130        9.02     267      -66.8
   03/16/2017 21:00      64.9      64.5       51     46.2      0.00     17.93      67.6     0.45      1017.0     1       174         1       152        9.02     267      -67.2
   03/16/2017 20:50      65.3      64.6       52     46.9      0.00     17.93      67.4     0.45      1017.0     1       123         1       127        9.02     266      -68.9
   03/16/2017 20:40      65.8      65.5       51     47.0      0.00     17.93      67.6     0.45      1017.0     1       131         1        89        9.03     266      -70.1
   03/16/2017 20:30      66.4      65.7       51     47.3      0.00     17.93      67.5     0.45      1017.0     1        93         1        78        9.03     267      -70.9
   03/16/2017 20:20      68.3      66.8       46     46.3      0.00     17.93      67.4     0.45      1017.0     1       149         2       199        9.03     266      -71.3
   03/16/2017 20:10      69.1      68.4       42     44.8      0.00     17.93      67.5     0.45      1017.0     2       203         3       216        9.03     266      -71.5
   03/16/2017 20:00      68.9      68.1       42     44.7      0.00     17.93      67.5     0.45      1017.0     2       211         2       220        9.03     266      -71.7
   03/16/2017 19:50      69.8      68.4       40     43.6      0.00     17.93      67.3     0.45      1017.0     2       208         2       239        9.03     265      -73.2
   03/16/2017 19:40      70.5      69.8       38     43.0      0.00     17.93      67.4     0.45      1017.0     2       248         2       234        9.03     265      -75.5
   03/16/2017 19:30      72.1      70.6       36     42.8      0.00     17.93      67.3     0.45      1017.0     2       229         3       214        9.04     265      -79.1
   03/16/2017 19:20      73.0      72.5       33     42.0      0.00     17.93      67.2     0.45      1016.0     2       262         5       265        9.04     265      -83.2
   03/16/2017 19:10      73.8      72.8       34     43.0      0.00     17.93      67.2     0.45      1016.0     2       260         4       238        9.04     265      -83.1
   03/16/2017 19:00      75.2      74.3       33     43.7      0.00     17.93      67.1     0.45      1016.0     2       271         3       292        9.04     264      -82.1
   03/16/2017 18:50      75.8      75.4       32     43.5      0.00     17.93      67.2     0.45      1016.0     3       267         5       284        9.04     264      -78.4
   03/16/2017 18:40      76.8      76.0       29     42.2      0.00     17.93      67.1     0.45      1016.0     3       285         5       306        9.04     264      -68.6
   03/16/2017 18:30      77.5      77.0       29     42.2      0.00     17.93      67.1     0.45      1016.0     3       283         4       251        9.04     264      -49.2
   03/16/2017 18:20      78.3      77.4       28     42.3      0.00     17.93      67.0     0.45      1016.0     3       284         4       320        9.04     264      -32.1
   03/16/2017 18:10      78.6      78.4       27     41.6      0.00     17.93      66.9     0.45      1016.0     2       279         4       311        9.04     264      -14.1
   03/16/2017 18:00      79.3      78.5       27     42.0      0.00     17.93      66.8     0.45      1016.0     4       300         7       263        9.04     264       12.3
   03/16/2017 17:50      79.5      79.2       28     43.0      0.00     17.93      66.8     0.45      1016.0     4       281         6       239        9.04     264       35.9
   03/16/2017 17:40      80.6      79.5       27     42.8      0.00     17.93      66.8     0.45      1016.0     4       290         7       284        9.04     264       55.6
   03/16/2017 17:30      80.3      79.5       26     42.0      0.00     17.93      66.8     0.45      1016.0     3       302         8       327        9.04     264       78.2
   03/16/2017 17:20      80.0      79.6       27     42.5      0.00     17.93      66.5     0.45      1016.0     5       316         7       299        9.04     264      116.7
   03/16/2017 17:10      80.0      79.7       27     42.5      0.00     17.93      66.6     0.45      1016.0     5       318         7       308        9.04     264      136.4
   03/16/2017 17:00      80.8      79.8       26     42.2      0.00     17.93      66.6     0.45      1016.0     4       311         8       303        9.04     264      158.3
   03/16/2017 16:50      80.4      79.9       27     42.7      0.00     17.93      66.4     0.45      1016.0     4       305         8       320        9.04     264      179.9
   03/16/2017 16:40      81.3      80.1       27     43.4      0.00     17.93      66.4     0.45      1016.0     6       304        10       316        9.05     264      208.8
   03/16/2017 16:30      81.0      80.4       27     43.9      0.00     17.93      66.5     0.45      1016.0     5       311         7       278        9.05     264      222.0
   03/16/2017 16:20      81.5      80.7       29     45.5      0.00     17.93      66.4     0.45      1016.0     5       289         8       300        9.05     264      233.1
   03/16/2017 16:10      82.7      81.8       28     45.8      0.00     17.93      66.2     0.45      1016.0     6       305         8       303        9.05     264      253.7
   03/16/2017 16:00      83.3      82.3       29     47.4      0.00     17.93      66.1     0.45      1016.0     6       306         8       294        9.05     265      280.3
   03/16/2017 15:50      84.0      82.5       28     47.0      0.00     17.93      66.1     0.45      1016.0     7       317        10       315        9.05     265      293.1
   03/16/2017 15:40      83.9      82.4       30     48.2      0.00     17.93      66.0     0.45      1016.0     4       274         6       310        9.05     265      323.0
   03/16/2017 15:30      82.9      82.0       29     47.3      0.00     17.93      66.0     0.45      1016.0     4       228         6       163        9.05     264      350.6
   03/16/2017 15:20      82.3      81.6       31     48.4      0.00     17.93      65.8     0.45      1016.0     5       152         8       176        9.05     264      360.7
   03/16/2017 15:10      82.1      81.6       30     47.8      0.00     17.93      65.8     0.45      1016.0     6       166         8       163        9.06     264      384.4
   03/16/2017 15:00      81.8      81.4       31     47.7      0.00     17.93      65.7     0.45      1016.0     5       167         7       144        9.06     265      402.8
   03/16/2017 14:50      82.3      81.5       31     48.6      0.00     17.93      65.8     0.44      1017.0     5       185        11       157        9.06     265      419.2
   03/16/2017 14:40      82.3      81.6       32     48.8      0.00     17.93      65.7     0.44      1017.0     6       158         8       148        9.06     266      430.9
   03/16/2017 14:30      82.7      82.0       32     49.9      0.00     17.93      65.6     0.44      1017.0     3       165         5       104        9.05     265      416.7
   03/16/2017 14:20      84.3      81.7       33     50.5      0.00     17.93      65.5     0.44      1017.0     5       165         8       163        9.06     266      444.3
   03/16/2017 14:10      84.5      83.6       33     51.8      0.00     17.93      65.4     0.44      1017.0     4        57         9       116        9.06     266      450.7
   03/16/2017 14:00      84.9      83.8       31     50.8      0.00     17.93      65.5     0.44      1017.0     4        60         6        71        9.06     266      422.1
   03/16/2017 13:50      83.7      83.3       31     49.4      0.00     17.93      65.5     0.44      1017.0     3        71         5        30        9.06     266      451.4
   03/16/2017 13:40      83.6      82.6       27     46.2      0.00     17.93      65.4     0.44      1017.0     5        84         6        73        9.06     266      455.7
   03/16/2017 13:30      85.3      83.8       25     45.0      0.00     17.93      65.5     0.44      1017.0     4        50         7        81        9.06     266      439.3
   03/16/2017 13:20      84.7      83.7       19     37.4      0.00     17.93      65.4     0.44      1017.0     2        11         4       336        9.06     266      470.6
   03/16/2017 13:10      84.6      83.2       20     38.2      0.00     17.93      65.5     0.44      1017.0     3       328         4       292        9.06     266      481.9
   03/16/2017 13:00      83.3      82.6       20     37.4      0.00     17.93      65.4     0.44      1018.0     3       337         6         0        9.06     266      483.5
   03/16/2017 12:50      83.5      82.4       21     39.3      0.00     17.93      65.3     0.44      1018.0     2        78         4       331        9.06     266      491.2
   03/16/2017 12:40      83.8      83.3       24     42.6      0.00     17.93      65.3     0.44      1018.0     2        34         4       309        9.06     266      483.3
   03/16/2017 12:30      83.1      81.4       24     41.9      0.00     17.93      65.2     0.44      1018.0     1       175         2        60        9.06     266      468.8
   03/16/2017 12:20      81.5      80.8       26     43.1      0.00     17.93      65.4     0.44      1018.0     2        32         4       293        9.06     266      483.1
   03/16/2017 12:10      81.4      80.9       26     43.0      0.00     17.93      65.3     0.44      1018.0     2        20         3       309        9.06     266      444.9
   03/16/2017 12:00      81.4      80.4       26     43.4      0.00     17.93      65.5     0.44      1018.0     2        41         3         8        9.06     266      438.5
   03/16/2017 11:50      80.5      79.3       27     43.2      0.00     17.93      65.4     0.44      1019.0     2         2         3       299        9.06     266      462.7
   03/16/2017 11:40      79.4      77.5       29     43.9      0.00     17.93      65.4     0.44      1019.0     3        58         3        32        9.06     267      461.8
   03/16/2017 11:30      77.9      77.2       31     44.3      0.00     17.93      65.3     0.44      1019.0     2       354         4         7        9.06     268      448.5
   03/16/2017 11:20      76.7      75.6       32     44.5      0.00     17.93      65.5     0.44      1019.0     2       355         4       342        9.06     268      436.4
   03/16/2017 11:10      75.8      75.6       33     44.9      0.00     17.93      65.6     0.44      1019.0     3        11         6        13        9.06     268      427.7
   03/16/2017 11:00      76.0      75.2       34     45.2      0.00     17.93      65.6     0.45      1019.0     2         3         5       353        9.06     268      415.1
   03/16/2017 10:50      75.6      74.8       34     44.8      0.00     17.93      65.7     0.45      1019.0     2        21         4         8        9.06     268      393.8
   03/16/2017 10:40      75.7      73.6       35     44.7      0.00     17.93      65.3     0.45      1019.0     2        40         3        78        9.06     268      391.1
   03/16/2017 10:30      73.4      72.5       36     44.8      0.00     17.93      65.7     0.45      1019.0     2        29         4        14        9.06     268      369.3
   03/16/2017 10:20      72.7      71.5       38     44.8      0.00     17.93      65.7     0.45      1019.0     2        24         3        18        9.06     269      359.0
   03/16/2017 10:10      71.9      70.3       38     44.7      0.00     17.93      65.7     0.45      1019.0     2        32         4        32        9.06     269      340.3
   03/16/2017 10:00      70.3      69.1       40     44.4      0.00     17.93      65.7     0.45      1020.0     2        34         3        21        9.06     269      323.9
   03/16/2017 09:50      69.2      68.8       40     43.9      0.00     17.93      65.7     0.45      1020.0     2        20         3        48        9.06     269      306.6
   03/16/2017 09:40      69.2      68.4       40     43.9      0.00     17.93      65.8     0.45      1020.0     2         2         2        19        9.06     269      287.5
   03/16/2017 09:30      69.5      68.6       40     43.8      0.00     17.93      65.8     0.45      1020.0     1        73         2        89        9.06     269      271.0
   03/16/2017 09:20      69.0      67.2       41     43.5      0.00     17.93      65.8     0.45      1020.0     1       265         1       282        9.06     270      252.2
   03/16/2017 09:10      67.4      65.3       43     43.1      0.00     17.93      65.7     0.45      1020.0     1       254         2       260        9.06     271      231.2
   03/16/2017 09:00      65.2      62.8       47     43.4      0.00     17.93      66.1     0.45      1020.0     1       281         2       267        9.06     274      206.6
   03/16/2017 08:50      62.7      61.4       50     43.4      0.00     17.93      66.0     0.45      1020.0     2       309         3       343        9.06     277      182.8
   03/16/2017 08:40      61.5      61.2       51     43.3      0.00     17.93      66.1     0.45      1019.0     2       314         3       310        9.06     278      156.1
   03/16/2017 08:30      62.8      61.5       50     43.1      0.00     17.93      66.1     0.45      1019.0     2       319         3       296        9.06     279      126.8
   03/16/2017 08:20      63.0      59.6       53     44.2      0.00     17.93      66.0     0.45      1019.0     1         6         1       348        9.06     279       97.0
   03/16/2017 08:10      59.4      55.3       61     43.5      0.00     17.93      66.1     0.45      1019.0     0       299         1       340        9.06     280       50.3
   03/16/2017 08:00      55.2      53.4       66     43.1      0.00     17.93      66.2     0.45      1019.0     0        50         1       106        9.06     280      -33.2
   03/16/2017 07:50      53.4      52.5       69     43.1      0.00     17.93      66.1     0.45      1019.0     1       152         1       134        9.06     280      -27.0
   03/16/2017 07:40      52.4      51.4       70     42.6      0.00     17.93      66.1     0.45      1019.0     1       145         2       134        9.06     279      -41.0
   03/16/2017 07:30      51.3      50.8       71     42.0      0.00     17.93      66.3     0.45      1019.0     0       244         1       209        9.06     279      -46.8
   03/16/2017 07:20      51.1      50.6       72     42.1      0.00     17.93      66.3     0.45      1019.0     1       180         1       126        9.06     278      -51.6
   03/16/2017 07:10      50.8      50.4       72     41.8      0.00     17.93      66.5     0.45      1019.0     1       207         1       215        9.06     278      -55.9
   03/16/2017 07:00      50.5      50.2       74     42.2      0.00     17.93      66.3     0.45      1019.0     1       155         1       146        9.06     276      -58.4
   03/16/2017 06:50      51.0      50.5       73     42.2      0.00     17.93      66.2     0.45      1019.0     1       127         2       134        9.07     276      -60.3
   03/16/2017 06:40      51.0      50.6       72     42.0      0.00     17.93      66.6     0.45      1019.0     1       175         2       140        9.07     276      -59.6
   03/16/2017 06:30      51.4      51.0       70     41.9      0.00     17.93      66.4     0.45      1019.0     1       126         2       140        9.07     274      -59.3
   03/16/2017 06:20      51.4      51.1       71     42.0      0.00     17.93      66.4     0.45      1019.0     1       198         1       136        9.07     274      -59.5
   03/16/2017 06:10      51.6      51.0       70     41.7      0.00     17.93      66.6     0.45      1019.0     1       195         2       193        9.07     274      -59.3
   03/16/2017 06:00      51.3      50.7       72     42.2      0.00     17.93      66.6     0.45      1019.0     1       140         2       125        9.07     274      -60.1
   03/16/2017 05:50      51.7      51.4       71     42.4      0.00     17.93      66.8     0.45      1019.0     1       132         2       124        9.07     273      -59.8
   03/16/2017 05:40      51.9      51.7       70     42.5      0.00     17.93      66.5     0.45      1018.0     0       111         1       176        9.07     272      -60.1
   03/16/2017 05:30      51.9      51.5       70     42.3      0.00     17.93      66.5     0.45      1018.0     1       222         2       157        9.07     273      -59.6
   03/16/2017 05:20      52.6      52.2       69     42.5      0.00     17.93      66.8     0.45      1018.0     2       148         3       136        9.07     273      -59.4
   03/16/2017 05:10      53.0      52.6       66     41.8      0.00     17.93      67.0     0.45      1018.0     1       159         2       156        9.07     272      -59.0
   03/16/2017 05:00      52.9      52.6       64     41.0      0.00     17.93      66.8     0.45      1018.0     1       174         2       158        9.07     272      -58.9
   03/16/2017 04:50      52.8      52.4       65     41.1      0.00     17.93      66.7     0.45      1018.0     1       163         1       172        9.07     272      -59.2
   03/16/2017 04:40      52.9      52.7       64     40.9      0.00     17.93      66.7     0.45      1018.0     0       174         1       142        9.07     272      -59.7
   03/16/2017 04:30      53.4      52.7       64     41.2      0.00     17.93      66.9     0.45      1018.0     1       135         1       184        9.07     272      -60.1
   03/16/2017 04:20      54.1      53.6       62     41.1      0.00     17.93      66.9     0.45      1018.0     1       111         1       132        9.07     272      -59.4
   03/16/2017 04:10      54.2      53.9       60     40.4      0.00     17.93      66.8     0.45      1018.0     1       175         1       186        9.07     272      -58.8
   03/16/2017 04:00      54.3      54.0       60     40.5      0.00     17.93      66.8     0.45      1018.0     1       186         1       212        9.07     272      -59.2
   03/16/2017 03:50      54.5      54.0       61     41.1      0.00     17.93      67.0     0.45      1018.0     1       277         1       302        9.07     272      -59.8
   03/16/2017 03:40      54.5      54.0       60     40.9      0.00     17.93      66.9     0.45      1018.0     1        97         2       213        9.07     272      -59.8
   03/16/2017 03:30      54.1      53.6       62     41.2      0.00     17.93      67.1     0.45      1019.0     1       196         2       215        9.07     272      -59.3
   03/16/2017 03:20      54.4      54.0       62     41.3      0.00     17.93      67.0     0.45      1019.0     1       152         2       146        9.07     272      -60.1
   03/16/2017 03:10      54.5      53.9       61     41.2      0.00     17.93      67.1     0.45      1019.0     2       145         2       152        9.07     271      -60.3
   03/16/2017 03:00      54.6      54.4       59     40.6      0.00     17.93      67.1     0.45      1019.0     1       170         2       201        9.07     271      -60.7
   03/16/2017 02:50      55.0      54.6       60     41.0      0.00     17.93      67.1     0.45      1019.0     1        83         1       129        9.07     272      -62.0
   03/16/2017 02:40      55.5      55.1       57     40.4      0.00     17.93      67.2     0.45      1019.0     1       153         2       139        9.07     271      -60.5
   03/16/2017 02:30      55.8      55.3       57     40.7      0.00     17.93      67.2     0.45      1019.0     1       141         2       153        9.07     271      -61.1
   03/16/2017 02:20      56.0      55.2       57     40.5      0.00     17.93      67.1     0.45      1019.0     2       140         3       140        9.07     272      -62.0
   03/16/2017 02:10      55.9      55.3       56     40.0      0.00     17.93      67.3     0.45      1019.0     1       183         2       196        9.07     271      -61.2
   03/16/2017 02:00      56.4      55.9       53     39.5      0.00     17.93      67.3     0.45      1019.0     2       247         2       249        9.08     270      -61.4
   03/16/2017 01:50      56.5      55.8       53     39.4      0.00     17.93      67.3     0.45      1019.0     1       206         1       233        9.08     271      -62.4
   03/16/2017 01:40      56.3      56.0       54     39.5      0.00     17.93      67.1     0.45      1019.0     1        33         1        44        9.08     270      -63.1
   03/16/2017 01:30      56.5      56.0       54     39.9      0.00     17.93      67.3     0.45      1019.0     1       108         2       150        9.08     270      -62.7
   03/16/2017 01:20      57.1      56.6       51     39.0      0.00     17.93      67.3     0.45      1019.0     2       170         3       156        9.08     270      -62.3
   03/16/2017 01:10      57.7      57.3       48     37.9      0.00     17.93      67.2     0.45      1019.0     2       174         2       165        9.08     270      -62.6
   03/16/2017 01:00      58.4      58.0       46     37.6      0.00     17.93      67.3     0.45      1019.0     1       195         1       197        9.08     270      -63.4
   03/16/2017 00:50      58.8      58.4       46     37.6      0.00     17.93      67.4     0.45      1019.0     1       145         1       142        9.08     270      -63.5
   03/16/2017 00:40      59.1      58.8       44     37.2      0.00     17.93      67.5     0.45      1019.0     0       170         1       144        9.08     270      -63.7
   03/16/2017 00:30      59.5      59.3       42     36.6      0.00     17.93      67.4     0.45      1019.0     0       226         1       236        9.08     269      -64.1
   03/16/2017 00:20      59.7      59.3       43     36.8      0.00     17.93      67.5     0.45      1019.0     1       166         1       140        9.09     269      -64.5
   03/16/2017 00:10      60.5      59.7       43     37.5      0.00     17.93      67.5     0.45      1019.0     1       125         1       155        9.09     269      -65.5
   03/16/2017 00:00      60.9      60.3       41     36.5      0.00     17.93      67.5     0.45      1019.0     1       173         1       166        9.09     269      -64.6
   03/15/2017 23:50      60.8      60.6       40     36.6      0.00     17.93      67.4     0.45      1019.0     1       135         2       127        9.09     269      -65.2
   03/15/2017 23:40      61.5      60.7       40     36.8      0.00     17.93      67.5     0.45      1019.0     1        91         1        80        9.09     269      -66.2
   03/15/2017 23:30      61.9      61.5       39     36.3      0.00     17.93      67.4     0.45      1019.0     1        97         1        62        9.09     269      -66.5
   03/15/2017 23:20      62.8      62.0       38     36.3      0.00     17.93      67.5     0.45      1019.0     1        92         2       130        9.09     269      -67.1
   03/15/2017 23:10      65.5      62.9       36     36.3      0.00     17.93      67.5     0.45      1019.0     1        99         2       178        9.10     269      -68.4
   03/15/2017 23:00      67.1      65.9       30     33.9      0.00     17.93      67.4     0.45      1019.0     1       197         3       219        9.10     268      -67.9
   03/15/2017 22:50      67.2      65.8       29     33.5      0.00     17.93      67.6     0.45      1019.0     3       212         3       201        9.10     268      -67.5
   03/15/2017 22:40      65.8      65.2       32     34.5      0.00     17.93      67.5     0.45      1019.0     3       206         3       208        9.10     268      -67.3
   03/15/2017 22:30      66.2      65.6       31     34.3      0.00     17.93      67.6     0.45      1019.0     2       188         4       194        9.10     268      -68.8
   03/15/2017 22:20      65.8      65.2       32     35.1      0.00     17.93      67.5     0.45      1019.0     1       180         3       215        9.11     268      -70.2
   03/15/2017 22:10      67.3      66.0       31     34.9      0.00     17.93      67.5     0.45      1019.0     1       202         3       204        9.11     268      -71.0
   03/15/2017 22:00      68.2      67.4       29     34.6      0.00     17.93      67.5     0.45      1019.0     2       250         4       215        9.11     268      -72.7
   03/15/2017 21:50      68.8      68.3       28     34.2      0.00     17.93      67.6     0.45      1019.0     2       278         2       291        9.11     267      -74.0
   03/15/2017 21:40      69.1      68.7       27     33.9      0.00     17.93      67.6     0.45      1019.0     2       227         3       208        9.11     267      -74.6
   03/15/2017 21:30      69.6      69.1       26     33.4      0.00     17.93      67.6     0.45      1018.0     2       217         3       234        9.12     267      -75.5
   03/15/2017 21:20      70.0      69.5       26     33.1      0.00     17.93      67.4     0.45      1018.0     4       213         6       210        9.12     267      -76.6
   03/15/2017 21:10      69.7      69.5       27     33.9      0.00     17.93      67.4     0.45      1018.0     4       207         5       209        9.12     267      -75.8
   03/15/2017 21:00      69.8      69.6       27     34.1      0.00     17.93      67.3     0.45      1018.0     3       213         3       215        9.12     267      -76.0
   03/15/2017 20:50      69.9      69.6       27     34.6      0.00     17.93      67.4     0.45      1018.0     2       215         2       216        9.12     267      -75.6
   03/15/2017 20:40      69.7      69.3       28     35.2      0.00     17.93      67.4     0.45      1018.0     3       200         4       198        9.12     267      -74.0
   03/15/2017 20:30      70.2      70.0       27     35.1      0.00     17.93      67.3     0.45      1018.0     3       189         3       195        9.13     267      -74.4
   03/15/2017 20:20      70.4      70.1       28     35.6      0.00     17.93      67.4     0.45      1018.0     3       189         4       179        9.13     267      -75.7
   03/15/2017 20:10      70.5      70.2       28     36.2      0.00     17.93      67.2     0.45      1018.0     2       189         4       182        9.13     267      -76.6
   03/15/2017 20:00      71.3      70.5       29     37.1      0.00     17.93      67.2     0.45      1018.0     2       213         3       200        9.13     267      -78.2
   03/15/2017 19:50      72.2      71.6       29     37.7      0.00     17.93      67.3     0.45      1018.0     3       209         4       223        9.13     266      -79.9
   03/15/2017 19:40      72.6      72.3       28     37.5      0.00     17.93      67.2     0.45      1018.0     2       221         3       216        9.14     266      -81.4
   03/15/2017 19:30      73.7      72.8       27     37.1      0.00     17.93      67.1     0.45      1018.0     2       228         4       231        9.14     266      -84.1
   03/15/2017 19:20      75.1      73.9       25     36.4      0.00     17.93      67.1     0.45      1018.0     3       224         4       234        9.14     266      -88.9
   03/15/2017 19:10      75.8      75.3       24     36.0      0.00     17.93      67.1     0.45      1018.0     4       245         6       230        9.14     265      -90.0
   03/15/2017 19:00      77.0      76.2       24     36.7      0.00     17.93      67.1     0.45      1018.0     4       245         5       264        9.14     266      -88.1
   03/15/2017 18:50      78.0      77.1       25     38.8      0.00     17.93      66.9     0.45      1017.0     3       266         5       274        9.15     266      -85.7
   03/15/2017 18:40      79.0      78.2       24     39.2      0.00     17.93      67.0     0.45      1017.0     3       292         6       287        9.15     266      -73.9
   03/15/2017 18:30      79.5      79.2       24     39.5      0.00     17.93      66.9     0.45      1017.0     4       285         6       257        9.15     266      -56.6
   03/15/2017 18:20      80.3      79.5       23     39.3      0.00     17.93      66.9     0.45      1017.0     4       238         5       242        9.15     265      -36.9
   03/15/2017 18:10      81.3      80.3       23     39.6      0.00     17.93      66.8     0.45      1017.0     5       234         7       230        9.15     265      -14.6
   03/15/2017 18:00      82.3      81.3       22     39.5      0.00     17.93      66.7     0.45      1017.0     5       250         9       251        9.15     265        9.6
   03/15/2017 17:50      83.3      82.0       22     39.8      0.00     17.93      66.7     0.45      1017.0     4       260         6       247        9.15     266       34.2
   03/15/2017 17:40      83.1      82.6       21     39.1      0.00     17.93      66.6     0.45      1017.0     3       264         4       310        9.15     266       60.4
   03/15/2017 17:30      83.5      82.9       21     39.8      0.00     17.93      66.5     0.45      1017.0     4       274         6       262        9.15     266       86.5
   03/15/2017 17:20      84.1      83.5       21     40.2      0.00     17.93      66.6     0.45      1017.0     4       282         5       282        9.15     266      112.6
   03/15/2017 17:10      84.3      83.7       21     40.3      0.00     17.93      66.5     0.45      1017.0     4       257         7       302        9.15     265      139.8
   03/15/2017 17:00      83.8      83.5       20     38.8      0.00     17.93      66.4     0.45      1017.0     5       228         7       207        9.15     266      164.3
   03/15/2017 16:50      84.1      83.5       20     38.9      0.00     17.93      66.2     0.45      1017.0     6       217         8       201        9.15     266      187.0
   03/15/2017 16:40      84.4      83.6       21     39.6      0.00     17.93      66.2     0.45      1017.0     6       236         8       238        9.15     266      209.4
   03/15/2017 16:30      84.0      83.5       21     39.4      0.00     17.93      66.2     0.45      1017.0     5       222         6       224        9.15     266      216.4
   03/15/2017 16:20      84.2      83.9       21     39.9      0.00     17.93      66.2     0.45      1017.0     5       242         6       265        9.15     266      232.4
   03/15/2017 16:10      85.0      84.1       21     40.2      0.00     17.93      66.0     0.45      1017.0     5       250         8       233        9.15     266      252.9
   03/15/2017 16:00      84.9      84.1       20     38.8      0.00     17.93      65.9     0.45      1017.0     4       276         6       299        9.15     267      272.6
   03/15/2017 15:50      85.0      84.5       20     38.9      0.00     17.93      65.9     0.45      1017.0     5       302         7       288        9.15     266      293.5
   03/15/2017 15:40      85.0      84.7       20     39.4      0.00     17.93      65.8     0.45      1017.0     5       290         8       275        9.15     267      322.0
   03/15/2017 15:30      84.8      83.5       20     38.7      0.00     17.93      65.7     0.45      1017.0     6       304        10       303        9.15     266      346.5
   03/15/2017 15:20      83.5      82.9       20     38.6      0.00     17.93      65.7     0.45      1017.0     8       292        11       302        9.15     266      363.4
   03/15/2017 15:10      83.7      83.4       19     37.3      0.00     17.93      65.6     0.45      1017.0     7       299        12       338        9.15     266      377.6
   03/15/2017 15:00      87.1      83.5       18     36.1      0.00     17.93      65.6     0.45      1017.0     8       293        13       308        9.15     266      391.0
   03/15/2017 14:50      87.4      86.1       20     41.2      0.00     17.93      65.4     0.45      1017.0     5       262         7       273        9.15     268      406.4
   03/15/2017 14:40      86.2      85.6       21     41.5      0.00     17.93      65.4     0.45      1017.0     6       260         8       256        9.15     268      418.9
   03/15/2017 14:30      86.7      85.5       22     42.6      0.00     17.93      65.5     0.45      1017.0     6       280         7       293        9.15     268      431.1
   03/15/2017 14:20      86.7      86.1       21     41.5      0.00     17.93      65.3     0.45      1017.0     6       307        11       294        9.15     268      438.9
   03/15/2017 14:10      86.6      86.0       20     40.0      0.00     17.93      65.4     0.45      1017.0     6       301         9       278        9.15     268      446.8
   03/15/2017 14:00      86.7      86.2       20     40.1      0.00     17.93      65.3     0.45      1017.0     5       300         8       325        9.15     268      453.9
   03/15/2017 13:50      86.8      86.3       19     39.7      0.00     17.93      65.3     0.45      1017.0     5       285         8       257        9.15     268      459.3
   03/15/2017 13:40      87.9      87.0       19     40.1      0.00     17.93      65.2     0.45      1018.0     4       291         7       273        9.15     268      464.9
   03/15/2017 13:30      87.6      86.8       19     39.9      0.00     17.93      65.3     0.45      1018.0     3       256         7       264        9.15     269      474.8
   03/15/2017 13:20      87.7      86.4       19     39.0      0.00     17.93      65.1     0.45      1018.0     3       275         5       302        9.15     268      479.2
   03/15/2017 13:10      86.6      85.6       19     39.2      0.00     17.93      65.1     0.45      1018.0     4       241         7       225        9.15     268      482.9
   03/15/2017 13:00      86.4      85.3       20     40.0      0.00     17.93      65.1     0.45      1018.0     4       268         8       254        9.15     268      483.4
   03/15/2017 12:50      85.9      85.0       21     41.3      0.00     17.93      65.2     0.45      1018.0     3       222         4       229        9.15     268      484.4
   03/15/2017 12:40      85.0      84.3       21     40.4      0.00     17.93      65.2     0.45      1019.0     5       215         8       188        9.15     268      485.0
   03/15/2017 12:30      84.9      84.8       21     40.2      0.00     17.93      65.1     0.45      1019.0     4       241         6       254        9.14     268      480.5
   03/15/2017 12:20      85.0      84.4       20     39.1      0.00     17.93      65.2     0.45      1019.0     3       259         4       228        9.14     269      474.9
   03/15/2017 12:10      84.8      84.3       20     38.8      0.00     17.93      65.1     0.45      1019.0     3       261         6       254        9.14     270      470.5
   03/15/2017 12:00      84.7      83.5       19     37.9      0.00     17.93      65.0     0.45      1019.0     2       293         3       273        9.13     269      465.0
   03/15/2017 11:50      83.5      82.7       20     38.3      0.00     17.93      65.2     0.45      1019.0     3       254         4       281        9.13     270      461.1
   03/15/2017 11:40      83.8      82.6       21     38.9      0.00     17.93      65.3     0.45      1019.0     2       245         6       249        9.13     271      453.6
   03/15/2017 11:30      83.0      81.5       21     39.1      0.00     17.93      65.1     0.45      1019.0     1       340         3       274        9.12     271      444.7
   03/15/2017 11:20      81.4      80.3       23     39.2      0.00     17.93      65.2     0.45      1019.0     2       261         3       256        9.12     271      437.2
   03/15/2017 11:10      80.8      79.6       23     39.6      0.00     17.93      65.2     0.45      1019.0     1       253         2       296        9.12     272      428.0
   03/15/2017 11:00      79.4      78.4       25     39.7      0.00     17.93      65.5     0.45      1019.0     1       295         2       334        9.11     272      419.6
   03/15/2017 10:50      78.5      77.3       26     40.4      0.00     17.93      65.3     0.45      1019.0     1       192         2       247        9.11     272      418.7
   03/15/2017 10:40      77.0      76.1       29     41.5      0.00     17.93      65.3     0.45      1019.0     1       233         1       264        9.10     273      301.6
   03/15/2017 10:30      77.0      75.3       29     41.0      0.00     17.93      65.4     0.45      1019.0     1       282         2        22        9.09     273      225.0
   03/15/2017 10:20      75.9      75.4       27     39.0      0.00     17.93      65.5     0.45      1019.0     1        16         2         7        9.09     273      215.7
   03/15/2017 10:10      76.4      75.4       27     39.2      0.00     17.93      65.4     0.45      1019.0     1       338         2       335        9.08     274      290.9
   03/15/2017 10:00      75.8      74.9       26     37.7      0.00     17.93      65.3     0.45      1019.0     0       223         1       178        9.07     273      285.2
   03/15/2017 09:50      75.0      74.2       27     38.5      0.00     17.93      65.3     0.45      1019.0     1       236         1       237        9.06     273      153.8
   03/15/2017 09:40      74.3      72.2       26     36.3      0.00     17.93      65.5     0.45      1019.0     1       286         1       347        9.05     274      309.3
   03/15/2017 09:30      71.7      68.0       30     37.0      0.00     17.93      65.5     0.45      1019.0     1       292         1       356        9.03     275      292.9
   03/15/2017 09:20      68.8      67.8       31     36.5      0.00     17.93      65.4     0.45      1019.0     2       315         3       318        9.00     277       90.0
   03/15/2017 09:10      71.6      69.3       26     34.5      0.00     17.93      65.6     0.45      1019.0     2       334         3       325        8.99     277       82.2
   03/15/2017 09:00      71.5      69.0       29     36.5      0.00     17.93      65.8     0.45      1019.0     0       301         1       308        8.98     280      177.6
   03/15/2017 08:50      68.9      66.4       33     37.9      0.00     17.93      65.7     0.45      1019.0     0        93         1        75        8.98     283      170.5
   03/15/2017 08:40      66.1      62.2       37     37.4      0.00     17.93      65.6     0.45      1019.0     0       118         1       168        8.97     284      163.5
   03/15/2017 08:30      62.0      60.5       45     39.6      0.00     17.93      65.5     0.45      1019.0     0       131         1       135        8.95     285       82.4
   03/15/2017 08:20      60.5      60.3       43     37.8      0.00     17.93      65.7     0.46      1019.0     1       127         1       123        8.94     285       37.8
   03/15/2017 08:10      60.4      59.3       43     37.2      0.00     17.93      65.6     0.45      1019.0     1       157         1       138        8.94     284        1.5
   03/15/2017 08:00      59.1      56.4       43     35.5      0.00     17.93      65.7     0.45      1018.0     0       213         0       251        8.94     284      -23.8
   03/15/2017 07:50      56.5      55.4       45     34.8      0.00     17.93      65.6     0.46      1018.0     1       192         1       146        8.94     283      -12.9
   03/15/2017 07:40      55.6      55.3       47     35.4      0.00     17.93      65.7     0.45      1018.0     1       109         1       142        8.94     283      -32.5
   03/15/2017 07:30      55.8      55.2       44     33.8      0.00     17.93      66.0     0.46      1018.0     1       138         2       133        8.94     282      -35.0
   03/15/2017 07:20      55.6      54.9       39     31.0      0.00     17.93      65.7     0.46      1018.0     1       218         1       248        8.94     281      -43.0
   03/15/2017 07:10      55.1      54.5       48     35.2      0.00     17.93      65.8     0.46      1018.0     1       145         2       141        8.94     280      -50.4
   03/15/2017 07:00      55.3      54.9       44     33.6      0.00     17.93      65.6     0.46      1018.0     1       177         2       134        8.94     279      -53.5
   03/15/2017 06:50      56.1      55.1       47     35.6      0.00     17.93      66.0     0.46      1018.0     2       149         2       147        8.94     278      -55.0
   03/15/2017 06:40      56.5      56.0       41     33.0      0.00     17.93      66.1     0.46      1018.0     1       169         1       143        8.94     278      -55.8
   03/15/2017 06:30      57.1      56.6       41     33.7      0.00     17.93      65.8     0.46      1018.0     1       161         2       138        8.94     277      -55.9
   03/15/2017 06:20      57.1      57.0       42     33.9      0.00     17.93      65.9     0.46      1018.0     1       178         1       162        8.94     277      -53.3
   03/15/2017 06:10      57.5      57.0       45     36.3      0.00     17.93      66.0     0.46      1018.0     0       136         1       145        8.94     276      -44.6
   03/15/2017 06:00      57.6      57.5       42     34.4      0.00     17.93      66.1     0.46      1018.0     1       187         1       200        8.94     276      -36.6
   03/15/2017 05:50      57.6      57.3       39     33.0      0.00     17.93      66.2     0.46      1018.0     1       167         1       152        8.95     276      -30.8
   03/15/2017 05:40      57.4      56.8       40     33.1      0.00     17.93      65.7     0.46      1018.0     1       162         1       148        8.95     276      -29.4
   03/15/2017 05:30      57.0      56.6       43     34.7      0.00     17.93      66.3     0.46      1018.0     1       148         1       142        8.95     275      -33.6
   03/15/2017 05:20      57.0      56.5       41     33.1      0.00     17.93      66.3     0.46      1018.0     0       288         1       274        8.95     275      -38.7
   03/15/2017 05:10      56.8      56.5       45     35.4      0.00     17.93      66.3     0.46      1018.0     1       144         2       142        8.95     275      -41.0
   03/15/2017 05:00      57.0      56.6       44     35.2      0.00     17.93      66.2     0.46      1018.0     1       141         2       139        8.95     274      -44.6
   03/15/2017 04:50      57.3      57.0       39     32.4      0.00     17.93      66.1     0.46      1018.0     1       153         1       141        8.95     274      -47.1
   03/15/2017 04:40      57.6      57.3       38     32.0      0.00     17.93      66.3     0.46      1018.0     1       166         1       142        8.95     273      -48.4
   03/15/2017 04:30      57.7      57.5       38     32.1      0.00     17.93      66.3     0.46      1018.0     1       163         1       143        8.95     272      -51.9
   03/15/2017 04:20      58.2      57.9       40     33.6      0.00     17.93      66.5     0.46      1018.0     1       198         1       142        8.95     272      -52.2
   03/15/2017 04:10      58.1      57.7       41     34.4      0.00     17.93      66.3     0.46      1018.0     1       156         1       229        8.95     272      -46.5
   03/15/2017 04:00      58.4      57.9       40     34.1      0.00     17.93      66.2     0.46      1018.0     1       133         1       112        8.95     271      -40.3
   03/15/2017 03:50      58.4      57.9       41     34.5      0.00     17.93      66.4     0.46      1018.0     1       161         2       141        8.95     271      -38.9
   03/15/2017 03:40      59.1      58.6       39     34.0      0.00     17.93      66.4     0.46      1018.0     1       140         2       138        8.95     271      -45.3
   03/15/2017 03:30      59.3      59.0       38     33.3      0.00     17.93      66.5     0.46      1018.0     1       161         1       135        8.95     270      -48.8
   03/15/2017 03:20      59.7      59.3       40     34.9      0.00     17.93      66.5     0.46      1018.0     1       133         1       127        8.95     269      -46.8
   03/15/2017 03:10      59.8      59.6       38     34.4      0.00     17.93      66.4     0.46      1018.0     0       223         0       230        8.95     269      -46.3
   03/15/2017 03:00      59.9      59.5       40     35.3      0.00     17.93      66.7     0.46      1018.0     1       272         1       275        8.95     269      -43.9
   03/15/2017 02:50      59.7      59.4       41     35.7      0.00     17.93      66.4     0.46      1018.0     1       167         1       138        8.95     269      -42.9
   03/15/2017 02:40      59.9      59.7       41     36.3      0.00     17.93      66.5     0.46      1018.0     1       122         1       119        8.95     270      -43.5
   03/15/2017 02:30      59.9      59.5       43     37.1      0.00     17.93      66.4     0.46      1018.0     1       152         2       140        8.95     271      -41.8
   03/15/2017 02:20      60.3      59.8       44     37.9      0.00     17.93      66.8     0.46      1018.0     2       143         3       128        8.95     271      -39.8
   03/15/2017 02:10      60.4      60.0       41     36.2      0.00     17.93      66.6     0.46      1018.0     2       192         2       194        8.95     271      -39.0
   03/15/2017 02:00      60.6      60.3       39     35.2      0.00     17.93      66.6     0.46      1018.0     1       168         2       152        8.95     271      -39.8
   03/15/2017 01:50      60.8      60.4       38     34.7      0.00     17.93      66.6     0.46      1018.0     1       158         1       134        8.96     270      -42.6
   03/15/2017 01:40      60.5      59.9       37     33.9      0.00     17.93      66.5     0.46      1018.0     1       199         1       184        8.96     270      -46.5
   03/15/2017 01:30      61.4      60.3       39     35.8      0.00     17.93      66.6     0.46      1018.0     2       144         3       140        8.96     270      -47.9
   03/15/2017 01:20      61.9      61.6       33     32.2      0.00     17.93      66.4     0.46      1018.0     1       168         2       136        8.96     270      -45.6
   03/15/2017 01:10      61.9      61.7       33     32.3      0.00     17.93      66.7     0.46      1018.0     0       309         1       321        8.96     270      -43.2
   03/15/2017 01:00      62.1      61.5       33     32.2      0.00     17.93      66.8     0.46      1018.0     1       216         1       161        8.96     270      -39.6
   03/15/2017 00:50      62.4      61.6       33     32.6      0.00     17.93      66.7     0.46      1018.0     1       154         2       140        8.96     270      -38.2
   03/15/2017 00:40      62.4      61.9       33     32.9      0.00     17.93      66.8     0.46      1018.0     1       152         2       132        8.96     270      -39.5
   03/15/2017 00:30      63.0      62.3       34     33.6      0.00     17.93      66.6     0.46      1018.0     1       140         2       150        8.96     270      -44.9
   03/15/2017 00:20      63.8      63.1       31     32.3      0.00     17.93      66.7     0.46      1018.0     1       180         2       197        8.96     270      -47.4
   03/15/2017 00:10      63.9      63.0       30     31.3      0.00     17.93      66.8     0.46      1018.0     1       175         1       206        8.96     270      -44.9
   03/15/2017 00:00      63.4      63.1       31     31.7      0.00     17.93      66.6     0.46      1018.0     1       104         2       113        8.96     270      -44.7
   03/14/2017 23:50      63.9      63.6       29     31.1      0.00     17.93      66.8     0.46      1018.0     1       118         1       144        8.96     270      -48.8
   03/14/2017 23:40      63.8      63.3       30     31.6      0.00     17.93      66.8     0.46      1018.0     1        62         1        68        8.96     270      -51.5
   03/14/2017 23:30      64.0      63.4       33     33.8      0.00     17.93      66.6     0.46      1018.0     2       119         3       134        8.96     270      -48.9
   03/14/2017 23:20      65.8      64.2       31     33.8      0.00     17.93      66.6     0.46      1018.0     2       133         2       135        8.96     270      -48.3
   03/14/2017 23:10      66.7      66.3       25     29.8      0.00     17.93      66.6     0.46      1018.0     2       203         3       204        8.97     270      -49.6
   03/14/2017 23:00      66.5      66.2       26     30.6      0.00     17.93      66.9     0.46      1018.0     2       197         3       193        8.97     270      -55.1
   03/14/2017 22:50      66.7      65.2       27     31.0      0.00     17.93      66.8     0.46      1018.0     4       199         5       192        8.97     270      -59.4
   03/14/2017 22:40      65.3      64.7       33     35.2      0.00     17.93      66.7     0.46      1018.0     3       197         4       198        8.97     270      -61.3
   03/14/2017 22:30      68.6      65.7       32     36.1      0.00     17.93      66.7     0.46      1018.0     2       172         2       147        8.97     270      -64.2
   03/14/2017 22:20      70.3      68.9       24     31.2      0.00     17.93      66.4     0.46      1018.0     2       208         3       228        8.97     270      -65.1
   03/14/2017 22:10      70.5      69.8       24     31.8      0.00     17.93      66.9     0.46      1018.0     3       211         4       210        8.97     269      -67.4
   03/14/2017 22:00      70.2      69.8       26     33.5      0.00     17.93      66.7     0.46      1018.0     3       203         4       183        8.97     270      -69.0
   03/14/2017 21:50      71.7      70.5       26     34.1      0.00     17.93      66.8     0.46      1018.0     3       206         4       214        8.97     269      -71.7
   03/14/2017 21:40      71.8      71.7       25     34.0      0.00     17.93      66.8     0.46      1018.0     4       206         5       205        8.97     269      -71.9
   03/14/2017 21:30      72.0      71.6       25     34.1      0.00     17.93      66.6     0.46      1018.0     4       200         5       195        8.97     269      -68.6
   03/14/2017 21:20      72.0      71.4       26     34.6      0.00     17.93      66.6     0.46      1018.0     4       205         6       216        8.97     269      -63.4
   03/14/2017 21:10      71.5      70.2       27     35.6      0.00     17.93      66.7     0.46      1018.0     3       205         5       210        8.98     270      -59.5
   03/14/2017 21:00      70.0      68.4       36     40.4      0.00     17.93      66.7     0.46      1017.0     2       203         3       200        8.98     270      -57.9
   03/14/2017 20:50      69.3      68.4       45     46.6      0.00     17.93      66.6     0.46      1017.0     2       198         2       204        8.98     270      -59.9
   03/14/2017 20:40      69.7      68.3       45     47.0      0.00     17.93      66.4     0.46      1017.0     2       191         3       181        8.98     270      -60.7
   03/14/2017 20:30      70.3      68.9       45     47.2      0.00     17.93      66.4     0.46      1017.0     1       152         3       175        8.98     270      -63.5
   03/14/2017 20:20      72.5      70.3       39     45.0      0.00     17.93      66.5     0.46      1017.0     2       203         2       220        8.98     269      -62.1
   03/14/2017 20:10      72.8      72.3       35     43.5      0.00     17.93      66.4     0.46      1017.0     2       238         2       234        8.98     269      -61.7
   03/14/2017 20:00      73.3      72.7       36     44.8      0.00     17.93      66.5     0.46      1017.0     2       233         3       230        8.98     269      -63.5
   03/14/2017 19:50      74.3      73.3       36     45.2      0.00     17.93      66.3     0.46      1017.0     2       239         3       229        8.98     269      -66.4
   03/14/2017 19:40      76.1      74.7       35     45.9      0.00     17.93      66.3     0.46      1017.0     2       286         3       300        8.98     269      -71.4
   03/14/2017 19:30      76.5      76.1       34     46.2      0.00     17.93      66.3     0.46      1017.0     3       307         4       288        8.98     269      -77.0
   03/14/2017 19:20      77.3      76.6       35     46.9      0.00     17.93      66.5     0.46      1017.0     3       291         4       297        8.98     268      -78.7
   03/14/2017 19:10      78.1      77.5       34     47.0      0.00     17.93      66.3     0.46      1017.0     2       289         4       285        8.98     268      -80.4
   03/14/2017 19:00      79.0      78.3       32     46.5      0.00     17.93      66.2     0.46      1017.0     3       296         5       298        8.98     268      -80.6
   03/14/2017 18:50      79.8      79.1       31     46.2      0.00     17.93      66.1     0.46      1017.0     4       294         5       280        8.98     268      -73.5
   03/14/2017 18:40      80.8      80.0       29     45.2      0.00     17.93      66.0     0.46      1017.0     4       282         7       285        8.98     268      -65.1
   03/14/2017 18:30      81.5      81.0       26     43.1      0.00     17.93      65.9     0.46      1017.0     2       272         4       277        8.98     268      -57.1
   03/14/2017 18:20      82.1      81.5       24     41.9      0.00     17.93      66.0     0.46      1017.0     4       293         6       310        8.98     268      -65.8
   03/14/2017 18:10      83.8      82.4       23     41.8      0.00     17.93      65.9     0.46      1016.0     4       298         7       287        8.98     267      -63.6
   03/14/2017 18:00      85.8      84.1       21     41.2      0.00     17.93      65.8     0.46      1016.0     4       292         7       291        8.98     267      -51.5
   03/14/2017 17:50      86.5      86.0       21     41.3      0.00     17.93      65.7     0.46      1016.0     3       254         5       274        8.98     267       25.6
   03/14/2017 17:40      86.5      85.7       20     40.5      0.00     17.93      65.7     0.46      1016.0     4       242         7       261        8.98     267       92.6
   03/14/2017 17:30      86.7      85.5       20     40.0      0.00     17.93      65.6     0.46      1016.0     5       239         6       245        8.98     267       83.8
   03/14/2017 17:20      86.9      86.7       19     40.3      0.00     17.93      65.6     0.46      1016.0     5       259         6       273        8.98     267      180.0
   03/14/2017 17:10      86.9      86.5       20     40.8      0.00     17.93      65.4     0.46      1016.0     5       244         9       252        8.98     267      198.7
   03/14/2017 17:00      86.6      86.1       21     42.1      0.00     17.93      65.4     0.46      1016.0     4       244         7       231        8.98     268      168.9
   03/14/2017 16:50      86.6      85.7       20     40.4      0.00     17.93      65.2     0.45      1016.0     5       248         7       246        8.98     267       75.4
   03/14/2017 16:40      86.8      86.6       18     38.8      0.00     17.93      65.3     0.45      1016.0     4       238         7       277        8.98     267      116.1
   03/14/2017 16:30      87.4      86.4       18     38.0      0.00     17.93      65.1     0.45      1016.0     5       200         8       195        8.98     267      146.3
   03/14/2017 16:20      88.7      87.3       15     35.0      0.00     17.93      65.3     0.45      1016.0     4       229         6       279        8.98     268      206.5
   03/14/2017 16:10      89.1      88.3       15     35.8      0.00     17.93      65.0     0.45      1016.0     4       236         6       242        8.98     268      247.1
   03/14/2017 16:00      89.3      88.2       14     34.0      0.00     17.93      64.9     0.45      1016.0     3       235         6       228        8.98     269      308.7
   03/14/2017 15:50      88.7      87.9       16     36.1      0.00     17.93      65.0     0.45      1016.0     4       201         6       228        8.98     268      299.6
   03/14/2017 15:40      89.5      88.3       17     37.9      0.00     17.93      64.8     0.45      1016.0     4       211         5       175        8.98     268      330.9
   03/14/2017 15:30      89.6      89.1       15     35.0      0.00     17.93      64.7     0.45      1016.0     4       235         5       224        8.98     269      365.3
   03/14/2017 15:20      89.9      88.4       16     36.9      0.00     17.93      64.8     0.45      1016.0     2       292         5       223        8.98     270      313.3
   03/14/2017 15:10      89.3      88.2       17     39.0      0.00     17.93      64.5     0.45      1016.0     4       210         6       254        8.98     270      350.8
   03/14/2017 15:00      90.7      88.9       15     36.5      0.00     17.93      64.5     0.45      1016.0     3       204         5       242        8.98     271      337.1
   03/14/2017 14:50      91.8      89.7       15     37.3      0.00     17.93      64.6     0.45      1016.0     2       333         5       227        8.98     272      439.5
   03/14/2017 14:40      90.0      89.3       15     36.7      0.00     17.93      64.5     0.45      1016.0     3       318         4       323        8.98     273      474.6
   03/14/2017 14:30      89.5      88.3       16     36.7      0.00     17.93      64.3     0.45      1016.0     3       300         6       337        8.98     279      387.3
   03/14/2017 14:20      88.5      87.7       17     37.7      0.00     17.93      64.3     0.45      1016.0     4       273         8       262        8.98     289      363.5
   03/14/2017 14:10      88.5      87.4       18     38.7      0.00     17.93      64.4     0.45      1017.0     4       261         5       244        8.97     303      452.8
   03/14/2017 14:00      87.4      86.2       19     39.5      0.00     17.93      64.3     0.45      1017.0     3       188         5       221        8.97     325      506.0
   03/14/2017 13:50      86.1      84.9       19     38.1      0.00     17.93      64.4     0.45      1017.0     2       165         5       196        8.97     333      214.5
   03/14/2017 13:40      87.5      85.9       19     39.0      0.00     17.93      64.3     0.45      1017.0     4       201         7       211        8.97     333      304.5
   03/14/2017 13:30      87.1      86.0       17     37.3      0.00     17.93      64.2     0.45      1017.0     4       284         6       264        8.97     341      493.1
   03/14/2017 13:20      86.2      85.7       19     39.2      0.00     17.93      64.3     0.45      1017.0     4       262         6       259        8.96     341      421.7
   03/14/2017 13:10      87.4      86.1       19     39.7      0.00     17.93      64.4     0.45      1017.0     3       250         3        26        8.96     343      454.8
   03/14/2017 13:00      87.9      87.0       19     39.9      0.00     17.93      64.3     0.45      1017.0     3       347         6       353        8.96     346      447.8
   03/14/2017 12:50      88.1      86.5       19     40.6      0.00     17.93      64.2     0.45      1017.0     3       338         3       348        8.95     349      478.4
   03/14/2017 12:40      86.9      86.0       20     40.4      0.00     17.93      64.3     0.45      1018.0     3       325         4        24        8.94     351      481.6
   03/14/2017 12:30      86.7      85.9       20     39.9      0.00     17.93      64.5     0.45      1018.0     2         2         4         3        8.94     356      484.8
   03/14/2017 12:20      85.8      85.4       20     40.0      0.00     17.93      64.4     0.45      1018.0     2         6         3         4        8.93     360      491.8
   03/14/2017 12:10      86.3      85.0       20     40.4      0.00     17.93      64.2     0.45      1018.0     2        35         4        61        8.92     364      471.3
   03/14/2017 12:00      85.7      84.0       21     40.6      0.00     17.93      64.2     0.45      1018.0     2       351         4        23        8.90     367      498.6
   03/14/2017 11:50      84.0      82.7       22     40.5      0.00     17.93      64.2     0.45      1018.0     2       326         3         0        8.88     371      484.4
   03/14/2017 11:40      82.9      81.8       22     39.9      0.00     17.93      64.2     0.45      1018.0     1       283         3        13        8.86     378      467.5
   03/14/2017 11:30      81.9      81.2       23     40.1      0.00     17.93      64.2     0.45      1018.0     2       108         3        44        8.85     381      372.8
   03/14/2017 11:20      81.5      80.7       23     39.6      0.00     17.93      64.5     0.45      1018.0     2         5         2       359        8.83     383      426.8
   03/14/2017 11:10      81.1      79.9       24     40.4      0.00     17.93      64.2     0.45      1018.0     1       335         3       354        8.81     386      435.0
   03/14/2017 11:00      80.2      79.4       24     40.1      0.00     17.93      64.3     0.45      1018.0     2         4         3       349        8.79     389      426.0
   03/14/2017 10:50      80.5      79.4       25     41.1      0.00     17.93      64.3     0.45      1019.0     1         3         2       325        8.76     393      416.6
   03/14/2017 10:40      79.5      78.2       27     42.0      0.00     17.93      64.0     0.45      1019.0     1       242         2       248        8.73     396      405.0
   03/14/2017 10:30      78.4      77.6       27     41.8      0.00     17.93      64.8     0.45      1018.0     1       288         2       343        8.70     399      388.2
   03/14/2017 10:20      77.4      75.0       31     42.8      0.00     17.93      64.2     0.45      1018.0     1       235         1       316        8.66     407      367.7
   03/14/2017 10:10      75.2      74.2       32     42.8      0.00     17.93      64.2     0.46      1018.0     1       196         1       212        8.63     410      349.0
   03/14/2017 10:00      74.4      73.1       34     44.1      0.00     17.93      64.1     0.46      1018.0     1       312         1       263        8.57     412      336.7
   03/14/2017 09:50      73.0      71.5       37     44.1      0.00     17.93      64.5     0.46      1018.0     1        19         2       350        8.54     412      317.2
   03/14/2017 09:40      71.5      70.5       38     43.8      0.00     17.93      64.7     0.46      1018.0     1        18         2        15        8.48     416      298.2
   03/14/2017 09:30      70.4      70.0       40     44.5      0.00     17.93      65.0     0.46      1019.0     1       359         2       359        8.44     419      277.4
   03/14/2017 09:20      69.9      69.3       41     44.9      0.00     17.93      65.3     0.46      1019.0     1       300         2       295        8.43     423      256.5
   03/14/2017 09:10      69.7      68.6       42     45.0      0.00     17.93      64.7     0.46      1018.0     1       327         1         3        8.38     430      234.2
   03/14/2017 09:00      68.9      67.2       46     46.6      0.00     17.93      65.1     0.46      1018.0     0        10         1         3        8.34     441      208.8
   03/14/2017 08:50      67.0      65.8       50     46.9      0.00     17.93      64.8     0.46      1018.0     0       178         1       209        8.34     273      180.5
   03/14/2017 08:40      66.0      63.9       50     45.9      0.00     17.93      64.9     0.46      1018.0     0       326         0       276        8.38     274      152.5
   03/14/2017 08:30      63.5      61.0       52     44.4      0.00     17.93      64.8     0.46      1018.0     0        84         1       109        8.39     274      121.8
   03/14/2017 08:20      60.9      58.0       58     44.5      0.00     17.93      65.0     0.46      1018.0     1        85         1        87        8.39     274       91.4
   03/14/2017 08:10      57.7      54.6       65     44.3      0.00     17.93      64.8     0.46      1018.0     0       356         1        58        8.39     274       23.8
   03/14/2017 08:00      54.6      52.2       72     44.4      0.00     17.93      64.8     0.46      1018.0     0         3         0       342        8.39     274      -39.5
   03/14/2017 07:50      52.2      51.2       75     44.1      0.00     17.93      65.2     0.46      1018.0     0       139         1       138        8.39     274      -14.9
   03/14/2017 07:40      51.3      50.7       75     43.5      0.00     17.93      65.2     0.46      1018.0     0       227         0       217        8.39     274      -44.2
   03/14/2017 07:30      50.9      50.1       76     43.1      0.00     17.93      65.1     0.46      1018.0     0       233         1       289        8.39     274      -48.7
   03/14/2017 07:20      50.2      49.6       78     43.2      0.00     17.93      65.2     0.46      1018.0     0       244         1       222        8.39     273      -53.5
   03/14/2017 07:10      49.9      49.7       80     44.0      0.00     17.93      65.1     0.46      1018.0     1       144         2       127        8.39     272      -56.7
   03/14/2017 07:00      50.0      49.7       81     44.1      0.00     17.93      65.1     0.46      1017.0     2       148         3       133        8.39     272      -58.7
   03/14/2017 06:50      50.1      49.9       80     44.1      0.00     17.93      65.3     0.46      1017.0     1       155         2       137        8.39     273      -59.7
   03/14/2017 06:40      50.7      50.2       79     44.1      0.00     17.93      65.5     0.46      1017.0     1       142         2       145        8.39     273      -60.5
   03/14/2017 06:30      50.6      49.9       80     44.3      0.00     17.93      65.4     0.46      1017.0     1       197         1       145        8.39     272      -60.4
   03/14/2017 06:20      50.2      49.9       81     44.6      0.00     17.93      65.2     0.46      1017.0     0       137         1       141        8.39     272      -59.6
   03/14/2017 06:10      50.7      50.2       81     44.9      0.00     17.93      65.4     0.46      1017.0     1       141         2       131        8.39     272      -59.6
   03/14/2017 06:00      51.0      50.5       80     44.9      0.00     17.93      65.2     0.46      1017.0     1       158         2       136        8.39     272      -60.9
   03/14/2017 05:50      51.1      50.7       79     44.7      0.00     17.93      65.4     0.46      1017.0     1       198         1       198        8.39     272      -61.5
   03/14/2017 05:40      51.2      50.8       79     44.7      0.00     17.93      65.8     0.46      1017.0     1       170         2       155        8.39     272      -61.9
   03/14/2017 05:30      51.3      50.8       79     44.8      0.00     17.93      65.6     0.46      1017.0     1       182         1       201        8.39     272      -61.8
   03/14/2017 05:20      51.1      50.9       80     44.9      0.00     17.93      65.8     0.46      1017.0     0       196         1       153        8.39     271      -62.2
   03/14/2017 05:10      51.2      51.1       80     45.1      0.00     17.93      65.6     0.46      1017.0     1       145         1       130        8.39     271      -62.0
   03/14/2017 05:00      51.7      51.3       79     45.3      0.00     17.93      66.0     0.46      1017.0     1       146         1       129        8.39     271      -62.5
   03/14/2017 04:50      51.6      51.2       80     45.4      0.00     17.93      65.7     0.46      1017.0     1       189         1       203        8.39     271      -62.3
   03/14/2017 04:40      51.7      51.3       81     45.7      0.00     17.93      65.7     0.46      1017.0     1       128         1       143        8.39     271      -62.2
   03/14/2017 04:30      52.3      51.7       78     45.4      0.00     17.93      65.9     0.46      1017.0     1       124         1       129        8.39     271      -63.1
   03/14/2017 04:20      52.5      52.1       77     45.4      0.00     17.93      65.9     0.46      1017.0     1       190         2       135        8.39     271      -63.2
   03/14/2017 04:10      52.2      52.0       79     45.7      0.00     17.93      66.1     0.46      1017.0     1       148         1       155        8.39     271      -63.9
   03/14/2017 04:00      53.0      52.3       76     45.4      0.00     17.93      65.9     0.46      1017.0     1       130         1       138        8.39     270      -64.3
   03/14/2017 03:50      53.1      53.0       75     45.4      0.00     17.93      65.7     0.46      1017.0     1       146         1       143        8.39     270      -63.9
   03/14/2017 03:40      53.2      53.0       74     45.2      0.00     17.93      65.7     0.46      1017.0     0       174         1       147        8.39     270      -64.6
   03/14/2017 03:30      53.4      53.1       76     45.9      0.00     17.93      66.0     0.46      1017.0     0       166         1       146        8.39     270      -64.6
   03/14/2017 03:20      54.0      53.5       74     45.7      0.00     17.93      65.9     0.46      1017.0     0        38         1        67        8.39     270      -64.4
   03/14/2017 03:10      54.2      54.0       72     45.2      0.00     17.93      66.0     0.46      1017.0     0       191         1       225        8.39     270      -63.7
   03/14/2017 03:00      54.2      53.9       73     45.6      0.00     17.93      66.0     0.46      1017.0     1       183         1       142        8.39     270      -64.3
   03/14/2017 02:50      54.5      54.1       72     45.5      0.00     17.93      66.2     0.46      1017.0     1       144         1       145        8.39     270      -64.4
   03/14/2017 02:40      54.3      54.0       74     46.1      0.00     17.93      65.9     0.46      1018.0     0        23         1       130        8.39     270      -64.7
   03/14/2017 02:30      54.6      54.1       74     46.1      0.00     17.93      66.2     0.46      1018.0     1       177         1       139        8.39     270      -65.0
   03/14/2017 02:20      54.7      54.5       73     46.3      0.00     17.93      65.9     0.46      1018.0     2       140         2       130        8.39     270      -65.9
   03/14/2017 02:10      54.8      54.5       74     46.4      0.00     17.93      66.0     0.46      1018.0     2       136         2       149        8.39     270      -66.0
   03/14/2017 02:00      55.1      54.8       73     46.5      0.00     17.93      66.2     0.46      1018.0     1       148         2       142        8.39     270      -65.7
   03/14/2017 01:50      55.4      54.9       73     46.6      0.00     17.93      66.1     0.46      1018.0     1       169         1       143        8.39     269      -65.4
   03/14/2017 01:40      55.9      55.4       71     46.5      0.00     17.93      66.2     0.46      1018.0     1       168         2       155        8.39     269      -65.6
   03/14/2017 01:30      56.2      55.8       70     46.4      0.00     17.93      66.1     0.46      1017.0     1       169         1       195        8.39     269      -66.3
   03/14/2017 01:20      56.6      56.0       70     46.7      0.00     17.93      66.2     0.46      1017.0     1       137         1       142        8.39     269      -66.9
   03/14/2017 01:10      57.4      56.9       68     46.5      0.00     17.93      66.3     0.46      1017.0     1       160         1       143        8.39     269      -66.6
   03/14/2017 01:00      57.6      57.2       66     46.3      0.00     17.93      66.1     0.46      1017.0     0       178         1       137        8.39     269      -66.7
   03/14/2017 00:50      57.6      57.2       67     46.6      0.00     17.93      66.3     0.46      1017.0     0       191         1       134        8.39     269      -67.4
   03/14/2017 00:40      57.7      57.4       67     46.9      0.00     17.93      66.3     0.46      1017.0     1       165         1       143        8.39     268      -67.2
   03/14/2017 00:30      58.2      57.9       66     46.9      0.00     17.93      66.3     0.46      1017.0     1       175         1       205        8.39     268      -67.5
   03/14/2017 00:20      58.2      58.0       66     47.0      0.00     17.93      66.3     0.46      1017.0     1       176         1       166        8.39     268      -67.5
   03/14/2017 00:10      58.7      58.4       65     46.8      0.00     17.93      66.3     0.46      1017.0     1       154         2       150        8.40     268      -68.0
   03/14/2017 00:00      59.0      58.6       65     47.1      0.00     17.93      66.1     0.46      1017.0     1       134         1       154        8.40     268      -68.0
   03/13/2017 23:50      59.4      59.2       64     47.0      0.00     17.93      66.4     0.46      1017.0     0        76         1        64        8.40     268      -67.7
   03/13/2017 23:40      59.5      59.3       64     47.2      0.00     17.93      66.4     0.46      1017.0     1       246         1       281        8.40     268      -68.0
   03/13/2017 23:30      59.9      59.5       64     47.4      0.00     17.93      66.4     0.46      1017.0     2       148         2       136        8.40     268      -68.5
   03/13/2017 23:20      60.1      59.9       63     47.5      0.00     17.93      66.3     0.46      1017.0     1       162         2       155        8.42     267      -68.1
   03/13/2017 23:10      60.5      60.3       62     47.5      0.00     17.93      66.2     0.46      1017.0     2       133         2       137        8.42     267      -68.6
   03/13/2017 23:00      61.3      60.5       61     47.4      0.00     17.93      66.3     0.46      1017.0     2       143         3       138        8.42     267      -68.6
   03/13/2017 22:50      61.6      61.3       59     47.1      0.00     17.93      66.3     0.46      1017.0     1       162         2       145        8.42     267      -68.2
   03/13/2017 22:40      62.1      61.7       57     46.6      0.00     17.93      66.5     0.46      1017.0     1       174         2       136        8.42     267      -68.5
   03/13/2017 22:30      62.5      61.9       57     46.6      0.00     17.93      66.2     0.46      1017.0     1       187         1       191        8.42     267      -68.9
   03/13/2017 22:20      63.0      62.2       56     46.6      0.00     17.93      66.5     0.46      1017.0     2       142         3       136        8.42     267      -69.2
   03/13/2017 22:10      63.7      63.3       53     45.9      0.00     17.93      66.5     0.46      1017.0     1       171         2       137        8.43     267      -69.1
   03/13/2017 22:00      63.7      63.3       52     45.8      0.00     17.93      66.4     0.46      1017.0     1       173         2       154        8.43     266      -69.9
   03/13/2017 21:50      63.9      63.3       53     46.0      0.00     17.93      66.2     0.46      1017.0     2       138         2       142        8.43     266      -70.7
   03/13/2017 21:40      64.3      63.7       51     45.6      0.00     17.93      66.3     0.46      1017.0     2       159         2       162        8.43     266      -70.6
   03/13/2017 21:30      64.9      64.1       51     45.9      0.00     17.93      66.3     0.46      1017.0     2       142         2       141        8.43     266      -71.3
   03/13/2017 21:20      66.3      65.0       48     45.3      0.00     17.93      66.3     0.46      1017.0     2       147         2       141        8.43     266      -71.7
   03/13/2017 21:10      67.9      66.6       44     44.5      0.00     17.93      66.3     0.46      1017.0     2       149         3       150        8.43     266      -71.5
   03/13/2017 21:00      68.3      67.7       42     43.9      0.00     17.93      66.2     0.46      1016.0     1       167         1       166        8.43     266      -72.5
   03/13/2017 20:50      67.8      67.5       42     44.0      0.00     17.93      66.3     0.46      1016.0     0       171         1       153        8.43     266      -73.6
   03/13/2017 20:40      69.0      68.0       40     43.7      0.00     17.93      66.3     0.46      1016.0     0       179         1       181        8.43     266      -73.8
   03/13/2017 20:30      69.0      68.7       39     43.0      0.00     17.93      66.1     0.46      1016.0     1       156         1       152        8.43     266      -73.9
   03/13/2017 20:20      69.2      68.4       39     42.6      0.00     17.93      66.2     0.46      1016.0     2       140         3       143        8.43     266      -75.0
   03/13/2017 20:10      70.1      69.3       36     41.6      0.00     17.93      66.2     0.46      1016.0     2       152         2       149        8.44     265      -75.4
   03/13/2017 20:00      71.2      70.2       34     41.0      0.00     17.93      66.2     0.46      1016.0     2       158         2       166        8.44     265      -77.8
   03/13/2017 19:50      71.4      71.0       32     39.9      0.00     17.93      66.0     0.46      1016.0     1       173         2       164        8.45     265      -79.0
   03/13/2017 19:40      71.7      71.2       34     41.4      0.00     17.93      66.1     0.46      1016.0     2       138         3       141        8.46     265      -81.6
   03/13/2017 19:30      72.9      71.7       32     40.6      0.00     17.93      66.0     0.46      1015.0     2       142         2       131        8.47     264      -83.0
   03/13/2017 19:20      75.0      73.2       28     38.6      0.00     17.93      65.9     0.46      1015.0     2       154         2       141        8.47     264      -84.3
   03/13/2017 19:10      77.5      75.2       24     37.2      0.00     17.93      66.0     0.46      1015.0     1       240         2       207        8.47     264      -84.4
   03/13/2017 19:00      80.0      77.7       22     36.4      0.00     17.93      65.7     0.46      1015.0     1       179         2       140        8.48     264      -86.2
   03/13/2017 18:50      81.8      80.3       19     34.6      0.00     17.93      65.8     0.46      1015.0     3       193         4       199        8.48     264      -86.7
   03/13/2017 18:40      83.5      81.9       18     35.0      0.00     17.93      65.6     0.46      1015.0     3       197         3       165        8.48     264      -86.2
   03/13/2017 18:30      83.7      83.6       17     34.5      0.00     17.93      65.7     0.46      1015.0     3       179         4       176        8.49     264      -63.6
   03/13/2017 18:20      84.6      83.9       17     34.3      0.00     17.93      65.5     0.46      1015.0     4       171         5       172        8.49     264      -44.7
   03/13/2017 18:10      85.5      84.7       16     34.4      0.00     17.93      65.5     0.46      1015.0     4       174         5       192        8.50     264      -22.8
   03/13/2017 18:00      86.2      85.6       16     35.0      0.00     17.93      65.4     0.46      1014.0     4       172         6       175        8.51     264        1.7
   03/13/2017 17:50      86.5      86.1       16     34.5      0.00     17.93      65.4     0.46      1014.0     4       161         6       158        8.52     264       27.7
   03/13/2017 17:40      87.0      86.5       15     33.1      0.00     17.93      65.3     0.46      1014.0     4       187         6       168        8.53     264       54.4
   03/13/2017 17:30      87.5      87.0       13     30.9      0.00     17.93      65.3     0.46      1014.0     6       157        10       165        8.53     264       82.5
   03/13/2017 17:20      87.3      87.0       13     29.4      0.00     17.93      65.3     0.46      1014.0     6       151         8       140        8.54     264      109.7
   03/13/2017 17:10      87.4      87.1       12     29.4      0.00     17.93      65.1     0.46      1014.0     6       173         8       200        8.54     264      135.7
   03/13/2017 17:00      88.0      87.4       12     29.1      0.00     17.93      65.0     0.46      1014.0     6       176         8       189        8.54     264      160.3
   03/13/2017 16:50      89.0      87.7       12     29.3      0.00     17.93      65.1     0.46      1014.0     6       159        10       167        8.55     264      183.7
   03/13/2017 16:40      90.3      89.3       12     30.6      0.00     17.93      64.9     0.46      1014.0     6       147        10       157        8.55     264      203.7
   03/13/2017 16:30      90.6      89.7       11     27.9      0.00     17.93      64.9     0.46      1014.0     4       121         8       141        8.55     265      214.7
   03/13/2017 16:20      90.9      90.3       11     28.7      0.00     17.93      64.7     0.46      1014.0     4       131         8       140        8.55     264      225.5
   03/13/2017 16:10      90.9      90.5       11     28.6      0.00     17.93      64.7     0.46      1014.0     4       129         7        67        8.55     264      247.5
   03/13/2017 16:00      91.0      90.3       10     27.4      0.00     17.93      64.7     0.46      1014.0     5       129         7       135        8.55     264      269.2
   03/13/2017 15:50      92.3      90.8       10     26.6      0.00     17.93      64.7     0.46      1014.0     4       118         6       103        8.55     265      286.1
   03/13/2017 15:40      91.7      90.8       12     30.8      0.00     17.93      64.6     0.46      1014.0     5       135         9       130        8.55     265      312.5
   03/13/2017 15:30      92.4      91.4       11     29.3      0.00     17.93      64.5     0.45      1014.0     5       112         6       137        8.55     265      337.4
   03/13/2017 15:20      92.0      91.3       11     28.4      0.00     17.93      64.5     0.45      1014.0     5       135         7       134        8.55     265      353.4
   03/13/2017 15:10      92.9      91.5       11     30.1      0.00     17.93      64.3     0.45      1014.0     4        90         8        62        8.55     265      362.8
   03/13/2017 15:00      93.7      91.6       11     31.1      0.00     17.93      64.2     0.45      1014.0     5       113         7       120        8.56     265      376.2
   03/13/2017 14:50      93.0      90.6       15     36.5      0.00     17.93      64.1     0.45      1014.0     3       119         5       171        8.56     266      386.7
   03/13/2017 14:40      93.1      91.2       12     32.8      0.00     17.93      64.0     0.45      1014.0     3       193         5       144        8.56     266      402.3
   03/13/2017 14:30      93.1      92.4       11     29.9      0.00     17.93      64.1     0.45      1014.0     3       355         4       346        8.56     266      414.7
   03/13/2017 14:20      92.6      91.9       13     33.8      0.00     17.93      64.0     0.45      1015.0     2       152         5       132        8.56     266      423.8
   03/13/2017 14:10      92.8      92.3       12     32.9      0.00     17.93      64.1     0.45      1015.0     2        52         3        29        8.56     266      434.2
   03/13/2017 14:00      92.3      91.6       13     34.0      0.00     17.93      64.0     0.45      1015.0     3        75         7        86        8.56     266      447.2
   03/13/2017 13:50      93.3      91.9       13     33.7      0.00     17.93      63.9     0.45      1015.0     4         5         6       348        8.56     267      450.2
   03/13/2017 13:40      93.0      91.7       13     34.9      0.00     17.93      63.8     0.45      1015.0     2       314         3       318        8.56     268      457.3
   03/13/2017 13:30      91.7      91.0       15     37.2      0.00     17.93      63.8     0.45      1015.0     2       302         3       337        8.56     267      463.5
   03/13/2017 13:20      91.3      90.2       16     38.3      0.00     17.93      63.8     0.45      1016.0     1       258         3       320        8.56     267      472.7
   03/13/2017 13:10      90.5      90.1       16     38.1      0.00     17.93      63.8     0.45      1016.0     2        19         3        70        8.56     266      474.6
   03/13/2017 13:00      90.0      87.9       18     40.0      0.00     17.93      63.8     0.45      1016.0     2        43         3        78        8.56     266      477.6
   03/13/2017 12:50      89.3      88.5       18     40.0      0.00     17.93      63.7     0.45      1016.0     2       292         3       180        8.56     267      477.8
   03/13/2017 12:40      89.3      87.8       18     39.7      0.00     17.93      63.9     0.45      1016.0     2       194         4        98        8.56     267      477.0
   03/13/2017 12:30      88.8      86.8       20     40.9      0.00     17.93      63.6     0.45      1016.0     2       329         3       302        8.56     267      475.8
   03/13/2017 12:20      86.8      86.4       18     38.4      0.00     17.93      63.8     0.45      1016.0     2       349         3       318        8.56     267      471.9
   03/13/2017 12:10      87.4      86.5       19     39.7      0.00     17.93      63.9     0.45      1017.0     2       313         4       290        8.57     267      469.2
   03/13/2017 12:00      86.9      85.0       21     41.0      0.00     17.93      63.7     0.45      1017.0     1       267         2        54        8.57     267      464.7
   03/13/2017 11:50      85.4      84.7       20     39.5      0.00     17.93      63.9     0.45      1017.0     2       359         4         1        8.57     268      458.8
   03/13/2017 11:40      85.3      83.8       21     40.8      0.00     17.93      63.6     0.45      1017.0     2        33         4         0        8.57     268      450.9
   03/13/2017 11:30      83.8      82.6       22     41.1      0.00     17.93      63.8     0.45      1017.0     2        50         4        76        8.57     268      442.6
   03/13/2017 11:20      82.6      81.6       22     40.0      0.00     17.93      63.8     0.45      1017.0     3        28         4         1        8.57     268      433.5
   03/13/2017 11:10      82.2      81.4       23     40.0      0.00     17.93      63.8     0.45      1017.0     3        46         4        72        8.57     269      422.3
   03/13/2017 11:00      81.9      80.3       25     41.7      0.00     17.93      64.1     0.45      1017.0     2        34         3        37        8.57     268      409.6
   03/13/2017 10:50      81.0      80.4       26     42.5      0.00     17.93      64.2     0.45      1017.0     3        24         4        22        8.57     268      396.7
   03/13/2017 10:40      80.5      79.6       26     42.5      0.00     17.93      64.0     0.46      1017.0     3        47         6        78        8.57     268      382.6
   03/13/2017 10:30      79.7      78.6       29     44.0      0.00     17.93      64.1     0.46      1017.0     3        67         4        77        8.57     269      368.3
   03/13/2017 10:20      78.9      76.8       31     45.1      0.00     17.93      63.9     0.46      1017.0     2        82         3        82        8.57     269      352.6
   03/13/2017 10:10      76.8      75.9       34     46.1      0.00     17.93      64.0     0.46      1017.0     1        17         2       139        8.57     270      338.4
   03/13/2017 10:00      76.0      73.9       37     47.4      0.00     17.93      64.1     0.46      1017.0     1       347         2        34        8.57     270      321.3
   03/13/2017 09:50      73.7      71.7       39     46.9      0.00     17.93      64.2     0.46      1017.0     1        70         1       112        8.57     270      303.0
   03/13/2017 09:40      71.4      69.8       40     45.1      0.00     17.93      64.3     0.46      1017.0     1       358         2       343        8.58     269      285.5
   03/13/2017 09:30      70.1      69.0       42     45.7      0.00     17.93      64.1     0.46      1017.0     1       355         3       355        8.58     270      267.6
   03/13/2017 09:20      69.1      67.6       45     46.2      0.00     17.93      64.1     0.46      1017.0     1        18         2         5        8.58     270      249.9
   03/13/2017 09:10      67.7      67.3       46     45.8      0.00     17.93      64.1     0.46      1017.0     1         1         2         5        8.58     271      228.1
   03/13/2017 09:00      67.8      66.3       47     46.0      0.00     17.93      64.2     0.46      1017.0     1       333         2        12        8.58     271      204.5
   03/13/2017 08:50      66.3      66.0       47     45.5      0.00     17.93      64.2     0.46      1017.0     1       351         1       348        8.59     272      178.9
   03/13/2017 08:40      66.3      64.9       50     46.2      0.00     17.93      64.1     0.46      1017.0     1        86         1        69        8.59     272      150.3
   03/13/2017 08:30      65.9      64.5       50     45.9      0.00     17.93      64.5     0.46      1017.0     1        49         2        69        8.59     272      120.1
   03/13/2017 08:20      64.1      59.7       56     45.8      0.00     17.93      64.2     0.46      1017.0     1       355         1       350        8.59     272       90.9
   03/13/2017 08:10      59.4      56.1       64     45.5      0.00     17.93      64.6     0.46      1016.0     0       115         1       142        8.59     272       19.0
   03/13/2017 08:00      56.1      53.1       70     45.0      0.00     17.93      64.5     0.46      1016.0     1       152         1       152        8.59     273      -38.1
   03/13/2017 07:50      53.0      52.5       73     44.1      0.00     17.93      64.3     0.46      1016.0     1       124         2       128        8.59     273      -22.0
   03/13/2017 07:40      52.4      51.8       74     43.9      0.00     17.93      64.5     0.46      1016.0     1       175         2       163        8.59     273      -41.4
   03/13/2017 07:30      52.2      51.7       71     42.9      0.00     17.93      64.5     0.46      1016.0     1       180         2       149        8.59     273      -45.8
   03/13/2017 07:20      51.9      51.5       73     43.3      0.00     17.93      64.7     0.46      1016.0     1       179         1       127        8.59     272      -50.8
   03/13/2017 07:10      51.6      51.2       73     43.2      0.00     17.93      64.6     0.46      1016.0     1       134         1       144        8.59     273      -54.2
   03/13/2017 07:00      51.3      51.0       75     43.4      0.00     17.93      64.7     0.46      1016.0     1       219         1       141        8.59     272      -56.4
   03/13/2017 06:50      51.3      51.1       74     43.3      0.00     17.93      64.9     0.46      1016.0     1       133         2       136        8.59     272      -57.6
   03/13/2017 06:40      51.3      50.8       75     43.3      0.00     17.93      64.8     0.46      1016.0     2       174         2       146        8.59     272      -58.0
   03/13/2017 06:30      51.9      51.3       73     43.2      0.00     17.93      65.0     0.46      1016.0     1       137         2       138        8.59     272      -58.0
   03/13/2017 06:20      52.2      52.0       70     42.7      0.00     17.93      64.8     0.46      1016.0     1       253         1       225        8.59     272      -57.6
   03/13/2017 06:10      52.4      52.2       71     43.0      0.00     17.93      64.7     0.46      1016.0     1       177         1       137        8.59     272      -57.3
   03/13/2017 06:00      52.4      51.7       71     42.9      0.00     17.93      64.6     0.46      1016.0     1       170         1       156        8.59     272      -57.4
   03/13/2017 05:50      52.2      51.7       72     43.1      0.00     17.93      64.6     0.46      1016.0     1       132         1        23        8.59     271      -58.5
   03/13/2017 05:40      52.3      52.2       72     43.5      0.00     17.93      64.8     0.46      1016.0     1       203         2       150        8.59     271      -57.9
   03/13/2017 05:30      52.6      52.3       70     43.1      0.00     17.93      64.8     0.46      1016.0     1       157         2       161        8.59     271      -57.6
   03/13/2017 05:20      52.8      52.4       71     43.3      0.00     17.93      64.9     0.46      1016.0     1       157         1       159        8.59     271      -58.3
   03/13/2017 05:10      53.5      52.9       68     43.1      0.00     17.93      64.9     0.46      1016.0     1        94         1       126        8.59     271      -58.3
   03/13/2017 05:00      53.5      53.0       68     43.0      0.00     17.93      64.8     0.46      1016.0     1       180         1       188        8.59     271      -58.1
   03/13/2017 04:50      53.6      53.1       69     43.3      0.00     17.93      64.9     0.46      1016.0     1       141         1       102        8.59     270      -58.4
   03/13/2017 04:40      53.6      53.3       68     43.0      0.00     17.93      65.0     0.46      1016.0     1       175         1       216        8.59     270      -58.0
   03/13/2017 04:30      54.1      53.3       68     43.3      0.00     17.93      65.0     0.46      1016.0     1       133         2       127        8.59     270      -58.5
   03/13/2017 04:20      55.0      54.2       64     42.9      0.00     17.93      65.0     0.46      1016.0     1       164         2       129        8.59     270      -58.0
   03/13/2017 04:10      55.0      54.8       63     42.8      0.00     17.93      65.1     0.46      1016.0     1       200         1       193        8.59     270      -58.0
   03/13/2017 04:00      54.8      54.7       64     42.8      0.00     17.93      65.2     0.46      1016.0     1       195         1       195        8.59     270      -58.0
   03/13/2017 03:50      55.1      54.8       63     42.7      0.00     17.93      65.0     0.46      1016.0     1       186         1       195        8.59     270      -58.5
   03/13/2017 03:40      55.5      55.2       61     42.3      0.00     17.93      65.6     0.46      1016.0     1       177         1       181        8.60     270      -58.2
   03/13/2017 03:30      55.1      54.8       62     42.2      0.00     17.93      65.1     0.46      1016.0     1       199         1       184        8.60     270      -58.8
   03/13/2017 03:20      55.1      54.8       62     42.4      0.00     17.93      65.2     0.46      1016.0     1       190         1       165        8.60     270      -59.3
   03/13/2017 03:10      55.1      54.9       62     42.4      0.00     17.93      65.1     0.46      1016.0     1       156         2       164        8.60     269      -59.8
   03/13/2017 03:00      55.5      55.0       63     42.7      0.00     17.93      65.1     0.46      1016.0     0        73         1        89        8.63     269      -59.8
   03/13/2017 02:50      56.4      55.7       61     42.8      0.00     17.93      65.2     0.46      1016.0     1        82         2       109        8.63     269      -59.7
   03/13/2017 02:40      56.4      56.0       61     42.8      0.00     17.93      65.3     0.46      1016.0     1       138         2       130        8.63     269      -59.1
   03/13/2017 02:30      57.3      56.6       58     42.1      0.00     17.93      65.4     0.46      1016.0     1       142         2       138        8.63     269      -59.4
   03/13/2017 02:20      57.1      56.9       57     42.1      0.00     17.93      65.2     0.46      1017.0     0       173         1       153        8.63     269      -59.9
   03/13/2017 02:10      57.6      57.0       57     42.2      0.00     17.93      65.5     0.46      1017.0     1       139         2       129        8.63     269      -60.0
   03/13/2017 02:00      57.9      57.3       54     41.2      0.00     17.93      65.4     0.46      1017.0     1       173         1       135        8.63     268      -60.0
   03/13/2017 01:50      57.7      57.4       56     42.0      0.00     17.93      65.4     0.46      1017.0     1       223         2       268        8.63     268      -60.8
   03/13/2017 01:40      58.6      58.0       53     41.3      0.00     17.93      65.3     0.46      1017.0     1       173         2       143        8.63     268      -60.1
   03/13/2017 01:30      58.7      58.5       51     40.5      0.00     17.93      65.3     0.46      1017.0     1       161         2       154        8.63     268      -59.8
   03/13/2017 01:20      58.8      58.4       51     40.6      0.00     17.93      65.5     0.46      1017.0     1       176         1       149        8.63     268      -60.1
   03/13/2017 01:10      58.8      58.4       52     41.0      0.00     17.93      65.4     0.46      1017.0     0        17         1       134        8.63     268      -60.5
   03/13/2017 01:00      59.4      59.0       51     41.1      0.00     17.93      65.4     0.46      1017.0     1        44         1       103        8.63     268      -60.3
   03/13/2017 00:50      59.8      59.4       49     40.6      0.00     17.93      65.3     0.46      1017.0     1       150         1       145        8.63     268      -59.2
   03/13/2017 00:40      59.9      59.7       49     40.5      0.00     17.93      65.6     0.46      1017.0     1       160         2       141        8.64     267      -59.3
   03/13/2017 00:30      60.5      60.0       47     39.8      0.00     17.93      65.5     0.46      1017.0     1       163         1       144        8.63     267      -59.7
   03/13/2017 00:20      60.3      60.0       47     40.1      0.00     17.93      65.4     0.46      1017.0     1       173         1       161        8.64     267      -60.6
   03/13/2017 00:10      60.3      59.7       47     39.8      0.00     17.93      65.4     0.46      1016.0     1       163         2       143        8.64     267      -60.6
   03/13/2017 00:00      60.5      59.9       47     39.9      0.00     17.93      65.6     0.46      1016.0     2       136         2       138        8.64     267      -61.0
   03/12/2017 23:50      61.4      60.5       47     40.5      0.00     17.93      65.4     0.46      1016.0     1       127         2       124        8.64     267      -61.8
   03/12/2017 23:40      62.2      61.6       42     38.3      0.00     17.93      65.5     0.46      1016.0     1       167         2       137        8.64     267      -60.4
   03/12/2017 23:30      62.0      61.9       43     38.9      0.00     17.93      65.6     0.46      1016.0     1       179         1       152        8.64     267      -61.4
   03/12/2017 23:20      62.3      61.5       44     39.7      0.00     17.93      65.5     0.46      1016.0     1       157         2       144        8.64     267      -61.9
   03/12/2017 23:10      62.9      62.5       41     38.7      0.00     17.93      65.5     0.46      1016.0     1       164         2       164        8.64     267      -62.2
   03/12/2017 23:00      63.7      63.3       39     38.0      0.00     17.93      65.4     0.46      1016.0     1       186         1       149        8.64     267      -62.4
   03/12/2017 22:50      63.5      63.2       40     38.8      0.00     17.93      65.6     0.46      1016.0     1       173         1       159        8.64     267      -63.1
   03/12/2017 22:40      63.9      63.3       42     40.1      0.00     17.93      65.5     0.46      1016.0     1        94         1       106        8.64     266      -64.2
   03/12/2017 22:30      64.1      63.8       40     39.5      0.00     17.93      65.4     0.46      1016.0     1       126         1       175        8.64     266      -63.6
   03/12/2017 22:20      65.2      64.3       40     39.8      0.00     17.93      65.3     0.46      1016.0     2       146         2       128        8.64     266      -64.7
   03/12/2017 22:10      66.3      65.5       36     38.4      0.00     17.93      65.4     0.46      1016.0     1       182         2       174        8.64     266      -65.2
   03/12/2017 22:00      66.8      66.2       35     38.2      0.00     17.93      65.7     0.46      1016.0     1       188         1       194        8.64     266      -65.8
   03/12/2017 21:50      67.8      67.2       34     38.4      0.00     17.93      65.4     0.46      1016.0     1       195         2       211        8.64     266      -67.0
   03/12/2017 21:40      68.3      67.8       34     38.7      0.00     17.93      65.4     0.46      1016.0     1       168         2       183        8.64     266      -68.7
   03/12/2017 21:30      68.6      68.2       34     38.7      0.00     17.93      65.5     0.46      1016.0     1       121         1       184        8.64     265      -70.9
   03/12/2017 21:20      72.6      68.8       32     38.8      0.00     17.93      65.2     0.46      1016.0     1        62         2        55        8.64     265      -73.3
   03/12/2017 21:10      73.1      72.6       27     37.1      0.00     17.93      65.3     0.46      1016.0     2       250         3       238        8.64     265      -74.2
   03/12/2017 21:00      73.2      72.9       27     37.3      0.00     17.93      65.1     0.46      1016.0     3       219         5       206        8.65     265      -76.3
   03/12/2017 20:50      73.3      73.1       27     37.6      0.00     17.93      65.3     0.46      1016.0     4       217         6       227        8.65     265      -77.4
   03/12/2017 20:40      73.2      72.9       28     37.9      0.00     17.93      65.3     0.46      1015.0     4       206         5       217        8.65     265      -77.1
   03/12/2017 20:30      73.5      72.8       28     38.1      0.00     17.93      65.2     0.46      1015.0     4       207         6       209        8.65     265      -78.3
   03/12/2017 20:20      74.1      73.8       27     37.9      0.00     17.93      65.2     0.46      1015.0     3       204         4       197        8.65     264      -80.2
   03/12/2017 20:10      74.5      74.1       27     38.2      0.00     17.93      65.0     0.46      1015.0     3       216         5       217        8.65     264      -82.2
   03/12/2017 20:00      74.8      74.2       27     38.5      0.00     17.93      65.1     0.46      1015.0     5       210         7       200        8.65     264      -82.9
   03/12/2017 19:50      75.0      74.7       27     38.7      0.00     17.93      64.9     0.46      1015.0     6       209         8       213        8.65     264      -83.5
   03/12/2017 19:40      75.5      75.2       27     39.1      0.00     17.93      65.0     0.46      1015.0     5       211         7       200        8.65     264      -84.6
   03/12/2017 19:30      76.1      75.5       27     39.9      0.00     17.93      64.8     0.46      1015.0     4       205         6       195        8.65     264      -85.7
   03/12/2017 19:20      76.6      76.3       29     41.8      0.00     17.93      64.8     0.46      1015.0     5       206         9       202        8.65     264      -86.5
   03/12/2017 19:10      77.2      76.8       30     43.5      0.00     17.93      64.8     0.46      1015.0     4       225         6       251        8.66     264      -87.5
   03/12/2017 19:00      78.0      77.4       31     44.4      0.00     17.93      64.7     0.46      1014.0     3       229         5       238        8.66     264      -85.2
   03/12/2017 18:50      79.0      78.3       29     43.5      0.00     17.93      64.8     0.46      1014.0     4       228         7       231        8.66     264      -82.9
   03/12/2017 18:40      80.7      79.2       28     43.3      0.00     17.93      64.7     0.46      1014.0     5       245         6       246        8.66     264      -80.0
   03/12/2017 18:30      81.2      80.8       25     41.5      0.00     17.93      64.6     0.46      1014.0     5       263         8       282        8.66     264      -56.8
   03/12/2017 18:20      81.9      81.2       26     43.0      0.00     17.93      64.5     0.46      1014.0     6       265         9       247        8.66     264      -38.4
   03/12/2017 18:10      83.5      82.2       26     44.6      0.00     17.93      64.5     0.46      1014.0     5       273         8       289        8.67     264      -17.1
   03/12/2017 18:00      84.9      83.6       28     47.3      0.00     17.93      64.3     0.46      1014.0     5       277         6       255        8.67     264        7.3
   03/12/2017 17:50      86.0      85.5       25     45.5      0.00     17.93      64.3     0.46      1014.0     4       264         9       265        8.67     264       34.3
   03/12/2017 17:40      86.3      85.7       24     44.5      0.00     17.93      64.2     0.46      1014.0     5       221         9       193        8.67     264       61.2
   03/12/2017 17:30      86.7      86.0       20     41.1      0.00     17.93      64.3     0.46      1014.0     5       217         8       228        8.67     264       85.9
   03/12/2017 17:20      87.7      86.7       20     41.0      0.00     17.93      64.0     0.46      1014.0     5       219         7       216        8.67     264      110.7
   03/12/2017 17:10      88.1      87.6       20     41.2      0.00     17.93      64.0     0.46      1014.0     5       225         7       231        8.67     264      135.3
   03/12/2017 17:00      88.1      87.6       19     39.8      0.00     17.93      64.0     0.46      1014.0     5       219         7       233        8.67     264      159.3
   03/12/2017 16:50      88.0      87.6       18     39.6      0.00     17.93      63.9     0.46      1014.0     4       206         7       222        8.68     264      182.2
   03/12/2017 16:40      87.7      87.5       17     38.2      0.00     17.93      63.7     0.46      1014.0     6       191         8       155        8.68     264      206.1
   03/12/2017 16:30      87.7      87.4       17     37.7      0.00     17.93      63.8     0.46      1014.0     5       164         6       163        8.68     265      217.4
   03/12/2017 16:20      88.2      87.7       17     38.2      0.00     17.93      63.7     0.46      1014.0     5       161         8       179        8.68     265      228.5
   03/12/2017 16:10      88.2      87.7       18     38.4      0.00     17.93      63.5     0.46      1014.0     4       178         8       159        8.68     265      249.9
   03/12/2017 16:00      88.5      87.6       18     39.7      0.00     17.93      63.5     0.46      1014.0     6       179         8       171        8.68     265      269.1
   03/12/2017 15:50      88.9      88.4       19     40.5      0.00     17.93      63.4     0.46      1014.0     6       176         8       152        8.68     265      285.6
   03/12/2017 15:40      91.7      88.8       16     38.1      0.00     17.93      63.6     0.46      1014.0     4       197         9       168        8.68     265      303.8
   03/12/2017 15:30      91.3      90.3       15     36.5      0.00     17.93      63.4     0.46      1014.0     2       183         4       233        8.68     265      332.6
   03/12/2017 15:20      91.8      90.9       14     35.0      0.00     17.93      63.2     0.46      1014.0     2       238         6       245        8.69     265      348.0
   03/12/2017 15:10      92.4      91.1       12     31.9      0.00     17.93      63.1     0.46      1014.0     2       301         4       197        8.69     266      361.2
   03/12/2017 15:00      91.3      89.2       13     33.5      0.00     17.93      63.1     0.46      1014.0     2       256         3       257        8.69     266      380.5
   03/12/2017 14:50      90.5      89.3       16     38.1      0.00     17.93      63.1     0.46      1014.0     3       199         4       209        8.69     267      398.5
   03/12/2017 14:40      90.5      89.6       16     38.1      0.00     17.93      63.0     0.46      1014.0     2       245         4       253        8.69     267      409.2
   03/12/2017 14:30      90.1      89.7       14     34.1      0.00     17.93      62.9     0.46      1014.0     3       281         5       278        8.69     267      419.9
   03/12/2017 14:20      89.7      89.4       13     32.3      0.00     17.93      62.8     0.46      1014.0     3       272         5       237        8.69     267      430.4
   03/12/2017 14:10      90.5      89.4       13     33.1      0.00     17.93      62.7     0.46      1015.0     2       324         4       353        8.69     267      436.7
   03/12/2017 14:00      90.5      89.7       14     34.9      0.00     17.93      62.9     0.45      1015.0     1       274         3       270        8.69     267      444.3
   03/12/2017 13:50      89.9      89.1       15     35.7      0.00     17.93      62.9     0.45      1015.0     2        10         3        27        8.69     267      455.3
   03/12/2017 13:40      89.4      88.7       16     37.6      0.00     17.93      62.8     0.45      1015.0     2        76         3       131        8.69     267      463.9
   03/12/2017 13:30      88.0      87.2       18     38.8      0.00     17.93      62.8     0.45      1015.0     3       220         4       230        8.69     267      472.4
   03/12/2017 13:20      88.0      87.1       19     40.6      0.00     17.93      62.6     0.45      1015.0     2       237         4       255        8.69     266      475.9
   03/12/2017 13:10      87.7      87.1       17     37.7      0.00     17.93      62.7     0.45      1015.0     2       345         3       246        8.69     266      478.3
   03/12/2017 13:00      88.4      87.2       16     36.9      0.00     17.93      62.7     0.45      1015.0     3        41         4        64        8.70     267      479.3
   03/12/2017 12:50      87.8      87.4       16     36.4      0.00     17.93      62.6     0.45      1016.0     2       129         3       147        8.70     267      479.3
   03/12/2017 12:40      87.7      86.4       17     36.6      0.00     17.93      62.6     0.45      1016.0     3        64         5        79        8.70     267      478.5
   03/12/2017 12:30      86.3      84.9       17     36.1      0.00     17.93      62.6     0.45      1016.0     2        32         3        17        8.70     267      477.5
   03/12/2017 12:20      85.0      84.6       18     36.2      0.00     17.93      62.5     0.45      1016.0     2        28         3       351        8.70     267      475.2
   03/12/2017 12:10      84.7      83.0       18     35.8      0.00     17.93      62.7     0.45      1016.0     3        51         5        23        8.70     267      471.4
   03/12/2017 12:00      83.3      82.5       18     35.5      0.00     17.93      62.8     0.45      1016.0     4        10         6       355        8.70     268      465.9
   03/12/2017 11:50      83.0      82.5       19     36.3      0.00     17.93      62.7     0.45      1016.0     4       359         7       359        8.70     268      460.3
   03/12/2017 11:40      83.0      81.7       21     39.0      0.00     17.93      62.9     0.45      1016.0     2         9         3       349        8.70     268      453.9
   03/12/2017 11:30      81.4      80.6       22     39.0      0.00     17.93      62.7     0.46      1016.0     3        38         4        20        8.70     268      445.9
   03/12/2017 11:20      81.0      78.8       24     39.7      0.00     17.93      62.7     0.46      1016.0     3        48         4        78        8.70     269      435.6
   03/12/2017 11:10      79.7      78.9       25     40.2      0.00     17.93      62.8     0.46      1016.0     3        32         4        30        8.70     268      422.8
   03/12/2017 11:00      79.0      78.4       27     41.7      0.00     17.93      63.2     0.46      1016.0     3        43         4        46        8.70     268      410.7
   03/12/2017 10:50      78.6      77.3       28     41.8      0.00     17.93      62.7     0.46      1016.0     3        64         4        98        8.70     268      397.5
   03/12/2017 10:40      78.8      78.2       26     41.0      0.00     17.93      62.9     0.46      1017.0     4        97         7        86        8.70     269      383.1
   03/12/2017 10:30      78.7      77.3       26     39.9      0.00     17.93      62.9     0.46      1016.0     3        83         5        78        8.70     270      368.8
   03/12/2017 10:20      77.1      76.3       26     39.4      0.00     17.93      62.6     0.46      1016.0     4        80         6        83        8.70     270      353.8
   03/12/2017 10:10      76.2      74.6       28     40.1      0.00     17.93      62.9     0.46      1016.0     3        91         5       133        8.70     270      338.1
   03/12/2017 10:00      75.5      74.8       28     40.0      0.00     17.93      63.2     0.46      1017.0     4        95         6        71        8.70     270      321.1
   03/12/2017 09:50      74.7      73.2       30     40.8      0.00     17.93      63.1     0.46      1017.0     3        89         5        76        8.70     270      303.0
   03/12/2017 09:40      73.5      70.2       41     46.9      0.00     17.93      63.2     0.46      1017.0     2        81         4       122        8.70     270      285.9
   03/12/2017 09:30      70.1      68.3       45     47.1      0.00     17.93      63.3     0.46      1017.0     1         9         2       151        8.70     270      267.7
   03/12/2017 09:20      69.1      68.2       45     46.6      0.00     17.93      62.9     0.46      1017.0     2        28         4       336        8.71     271      247.8
   03/12/2017 09:10      68.7      66.3       46     45.9      0.00     17.93      63.3     0.46      1017.0     1        63         2        65        8.71     272      226.6
   03/12/2017 09:00      66.9      64.5       48     45.5      0.00     17.93      63.2     0.46      1017.0     1        12         3         2        8.71     276      201.8
   03/12/2017 08:50      65.3      63.1       49     44.6      0.00     17.93      63.1     0.46      1016.0     1        17         3       353        8.71     278      175.5
   03/12/2017 08:40      63.0      61.6       52     44.1      0.00     17.93      63.2     0.46      1016.0     1        19         2       359        8.71     279      147.3
   03/12/2017 08:30      61.8      59.5       53     43.2      0.00     17.93      63.4     0.46      1016.0     2        96         3         4        8.71     280      117.2
   03/12/2017 08:20      59.3      56.7       59     43.5      0.00     17.93      63.6     0.46      1016.0     2       174         3       157        8.71     281       87.0
   03/12/2017 08:10      56.9      55.5       61     42.9      0.00     17.93      63.3     0.46      1016.0     1        74         3       126        8.71     282       10.3
   03/12/2017 08:00      55.7      53.9       62     42.1      0.00     17.93      63.3     0.46      1016.0     1        24         2       330        8.71     282      -41.1
   03/12/2017 07:50      53.8      52.7       65     41.6      0.00     17.93      63.2     0.46      1015.0     1       304         2       346        8.71     282      -37.3
   03/12/2017 07:40      52.9      51.7       66     41.1      0.00     17.93      63.5     0.46      1015.0     1       120         3       156        8.71     282      -42.1
   03/12/2017 07:30      51.9      51.1       68     41.2      0.00     17.93      63.4     0.46      1015.0     1       163         3       186        8.71     282      -47.1
   03/12/2017 07:20      51.7      51.4       68     41.4      0.00     17.93      63.5     0.46      1015.0     1       140         2       132        8.71     282      -52.5
   03/12/2017 07:10      52.0      51.4       68     41.4      0.00     17.93      63.3     0.46      1015.0     1       110         2       172        8.71     281      -55.7
   03/12/2017 07:00      51.9      51.4       68     41.4      0.00     17.93      63.5     0.46      1015.0     1       194         3        84        8.71     281      -57.5
   03/12/2017 06:50      52.2      51.8       67     41.3      0.00     17.93      63.8     0.46      1015.0     1       138         3       122        8.71     280      -57.5
   03/12/2017 06:40      52.7      52.2       66     41.3      0.00     17.93      63.8     0.46      1015.0     1       306         3       244        8.71     280      -56.9
   03/12/2017 06:30      52.6      52.1       65     41.0      0.00     17.93      63.5     0.46      1015.0     2       302         5       346        8.71     280      -56.0
   03/12/2017 06:20      52.8      51.9       65     40.9      0.00     17.93      63.6     0.46      1015.0     1       140         3       193        8.71     279      -56.1
   03/12/2017 06:10      51.8      51.2       69     41.6      0.00     17.93      63.6     0.46      1015.0     1       258         2       220        8.71     279      -56.9
   03/12/2017 06:00      51.4      50.6       70     41.7      0.00     17.93      63.8     0.46      1015.0     1       258         2       186        8.71     278      -57.0
   03/12/2017 05:50      51.3      50.6       73     42.4      0.00     17.93      63.6     0.46      1015.0     1       122         2       129        8.71     278      -58.2
   03/12/2017 05:40      51.9      51.3       71     42.5      0.00     17.93      63.5     0.46      1015.0     1       148         2       129        8.71     277      -58.5
   03/12/2017 05:30      51.9      51.7       71     42.8      0.00     17.93      63.8     0.46      1015.0     1       263         1       259        8.71     276      -58.9
   03/12/2017 05:20      52.1      51.7       72     43.0      0.00     17.93      63.7     0.46      1015.0     1       224         1       201        8.71     276      -59.6
   03/12/2017 05:10      52.2      51.9       72     43.2      0.00     17.93      63.8     0.46      1015.0     1       328         1        38        8.71     276      -60.3
   03/12/2017 05:00      52.3      51.6       74     43.9      0.00     17.93      63.9     0.46      1015.0     1       212         1       158        8.71     275      -60.1
   03/12/2017 04:50      52.0      51.8       74     43.9      0.00     17.93      63.9     0.46      1015.0     2        98         3       148        8.71     274      -60.6
   03/12/2017 04:40      52.0      51.7       75     44.0      0.00     17.93      63.8     0.46      1015.0     1       210         1       146        8.71     274      -60.2
   03/12/2017 04:30      52.5      51.8       73     44.0      0.00     17.93      63.9     0.46      1015.0     1       162         2       144        8.71     274      -60.3
   03/12/2017 04:20      51.9      51.6       76     44.4      0.00     17.93      63.9     0.46      1015.0     1       146         2       149        8.71     274      -60.5
   03/12/2017 04:10      52.4      51.8       75     44.5      0.00     17.93      64.0     0.46      1015.0     2       132         2       139        8.71     273      -60.7
   03/12/2017 04:00      53.0      52.6       73     44.5      0.00     17.93      63.9     0.46      1015.0     1       150         2       146        8.71     273      -60.2
   03/12/2017 03:50      53.1      52.6       74     44.8      0.00     17.93      64.2     0.46      1015.0     1       208         2       229        8.71     273      -60.3
   03/12/2017 03:40      53.1      52.8       75     45.2      0.00     17.93      64.0     0.46      1015.0     1       164         2       106        8.71     273      -60.9
   03/12/2017 03:30      53.3      52.9       75     45.3      0.00     17.93      63.8     0.46      1015.0     1       152         2       117        8.71     273      -60.7
   03/12/2017 03:20      53.3      53.1       75     45.5      0.00     17.93      63.9     0.46      1015.0     1       146         2       131        8.72     272      -60.6
   03/12/2017 03:10      53.2      53.0       75     45.4      0.00     17.93      64.3     0.46      1016.0     1       224         2       157        8.72     272      -60.9
   03/12/2017 03:00      53.8      53.4       74     45.4      0.00     17.93      64.3     0.46      1016.0     1       163         2       129        8.72     272      -61.6
   03/12/2017 01:50      53.9      53.6       74     45.7      0.00     17.93      64.1     0.46      1016.0     1       271         1       256        8.72     272      -62.0
   03/12/2017 01:40      54.6      53.9       72     45.6      0.00     17.93      63.9     0.46      1016.0     1       132         2       165        8.72     271      -61.8
   03/12/2017 01:30      54.8      54.5       71     45.6      0.00     17.93      64.2     0.46      1016.0     1       154         2       159        8.72     271      -61.4
   03/12/2017 01:20      55.2      54.6       71     45.6      0.00     17.93      64.1     0.46      1016.0     2       145         3       187        8.72     271      -61.0
   03/12/2017 01:10      55.1      54.6       71     45.6      0.00     17.93      64.1     0.46      1016.0     2       160         4       181        8.72     271      -61.3
   03/12/2017 01:00      55.2      54.6       72     45.8      0.00     17.93      64.1     0.46      1016.0     2       193         3       200        8.72     271      -61.5
   03/12/2017 00:50      54.9      54.3       72     45.8      0.00     17.93      64.2     0.46      1016.0     2       142         3       152        8.72     271      -61.9
   03/12/2017 00:40      55.5      55.1       70     45.7      0.00     17.93      64.1     0.46      1016.0     1       181         2       208        8.72     271      -61.9
   03/12/2017 00:30      56.2      55.8       69     45.8      0.00     17.93      64.3     0.46      1016.0     1        86         1       105        8.72     271      -62.3
   03/12/2017 00:20      56.6      55.9       67     45.5      0.00     17.93      63.9     0.46      1016.0     1       188         2       195        8.72     271      -61.6
   03/12/2017 00:10      56.8      56.0       67     45.7      0.00     17.93      64.3     0.46      1016.0     1       153         1       125        8.72     270      -62.1
   03/12/2017 00:00      57.0      56.6       66     45.7      0.00     17.93      64.4     0.46      1016.0     1       151         2       171        8.72     270      -62.2
   03/11/2017 23:50      57.1      56.6       68     46.3      0.00     17.93      64.4     0.46      1016.0     1       174         2       228        8.72     270      -62.1
   03/11/2017 23:40      57.0      56.4       68     46.3      0.00     17.93      64.3     0.46      1016.0     1       141         2       171        8.72     270      -62.2
   03/11/2017 23:30      56.9      56.6       69     46.6      0.00     17.93      64.4     0.46      1016.0     2       138         2       141        8.72     270      -62.7
   03/11/2017 23:20      57.1      57.0       68     46.7      0.00     17.93      64.3     0.46      1016.0     1       141         2       122        8.72     270      -62.8
   03/11/2017 23:10      57.9      57.1       67     46.6      0.00     17.93      64.3     0.46      1016.0     2       143         2       126        8.72     270      -62.6
   03/11/2017 23:00      57.9      57.6       67     46.6      0.00     17.93      64.3     0.46      1016.0     1       136         1        82        8.72     270      -63.5
   03/11/2017 22:50      58.5      57.7       67     47.0      0.00     17.93      64.4     0.46      1016.0     1       117         2       141        8.72     270      -63.9
   03/11/2017 22:40      59.1      58.4       65     46.9      0.00     17.93      64.4     0.46      1016.0     1       146         1       188        8.72     270      -64.3
   03/11/2017 22:30      58.8      58.4       67     47.6      0.00     17.93      64.3     0.46      1016.0     2       164         3       154        8.72     270      -64.5
   03/11/2017 22:20      59.9      59.0       64     47.5      0.00     17.93      64.6     0.46      1016.0     1       142         2       142        8.73     269      -64.7
   03/11/2017 22:10      60.0      59.7       63     47.4      0.00     17.93      64.5     0.46      1016.0     1       173         1       151        8.73     269      -65.5
   03/11/2017 22:00      60.2      59.8       63     47.5      0.00     17.93      64.5     0.46      1016.0     1       222         2       142        8.73     269      -66.4
   03/11/2017 21:50      61.0      60.3       62     47.5      0.00     17.93      64.3     0.46      1016.0     1       159         2       147        8.73     269      -66.5
   03/11/2017 21:40      61.6      60.8       61     47.5      0.00     17.93      64.3     0.46      1016.0     1       145         2       140        8.73     269      -66.9
   03/11/2017 21:30      62.0      61.7       58     46.9      0.00     17.93      64.3     0.46      1016.0     1       157         1       194        8.73     268      -66.4
   03/11/2017 21:20      62.1      62.0       58     46.9      0.00     17.93      64.3     0.46      1016.0     1       196         1       248        8.73     268      -67.1
   03/11/2017 21:10      62.3      62.0       57     46.7      0.00     17.93      64.2     0.46      1015.0     1       204         2       126        8.73     268      -67.4
   03/11/2017 21:00      62.3      61.9       57     46.9      0.00     17.93      64.4     0.46      1015.0     2       170         3       139        8.73     268      -68.0
   03/11/2017 20:50      63.4      62.6       54     46.1      0.00     17.93      64.3     0.46      1015.0     1       166         2       127        8.74     270      -68.2
   03/11/2017 20:40      64.3      63.5       51     45.7      0.00     17.93      64.3     0.46      1015.0     1       171         2       148        8.74     270      -68.4
   03/11/2017 20:30      64.0      63.6       52     45.7      0.00     17.93      64.3     0.46      1015.0     0       135         1       205        8.74     270      -69.7
   03/11/2017 20:20      64.9      64.3       50     45.7      0.00     17.93      64.3     0.46      1015.0     1        50         1        22        8.75     270      -69.8
   03/11/2017 20:10      65.5      65.0       49     45.7      0.00     17.93      64.2     0.46      1015.0     1       113         2       151        8.75     269      -69.9
   03/11/2017 20:00      65.5      65.2       49     45.6      0.00     17.93      64.2     0.46      1015.0     2       130         3       135        8.75     269      -70.3
   03/11/2017 19:50      66.9      65.7       47     45.3      0.00     17.93      64.2     0.46      1015.0     2       124         2       134        8.75     269      -71.4
   03/11/2017 19:40      67.3      66.9       44     44.7      0.00     17.93      64.0     0.46      1015.0     1       204         3       239        8.75     269      -71.2
   03/11/2017 19:30      67.9      67.3       43     44.6      0.00     17.93      64.0     0.46      1015.0     1       168         2       197        8.75     269      -72.4
   03/11/2017 19:20      68.8      67.7       42     44.5      0.00     17.93      64.2     0.46      1015.0     1       157         2       189        8.76     269      -73.3
   03/11/2017 19:10      69.8      69.0       41     44.5      0.00     17.93      64.0     0.46      1015.0     2       151         2       170        8.76     269      -75.0
   03/11/2017 19:00      71.3      70.1       39     44.1      0.00     17.93      64.0     0.46      1015.0     2       191         3       214        8.76     269      -76.0
   03/11/2017 18:50      71.9      71.3       36     43.5      0.00     17.93      64.0     0.46      1015.0     3       199         4       195        8.76     269      -77.3
   03/11/2017 18:40      72.4      71.8       36     43.5      0.00     17.93      64.1     0.46      1014.0     2       189         4       205        8.77     268      -79.5
   03/11/2017 18:30      73.0      72.6       35     43.5      0.00     17.93      63.8     0.46      1014.0     2       202         4       219        8.77     268      -81.7
   03/11/2017 18:20      73.4      73.0       35     43.7      0.00     17.93      63.9     0.46      1014.0     2       220         4       237        8.78     268      -84.6
   03/11/2017 18:10      74.2      73.6       35     44.1      0.00     17.93      63.8     0.46      1014.0     4       234         4       212        8.78     268      -86.3
   03/11/2017 18:00      75.2      74.5       33     44.1      0.00     17.93      63.8     0.46      1014.0     3       235         6       240        8.78     268      -85.5
   03/11/2017 17:50      75.8      75.4       32     44.1      0.00     17.93      63.6     0.46      1014.0     4       224         7       225        8.79     267      -81.9
   03/11/2017 17:40      77.8      76.2       32     45.1      0.00     17.93      63.5     0.46      1014.0     2       211         3       228        8.79     267      -78.6
   03/11/2017 17:30      78.5      77.8       31     45.3      0.00     17.93      63.5     0.46      1014.0     5       237         7       238        8.80     267      -54.7
   03/11/2017 17:20      78.8      78.5       31     45.7      0.00     17.93      63.5     0.46      1014.0     5       238         7       218        8.80     267      -37.7
   03/11/2017 17:10      79.5      78.9       32     46.8      0.00     17.93      63.4     0.46      1014.0     6       225        10       243        8.81     267      -15.5
   03/11/2017 17:00      80.5      79.7       33     48.9      0.00     17.93      63.3     0.46      1014.0     6       232         7       239        8.81     267        8.2
   03/11/2017 16:50      81.0      80.8       32     48.4      0.00     17.93      63.2     0.46      1014.0     6       236         9       245        8.82     267       33.8
   03/11/2017 16:40      81.2      80.8       31     47.6      0.00     17.93      63.3     0.46      1014.0     6       212        10       198        8.82     267       60.6
   03/11/2017 16:30      82.1      80.9       30     46.9      0.00     17.93      63.2     0.46      1014.0     7       201         9       217        8.83     267       85.6
   03/11/2017 16:20      82.8      82.0       29     47.0      0.00     17.93      63.0     0.46      1013.0     6       235         9       253        8.83     267      112.0
   03/11/2017 16:10      84.4      83.1       30     49.1      0.00     17.93      62.9     0.46      1013.0     7       232        10       229        8.84     268      134.1
   03/11/2017 16:00      85.2      84.5       29     48.7      0.00     17.93      62.8     0.46      1013.0     7       236         9       212        8.84     268      156.1
   03/11/2017 15:50      86.5      85.4       27     48.5      0.00     17.93      62.9     0.46      1013.0     4       209         7       222        8.84     268      173.4
   03/11/2017 15:40      88.5      86.6       22     44.2      0.00     17.93      62.8     0.46      1013.0     3       243         5       327        8.84     269      190.4
   03/11/2017 15:30      88.4      88.0       20     42.3      0.00     17.93      62.6     0.46      1013.0     1       198         3       339        8.84     269      199.1
   03/11/2017 15:20      88.7      87.7       20     42.4      0.00     17.93      62.5     0.46      1013.0     2       350         5         2        8.85     269      208.7
   03/11/2017 15:10      88.4      87.6       20     41.3      0.00     17.93      62.6     0.46      1013.0     3        69         5        69        8.85     269      233.1
   03/11/2017 15:00      88.9      87.7       20     42.8      0.00     17.93      62.6     0.46      1013.0     3        90         4        81        8.85     269      258.0
   03/11/2017 14:50      89.2      87.7       21     43.0      0.00     17.93      62.6     0.46      1014.0     3        62         6        59        8.85     269      279.2
   03/11/2017 14:40      88.8      87.8       21     43.0      0.00     17.93      62.4     0.46      1014.0     2       119         4        92        8.85     269      301.7
   03/11/2017 14:30      89.0      88.2       20     41.9      0.00     17.93      62.2     0.46      1014.0     3        36         6        29        8.85     269      326.3
   03/11/2017 14:20      88.2      87.2       20     41.0      0.00     17.93      62.3     0.46      1014.0     2       323         4        22        8.85     269      343.2
   03/11/2017 14:10      88.7      87.2       20     42.0      0.00     17.93      62.2     0.46      1014.0     3        24         5       347        8.85     269      358.3
   03/11/2017 14:00      88.7      87.1       21     42.6      0.00     17.93      62.1     0.46      1014.0     2        39         2        30        8.85     270      377.0
   03/11/2017 13:50      88.1      87.2       19     40.5      0.00     17.93      62.1     0.46      1014.0     2        12         3       251        8.85     270      392.7
   03/11/2017 13:40      87.9      87.0       20     41.0      0.00     17.93      61.9     0.46      1014.0     3       336         5         5        8.85     270      402.1
   03/11/2017 13:30      87.3      86.3       20     40.5      0.00     17.93      61.9     0.46      1015.0     2        38         5       358        8.85     270      415.1
   03/11/2017 13:20      86.9      85.6       20     40.2      0.00     17.93      61.8     0.46      1015.0     3        54         6        63        8.85     270      426.0
   03/11/2017 13:10      85.7      85.3       20     39.9      0.00     17.93      61.8     0.46      1015.0     2       287         3       231        8.85     270      438.8
   03/11/2017 13:00      86.8      85.3       20     40.0      0.00     17.93      61.8     0.46      1015.0     3        18         4        36        8.85     270      447.3
   03/11/2017 12:50      85.8      84.3       21     41.1      0.00     17.93      61.8     0.46      1015.0     2        26         4        14        8.85     270      456.7
   03/11/2017 12:40      85.7      84.4       21     41.2      0.00     17.93      61.9     0.46      1015.0     3       104         4       111        8.86     270      463.2
   03/11/2017 12:30      84.7      83.5       25     44.0      0.00     17.93      61.7     0.46      1015.0     2       183         3         6        8.86     270      466.8
   03/11/2017 12:20      85.7      84.0       21     41.1      0.00     17.93      61.5     0.46      1015.0     3       256         4       271        8.86     270      470.4
   03/11/2017 12:10      84.9      84.4       21     40.7      0.00     17.93      61.8     0.46      1015.0     2        16         3        40        8.86     270      474.8
   03/11/2017 12:00      84.7      83.1       22     40.9      0.00     17.93      61.7     0.45      1015.0     2        23         3       294        8.86     270      477.2
   03/11/2017 11:50      82.7      81.6       23     40.9      0.00     17.93      61.7     0.46      1016.0     3       317         5       308        8.86     270      478.3
   03/11/2017 11:40      81.9      80.1       26     43.4      0.00     17.93      61.8     0.46      1016.0     2       226         4       286        8.86     270      481.0
   03/11/2017 11:30      80.9      79.8       26     42.3      0.00     17.93      61.9     0.46      1016.0     3       121         5       135        8.86     270      479.4
   03/11/2017 11:20      79.8      78.9       29     43.9      0.00     17.93      61.6     0.46      1016.0     3       167         5       165        8.86     270      475.5
   03/11/2017 11:10      80.1      79.1       27     42.6      0.00     17.93      61.7     0.46      1016.0     2       113         3       129        8.86     271      469.7
   03/11/2017 11:00      79.1      77.8       28     42.5      0.00     17.93      61.8     0.46      1016.0     3        94         5        53        8.86     272      465.8
   03/11/2017 10:50      77.5      76.3       31     43.5      0.00     17.93      62.0     0.46      1016.0     2       134         5       135        8.86     272      459.3
   03/11/2017 10:40      78.0      76.4       29     42.7      0.00     17.93      61.8     0.46      1016.0     2        61         3       104        8.86     272      450.0
   03/11/2017 10:30      76.9      75.7       31     43.4      0.00     17.93      61.9     0.46      1017.0     2        63         3       132        8.86     271      441.4
   03/11/2017 10:20      75.8      74.4       32     43.4      0.00     17.93      61.8     0.46      1017.0     2        95         4        97        8.86     272      432.1
   03/11/2017 10:10      75.5      74.1       32     42.6      0.00     17.93      61.7     0.46      1017.0     3        62         4        70        8.86     272      413.7
   03/11/2017 10:00      74.3      73.0       32     42.1      0.00     17.93      62.1     0.46      1017.0     3        39         4        60        8.86     272      404.5
   03/11/2017 09:50      73.2      72.8       33     42.3      0.00     17.93      62.0     0.46      1017.0     3       346         4       336        8.86     272      389.7
   03/11/2017 09:40      73.4      72.2       33     41.7      0.00     17.93      61.9     0.46      1017.0     2        41         4        65        8.86     273      376.6
   03/11/2017 09:30      72.5      71.8       34     42.2      0.00     17.93      61.9     0.46      1017.0     3        13         5         5        8.86     274      362.1
   03/11/2017 09:20      71.9      71.3       35     42.8      0.00     17.93      61.8     0.46      1017.0     2        28         4        14        8.86     274      345.9
   03/11/2017 09:10      71.8      71.4       35     42.7      0.00     17.93      61.9     0.46      1017.0     2        41         4        86        8.86     274      331.0
   03/11/2017 09:00      71.3      70.6       36     42.6      0.00     17.93      62.2     0.46      1017.0     2        61         3       113        8.86     274      314.7
   03/11/2017 08:50      70.9      70.3       36     42.6      0.00     17.93      62.2     0.46      1017.0     2        64         4        65        8.86     274      295.4
   03/11/2017 08:40      70.3      69.4       38     43.2      0.00     17.93      62.2     0.46      1017.0     2        67         3       111        8.86     274      279.7
   03/11/2017 08:30      69.5      66.6       45     45.8      0.00     17.93      62.4     0.46      1017.0     1        57         2       122        8.87     275      262.2
   03/11/2017 08:20      67.2      66.7       48     46.4      0.00     17.93      62.2     0.46      1017.0     2        11         2         4        8.87     279      242.8
   03/11/2017 08:10      67.0      65.1       51     47.5      0.00     17.93      62.1     0.46      1016.0     1        65         2        54        8.87     284      221.3
   03/11/2017 08:00      65.3      63.4       53     47.2      0.00     17.93      62.3     0.46      1016.0     1        41         2        68        8.87     287      196.5
   03/11/2017 07:50      63.3      61.0       55     46.0      0.00     17.93      62.6     0.46      1016.0     1       353         1       322        8.87     290      170.7
   03/11/2017 07:40      60.6      57.0       62     46.0      0.00     17.93      62.1     0.46      1016.0     1        14         1       332        8.87     292      141.0
   03/11/2017 07:30      57.0      56.4       66     45.6      0.00     17.93      62.5     0.46      1016.0     2        95         4       344        8.87     292      109.8
   03/11/2017 07:20      56.6      54.3       68     45.0      0.00     17.93      62.5     0.46      1016.0     1         9         3       341        8.87     293       78.7
   03/11/2017 07:10      54.1      52.2       74     44.9      0.00     17.93      62.3     0.46      1016.0     1       330         2       340        8.87     293        9.4
   03/11/2017 07:00      52.0      50.0       78     44.4      0.00     17.93      62.5     0.46      1016.0     1       141         3       158        8.87     293      -41.3
   03/11/2017 06:50      49.8      48.8       81     43.7      0.00     17.93      62.3     0.46      1016.0     2       135         2       133        8.87     292      -41.5
   03/11/2017 06:40      49.1      48.4       82     43.5      0.00     17.93      62.6     0.46      1016.0     2       140         3       146        8.87     291      -46.3
   03/11/2017 06:30      48.9      48.4       82     43.3      0.00     17.93      62.1     0.46      1016.0     1       159         3       142        8.87     291      -50.6
   03/11/2017 06:20      49.8      49.0       79     43.3      0.00     17.93      62.6     0.46      1016.0     1       355         2       325        8.87     290      -57.0
   03/11/2017 06:10      49.9      48.3       82     43.9      0.00     17.93      62.6     0.46      1016.0     2       293         3       314        8.87     289      -59.6
   03/11/2017 06:00      48.7      48.3       83     43.6      0.00     17.93      62.6     0.46      1016.0     1       124         2       133        8.87     287      -59.1
   03/11/2017 05:50      48.7      48.0       83     43.3      0.00     17.93      62.6     0.46      1016.0     3       141         3       147        8.87     287      -59.3
   03/11/2017 05:40      49.3      48.8       81     43.6      0.00     17.93      62.5     0.46      1016.0     2       184         3       200        8.88     287      -59.3
   03/11/2017 05:30      49.8      49.3       80     43.6      0.00     17.93      62.9     0.46      1016.0     1       174         2       198        8.88     285      -60.0
   03/11/2017 05:20      49.3      48.8       82     43.8      0.00     17.93      62.8     0.46      1016.0     2       181         3       154        8.88     284      -58.5
   03/11/2017 05:10      49.0      48.8       82     43.7      0.00     17.93      62.8     0.46      1016.0     1       160         2       150        8.88     284      -59.1
   03/11/2017 05:00      49.6      48.8       80     43.2      0.00     17.93      62.3     0.46      1015.0     1        57         2        39        8.88     284      -60.0
   03/11/2017 04:50      49.9      49.7       79     43.5      0.00     17.93      62.8     0.46      1015.0     0        79         1        21        8.88     283      -58.4
   03/11/2017 04:40      49.9      49.7       79     43.6      0.00     17.93      62.5     0.46      1015.0     1       141         1       141        8.88     282      -58.2
   03/11/2017 04:30      49.9      49.5       79     43.3      0.00     17.93      63.0     0.46      1015.0     1       208         1       199        8.88     282      -58.3
   03/11/2017 04:20      49.9      49.7       79     43.5      0.00     17.93      63.0     0.46      1015.0     1       137         2       147        8.88     281      -58.5
   03/11/2017 04:10      50.4      50.0       78     43.5      0.00     17.93      62.8     0.46      1015.0     1       130         1       141        8.88     281      -59.0
   03/11/2017 04:00      50.5      50.3       76     43.3      0.00     17.93      62.9     0.46      1015.0     0       286         1        98        8.88     280      -58.8
   03/11/2017 03:50      50.7      50.4       77     43.6      0.00     17.93      62.8     0.46      1015.0     1       147         1       154        8.88     280      -58.5
   03/11/2017 03:40      51.1      50.9       75     43.3      0.00     17.93      62.8     0.46      1015.0     0       257         1       271        8.88     279      -58.3
   03/11/2017 03:30      51.2      51.0       76     43.8      0.00     17.93      63.1     0.46      1015.0     0       183         1       212        8.88     279      -58.8
   03/11/2017 03:20      51.2      51.0       76     43.9      0.00     17.93      63.0     0.46      1015.0     1       170         1       150        8.88     279      -58.5
   03/11/2017 03:10      51.7      50.9       76     43.9      0.00     17.93      63.3     0.46      1015.0     1       124         2       134        8.88     279      -59.0
   03/11/2017 03:00      51.7      51.5       74     43.6      0.00     17.93      63.2     0.46      1015.0     1       181         1       197        8.88     278      -59.4
   03/11/2017 02:50      51.7      51.3       74     43.5      0.00     17.93      63.0     0.46      1015.0     1       194         1       256        8.88     278      -60.3
   03/11/2017 02:40      51.7      51.4       75     44.1      0.00     17.93      63.0     0.46      1015.0     1       164         1       142        8.88     278      -60.2
   03/11/2017 02:30      52.2      51.6       74     44.0      0.00     17.93      63.0     0.47      1015.0     0       117         1       117        8.88     277      -60.7
   03/11/2017 02:20      52.5      52.1       73     44.1      0.00     17.93      63.2     0.46      1015.0     0       113         1       126        8.88     277      -60.4
   03/11/2017 02:10      52.4      52.2       74     44.3      0.00     17.93      63.4     0.47      1015.0     1       154         1       155        8.88     277      -60.9
   03/11/2017 02:00      52.7      52.2       74     44.3      0.00     17.93      63.3     0.46      1016.0     1       161         2       139        8.88     276      -60.6
   03/11/2017 01:50      53.2      52.6       70     43.5      0.00     17.93      63.5     0.47      1016.0     1       170         1       237        8.88     276      -61.4
   03/11/2017 01:40      54.1      53.1       68     43.3      0.00     17.93      63.7     0.47      1016.0     1       186         2       135        8.88     276      -61.3
   03/11/2017 01:30      54.1      53.5       68     43.5      0.00     17.93      63.4     0.47      1016.0     1       213         1       211        8.88     275      -61.8
   03/11/2017 01:20      54.0      53.5       67     43.3      0.00     17.93      63.2     0.47      1016.0     0       178         1       136        8.88     275      -62.1
   03/11/2017 01:10      54.2      54.0       68     43.9      0.00     17.93      63.5     0.47      1016.0     1       100         1       115        8.88     274      -61.6
   03/11/2017 01:00      54.3      53.7       69     44.0      0.00     17.93      63.4     0.47      1016.0     2       142         2       152        8.88     274      -61.0
   03/11/2017 00:50      55.1      54.6       65     43.5      0.00     17.93      63.5     0.46      1016.0     2       163         3       136        8.88     274      -61.2
   03/11/2017 00:40      55.5      55.1       64     43.4      0.00     17.93      63.2     0.47      1016.0     1       156         2       148        8.88     274      -60.9
   03/11/2017 00:30      55.7      55.5       63     43.1      0.00     17.93      63.3     0.47      1016.0     1       231         1       238        8.89     274      -60.5
   03/11/2017 00:20      55.6      55.4       65     44.0      0.00     17.93      63.1     0.47      1016.0     1       176         1       143        8.89     273      -60.4
   03/11/2017 00:10      56.1      55.7       63     43.7      0.00     17.93      63.5     0.47      1016.0     1       158         2       134        8.89     273      -60.8
   03/11/2017 00:00      56.5      56.0       64     44.2      0.00     17.93      63.2     0.47      1016.0     1       145         2       139        8.89     273      -61.6
   03/10/2017 23:50      57.3      56.8       61     43.7      0.00     17.93      63.2     0.47      1016.0     1       189         1       231        8.89     273      -61.4
   03/10/2017 23:40      57.5      57.2       61     44.0      0.00     17.93      63.5     0.47      1016.0     1       167         1       152        8.89     273      -61.8
   03/10/2017 23:30      57.7      57.4       60     43.9      0.00     17.93      63.1     0.47      1016.0     1       165         1       157        8.89     272      -61.5
   03/10/2017 23:20      57.5      57.3       62     44.4      0.00     17.93      63.4     0.47      1016.0     1       181         2       144        8.89     272      -62.9
   03/10/2017 23:10      58.1      57.7       60     44.2      0.00     17.93      63.1     0.47      1016.0     1       152         2       198        8.89     272      -63.1
   03/10/2017 23:00      58.6      58.0       59     44.2      0.00     17.93      63.4     0.47      1016.0     1       189         2       143        8.89     272      -63.1
   03/10/2017 22:50      59.3      58.6       58     44.3      0.00     17.93      63.4     0.47      1016.0     1       152         2       128        8.89     272      -63.3
   03/10/2017 22:40      59.9      59.1       57     44.1      0.00     17.93      63.3     0.47      1016.0     1       192         1       166        8.89     272      -63.6
   03/10/2017 22:30      60.6      60.0       55     44.1      0.00     17.93      63.3     0.47      1016.0     1       133         2       141        8.89     272      -62.9
   03/10/2017 22:20      60.9      60.6       52     43.4      0.00     17.93      63.6     0.47      1016.0     1       205         2       239        8.89     272      -57.1
   03/10/2017 22:10      61.4      60.9       52     43.6      0.00     17.93      63.4     0.47      1016.0     1       158         2       128        8.89     271      -49.3
   03/10/2017 22:00      61.9      61.3       53     44.0      0.00     17.93      63.4     0.47      1016.0     1       163         2       142        8.89     271      -46.0
   03/10/2017 21:50      62.2      61.7       51     43.6      0.00     17.93      63.4     0.46      1016.0     1       177         1       137        8.90     271      -44.3
   03/10/2017 21:40      61.9      61.6       54     44.8      0.00     17.93      63.3     0.47      1016.0     1       181         2       130        8.90     271      -46.4
   03/10/2017 21:30      62.5      62.0       54     45.3      0.00     17.93      63.3     0.47      1016.0     2       142         2       145        8.90     271      -47.2
   03/10/2017 21:20      62.9      62.6       50     44.0      0.00     17.93      63.4     0.47      1016.0     1       167         2       188        8.90     271      -45.5
   03/10/2017 21:10      62.9      62.8       52     44.7      0.00     17.93      63.3     0.47      1016.0     1       133         1       142        8.90     271      -40.4
   03/10/2017 21:00      63.4      62.9       52     45.2      0.00     17.93      63.4     0.47      1016.0     1       130         2       138        8.90     271      -38.3
   03/10/2017 20:50      63.7      63.2       51     44.9      0.00     17.93      63.1     0.47      1016.0     2       188         2       193        8.90     271      -39.4
   03/10/2017 20:40      64.0      63.5       49     44.4      0.00     17.93      63.1     0.46      1016.0     1       163         2       144        8.90     271      -41.4
   03/10/2017 20:30      64.3      63.5       49     44.5      0.00     17.93      63.1     0.47      1016.0     1       167         2       213        8.90     271      -45.0
   03/10/2017 20:20      63.8      63.4       51     45.3      0.00     17.93      63.2     0.47      1016.0     1       106         2       118        8.90     271      -45.3
   03/10/2017 20:10      64.6      63.5       49     44.9      0.00     17.93      63.2     0.47      1016.0     2       148         3       147        8.90     271      -45.3
   03/10/2017 20:00      65.1      64.8       47     44.4      0.00     17.93      63.3     0.47      1016.0     0        51         1        36        8.90     271      -47.8
   03/10/2017 19:50      65.5      64.8       47     44.6      0.00     17.93      63.0     0.47      1015.0     1       155         1        30        8.90     271      -50.0
   03/10/2017 19:40      66.0      65.4       47     45.0      0.00     17.93      63.1     0.47      1015.0     1       109         1       127        8.91     271      -54.9
   03/10/2017 19:30      66.4      66.2       46     45.1      0.00     17.93      63.1     0.46      1015.0     1       157         2       139        8.91     270      -54.9
   03/10/2017 19:20      66.6      66.2       46     44.9      0.00     17.93      63.2     0.47      1015.0     2       176         2       168        8.91     270      -49.0
   03/10/2017 19:10      67.5      66.9       43     44.0      0.00     17.93      63.0     0.46      1015.0     1       204         2       197        8.92     270      -48.4
   03/10/2017 19:00      67.8      67.6       42     43.6      0.00     17.93      63.0     0.46      1015.0     1       211         1       192        8.92     270      -50.6
   03/10/2017 18:50      69.1      68.3       41     43.9      0.00     17.93      62.8     0.46      1015.0     1       176         1       142        8.92     270      -58.0
   03/10/2017 18:40      70.0      68.8       40     44.2      0.00     17.93      62.8     0.46      1015.0     1       225         1       212        8.92     270      -64.2
   03/10/2017 18:30      71.1      69.9       38     43.4      0.00     17.93      62.8     0.46      1015.0     1       154         2       203        8.93     270      -66.5
   03/10/2017 18:20      72.8      71.5       35     42.9      0.00     17.93      62.8     0.46      1015.0     2       193         3       211        8.93     269      -68.0
   03/10/2017 18:10      73.2      72.7       34     42.6      0.00     17.93      62.7     0.46      1015.0     2       222         4       222        8.93     270      -70.2
   03/10/2017 18:00      73.8      73.2       33     42.3      0.00     17.93      62.6     0.46      1015.0     3       221         5       216        8.93     269      -70.5
   03/10/2017 17:50      74.2      73.7       32     42.6      0.00     17.93      62.5     0.46      1015.0     3       225         3       201        8.94     269      -65.8
   03/10/2017 17:40      74.6      74.3       33     43.1      0.00     17.93      62.5     0.46      1015.0     3       211         4       195        8.94     269      -61.5
   03/10/2017 17:30      75.5      74.8       32     43.4      0.00     17.93      62.5     0.46      1015.0     2       207         4       196        8.94     269      -52.1
   03/10/2017 17:20      77.1      75.9       30     42.6      0.00     17.93      62.5     0.46      1015.0     3       224         5       208        8.94     269      -30.1
   03/10/2017 17:10      77.7      77.3       28     41.9      0.00     17.93      62.4     0.46      1015.0     3       228         4       251        8.94     269        9.1
   03/10/2017 17:00      77.7      77.3       28     41.8      0.00     17.93      62.3     0.46      1015.0     2       226         4       195        8.95     269       35.7
   03/10/2017 16:50      77.9      77.2       28     41.9      0.00     17.93      62.2     0.46      1015.0     2       253         4       240        8.95     269       31.9
   03/10/2017 16:40      77.8      77.5       27     41.0      0.00     17.93      62.3     0.46      1015.0     3       293         4       277        8.95     269       24.5
   03/10/2017 16:30      77.9      77.7       27     40.9      0.00     17.93      62.0     0.46      1015.0     3       294         6       269        8.95     268       37.0
   03/10/2017 16:20      78.1      77.8       27     41.2      0.00     17.93      62.0     0.46      1015.0     4       277         5       299        8.95     269       48.5
   03/10/2017 16:10      78.5      77.8       27     41.8      0.00     17.93      62.1     0.46      1015.0     5       276         6       252        8.95     268       58.0
   03/10/2017 16:00      79.2      78.3       29     43.6      0.00     17.93      61.9     0.46      1015.0     4       286         7       272        8.96     269       72.4
   03/10/2017 15:50      79.2      79.0       30     45.0      0.00     17.93      61.8     0.46      1015.0     5       294         9       313        8.96     269       80.1
   03/10/2017 15:40      79.8      79.2       29     44.9      0.00     17.93      61.7     0.46      1015.0     6       304         9       309        8.96     268       79.7
   03/10/2017 15:30      80.9      79.9       29     45.4      0.00     17.93      61.7     0.46      1015.0     6       305        10       308        8.96     269      120.0
   03/10/2017 15:20      81.3      80.9       29     46.0      0.00     17.93      61.7     0.46      1015.0     5       303         6       280        8.97     269      175.9
   03/10/2017 15:10      81.5      81.2       29     46.4      0.00     17.93      61.6     0.46      1015.0     5       305         7       295        8.97     269      179.9
   03/10/2017 15:00      82.3      81.5       29     46.8      0.00     17.93      61.5     0.46      1015.0     4       296         6       258        8.97     269      192.5
   03/10/2017 14:50      82.4      81.7       30     47.7      0.00     17.93      61.4     0.46      1015.0     4       292         7       302        8.97     269      234.9
   03/10/2017 14:40      82.4      81.9       28     46.0      0.00     17.93      61.3     0.46      1015.0     4       279         8       266        8.97     269      258.5
   03/10/2017 14:30      82.7      82.3       23     41.0      0.00     17.93      61.2     0.46      1015.0     4       252         6       244        8.97     269      185.8
   03/10/2017 14:20      82.8      81.8       23     41.1      0.00     17.93      61.2     0.46      1015.0     5       282         7       275        8.97     269      232.0
   03/10/2017 14:10      82.4      81.8       25     42.6      0.00     17.93      61.2     0.46      1016.0     3       220         4       239        8.97     269      217.4
   03/10/2017 14:00      82.1      81.3       25     42.3      0.00     17.93      61.3     0.46      1016.0     2       195         4       179        8.97     269      179.4
   03/10/2017 13:50      82.9      82.6       24     42.7      0.00     17.93      61.1     0.46      1016.0     1       203         4       186        8.97     269      160.1
   03/10/2017 13:40      84.6      83.0       23     41.5      0.00     17.93      61.0     0.46      1016.0     2       224         5       195        8.97     270      336.5
   03/10/2017 13:30      82.9      82.3       24     41.8      0.00     17.93      61.0     0.46      1016.0     3       252         5       209        8.97     270      384.7
   03/10/2017 13:20      83.0      82.4       23     41.5      0.00     17.93      61.0     0.46      1016.0     2       261         4       271        8.97     270      380.0
   03/10/2017 13:10      83.3      82.4       22     40.2      0.00     17.93      60.9     0.46      1016.0     2       303         3         7        8.97     270      379.4
   03/10/2017 13:00      82.5      81.2       23     40.7      0.00     17.93      61.0     0.46      1016.0     3       260         4       193        8.97     270      389.6
   03/10/2017 12:50      82.6      81.6       21     38.5      0.00     17.93      60.9     0.46      1016.0     2        40         3       345        8.97     270      373.1
   03/10/2017 12:40      82.6      80.5       23     39.7      0.00     17.93      60.8     0.46      1017.0     2       310         4       301        8.97     270      429.4
   03/10/2017 12:30      81.1      80.4       23     39.6      0.00     17.93      60.8     0.46      1017.0     2       223         4       218        8.97     270      451.1
   03/10/2017 12:20      80.8      80.4       22     38.3      0.00     17.93      60.7     0.46      1017.0     2       274         5       257        8.97     270      419.0
   03/10/2017 12:10      81.4      80.7       22     38.9      0.00     17.93      60.9     0.46      1017.0     3       326         5       316        8.97     270      486.3
   03/10/2017 12:00      81.0      80.3       25     41.1      0.00     17.93      60.8     0.46      1017.0     3         6         5         0        8.97     271      515.5
   03/10/2017 11:50      80.4      78.8       25     40.8      0.00     17.93      60.6     0.46      1018.0     2       322         4       332        8.97     270      338.2
   03/10/2017 11:40      78.9      78.0       26     40.9      0.00     17.93      60.8     0.46      1018.0     2       275         4       315        8.97     271      385.0
   03/10/2017 11:30      78.6      77.8       27     41.1      0.00     17.93      60.6     0.46      1018.0     2       270         3       254        8.97     270      225.4
   03/10/2017 11:20      79.0      78.4       27     41.7      0.00     17.93      60.7     0.46      1018.0     2       292         3       262        8.97     271      386.4
   03/10/2017 11:10      78.3      77.5       26     40.8      0.00     17.93      60.7     0.46      1018.0     2       328         3       222        8.97     271      444.5
   03/10/2017 11:00      77.5      75.8       29     42.2      0.00     17.93      60.7     0.46      1018.0     3       310         4       314        8.97     272      402.4
   03/10/2017 10:50      75.8      74.9       32     43.2      0.00     17.93      60.9     0.46      1018.0     3       299         4       318        8.97     272      497.3
   03/10/2017 10:40      75.0      74.5       34     44.1      0.00     17.93      60.9     0.46      1018.0     2       255         3       305        8.97     271      199.0
   03/10/2017 10:30      74.8      74.0       33     43.7      0.00     17.93      60.8     0.46      1018.0     2       251         3       234        8.97     271      293.9
   03/10/2017 10:20      74.2      73.6       33     43.1      0.00     17.93      60.8     0.46      1019.0     2       314         3       309        8.97     272      377.0
   03/10/2017 10:10      73.9      72.5       34     43.2      0.00     17.93      60.9     0.46      1019.0     1       293         3       346        8.97     272      416.6
   03/10/2017 10:00      72.5      72.2       38     45.1      0.00     17.93      60.9     0.46      1019.0     2       208         3       319        8.97     272      397.1
   03/10/2017 09:50      72.7      70.8       38     44.9      0.00     17.93      61.0     0.46      1019.0     1       221         2       228        8.97     273      390.8
   03/10/2017 09:40      70.7      69.3       39     43.8      0.00     17.93      60.8     0.46      1019.0     1       344         2       355        8.97     273      273.3
   03/10/2017 09:30      70.1      69.2       39     43.4      0.00     17.93      60.9     0.46      1019.0     1       325         2       314        8.97     273      236.1
   03/10/2017 09:20      70.0      68.1       40     43.8      0.00     17.93      60.8     0.46      1019.0     1       334         3       275        8.97     274      258.8
   03/10/2017 09:10      68.4      67.0       43     44.3      0.00     17.93      61.2     0.46      1019.0     1       245         2       205        8.97     274      340.6
   03/10/2017 09:00      67.0      65.5       45     44.5      0.00     17.93      60.9     0.46      1019.0     1       286         2       271        8.97     274      268.6
   03/10/2017 08:50      65.7      65.0       47     44.7      0.00     17.93      61.3     0.46      1019.0     1       285         2       291        8.97     275      204.8
   03/10/2017 08:40      65.5      65.0       48     44.7      0.00     17.93      61.1     0.46      1019.0     1       353         2       357        8.97     275      125.5
   03/10/2017 08:30      65.3      63.5       51     45.9      0.00     17.93      61.0     0.46      1019.0     1       300         2       341        8.98     275      159.9
   03/10/2017 08:20      63.5      61.0       54     45.5      0.00     17.93      61.3     0.46      1019.0     1       358         2        74        8.98     276      280.0
   03/10/2017 08:10      61.2      59.7       57     45.1      0.00     17.93      61.2     0.46      1019.0     1       340         2       332        8.98     277      224.7
   03/10/2017 08:00      59.6      58.0       60     45.0      0.00     17.93      61.2     0.46      1019.0     1       347         2       324        8.98     279      211.4
   03/10/2017 07:50      57.8      55.0       67     45.5      0.00     17.93      61.1     0.46      1019.0     1       343         2       342        8.98     280      150.1
   03/10/2017 07:40      54.6      52.1       77     46.0      0.00     17.93      61.3     0.46      1019.0     1       161         2       156        8.98     282      114.4
   03/10/2017 07:30      52.1      51.7       77     44.7      0.00     17.93      61.4     0.46      1019.0     1       131         2       143        8.99     283        1.9
   03/10/2017 07:20      52.0      51.8       75     44.1      0.00     17.93      61.3     0.46      1019.0     1        55         1        76        8.99     283      -11.2
   03/10/2017 07:10      52.2      51.1       74     43.8      0.00     17.93      61.2     0.46      1019.0     1       206         2       189        8.99     285      -20.8
   03/10/2017 07:00      51.0      50.6       78     44.0      0.00     17.93      61.0     0.46      1018.0     1       144         1       136        8.99     285      -24.9
   03/10/2017 06:50      50.6      50.1       77     43.6      0.00     17.93      61.4     0.46      1018.0     0        94         1       103        8.99     285      -24.7
   03/10/2017 06:40      50.2      49.3       79     43.6      0.00     17.93      61.3     0.46      1018.0     0       123         1       262        8.99     284      -25.8
   03/10/2017 06:30      49.4      49.2       80     43.3      0.00     17.93      61.2     0.46      1018.0     1        93         1       101        8.99     284      -33.7
   03/10/2017 06:20      49.5      49.2       79     43.1      0.00     17.93      61.6     0.46      1018.0     1        95         1       127        8.99     283      -39.7
   03/10/2017 06:10      49.4      49.3       79     42.9      0.00     17.93      61.4     0.46      1018.0     1       126         1       132        8.99     283      -40.6
   03/10/2017 06:00      49.5      49.2       78     42.9      0.00     17.93      61.4     0.46      1018.0     1       239         2       253        8.99     284      -46.5
   03/10/2017 05:50      49.8      49.2       78     42.9      0.00     17.93      61.5     0.46      1018.0     1       117         2       132        8.99     283      -50.1
   03/10/2017 05:40      49.5      49.3       78     42.8      0.00     17.93      61.5     0.46      1018.0     2       124         2       128        8.99     284      -51.8
   03/10/2017 05:30      49.3      48.8       80     42.9      0.00     17.93      61.6     0.46      1018.0     1       169         3       150        8.99     284      -53.1
   03/10/2017 05:20      49.3      49.1       78     42.7      0.00     17.93      61.4     0.46      1018.0     1       170         2       134        8.99     283      -54.4
   03/10/2017 05:10      49.5      49.0       77     42.5      0.00     17.93      61.6     0.46      1018.0     1       203         2       199        8.99     283      -55.7
   03/10/2017 05:00      49.4      49.1       77     42.3      0.00     17.93      61.6     0.46      1018.0     1       190         2       143        8.99     282      -56.1
   03/10/2017 04:50      49.5      49.4       76     42.1      0.00     17.93      61.6     0.46      1018.0     1       168         1       143        8.99     281      -57.0
   03/10/2017 04:40      49.8      49.2       75     41.9      0.00     17.93      61.8     0.46      1018.0     1       187         1       188        8.99     281      -58.0
   03/10/2017 04:30      49.9      49.1       75     42.0      0.00     17.93      61.5     0.46      1018.0     1       115         1       113        8.99     280      -59.0
   03/10/2017 04:20      50.1      49.8       74     42.0      0.00     17.93      61.9     0.46      1018.0     0       332         1         1        8.99     279      -59.0
   03/10/2017 04:10      50.1      49.9       74     42.0      0.00     17.93      61.8     0.46      1018.0     1       207         2       139        8.99     278      -58.7
   03/10/2017 04:00      50.4      49.7       76     42.6      0.00     17.93      61.6     0.46      1018.0     1       239         2       185        8.99     278      -59.3
   03/10/2017 03:50      50.4      49.7       75     42.5      0.00     17.93      61.6     0.46      1018.0     1        82         1       135        9.00     278      -59.3
   03/10/2017 03:40      50.4      50.2       74     42.3      0.00     17.93      62.0     0.46      1018.0     1       171         1       136        9.00     278      -58.6
   03/10/2017 03:30      50.8      50.4       73     42.2      0.00     17.93      61.8     0.46      1018.0     1       132         2       133        9.00     278      -59.1
   03/10/2017 03:20      50.8      50.7       72     42.0      0.00     17.93      62.0     0.46      1018.0     1       142         1       151        9.00     277      -58.9
   03/10/2017 03:10      51.6      50.7       71     42.0      0.00     17.93      61.8     0.46      1018.0     1       141         1       123        9.00     276      -59.3
   03/10/2017 03:00      51.6      51.2       70     42.0      0.00     17.93      62.1     0.46      1017.0     0       224         1       274        9.00     276      -58.6
   03/10/2017 02:50      52.0      51.7       69     41.8      0.00     17.93      62.0     0.46      1017.0     1       219         2       248        9.00     276      -57.9
   03/10/2017 02:40      52.2      51.4       69     41.9      0.00     17.93      62.1     0.46      1017.0     1       203         1       200        9.00     276      -57.9
   03/10/2017 02:30      51.9      51.3       70     42.2      0.00     17.93      61.8     0.46      1018.0     1       140         2       140        9.00     275      -59.2
   03/10/2017 02:20      52.6      52.1       67     41.9      0.00     17.93      62.1     0.46      1018.0     1        46         2        94        9.00     275      -60.1
   03/10/2017 02:10      52.6      51.8       68     41.8      0.00     17.93      62.2     0.46      1018.0     2       203         2       120        9.00     275      -59.5
   03/10/2017 02:00      52.6      52.2       66     41.7      0.00     17.93      62.3     0.46      1018.0     2       176         3       149        9.00     274      -60.2
   03/10/2017 01:50      52.8      52.5       67     42.0      0.00     17.93      62.1     0.46      1018.0     1       316         1       304        9.00     274      -61.3
   03/10/2017 01:40      52.9      52.4       67     42.1      0.00     17.93      61.9     0.46      1018.0     1       235         2       154        9.00     274      -60.4
   03/10/2017 01:30      53.0      52.5       67     42.3      0.00     17.93      62.4     0.46      1018.0     2       127         2       121        9.00     274      -60.8
   03/10/2017 01:20      53.1      52.6       67     42.3      0.00     17.93      62.0     0.46      1019.0     1       168         2       148        9.00     274      -60.7
   03/10/2017 01:10      53.3      53.0       65     41.8      0.00     17.93      62.0     0.46      1019.0     1       177         2       206        9.00     274      -60.8
   03/10/2017 01:00      54.2      53.4       63     41.4      0.00     17.93      62.3     0.46      1019.0     2       162         2       142        9.00     273      -61.5
   03/10/2017 00:50      54.2      53.8       62     41.5      0.00     17.93      62.1     0.46      1019.0     1       259         2       236        9.01     273      -61.6
   03/10/2017 00:40      54.7      54.4       60     41.1      0.00     17.93      62.0     0.46      1019.0     0       210         1       209        9.01     273      -61.9
   03/10/2017 00:30      54.7      54.4       60     41.1      0.00     17.93      62.1     0.46      1019.0     1       205         1       176        9.01     273      -61.2
   03/10/2017 00:20      54.5      54.2       62     41.5      0.00     17.93      62.2     0.46      1019.0     1       150         1       143        9.01     272      -61.7
   03/10/2017 00:10      54.8      54.5       62     41.8      0.00     17.93      62.2     0.46      1019.0     1       119         2       124        9.01     272      -61.9
   03/10/2017 00:00      54.8      54.4       61     41.6      0.00     17.93      62.4     0.46      1019.0     2       140         3       142        9.01     272      -61.7
   03/09/2017 23:50      55.3      54.7       60     41.5      0.00     17.93      62.1     0.46      1019.0     2       139         3       138        9.01     272      -61.5
   03/09/2017 23:40      56.1      55.5       58     41.3      0.00     17.93      61.9     0.46      1019.0     1        97         2       129        9.01     272      -62.1
   03/09/2017 23:30      56.6      56.0       57     41.5      0.00     17.93      62.3     0.46      1019.0     1        85         1       128        9.01     272      -62.1
   03/09/2017 23:20      57.0      56.9       55     41.1      0.00     17.93      62.1     0.46      1018.0     1       148         1       144        9.01     272      -61.6
   03/09/2017 23:10      57.6      57.1       55     41.4      0.00     17.93      62.3     0.46      1018.0     1       142         1       157        9.01     272      -62.3
   03/09/2017 23:00      57.5      57.0       55     41.3      0.00     17.93      62.0     0.46      1018.0     1       172         1       160        9.01     272      -61.9
   03/09/2017 22:50      57.9      57.2       56     42.0      0.00     17.93      62.2     0.46      1018.0     1       117         1       140        9.01     271      -62.4
   03/09/2017 22:40      58.6      58.2       53     41.2      0.00     17.93      62.3     0.46      1018.0     1       163         2       148        9.01     271      -61.6
   03/09/2017 22:30      58.6      57.9       52     40.9      0.00     17.93      62.0     0.46      1018.0     1       184         1       177        9.01     271      -62.6
   03/09/2017 22:20      58.3      57.9       54     41.4      0.00     17.93      62.0     0.46      1018.0     1       147         1       134        9.02     271      -63.8
   03/09/2017 22:10      59.1      58.5       52     41.2      0.00     17.93      62.2     0.46      1018.0     1       154         2       129        9.02     271      -64.4
   03/09/2017 22:00      59.1      58.0       53     41.3      0.00     17.93      62.1     0.46      1018.0     1       189         1       144        9.02     271      -65.0
   03/09/2017 21:50      58.8      58.3       54     41.8      0.00     17.93      62.1     0.46      1018.0     2       151         2       157        9.02     271      -65.8
   03/09/2017 21:40      59.9      58.9       51     41.1      0.00     17.93      62.1     0.46      1018.0     1       170         2       159        9.02     270      -66.0
   03/09/2017 21:30      60.1      59.9       48     40.5      0.00     17.93      62.0     0.46      1018.0     1       187         2       181        9.02     270      -66.2
   03/09/2017 21:20      60.9      60.2       47     40.4      0.00     17.93      62.0     0.46      1018.0     1       233         2       225        9.03     270      -66.0
   03/09/2017 21:10      60.0      59.3       51     41.6      0.00     17.93      62.2     0.46      1018.0     1       151         2       130        9.03     270      -67.2
   03/09/2017 21:00      61.1      59.7       51     42.0      0.00     17.93      62.3     0.46      1018.0     2       128         2       120        9.03     270      -68.2
   03/09/2017 20:50      62.1      61.2       45     40.2      0.00     17.93      61.9     0.46      1018.0     2       178         2       178        9.03     270      -66.8
   03/09/2017 20:40      62.7      62.2       44     40.4      0.00     17.93      61.8     0.46      1018.0     1       111         1       126        9.03     270      -68.1
   03/09/2017 20:30      63.6      63.0       42     40.1      0.00     17.93      62.1     0.46      1018.0     1        19         2       321        9.04     270      -69.2
   03/09/2017 20:20      64.9      63.7       41     40.1      0.00     17.93      61.9     0.46      1018.0     1       329         1       316        9.04     269      -69.9
   03/09/2017 20:10      65.0      64.8       40     39.9      0.00     17.93      62.0     0.46      1018.0     1       223         1       241        9.04     269      -70.8
   03/09/2017 20:00      66.2      65.2       39     40.0      0.00     17.93      61.9     0.46      1018.0     1        94         1       160        9.04     269      -73.0
   03/09/2017 19:50      68.1      66.4       37     40.3      0.00     17.93      61.9     0.46      1018.0     1        46         2        92        9.04     269      -74.9
   03/09/2017 19:40      68.9      68.2       35     39.8      0.00     17.93      61.7     0.46      1018.0     1       172         3       195        9.05     269      -77.5
   03/09/2017 19:30      69.5      69.0       34     39.9      0.00     17.93      61.8     0.46      1018.0     3       194         5       188        9.05     269      -79.3
   03/09/2017 19:20      69.9      69.7       34     40.4      0.00     17.93      61.7     0.46      1018.0     3       206         6       223        9.05     269      -80.6
   03/09/2017 19:10      70.3      70.1       35     41.3      0.00     17.93      61.7     0.46      1018.0     3       207         6       199        9.05     269      -82.1
   03/09/2017 19:00      70.7      70.4       35     41.6      0.00     17.93      61.7     0.46      1018.0     4       202         6       207        9.06     269      -81.7
   03/09/2017 18:50      71.4      70.8       35     42.0      0.00     17.93      61.6     0.46      1017.0     3       208         5       211        9.06     269      -82.2
   03/09/2017 18:40      72.0      71.4       34     42.2      0.00     17.93      61.6     0.46      1017.0     2       212         3       230        9.06     268      -84.4
   03/09/2017 18:30      72.8      72.1       34     42.8      0.00     17.93      61.6     0.46      1017.0     3       240         4       256        9.06     268      -86.5
   03/09/2017 18:20      73.2      72.8       34     42.7      0.00     17.93      61.4     0.46      1017.0     3       237         6       237        9.06     268      -85.9
   03/09/2017 18:10      75.1      73.3       31     41.1      0.00     17.93      61.4     0.46      1017.0     3       236         4       258        9.07     268      -88.2
   03/09/2017 18:00      76.5      75.2       28     40.8      0.00     17.93      61.4     0.46      1017.0     4       265         6       256        9.07     268      -90.3
   03/09/2017 17:50      78.2      76.8       29     43.2      0.00     17.93      61.4     0.46      1017.0     3       289         4       286        9.07     268      -88.6
   03/09/2017 17:40      80.1      78.4       28     42.8      0.00     17.93      61.3     0.46      1017.0     4       291         7       313        9.07     267      -85.6
   03/09/2017 17:30      81.1      80.5       22     38.9      0.00     17.93      61.3     0.46      1016.0     4       283         5       315        9.07     267      -71.7
   03/09/2017 17:20      80.9      80.3       22     38.0      0.00     17.93      61.1     0.46      1016.0     3       226         5       173        9.07     267      -45.8
   03/09/2017 17:10      81.5      81.0       21     38.0      0.00     17.93      61.0     0.46      1016.0     4       161         7       152        9.07     267      -23.6
   03/09/2017 17:00      81.8      81.5       20     37.1      0.00     17.93      61.1     0.46      1016.0     5       151         7       158        9.07     267        0.5
   03/09/2017 16:50      82.5      81.8       20     37.2      0.00     17.93      60.8     0.46      1016.0     5       163         8       144        9.07     267       26.3
   03/09/2017 16:40      83.0      82.7       18     35.3      0.00     17.93      60.9     0.46      1016.0     5       144         8       127        9.07     267       51.6
   03/09/2017 16:30      83.4      83.1       17     34.6      0.00     17.93      60.8     0.46      1016.0     6       142         8       129        9.07     267       77.9
   03/09/2017 16:20      83.6      83.1       18     35.1      0.00     17.93      60.8     0.46      1016.0     7       142        10       134        9.07     267      105.2
   03/09/2017 16:10      83.9      83.2       18     35.6      0.00     17.93      60.7     0.46      1016.0     6       155         9       128        9.07     268      131.0
   03/09/2017 16:00      85.5      84.0       17     34.6      0.00     17.93      60.5     0.46      1016.0     5       148         9       161        9.07     268      152.5
   03/09/2017 15:50      85.9      85.0       16     33.7      0.00     17.93      60.5     0.46      1016.0     4       123         9       114        9.07     268      173.3
   03/09/2017 15:40      86.1      85.7       15     33.4      0.00     17.93      60.3     0.46      1016.0     5       108         7       128        9.07     269      195.8
   03/09/2017 15:30      86.5      85.9       16     34.5      0.00     17.93      60.4     0.46      1016.0     3       120         6       102        9.07     269      207.2
   03/09/2017 15:20      86.2      85.9       16     35.3      0.00     17.93      60.3     0.46      1016.0     5       116         7       127        9.08     269      218.1
   03/09/2017 15:10      87.0      86.3       16     35.7      0.00     17.93      60.2     0.46      1016.0     3       119         5       127        9.08     269      240.0
   03/09/2017 15:00      87.6      86.5       17     37.4      0.00     17.93      60.1     0.46      1016.0     3       123         6       143        9.08     269      257.9
   03/09/2017 14:50      88.4      86.6       19     40.0      0.00     17.93      60.2     0.46      1016.0     2       165         3       123        9.08     269      274.8
   03/09/2017 14:40      89.6      87.7       17     37.9      0.00     17.93      60.0     0.46      1016.0     1       216         3       255        9.08     269      292.1
   03/09/2017 14:30      87.7      87.4       17     36.8      0.00     17.93      59.9     0.46      1016.0     2        29         3        14        9.08     269      317.3
   03/09/2017 14:20      87.7      86.5       18     38.0      0.00     17.93      59.9     0.46      1016.0     3       336         4       325        9.08     269      337.8
   03/09/2017 14:10      87.1      86.3       18     37.5      0.00     17.93      59.9     0.46      1016.0     3         9         4        14        9.08     270      352.8
   03/09/2017 14:00      87.1      86.3       17     37.2      0.00     17.93      59.8     0.46      1016.0     3        65         5        84        9.08     270      371.3
   03/09/2017 13:50      86.5      86.0       17     36.8      0.00     17.93      59.6     0.46      1016.0     3       351         5       283        9.08     270      385.9
   03/09/2017 13:40      86.5      86.1       17     36.9      0.00     17.93      59.5     0.46      1016.0     3       335         4       339        9.08     270      399.1
   03/09/2017 13:30      86.5      85.7       15     33.8      0.00     17.93      59.4     0.46      1017.0     3        25         4        16        9.08     270      411.4
   03/09/2017 13:20      87.0      86.3       16     35.6      0.00     17.93      59.4     0.46      1017.0     4        50         5        30        9.08     270      423.4
   03/09/2017 13:10      86.8      85.7       17     35.8      0.00     17.93      59.4     0.46      1017.0     3       315         5        21        9.08     270      434.4
   03/09/2017 13:00      86.8      86.2       17     36.4      0.00     17.93      59.3     0.46      1017.0     3        59         7        66        9.08     270      447.7
   03/09/2017 12:50      86.5      83.8       18     37.2      0.00     17.93      59.4     0.46      1017.0     4        48         6        68        9.08     270      454.0
   03/09/2017 12:40      84.6      83.3       21     39.5      0.00     17.93      59.3     0.46      1017.0     3       153         6       176        9.08     270      464.6
   03/09/2017 12:30      84.4      83.3       20     38.6      0.00     17.93      59.3     0.45      1017.0     4       164         5       166        9.08     270      470.0
   03/09/2017 12:20      84.7      83.0       19     37.5      0.00     17.93      59.2     0.45      1018.0     3       108         4       101        9.08     270      470.6
   03/09/2017 12:10      84.9      82.5       22     40.2      0.00     17.93      59.3     0.45      1018.0     3       151         6       157        9.08     270      472.4
   03/09/2017 12:00      85.0      83.6       20     39.1      0.00     17.93      59.2     0.45      1018.0     2       127         6       111        9.08     270      472.8
   03/09/2017 11:50      84.3      83.8       20     39.0      0.00     17.93      59.2     0.45      1018.0     2       157         6       101        9.08     271      471.8
   03/09/2017 11:40      83.7      82.5       20     37.7      0.00     17.93      59.2     0.45      1018.0     3        83         4        65        9.08     271      471.4
   03/09/2017 11:30      83.2      82.4       20     37.3      0.00     17.93      59.2     0.45      1018.0     3        77         4        73        9.08     271      465.2
   03/09/2017 11:20      83.3      82.0       20     37.1      0.00     17.93      59.3     0.45      1018.0     3         9         5       324        9.08     271      463.0
   03/09/2017 11:10      82.1      81.4       20     37.3      0.00     17.93      59.3     0.45      1018.0     2        23         3        12        9.08     272      457.5
   03/09/2017 11:00      82.0      81.5       20     36.8      0.00     17.93      59.1     0.45      1018.0     3         2         5         5        9.08     272      453.5
   03/09/2017 10:50      81.4      80.9       22     38.7      0.00     17.93      59.3     0.45      1018.0     2       108         4        61        9.08     272      447.8
   03/09/2017 10:40      81.4      80.8       20     36.6      0.00     17.93      59.1     0.45      1018.0     2        78         3       103        9.08     272      440.5
   03/09/2017 10:30      81.0      79.7       21     36.3      0.00     17.93      59.3     0.46      1019.0     2       112         4        69        9.08     272      431.3
   03/09/2017 10:20      80.0      78.6       21     36.2      0.00     17.93      59.2     0.46      1019.0     1        54         2       336        9.08     272      421.6
   03/09/2017 10:10      78.8      78.5       21     35.6      0.00     17.93      59.3     0.46      1019.0     3        75         5        67        9.08     272      410.3
   03/09/2017 10:00      78.6      76.9       22     35.6      0.00     17.93      59.3     0.46      1019.0     2       333         2         7        9.08     272      396.7
   03/09/2017 09:50      76.9      75.8       23     35.7      0.00     17.93      59.4     0.46      1019.0     2       347         3         3        9.08     275      383.9
   03/09/2017 09:40      75.9      74.5       26     37.4      0.00     17.93      59.3     0.46      1019.0     1       229         2       258        9.08     275      370.1
   03/09/2017 09:30      74.7      74.3       27     37.9      0.00     17.93      59.4     0.46      1019.0     1       207         2       242        9.08     277      355.2
   03/09/2017 09:20      74.7      74.1       27     37.9      0.00     17.93      59.4     0.46      1019.0     1       199         2       209        9.08     278      337.3
   03/09/2017 09:10      74.4      72.3       33     42.7      0.00     17.93      59.6     0.46      1019.0     1       195         2       188        9.08     279      321.5
   03/09/2017 09:00      72.1      69.7       38     43.3      0.00     17.93      59.6     0.46      1019.0     1       238         2       234        9.08     281      303.7
   03/09/2017 08:50      69.8      68.2       35     40.4      0.00     17.93      59.6     0.46      1019.0     1       245         2       258        9.08     284      288.2
   03/09/2017 08:40      68.2      67.4       37     40.4      0.00     17.93      59.6     0.46      1019.0     1       276         2       238        9.08     287      270.6
   03/09/2017 08:30      67.4      66.2       40     42.1      0.00     17.93      59.5     0.46      1019.0     1       300         2       294        9.08     292      251.1
   03/09/2017 08:20      66.0      64.3       42     41.4      0.00     17.93      59.8     0.46      1019.0     0       314         1       350        9.09     299      231.4
   03/09/2017 08:10      64.1      63.1       44     41.0      0.00     17.93      59.6     0.46      1019.0     1       324         1       322        9.09     307      209.1
   03/09/2017 08:00      63.5      62.0       45     40.9      0.00     17.93      59.6     0.46      1019.0     1        29         2       359        9.09     311      184.9
   03/09/2017 07:50      62.5      61.4       45     40.5      0.00     17.93      59.7     0.46      1018.0     1       331         1       345        9.09     313      159.4
   03/09/2017 07:40      61.7      59.6       47     40.2      0.00     17.93      59.8     0.46      1018.0     0        51         1        81        9.09     314      130.7
   03/09/2017 07:30      59.1      56.5       51     39.7      0.00     17.93      59.6     0.46      1018.0     0        38         1        29        9.09     314      101.6
   03/09/2017 07:20      56.3      53.2       58     40.0      0.00     17.93      59.5     0.46      1018.0     0        71         1       194        9.09     315       71.5
   03/09/2017 07:10      53.0      52.0       59     38.4      0.00     17.93      59.8     0.46      1018.0     1       190         1       195        9.09     315       11.4
   03/09/2017 07:00      52.3      49.2       63     38.5      0.00     17.93      59.7     0.46      1018.0     0        33         0       313        9.09     317      -34.6
   03/09/2017 06:50      49.0      47.8       67     38.0      0.00     17.93      59.6     0.46      1018.0     1       140         1       145        9.09     317      -39.3
   03/09/2017 06:40      47.8      47.3       69     37.6      0.00     17.93      59.9     0.46      1018.0     1       121         1       128        9.09     316      -43.5
   03/09/2017 06:30      47.7      47.3       68     37.7      0.00     17.93      59.7     0.46      1018.0     1       102         1       124        9.09     315      -48.3
   03/09/2017 06:20      47.9      47.7       66     37.1      0.00     17.93      60.1     0.46      1018.0     1       149         2       127        9.09     314      -51.0
   03/09/2017 06:10      47.9      47.6       67     37.2      0.00     17.93      59.9     0.46      1018.0     1       270         1       234        9.09     312      -54.0
   03/09/2017 06:00      47.6      47.2       68     37.3      0.00     17.93      60.0     0.46      1018.0     1       173         2       147        9.09     311      -54.9
   03/09/2017 05:50      47.8      47.6       66     36.8      0.00     17.93      59.8     0.46      1018.0     1       200         2       130        9.09     309      -55.3
   03/09/2017 05:40      47.9      47.7       68     37.6      0.00     17.93      59.8     0.46      1018.0     1       154         2       145        9.09     308      -56.0
   03/09/2017 05:30      47.8      47.6       67     37.5      0.00     17.93      59.8     0.46      1017.0     1       163         2       145        9.09     306      -55.4
   03/09/2017 05:20      48.2      47.9       66     37.4      0.00     17.93      60.0     0.46      1017.0     1       140         2       142        9.09     305      -55.8
   03/09/2017 05:10      48.1      47.6       68     37.7      0.00     17.93      60.0     0.46      1017.0     1       178         1       135        9.09     303      -56.1
   03/09/2017 05:00      48.3      47.6       67     37.5      0.00     17.93      59.9     0.46      1017.0     2       167         3       148        9.10     302      -56.9
   03/09/2017 04:50      48.3      48.0       65     37.1      0.00     17.93      60.0     0.46      1017.0     1       183         1       150        9.10     300      -56.7
   03/09/2017 04:40      48.5      48.3       65     37.3      0.00     17.93      60.0     0.46      1017.0     1       356         1        13        9.10     299      -56.4
   03/09/2017 04:30      48.6      48.2       66     37.5      0.00     17.93      60.1     0.46      1017.0     1       173         1       138        9.10     297      -55.8
   03/09/2017 04:20      48.9      48.4       66     37.8      0.00     17.93      60.1     0.46      1017.0     1       127         2       133        9.10     296      -56.2
   03/09/2017 04:10      49.2      49.0       63     36.9      0.00     17.93      60.1     0.46      1017.0     1       181         1       112        9.10     295      -56.0
   03/09/2017 04:00      49.5      49.1       63     37.4      0.00     17.93      60.1     0.46      1017.0     0       293         0         9        9.10     293      -56.4
   03/09/2017 03:50      49.5      49.0       63     37.1      0.00     17.93      60.1     0.46      1017.0     0       186         1       132        9.10     292      -56.0
   03/09/2017 03:40      49.1      48.8       66     38.2      0.00     17.93      60.3     0.46      1017.0     1       135         2       157        9.10     291      -56.7
   03/09/2017 03:30      49.7      49.0       64     37.8      0.00     17.93      60.2     0.46      1017.0     2       147         2       141        9.10     290      -57.5
   03/09/2017 03:20      49.3      49.0       66     38.5      0.00     17.93      60.3     0.46      1017.0     0       272         1       110        9.10     288      -57.9
   03/09/2017 03:10      49.8      49.3       65     38.1      0.00     17.93      60.4     0.46      1017.0     2       136         3       142        9.10     288      -58.1
   03/09/2017 03:00      50.4      49.7       62     37.6      0.00     17.93      60.4     0.46      1017.0     1        97         2       136        9.10     288      -58.5
   03/09/2017 02:50      50.5      50.2       62     37.8      0.00     17.93      60.3     0.46      1017.0     0        89         1       139        9.10     287      -57.5
   03/09/2017 02:40      50.8      50.7       61     37.8      0.00     17.93      60.3     0.46      1017.0     1       150         2       146        9.10     286      -57.6
   03/09/2017 02:30      50.8      50.6       61     37.9      0.00     17.93      60.4     0.46      1018.0     1       187         1       142        9.10     285      -57.8
   03/09/2017 02:20      51.4      50.7       62     38.5      0.00     17.93      60.2     0.46      1018.0     1       139         2       128        9.10     285      -57.8
   03/09/2017 02:10      51.8      51.2       60     38.2      0.00     17.93      60.4     0.46      1018.0     1       156         1       123        9.10     285      -58.0
   03/09/2017 02:00      52.2      51.7       59     38.2      0.00     17.93      60.4     0.46      1018.0     0       307         1       229        9.10     284      -58.2
   03/09/2017 01:50      52.8      52.2       59     38.4      0.00     17.93      60.2     0.46      1018.0     1       151         1       138        9.10     283      -57.6
   03/09/2017 01:40      52.9      52.0       57     37.8      0.00     17.93      60.4     0.46      1018.0     1       202         1       263        9.10     282      -57.7
   03/09/2017 01:30      52.4      51.9       59     38.1      0.00     17.93      60.3     0.46      1018.0     1       154         2       129        9.10     281      -57.6
   03/09/2017 01:20      52.8      51.9       58     37.9      0.00     17.93      60.5     0.46      1018.0     1       175         2       139        9.11     281      -58.5
   03/09/2017 01:10      53.2      52.7       55     37.3      0.00     17.93      60.5     0.46      1018.0     1       162         1       127        9.11     280      -58.9
   03/09/2017 01:00      53.1      52.6       56     37.4      0.00     17.93      60.5     0.46      1018.0     1       180         1       191        9.11     280      -59.3
   03/09/2017 00:50      53.1      52.9       55     37.2      0.00     17.93      60.3     0.46      1018.0     1       166         1       142        9.11     279      -59.7
   03/09/2017 00:40      53.4      52.6       55     37.4      0.00     17.93      60.5     0.46      1018.0     1       139         2       142        9.11     278      -59.6
   03/09/2017 00:30      53.8      53.5       53     36.7      0.00     17.93      60.5     0.46      1018.0     0       281         1       315        9.11     278      -60.4
   03/09/2017 00:20      54.2      53.8       52     37.0      0.00     17.93      60.5     0.46      1018.0     0       306         1       318        9.11     277      -60.0
   03/09/2017 00:10      54.4      54.0       53     37.3      0.00     17.93      60.5     0.46      1018.0     1       244         2       148        9.11     277      -59.8
   03/09/2017 00:00      54.7      54.0       54     37.9      0.00     17.93      60.6     0.46      1018.0     2       138         2       157        9.11     277      -60.0
   03/08/2017 23:50      55.1      54.6       52     37.5      0.00     17.93      60.5     0.46      1018.0     2       145         3       152        9.11     276      -59.7
   03/08/2017 23:40      55.4      55.1       50     37.0      0.00     17.93      60.4     0.46      1018.0     1       178         1       216        9.11     276      -60.1
   03/08/2017 23:30      55.6      55.4       49     36.9      0.00     17.93      60.8     0.46      1018.0     1       169         1       162        9.11     275      -60.5
   03/08/2017 23:20      55.8      55.5       49     37.1      0.00     17.93      60.4     0.46      1018.0     0       226         1       306        9.11     275      -60.9
   03/08/2017 23:10      56.0      55.5       51     37.9      0.00     17.93      60.7     0.46      1018.0     1       161         2       133        9.11     275      -60.4
   03/08/2017 23:00      56.3      55.7       51     38.3      0.00     17.93      60.6     0.46      1018.0     1       141         1       146        9.12     274      -60.5
   03/08/2017 22:50      57.1      56.5       49     37.9      0.00     17.93      60.5     0.46      1018.0     1       179         1       134        9.12     274      -60.8
   03/08/2017 22:40      57.3      56.5       50     38.4      0.00     17.93      60.6     0.46      1018.0     1       186         1       195        9.12     274      -62.0
   03/08/2017 22:30      57.0      56.9       51     38.9      0.00     17.93      60.6     0.46      1018.0     1       244         1        19        9.12     274      -62.5
   03/08/2017 22:20      57.6      57.0       50     38.7      0.00     17.93      60.6     0.46      1018.0     1       149         2       163        9.12     273      -61.8
   03/08/2017 22:10      58.4      57.6       49     38.9      0.00     17.93      60.5     0.46      1018.0     1       157         2       198        9.12     273      -63.5
   03/08/2017 22:00      58.6      58.1       49     39.2      0.00     17.93      60.7     0.46      1018.0     1       216         2       206        9.12     273      -64.2
   03/08/2017 21:50      59.2      57.8       50     39.7      0.00     17.93      60.5     0.46      1018.0     2       235         3       197        9.12     273      -64.4
   03/08/2017 21:40      59.5      58.8       47     39.0      0.00     17.93      60.4     0.46      1018.0     1       167         2       163        9.13     273      -64.1
   03/08/2017 21:30      59.4      59.1       48     39.6      0.00     17.93      60.4     0.46      1018.0     1       165         1       189        9.13     273      -65.1
   03/08/2017 21:20      60.1      59.5       47     39.4      0.00     17.93      60.5     0.46      1018.0     1       126         1       112        9.13     272      -65.6
   03/08/2017 21:10      60.0      59.7       47     39.7      0.00     17.93      60.3     0.46      1018.0     1       133         2       145        9.13     273      -65.7
   03/08/2017 21:00      60.9      60.0       46     39.8      0.00     17.93      60.5     0.46      1018.0     2       133         2       141        9.13     272      -66.0
   03/08/2017 20:50      61.4      61.0       44     39.3      0.00     17.93      60.5     0.46      1018.0     2       153         2       173        9.13     272      -66.6
   03/08/2017 20:40      61.9      60.9       45     39.7      0.00     17.93      60.2     0.46      1018.0     2       144         3       154        9.13     272      -67.8
   03/08/2017 20:30      63.4      62.0       42     39.5      0.00     17.93      60.3     0.46      1017.0     1       205         2       146        9.14     272      -68.4
   03/08/2017 20:20      63.2      62.6       42     39.2      0.00     17.93      60.2     0.46      1017.0     1       211         2       327        9.14     272      -69.0
   03/08/2017 20:10      64.8      63.4       41     39.4      0.00     17.93      60.3     0.46      1017.0     1       148         3       169        9.14     271      -69.8
   03/08/2017 20:00      64.9      64.3       39     38.9      0.00     17.93      60.1     0.46      1017.0     2       189         3       212        9.14     271      -70.2
   03/08/2017 19:50      64.8      64.0       40     39.8      0.00     17.93      60.2     0.46      1017.0     1       205         3       163        9.14     271      -70.7
   03/08/2017 19:40      65.2      64.7       39     39.7      0.00     17.93      60.3     0.46      1017.0     1       130         2       118        9.14     271      -70.4
   03/08/2017 19:30      66.4      65.2       39     40.3      0.00     17.93      60.0     0.46      1017.0     2       130         2       143        9.14     271      -71.3
   03/08/2017 19:20      66.5      66.1       38     40.0      0.00     17.93      60.2     0.46      1017.0     2       169         3       159        9.15     271      -71.7
   03/08/2017 19:10      67.3      66.8       37     39.8      0.00     17.93      60.0     0.46      1017.0     1       168         3       146        9.15     271      -73.5
   03/08/2017 19:00      68.7      67.6       34     39.2      0.00     17.93      60.0     0.46      1017.0     2       168         2       152        9.15     271      -74.3
   03/08/2017 18:50      69.3      68.2       32     37.6      0.00     17.93      59.9     0.46      1017.0     3       178         4       163        9.15     271      -75.3
   03/08/2017 18:40      71.4      68.4       30     37.5      0.00     17.93      60.0     0.46      1017.0     2       195         3       227        9.15     271      -77.9
   03/08/2017 18:30      72.5      71.4       27     36.2      0.00     17.93      59.8     0.46      1016.0     3       233         4       217        9.16     271      -78.0
   03/08/2017 18:20      73.2      72.3       26     35.7      0.00     17.93      59.9     0.46      1016.0     2       233         3       230        9.16     271      -79.6
   03/08/2017 18:10      73.7      73.1       26     36.1      0.00     17.93      59.7     0.46      1016.0     2       249         4       287        9.16     270      -80.6
   03/08/2017 18:00      77.4      74.5       23     35.8      0.00     17.93      59.6     0.46      1016.0     2       273         3         2        9.16     270      -83.0
   03/08/2017 17:50      78.9      77.5       21     35.4      0.00     17.93      59.7     0.46      1016.0     2         8         3       356        9.16     270      -84.7
   03/08/2017 17:40      79.7      79.1       19     34.0      0.00     17.93      59.5     0.46      1016.0     3       336         4       336        9.17     270      -83.7
   03/08/2017 17:30      80.6      80.0       19     33.7      0.00     17.93      59.5     0.46      1016.0     5       342         7         4        9.17     270      -77.7
   03/08/2017 17:20      81.3      80.7       18     33.4      0.00     17.93      59.6     0.46      1016.0     5       346         7       358        9.17     270      -43.9
   03/08/2017 17:10      81.8      81.3       17     33.2      0.00     17.93      59.5     0.46      1016.0     4       340         7       335        9.17     270      -24.9
   03/08/2017 17:00      82.0      81.8       17     32.5      0.00     17.93      59.3     0.46      1016.0     4       317         5       318        9.17     270       -2.7
   03/08/2017 16:50      82.6      82.0       17     32.8      0.00     17.93      59.2     0.46      1016.0     4       325         6       321        9.17     270       23.5
   03/08/2017 16:40      82.7      82.3       17     33.1      0.00     17.93      59.1     0.46      1016.0     5       310         6         0        9.17     270       47.6
   03/08/2017 16:30      83.0      82.6       17     34.2      0.00     17.93      59.1     0.46      1016.0     4       318         7       315        9.17     270       77.7
   03/08/2017 16:20      83.2      82.5       18     34.3      0.00     17.93      59.0     0.46      1016.0     5       315         7       326        9.17     270      106.1
   03/08/2017 16:10      83.5      82.9       17     34.5      0.00     17.93      59.0     0.46      1016.0     5       333         8       346        9.17     270      132.4
   03/08/2017 16:00      83.8      83.3       17     34.5      0.00     17.93      58.9     0.46      1016.0     4       338         5       333        9.17     270      141.2
   03/08/2017 15:50      84.1      83.5       17     34.8      0.00     17.93      58.8     0.46      1016.0     3       311         6       301        9.17     271      159.2
   03/08/2017 15:40      83.9      83.5       17     34.6      0.00     17.93      58.7     0.46      1016.0     4       330         6         5        9.17     271      192.4
   03/08/2017 15:30      84.5      83.6       17     34.6      0.00     17.93      58.7     0.46      1016.0     4       309         8       320        9.17     271      205.1
   03/08/2017 15:20      84.8      84.0       17     34.7      0.00     17.93      58.7     0.46      1016.0     4       336         7         6        9.17     271      213.2
   03/08/2017 15:10      84.5      83.8       17     34.3      0.00     17.93      58.6     0.46      1016.0     5       356         6       323        9.17     271      233.6
   03/08/2017 15:00      84.3      83.6       18     35.3      0.00     17.93      58.5     0.46      1016.0     4       294         7        16        9.17     271      259.5
   03/08/2017 14:50      84.9      83.9       18     35.6      0.00     17.93      58.5     0.46      1016.0     3       237         4       319        9.17     271      276.1
   03/08/2017 14:40      85.1      84.6       16     34.4      0.00     17.93      58.4     0.46      1016.0     3       283         7       350        9.17     272      294.1
   03/08/2017 14:30      85.5      84.5       17     35.3      0.00     17.93      58.4     0.46      1016.0     4        28         6         8        9.17     272      324.2
   03/08/2017 14:20      85.0      84.7       15     32.9      0.00     17.93      58.3     0.46      1016.0     3       293         6       357        9.17     272      342.5
   03/08/2017 14:10      85.0      84.3       16     32.9      0.00     17.93      58.2     0.46      1016.0     4       321         5       304        9.17     272      356.4
   03/08/2017 14:00      84.3      83.1       16     33.3      0.00     17.93      58.2     0.46      1016.0     3       339         5         6        9.17     273      375.1
   03/08/2017 13:50      83.7      83.1       16     31.9      0.00     17.93      58.0     0.46      1016.0     4       328         5       350        9.17     272      393.7
   03/08/2017 13:40      84.3      83.5       16     32.9      0.00     17.93      58.1     0.46      1016.0     4       348        13        10        9.17     273      405.0
   03/08/2017 13:30      84.2      83.5       16     33.2      0.00     17.93      57.9     0.46      1017.0     5       346         8       353        9.17     273      416.8
   03/08/2017 13:20      84.1      82.6       16     32.8      0.00     17.93      58.0     0.46      1017.0     5       315         7       346        9.17     273      434.4
   03/08/2017 13:10      83.3      81.8       17     33.2      0.00     17.93      57.9     0.46      1017.0     4        11         7         4        9.17     273      446.6
   03/08/2017 13:00      82.8      81.6       17     32.8      0.00     17.93      57.9     0.46      1017.0     4        32         9         3        9.17     273      434.7
   03/08/2017 12:50      82.4      81.8       16     32.1      0.00     17.93      57.7     0.46      1017.0     5       353         6        18        9.17     273      451.1
   03/08/2017 12:40      82.6      80.8       17     32.6      0.00     17.93      57.7     0.45      1017.0     4         8         9       358        9.17     274      465.3
   03/08/2017 12:30      81.3      80.5       17     31.8      0.00     17.93      57.8     0.45      1018.0     7         2         9       349        9.17     274      479.2
   03/08/2017 12:20      80.5      80.0       17     31.6      0.00     17.93      57.8     0.45      1018.0     9         6        13         0        9.17     274      485.0
   03/08/2017 12:10      80.5      79.4       17     31.7      0.00     17.93      57.8     0.45      1018.0     8        13        12       356        9.17     274      490.0
   03/08/2017 12:00      79.6      78.6       17     31.1      0.00     17.93      57.8     0.45      1018.0     8        14        14        12        9.17     275      478.3
   03/08/2017 11:50      79.7      78.8       17     31.0      0.00     17.93      57.7     0.45      1018.0     9       359        14       357        9.17     275      483.7
   03/08/2017 11:40      78.5      77.9       18     30.7      0.00     17.93      57.7     0.45      1019.0    10       346        14       347        9.17     275      480.3
   03/08/2017 11:30      78.9      77.9       18     30.9      0.00     17.93      57.8     0.45      1019.0    11       357        15       348        9.17     275      477.3
   03/08/2017 11:20      78.6      77.4       18     31.4      0.00     17.93      57.8     0.45      1019.0     9         1        16       353        9.17     276      474.1
   03/08/2017 11:10      77.7      76.9       18     31.2      0.00     17.93      57.8     0.45      1019.0     8       350        13       337        9.17     277      462.7
   03/08/2017 11:00      77.3      76.4       19     31.1      0.00     17.93      57.8     0.46      1019.0     8       358        15       354        9.17     277      467.2
   03/08/2017 10:50      76.3      75.8       19     31.2      0.00     17.93      57.7     0.46      1019.0     9       356        14       354        9.17     278      454.6
   03/08/2017 10:40      76.4      76.0       19     31.2      0.00     17.93      57.8     0.46      1019.0     8       358        11       340        9.17     278      436.4
   03/08/2017 10:30      76.4      75.4       19     31.2      0.00     17.93      57.6     0.46      1019.0     7       340        13       353        9.17     279      430.1
   03/08/2017 10:20      75.4      74.7       20     30.8      0.00     17.93      57.8     0.46      1019.0     8       345        11       351        9.17     279      424.6
   03/08/2017 10:10      75.3      74.4       19     30.3      0.00     17.93      57.8     0.46      1019.0     9       359        12       348        9.17     280      401.5
   03/08/2017 10:00      74.5      73.8       19     29.8      0.00     17.93      57.9     0.46      1019.0     7       351        11       338        9.17     283      389.8
   03/08/2017 09:50      74.1      73.8       19     29.7      0.00     17.93      57.9     0.46      1019.0    11       345        17       359        9.17     289      376.9
   03/08/2017 09:40      73.9      73.5       20     29.6      0.00     17.93      57.8     0.46      1019.0     9       356        11       352        9.17     299      365.8
   03/08/2017 09:30      73.7      73.1       20     29.5      0.00     17.93      57.9     0.46      1019.0     9       330        13       340        9.17     305      346.2
   03/08/2017 09:20      73.2      72.7       20     29.5      0.00     17.93      57.9     0.46      1019.0     8       336        11       354        9.17     315      338.4
   03/08/2017 09:10      72.7      72.4       20     29.2      0.00     17.93      58.1     0.46      1019.0     9       321        16       325        9.17     325      313.9
   03/08/2017 09:00      72.6      71.5       20     29.0      0.00     17.93      58.0     0.46      1019.0     6       327         9       318        9.17     336      299.5
   03/08/2017 08:50      71.5      70.8       21     28.9      0.00     17.93      58.0     0.46      1019.0     7       325        10       295        9.17     347      284.2
   03/08/2017 08:40      70.9      70.1       21     28.7      0.00     17.93      57.8     0.46      1019.0     6       328         8       324        9.17     361      262.7
   03/08/2017 08:30      70.3      69.3       22     28.9      0.00     17.93      58.1     0.46      1019.0     7       334        12       331        9.17     371      244.5
   03/08/2017 08:20      69.1      68.4       23     29.1      0.00     17.93      58.1     0.46      1019.0     6       338         9       345        9.17     380      233.1
   03/08/2017 08:10      68.3      67.3       23     29.1      0.00     17.93      58.0     0.46      1019.0     6       329        12       321        9.17     392      216.4
   03/08/2017 08:00      67.4      66.3       24     29.2      0.00     17.93      58.2     0.46      1019.0     6       338         9       327        9.17     399      183.2
   03/08/2017 07:50      66.3      65.0       27     30.7      0.00     17.93      58.3     0.46      1019.0     5       301         7       305        9.17     405      152.1
   03/08/2017 07:40      65.4      63.6       27     30.2      0.00     17.93      58.2     0.46      1019.0     4       318         8       336        9.17     409      118.8
   03/08/2017 07:30      63.5      61.3       30     30.5      0.00     17.93      58.2     0.46      1019.0     4       305         6       326        9.17     412       87.5
   03/08/2017 07:20      61.2      56.9       35     31.3      0.00     17.93      58.2     0.46      1019.0     5       289         7       295        9.17     415       56.6
   03/08/2017 07:10      56.8      54.4       45     34.2      0.00     17.93      58.2     0.46      1019.0     2       274         3       265        9.17     417        4.6
   03/08/2017 07:00      54.2      51.0       50     34.5      0.00     17.93      58.1     0.46      1019.0     2       305         4       277        9.17     418      -17.6
   03/08/2017 06:50      50.9      49.3       56     35.0      0.00     17.93      58.3     0.46      1019.0     2       279         3       319        9.17     418      -28.8
   03/08/2017 06:40      49.8      48.8       58     35.1      0.00     17.93      58.1     0.46      1019.0     1       221         2       216        9.17     418      -34.1
   03/08/2017 06:30      48.7      48.4       59     35.1      0.00     17.93      58.4     0.46      1019.0     2       269         4       322        9.17     417      -42.6
   03/08/2017 06:20      48.9      48.4       59     34.8      0.00     17.93      58.3     0.46      1019.0     2        47         4         4        9.17     416      -48.3
   03/08/2017 06:10      48.8      48.4       59     34.8      0.00     17.93      58.3     0.46      1019.0     1       154         3       345        9.17     416      -49.0
   03/08/2017 06:00      48.9      48.5       58     34.4      0.00     17.93      58.3     0.46      1019.0     3       152         5       196        9.17     415      -48.5
   03/08/2017 05:50      48.9      48.1       59     34.7      0.00     17.93      58.3     0.46      1019.0     1       202         2       198        9.17     414      -50.1
   03/08/2017 05:40      48.9      48.4       58     34.6      0.00     17.93      58.5     0.46      1019.0     1       280         3       187        9.17     413      -49.4
   03/08/2017 05:30      49.4      49.1       56     34.4      0.00     17.93      58.3     0.46      1019.0     2       100         3       142        9.17     412      -49.3
   03/08/2017 05:20      48.8      48.2       58     34.4      0.00     17.93      58.3     0.46      1019.0     2       238         4       200        9.17     412      -49.2
   03/08/2017 05:10      48.9      48.4       58     34.5      0.00     17.93      58.4     0.46      1019.0     2       145         4       162        9.17     411      -48.6
   03/08/2017 05:00      49.3      48.8       57     34.3      0.00     17.93      58.4     0.46      1019.0     2       169         3       139        9.17     411      -48.4
   03/08/2017 04:50      49.3      48.0       57     34.3      0.00     17.93      58.5     0.46      1019.0     2       223         3       203        9.17     410      -48.4
   03/08/2017 04:40      48.5      48.2       58     34.4      0.00     17.93      58.5     0.46      1019.0     1       320         1       180        9.17     409      -49.7
   03/08/2017 04:30      49.1      48.7       57     34.4      0.00     17.93      58.7     0.46      1019.0     1        36         2       111        9.17     408      -49.3
   03/08/2017 04:20      49.3      49.1       56     34.4      0.00     17.93      58.7     0.46      1019.0     1       161         1       142        9.17     407      -48.8
   03/08/2017 04:10      49.0      48.7       58     34.5      0.00     17.93      58.5     0.46      1019.0     1       168         2       169        9.17     406      -49.1
   03/08/2017 04:00      48.8      48.3       59     35.0      0.00     17.93      58.6     0.46      1019.0     1       157         2       190        9.17     405      -51.1
   03/08/2017 03:50      48.4      46.9       63     35.6      0.00     17.93      59.0     0.46      1019.0     3       249         4       232        9.17     404      -52.1
   03/08/2017 03:40      47.4      47.0       64     35.7      0.00     17.93      58.8     0.46      1019.0     1        32         2       333        9.17     403      -54.0
   03/08/2017 03:30      48.4      47.4       62     35.5      0.00     17.93      58.7     0.46      1019.0     1       128         3        71        9.17     401      -54.4
   03/08/2017 03:20      48.5      47.3       63     35.8      0.00     17.93      58.7     0.46      1019.0     2       235         4       308        9.17     400      -55.4
   03/08/2017 03:10      48.0      47.8       63     35.8      0.00     17.93      58.8     0.46      1019.0     2       243         4       234        9.17     399      -56.4
   03/08/2017 03:00      48.3      47.4       63     35.7      0.00     17.93      58.8     0.46      1019.0     1       328         2       192        9.17     398      -56.6
   03/08/2017 02:50      48.8      48.0       59     34.8      0.00     17.93      58.5     0.46      1019.0     2       116         3       194        9.17     397      -54.0
   03/08/2017 02:40      48.5      47.9       61     35.5      0.00     17.93      59.1     0.46      1019.0     1       265         2       235        9.17     396      -54.7
   03/08/2017 02:30      48.7      48.3       62     35.9      0.00     17.93      58.6     0.46      1020.0     1       183         2       149        9.17     394      -54.5
   03/08/2017 02:20      48.8      48.2       61     35.8      0.00     17.93      58.9     0.46      1020.0     1       160         3       208        9.17     393      -54.4
   03/08/2017 02:10      48.4      47.9       62     35.9      0.00     17.93      58.9     0.46      1020.0     1       180         3       202        9.17     390      -54.7
   03/08/2017 02:00      48.5      48.3       62     36.1      0.00     17.93      58.8     0.46      1020.0     1       121         2       331        9.17     389      -55.6
   03/08/2017 01:50      48.9      48.2       62     36.0      0.00     17.93      59.0     0.46      1020.0     2       163         3       194        9.17     387      -54.6
   03/08/2017 01:40      48.8      48.4       63     36.5      0.00     17.93      59.0     0.46      1020.0     1        63         2         4        9.17     385      -56.3
   03/08/2017 01:30      49.9      49.0       59     35.9      0.00     17.93      58.9     0.46      1020.0     2       129         4       196        9.17     383      -55.0
   03/08/2017 01:20      49.9      48.7       61     36.2      0.00     17.93      58.9     0.46      1020.0     2       228         4       205        9.17     383      -55.9
   03/08/2017 01:10      49.7      48.9       62     36.7      0.00     17.93      59.2     0.46      1020.0     1       113         2        90        9.17     383      -57.0
   03/08/2017 01:00      50.7      49.9       59     36.4      0.00     17.93      59.2     0.46      1020.0     1        98         2        94        9.17     381      -56.8
   03/08/2017 00:50      50.8      50.0       58     36.0      0.00     17.93      59.1     0.46      1020.0     1       255         2       226        9.17     379      -57.2
   03/08/2017 00:40      50.0      49.5       62     37.0      0.00     17.93      58.9     0.46      1020.0     2       176         3       137        9.17     378      -57.3
   03/08/2017 00:30      50.2      49.4       62     37.1      0.00     17.93      59.2     0.46      1020.0     2       148         3       151        9.17     375      -57.4
   03/08/2017 00:20      50.8      49.7       60     37.0      0.00     17.93      59.3     0.46      1020.0     1       143         2       131        9.17     373      -58.3
   03/08/2017 00:10      51.5      50.8       58     37.1      0.00     17.93      59.0     0.46      1020.0     1        80         2        46        9.17     371      -58.5
   03/08/2017 00:00      51.3      50.3       59     37.0      0.00     17.93      59.1     0.46      1020.0     3       181         4       220        9.17     368      -57.9
   03/07/2017 23:50      51.7      50.6       58     37.0      0.00     17.93      59.2     0.46      1020.0     1       107         1       182        9.17     365      -58.5
   03/07/2017 23:40      51.8      51.4       57     37.0      0.00     17.93      59.2     0.46      1020.0     1       252         2       254        9.17     362      -57.5
   03/07/2017 23:30      52.3      51.7       56     36.9      0.00     17.93      59.0     0.46      1020.0     1       110         2        56        9.17     358      -58.0
   03/07/2017 23:20      52.6      52.4       55     36.7      0.00     17.93      59.1     0.46      1020.0     1       157         1       196        9.17     355      -57.2
   03/07/2017 23:10      53.7      52.6       53     36.5      0.00     17.93      59.3     0.46      1020.0     1       149         2       128        9.17     352      -57.7
   03/07/2017 23:00      54.1      53.0       51     36.2      0.00     17.93      59.0     0.46      1020.0     2       232         3       206        9.17     350      -59.0
   03/07/2017 22:50      54.0      53.1       52     36.5      0.00     17.93      59.0     0.46      1020.0     1        63         1       120        9.17     348      -59.7
   03/07/2017 22:40      55.4      54.2       49     35.8      0.00     17.93      59.4     0.46      1020.0     2       114         2       163        9.17     347      -60.0
   03/07/2017 22:30      55.1      53.7       50     35.9      0.00     17.93      59.2     0.46      1020.0     1       177         3       188        9.17     345      -60.4
   03/07/2017 22:20      55.1      54.6       48     35.8      0.00     17.93      59.3     0.46      1020.0     1       237         3       235        9.17     341      -60.5
   03/07/2017 22:10      56.1      55.2       46     35.5      0.00     17.93      59.3     0.46      1020.0     1       237         1       234        9.17     339      -60.5
   03/07/2017 22:00      56.5      55.7       46     35.5      0.00     17.93      59.1     0.46      1020.0     1       347         1        21        9.17     337      -60.9
   03/07/2017 21:50      57.1      56.7       45     35.6      0.00     17.93      59.1     0.46      1020.0     1       234         1       193        9.17     334      -61.3
   03/07/2017 21:40      57.0      56.1       45     35.8      0.00     17.93      59.1     0.46      1020.0     2       135         4       147        9.17     331      -62.0
   03/07/2017 21:30      56.5      56.0       47     36.2      0.00     17.93      59.1     0.46      1020.0     1        83         4       173        9.17     330      -62.3
   03/07/2017 21:20      56.8      56.4       46     36.2      0.00     17.93      59.1     0.46      1020.0     1       119         2       159        9.17     328      -63.1
   03/07/2017 21:10      57.9      57.1       45     36.3      0.00     17.93      59.1     0.46      1020.0     1       128         2       138        9.17     326      -65.1
   03/07/2017 21:00      58.7      58.3       43     35.9      0.00     17.93      58.9     0.46      1020.0     1        92         2        71        9.17     324      -66.8
   03/07/2017 20:50      59.7      58.7       42     36.0      0.00     17.93      59.0     0.46      1020.0     2       110         3       179        9.17     322      -68.0
   03/07/2017 20:40      59.4      58.6       43     36.3      0.00     17.93      59.2     0.46      1020.0     2       234         3       232        9.16     322      -67.7
   03/07/2017 20:30      60.2      58.8       43     36.9      0.00     17.93      59.0     0.46      1020.0     1       349         1        61        9.16     320      -69.1
   03/07/2017 20:20      60.1      60.0       42     36.9      0.00     17.93      59.1     0.46      1020.0     1       247         3       212        9.16     319      -70.5
   03/07/2017 20:10      60.9      60.5       41     37.0      0.00     17.93      59.0     0.46      1020.0     1         9         2       251        9.16     318      -71.7
   03/07/2017 20:00      61.1      60.9       41     37.2      0.00     17.93      59.0     0.46      1020.0     2       222         4       232        9.16     317      -71.2
   03/07/2017 19:50      61.8      61.3       40     37.2      0.00     17.93      59.1     0.46      1020.0     2       242         4       206        9.15     316      -71.9
   03/07/2017 19:40      62.7      61.8       40     37.6      0.00     17.93      59.0     0.46      1020.0     2       217         4       172        9.15     315      -72.3
   03/07/2017 19:30      63.2      62.8       40     38.0      0.00     17.93      59.1     0.46      1020.0     2       222         4       235        9.14     315      -72.9
   03/07/2017 19:20      63.7      63.0       40     38.4      0.00     17.93      58.9     0.46      1020.0     4       225         7       214        9.14     315      -71.9
   03/07/2017 19:10      63.7      62.9       40     38.5      0.00     17.93      59.0     0.46      1019.0     3       238         4       185        9.13     315      -71.6
   03/07/2017 19:00      65.5      63.5       37     38.0      0.00     17.93      58.9     0.46      1019.0     3       246         4       228        9.12     315      -71.9
   03/07/2017 18:50      65.9      65.7       35     37.3      0.00     17.93      58.8     0.46      1019.0     2       290         4       294        9.12     314      -74.7
   03/07/2017 18:40      66.1      65.6       34     36.6      0.00     17.93      58.8     0.46      1019.0     3       277         4       243        9.11     313      -75.2
   03/07/2017 18:30      65.8      65.3       34     36.4      0.00     17.93      58.4     0.46      1019.0     4       228         6       234        9.09     313      -76.3
   03/07/2017 18:20      66.0      65.6       34     36.5      0.00     17.93      58.8     0.46      1019.0     4       231         6       239        9.08     313      -78.1
   03/07/2017 18:10      66.3      65.9       34     36.8      0.00     17.93      58.6     0.46      1019.0     4       236         5       238        9.06     313      -79.2
   03/07/2017 18:00      68.5      66.5       33     37.1      0.00     17.93      58.5     0.46      1019.0     4       244         5       252        9.04     312      -79.1
   03/07/2017 17:50      69.8      68.7       30     36.5      0.00     17.93      58.4     0.46      1019.0     4       265         5       273        9.00     313      -76.1
   03/07/2017 17:40      71.2      69.9       28     36.1      0.00     17.93      58.1     0.46      1019.0     5       279         7       300        8.97     314      -71.2
   03/07/2017 17:30      73.2      71.5       26     35.8      0.00     17.93      58.0     0.46      1019.0     5       302         7       298        8.94     314      -65.7
   03/07/2017 17:20      74.5      73.2       23     33.2      0.00     17.93      58.1     0.46      1019.0     4       316         6       310        8.88     322      -37.8
   03/07/2017 17:10      74.9      74.4       20     30.8      0.00     17.93      58.3     0.46      1019.0     3         2         5       340        8.82     328      -16.6
   03/07/2017 17:00      75.5      75.2       20     31.0      0.00     17.93      58.1     0.46      1019.0     3        27         5       358        8.77     335       12.8
   03/07/2017 16:50      76.1      75.5       20     31.5      0.00     17.93      58.1     0.46      1019.0     2        24         3       357        8.71     347       39.6
   03/07/2017 16:40      76.1      75.8       19     31.4      0.00     17.93      57.9     0.46      1019.0     3       330         4       339        8.67     382       52.0
   03/07/2017 16:30      75.9      75.4       19     30.6      0.00     17.93      57.8     0.46      1019.0     2        36         4       350        8.67     268       75.9
   03/07/2017 16:20      75.8      75.3       19     30.8      0.00     17.93      57.8     0.46      1019.0     2        44         4        78        8.67     268      102.5
   03/07/2017 16:10      75.7      75.2       19     30.6      0.00     17.93      57.8     0.46      1019.0     4        19         5        20        8.67     268      129.5
   03/07/2017 16:00      75.6      75.2       19     30.5      0.00     17.93      57.7     0.46      1019.0     4        31         6        18        8.67     268      146.9
   03/07/2017 15:50      75.4      75.1       19     30.1      0.00     17.93      57.7     0.46      1019.0     4        30         5       356        8.68     268      162.7
   03/07/2017 15:40      75.5      75.4       19     29.7      0.00     17.93      57.4     0.46      1019.0     5       356         6        16        8.68     269      184.7
   03/07/2017 15:30      75.8      75.1       19     29.8      0.00     17.93      57.5     0.46      1019.0     4        34         6         8        8.68     269      211.4
   03/07/2017 15:20      75.4      75.1       18     29.5      0.00     17.93      57.3     0.46      1019.0     5       346         9       303        8.68     269      218.9
   03/07/2017 15:10      75.5      74.6       19     29.6      0.00     17.93      57.5     0.46      1019.0     4        27         5        26        8.68     268      230.6
   03/07/2017 15:00      75.4      74.8       18     29.3      0.00     17.93      57.2     0.46      1019.0     6        11         9       340        8.68     269      258.8
   03/07/2017 14:50      75.5      74.9       18     29.3      0.00     17.93      57.2     0.46      1020.0     5        21         8        19        8.68     269      279.8
   03/07/2017 14:40      75.5      74.9       18     29.4      0.00     17.93      57.3     0.46      1020.0     4        21         6       334        8.68     269      300.0
   03/07/2017 14:30      75.0      73.9       19     29.3      0.00     17.93      57.1     0.46      1020.0     4        41         5        39        8.69     269      333.5
   03/07/2017 14:20      75.0      74.0       19     29.3      0.00     17.93      57.1     0.46      1020.0     4        46         7        69        8.69     269      352.4
   03/07/2017 14:10      74.9      73.8       19     28.8      0.00     17.93      57.0     0.45      1020.0     3        39         4       350        8.69     270      365.2
   03/07/2017 14:00      75.2      74.3       18     29.0      0.00     17.93      57.0     0.46      1020.0     4        27         7        11        8.69     270      382.8
   03/07/2017 13:50      74.6      73.9       19     28.8      0.00     17.93      57.0     0.46      1020.0     4        15         7        15        8.69     270      394.6
   03/07/2017 13:40      74.3      72.8       19     28.4      0.00     17.93      56.9     0.45      1020.0     4        16         7        23        8.69     270      408.6
   03/07/2017 13:30      73.5      72.7       18     27.6      0.00     17.93      56.8     0.45      1020.0     5        12         7       356        8.69     270      424.8
   03/07/2017 13:20      74.2      73.0       18     28.1      0.00     17.93      56.8     0.45      1021.0     7       357        10       351        8.69     270      437.1
   03/07/2017 13:10      73.5      72.2       19     27.7      0.00     17.93      56.8     0.45      1021.0     4       349         6         6        8.69     269      454.7
   03/07/2017 13:00      73.4      72.6       18     27.6      0.00     17.93      56.8     0.45      1021.0     6       356        10       354        8.69     269      466.5
   03/07/2017 12:50      73.3      72.2       19     27.7      0.00     17.93      56.8     0.45      1021.0     5       336         7        17        8.69     270      448.5
   03/07/2017 12:40      72.2      71.6       19     27.7      0.00     17.93      56.8     0.45      1021.0     5        37         8        19        8.69     271      488.5
   03/07/2017 12:30      72.2      71.3       19     27.4      0.00     17.93      56.7     0.45      1021.0     7         7         9       354        8.69     271      497.9
   03/07/2017 12:20      71.7      70.3       19     27.2      0.00     17.93      56.7     0.45      1022.0     6        12        12         1        8.70     270      501.4
   03/07/2017 12:10      71.3      70.8       20     27.5      0.00     17.93      56.8     0.45      1022.0     5         7         8       357        8.70     270      454.5
   03/07/2017 12:00      71.1      70.4       20     27.3      0.00     17.93      56.7     0.45      1022.0     6        20        11         4        8.70     271      443.7
   03/07/2017 11:50      70.6      69.0       20     27.3      0.00     17.93      56.6     0.45      1022.0     5         4         6       317        8.70     271      441.9
   03/07/2017 11:40      69.3      69.0       20     26.5      0.00     17.93      56.6     0.45      1022.0     6        31         9        33        8.70     270      449.5
   03/07/2017 11:30      69.5      68.8       21     27.2      0.00     17.93      56.6     0.45      1022.0     6        20        11         5        8.70     271      448.2
   03/07/2017 11:20      68.8      68.3       21     26.8      0.00     17.93      56.7     0.45      1022.0     6        24         9        23        8.70     271      468.3
   03/07/2017 11:10      68.6      67.9       21     26.6      0.00     17.93      56.6     0.45      1022.0     5        27         9       357        8.70     271      417.7
   03/07/2017 11:00      67.9      67.4       21     26.1      0.00     17.93      56.7     0.45      1023.0     6         9         8       352        8.70     272      418.3
   03/07/2017 10:50      67.5      66.9       22     26.8      0.00     17.93      56.9     0.45      1023.0     7        14        13       344        8.70     272      419.3
   03/07/2017 10:40      67.2      65.8       23     27.0      0.00     17.93      56.7     0.45      1023.0     5       358         9        20        8.70     272      398.6
   03/07/2017 10:30      66.3      65.8       23     27.4      0.00     17.93      56.7     0.45      1023.0     5        26         8        20        8.70     272      333.5
   03/07/2017 10:20      66.4      65.9       23     27.0      0.00     17.93      56.7     0.45      1023.0     3        44         5        81        8.70     272      366.0
   03/07/2017 10:10      66.3      65.2       23     27.0      0.00     17.93      56.7     0.45      1023.0     4        17         7       355        8.70     272      364.5
   03/07/2017 10:00      64.9      64.2       24     26.6      0.00     17.93      56.8     0.45      1023.0     3        10         5        23        8.70     273      342.7
   03/07/2017 09:50      64.5      64.2       24     26.6      0.00     17.93      56.8     0.45      1023.0     3       355         4       344        8.70     273      331.4
   03/07/2017 09:40      64.1      63.5       25     27.1      0.00     17.93      56.8     0.45      1023.0     3        15         4        23        8.70     273      324.8
   03/07/2017 09:30      64.1      63.3       25     27.6      0.00     17.93      56.9     0.46      1023.0     3        12         9         1        8.70     275      345.7
   03/07/2017 09:20      63.2      62.1       27     27.8      0.00     17.93      56.9     0.46      1023.0     3        29         5        43        8.70     277      321.7
   03/07/2017 09:10      62.4      61.3       27     27.9      0.00     17.93      57.1     0.46      1023.0     4        12         6       348        8.70     278      277.7
   03/07/2017 09:00      61.4      60.4       28     27.6      0.00     17.93      56.9     0.46      1023.0     5         4         9       324        8.70     281      299.2
   03/07/2017 08:50      60.5      60.1       28     27.4      0.00     17.93      57.0     0.46      1023.0     5         4         8       350        8.70     284      302.6
   03/07/2017 08:40      60.5      60.0       28     27.2      0.00     17.93      57.0     0.46      1023.0     3        20         4        17        8.71     288      267.1
   03/07/2017 08:30      60.9      60.4       29     27.9      0.00     17.93      56.8     0.46      1023.0     3        44         4        63        8.71     290      245.5
   03/07/2017 08:20      60.4      58.5       30     27.9      0.00     17.93      56.8     0.46      1023.0     2        86         3       114        8.71     293      234.8
   03/07/2017 08:10      58.9      58.6       31     28.5      0.00     17.93      57.1     0.46      1023.0     3        29         3        37        8.71     297      210.9
   03/07/2017 08:00      58.8      56.0       35     29.5      0.00     17.93      57.0     0.46      1022.0     1         6         2        21        8.71     298      185.2
   03/07/2017 07:50      55.9      53.4       42     31.9      0.00     17.93      57.1     0.46      1022.0     3       145         3       144        8.71     299      158.5
   03/07/2017 07:40      53.2      50.3       49     33.1      0.00     17.93      57.0     0.46      1022.0     1       162         2       140        8.74     300      126.6
   03/07/2017 07:30      50.2      48.4       54     32.8      0.00     17.93      57.2     0.46      1022.0     1       226         2       302        8.74     300       99.1
   03/07/2017 07:20      48.7      46.6       55     32.4      0.00     17.93      57.1     0.46      1022.0     1        61         2       106        8.74     300       57.6
   03/07/2017 07:10      46.4      45.1       58     31.7      0.00     17.93      57.0     0.46      1022.0     1       172         2       325        8.74     300        6.5
   03/07/2017 07:00      45.1      43.4       58     30.7      0.00     17.93      57.2     0.46      1022.0     1        61         3         5        8.74     300      -22.1
   03/07/2017 06:50      43.2      41.5       62     30.4      0.00     17.93      57.2     0.46      1022.0     3       142         4       142        8.74     299      -42.3
   03/07/2017 06:40      41.8      41.3       63     29.8      0.00     17.93      57.5     0.46      1022.0     2       145         3       136        8.74     299      -48.6
   03/07/2017 06:30      42.1      41.5       62     29.6      0.00     17.93      57.2     0.46      1022.0     1        62         3       138        8.74     298      -52.7
   03/07/2017 06:20      41.9      41.3       62     29.6      0.00     17.93      57.3     0.46      1022.0     2       174         3       112        8.74     298      -54.2
   03/07/2017 06:10      42.4      41.7       60     29.2      0.00     17.93      57.4     0.46      1022.0     1       151         2       175        8.74     297      -57.4
   03/07/2017 06:00      42.8      41.7       58     28.8      0.00     17.93      57.3     0.46      1022.0     1       254         3       223        8.74     296      -59.2
   03/07/2017 05:50      42.5      41.8       60     29.1      0.00     17.93      57.3     0.46      1022.0     1       152         2       168        8.74     295      -59.9
   03/07/2017 05:40      42.3      41.6       61     29.5      0.00     17.93      57.6     0.46      1022.0     2       181         3       313        8.74     294      -59.4
   03/07/2017 05:30      42.6      42.1       59     29.3      0.00     17.93      57.3     0.46      1022.0     3       135         3       143        8.74     293      -59.5
   03/07/2017 05:20      43.0      42.3       59     29.2      0.00     17.93      57.5     0.46      1022.0     2       146         4       150        8.74     293      -59.5
   03/07/2017 05:10      43.8      43.2       55     28.6      0.00     17.93      57.3     0.46      1022.0     2       182         3       144        8.74     292      -59.5
   03/07/2017 05:00      43.7      43.1       55     28.2      0.00     17.93      57.3     0.46      1022.0     2       160         5        91        8.74     292      -60.1
   03/07/2017 04:50      43.5      42.3       55     28.0      0.00     17.93      57.4     0.46      1022.0     2       208         2       229        8.74     291      -59.7
   03/07/2017 04:40      43.3      42.3       58     28.9      0.00     17.93      57.6     0.46      1021.0     2       155         3       158        8.74     291      -60.4
   03/07/2017 04:30      44.3      43.2       54     28.4      0.00     17.93      57.6     0.46      1021.0     1       141         2       112        8.74     290      -61.6
   03/07/2017 04:20      46.0      44.5       51     28.1      0.00     17.93      57.6     0.46      1021.0     1        20         2        42        8.74     289      -62.0
   03/07/2017 04:10      47.3      46.3       46     27.4      0.00     17.93      57.7     0.46      1021.0     2       237         2       252        8.74     289      -62.1
   03/07/2017 04:00      50.1      47.3       44     27.1      0.00     17.93      57.7     0.46      1021.0     3        30         4        29        8.74     289      -63.7
   03/07/2017 03:50      51.4      49.6       37     25.2      0.00     17.93      57.8     0.46      1021.0     5       249        11       240        8.74     288      -62.9
   03/07/2017 03:40      49.6      47.7       41     25.9      0.00     17.93      57.8     0.46      1021.0     7       238         8       244        8.74     289      -61.4
   03/07/2017 03:30      47.5      45.4       46     26.9      0.00     17.93      58.0     0.46      1021.0     5       238         7       249        8.75     289      -60.1
   03/07/2017 03:20      45.6      44.4       51     27.9      0.00     17.93      57.7     0.46      1021.0     3       202         4       267        8.75     288      -59.9
   03/07/2017 03:10      45.6      45.0       51     28.2      0.00     17.93      57.8     0.46      1021.0     2       292         3       245        8.75     288      -60.8
   03/07/2017 03:00      47.4      45.5       49     27.9      0.00     17.93      57.9     0.46      1021.0     2       165         6         3        8.75     287      -62.2
   03/07/2017 02:50      47.5      45.0       46     26.8      0.00     17.93      57.8     0.46      1021.0     4       251         7       218        8.75     287      -62.0
   03/07/2017 02:40      44.9      43.3       55     28.5      0.00     17.93      57.9     0.46      1021.0     3       263         5       253        8.75     287      -61.9
   03/07/2017 02:30      43.6      42.2       57     29.0      0.00     17.93      57.7     0.46      1021.0     3       231         6       253        8.75     286      -62.1
   03/07/2017 02:20      44.8      42.4       56     29.4      0.00     17.93      57.8     0.46      1021.0     2       152         4       275        8.75     286      -62.9
   03/07/2017 02:10      44.5      40.4       61     29.4      0.00     17.93      58.1     0.46      1022.0     4       248         7       243        8.75     286      -61.3
   03/07/2017 02:00      40.3      39.9       68     30.5      0.00     17.93      57.9     0.46      1022.0     1       165         2       240        8.75     285      -62.2
   03/07/2017 01:50      40.4      40.0       68     30.6      0.00     17.93      58.0     0.46      1022.0     1       227         2       197        8.75     285      -62.8
   03/07/2017 01:40      41.1      40.3       69     31.2      0.00     17.93      58.0     0.46      1022.0     2       158         3       172        8.75     284      -63.0
   03/07/2017 01:30      40.8      40.2       69     31.0      0.00     17.93      58.1     0.46      1022.0     1       194         2       198        8.75     283      -63.2
   03/07/2017 01:20      41.1      40.5       68     31.1      0.00     17.93      57.8     0.46      1022.0     1        36         1        27        8.75     282      -64.2
   03/07/2017 01:10      41.3      41.1       66     30.7      0.00     17.93      58.1     0.46      1022.0     1       341         1       269        8.75     282      -63.7
   03/07/2017 01:00      41.3      40.9       69     31.6      0.00     17.93      58.0     0.46      1022.0     1       173         2       176        8.75     281      -63.7
   03/07/2017 00:50      41.7      41.1       68     31.6      0.00     17.93      58.2     0.46      1022.0     1       118         1        90        8.75     280      -64.2
   03/07/2017 00:40      42.1      41.3       66     31.4      0.00     17.93      57.8     0.46      1022.0     2       162         2       215        8.75     280      -63.8
   03/07/2017 00:30      41.7      41.3       69     31.9      0.00     17.93      58.1     0.46      1022.0     1       139         2       139        8.75     279      -64.5
   03/07/2017 00:20      42.1      41.8       68     32.1      0.00     17.93      58.1     0.46      1022.0     1       117         1        91        8.75     279      -64.9
   03/07/2017 00:10      42.6      42.1       66     31.8      0.00     17.93      58.2     0.46      1022.0     2       190         3       214        8.75     278      -64.6
   03/07/2017 00:00      42.7      42.4       66     31.9      0.00     17.93      58.2     0.46      1022.0     1       219         2       218        8.75     277      -64.5
   03/06/2017 23:50      43.0      42.6       66     32.2      0.00     17.93      57.9     0.46      1022.0     1        74         1        30        8.75     277      -64.7
   03/06/2017 23:40      43.1      42.8       67     32.8      0.00     17.93      58.4     0.46      1022.0     1       180         1       108        8.75     276      -65.0
   03/06/2017 23:30      43.6      43.1       66     32.8      0.00     17.93      58.0     0.46      1022.0     1       183         2       230        8.75     276      -65.4
   03/06/2017 23:20      43.7      43.0       67     33.3      0.00     17.93      58.2     0.46      1022.0     2       209         2       141        8.75     275      -65.9
   03/06/2017 23:10      44.0      43.8       65     33.1      0.00     17.93      58.3     0.46      1022.0     1       202         2       142        8.75     275      -65.9
   03/06/2017 23:00      44.3      44.0       66     33.5      0.00     17.93      58.3     0.46      1022.0     1       212         1       199        8.75     274      -67.2
   03/06/2017 22:50      44.6      43.9       67     34.1      0.00     17.93      58.1     0.46      1022.0     1       101         2        73        8.75     274      -68.1
   03/06/2017 22:40      45.0      44.5       67     34.3      0.00     17.93      58.3     0.46      1022.0     1        76         2       122        8.75     274      -68.5
   03/06/2017 22:30      45.4      44.1       66     34.2      0.00     17.93      58.3     0.46      1022.0     2       186         3       190        8.75     273      -68.0
   03/06/2017 22:20      44.9      43.8       68     34.6      0.00     17.93      58.3     0.46      1022.0     2       168         3       181        8.75     273      -68.1
   03/06/2017 22:10      45.7      45.0       66     34.5      0.00     17.93      58.2     0.46      1022.0     1       236         2       239        8.75     273      -68.1
   03/06/2017 22:00      46.0      44.9       67     34.9      0.00     17.93      58.2     0.46      1022.0     1       190         2       249        8.75     272      -68.8
   03/06/2017 21:50      46.1      45.4       65     34.7      0.00     17.93      58.2     0.46      1022.0     2       225         3       228        8.75     272      -68.8
   03/06/2017 21:40      45.9      45.4       64     34.3      0.00     17.93      58.2     0.46      1022.0     1        77         2        74        8.75     272      -69.4
   03/06/2017 21:30      46.8      46.2       62     34.1      0.00     17.93      58.2     0.46      1022.0     2       166         2       201        8.75     272      -69.4
   03/06/2017 21:20      47.1      46.1       60     33.5      0.00     17.93      58.2     0.46      1022.0     2       205         3       218        8.75     272      -69.9
   03/06/2017 21:10      46.1      45.5       61     33.1      0.00     17.93      58.3     0.46      1022.0     3       172         4       162        8.75     272      -70.3
   03/06/2017 21:00      47.2      46.6       57     32.4      0.00     17.93      58.1     0.46      1022.0     2       219         3       192        8.75     272      -69.2
   03/06/2017 20:50      47.3      46.8       55     31.6      0.00     17.93      58.2     0.46      1022.0     1       184         1       236        8.76     271      -70.0
   03/06/2017 20:40      47.4      46.9       54     31.5      0.00     17.93      58.4     0.46      1022.0     1       119         2       127        8.76     271      -71.5
   03/06/2017 20:30      49.1      47.5       52     31.2      0.00     17.93      58.3     0.46      1022.0     1       138         2       145        8.76     271      -72.3
   03/06/2017 20:20      50.3      49.3       48     30.9      0.00     17.93      58.3     0.46      1022.0     1       291         1       199        8.76     271      -74.0
   03/06/2017 20:10      50.6      50.3       46     30.5      0.00     17.93      58.3     0.46      1022.0     2       230         3       251        8.76     271      -75.0
   03/06/2017 20:00      50.8      50.5       45     30.1      0.00     17.93      58.1     0.46      1022.0     2       208         3       207        8.76     271      -75.3
   03/06/2017 19:50      51.1      50.3       44     29.9      0.00     17.93      58.1     0.46      1022.0     2       195         2       209        8.77     270      -76.3
   03/06/2017 19:40      51.7      51.2       42     28.9      0.00     17.93      58.4     0.46      1021.0     2       205         3       219        8.77     270      -77.3
   03/06/2017 19:30      52.2      51.3       40     28.4      0.00     17.93      58.0     0.46      1021.0     3       212         3       234        8.78     270      -77.5
   03/06/2017 19:20      52.6      52.3       40     28.9      0.00     17.93      58.0     0.46      1021.0     3       252         4       256        8.78     270      -79.6
   03/06/2017 19:10      52.5      50.4       40     28.1      0.00     17.93      58.3     0.46      1021.0     4       268         6       301        8.78     270      -78.3
   03/06/2017 19:00      51.1      50.4       40     27.5      0.00     17.93      58.0     0.46      1021.0     1       190         2       247        8.78     270      -78.3
   03/06/2017 18:50      52.4      51.3       38     27.1      0.00     17.93      57.9     0.46      1021.0     1       185         1       159        8.78     270      -80.7
   03/06/2017 18:40      53.5      52.6       37     27.4      0.00     17.93      57.9     0.46      1021.0     1       258         2       267        8.79     270      -83.8
   03/06/2017 18:30      54.1      53.6       35     26.9      0.00     17.93      58.0     0.46      1021.0     2       237         4       226        8.79     269      -86.0
   03/06/2017 18:20      54.5      54.1       34     26.8      0.00     17.93      57.9     0.46      1021.0     3       242         5       250        8.79     269      -87.3
   03/06/2017 18:10      55.6      54.5       34     27.0      0.00     17.93      57.9     0.46      1020.0     3       238         6       264        8.79     269      -88.1
   03/06/2017 18:00      56.4      55.8       31     25.8      0.00     17.93      57.9     0.46      1020.0     4       264         6       260        8.79     269      -87.7
   03/06/2017 17:50      56.8      56.4       30     25.4      0.00     17.93      57.8     0.46      1020.0     3       279         6       269        8.79     269      -86.4
   03/06/2017 17:40      57.2      57.0       29     25.2      0.00     17.93      57.6     0.46      1020.0     4       284         6       299        8.79     269      -84.6
   03/06/2017 17:30      58.0      57.4       28     25.1      0.00     17.93      57.9     0.46      1020.0     5       268         8       265        8.80     269      -81.2
   03/06/2017 17:20      59.1      58.2       28     25.6      0.00     17.93      57.8     0.46      1020.0     6       264        11       254        8.80     269      -43.7
   03/06/2017 17:10      59.7      59.3       28     26.1      0.00     17.93      57.7     0.46      1020.0     5       299         9       255        8.80     269      -23.5
   03/06/2017 17:00      60.7      60.1       28     27.2      0.00     17.93      57.6     0.46      1020.0     5       300         9       293        8.80     269       -1.5
   03/06/2017 16:50      61.3      60.2       28     27.5      0.00     17.93      57.6     0.46      1020.0     5       264         8       260        8.80     269       25.3
   03/06/2017 16:40      61.3      60.8       27     27.0      0.00     17.93      57.6     0.46      1020.0     6       298         9       336        8.81     269       52.2
   03/06/2017 16:30      61.7      61.0       26     26.4      0.00     17.93      57.3     0.46      1020.0     6       265         8       309        8.82     269       78.7
   03/06/2017 16:20      61.9      61.4       26     26.1      0.00     17.93      57.4     0.46      1020.0     5       273         9       253        8.82     269      104.5
   03/06/2017 16:10      62.3      61.5       25     25.2      0.00     17.93      57.3     0.46      1020.0     4       293         7       263        8.83     269      130.7
   03/06/2017 16:00      62.6      61.9       23     23.5      0.00     17.93      57.3     0.46      1020.0     5       295        10       304        8.83     269      156.3
   03/06/2017 15:50      63.5      62.3       21     22.4      0.00     17.93      57.3     0.46      1020.0     6       301         9       265        8.84     270      180.0
   03/06/2017 15:40      63.9      63.0       16     15.7      0.00     17.93      57.3     0.46      1020.0     5       341         8        10        8.84     270      199.8
   03/06/2017 15:30      63.4      62.9       18     18.8      0.00     17.93      57.1     0.46      1020.0     6       309         9       322        8.84     270      221.3
   03/06/2017 15:20      63.7      63.2       16     16.0      0.00     17.93      57.1     0.46      1020.0     5       315        10       343        8.84     269      228.1
   03/06/2017 15:10      64.0      63.0       15     14.7      0.00     17.93      57.1     0.46      1020.0     9       318        12       323        8.84     269      250.3
   03/06/2017 15:00      64.2      63.9       14     14.1      0.00     17.93      57.0     0.46      1020.0     8       326        15       337        8.84     270      268.9
   03/06/2017 14:50      64.5      64.0       14     14.2      0.00     17.93      57.0     0.46      1020.0     8       329        13       322        8.85     270      289.8
   03/06/2017 14:40      64.7      63.9       15     16.0      0.00     17.93      57.0     0.46      1020.0     6       316         9       299        8.85     270      306.7
   03/06/2017 14:30      64.2      63.6       16     16.9      0.00     17.93      56.8     0.46      1020.0     3       319         6         9        8.85     270      335.7
   03/06/2017 14:20      65.1      64.0       17     18.6      0.00     17.93      56.8     0.46      1020.0     4         5         9       330        8.85     271      354.6
   03/06/2017 14:10      64.1      63.0       18     18.8      0.00     17.93      56.8     0.46      1020.0     4       310         8       272        8.85     271      373.3
   03/06/2017 14:00      63.9      63.1       17     18.4      0.00     17.93      56.8     0.46      1020.0     4       297         9       299        8.85     271      387.9
   03/06/2017 13:50      63.9      63.1       17     18.4      0.00     17.93      56.7     0.46      1020.0     4       334         8       345        8.85     271      401.7
   03/06/2017 13:40      64.3      63.3       18     19.0      0.00     17.93      56.7     0.46      1020.0     4       343        10       357        8.85     271      412.1
   03/06/2017 13:30      63.6      62.3       18     18.9      0.00     17.93      56.6     0.46      1020.0     2        12         5         2        8.85     271      424.2
   03/06/2017 13:20      63.1      62.3       18     18.4      0.00     17.93      56.5     0.46      1020.0     3       305         6       340        8.85     271      437.2
   03/06/2017 13:10      62.4      61.5       18     18.4      0.00     17.93      56.6     0.46      1020.0     4       356         7         1        8.85     271      447.9
   03/06/2017 13:00      62.8      62.0       19     19.6      0.00     17.93      56.5     0.46      1021.0     3         7         7        28        8.85     271      458.1
   03/06/2017 12:50      62.4      61.3       19     19.0      0.00     17.93      56.6     0.46      1021.0     5        33         7       355        8.85     271      466.7
   03/06/2017 12:40      61.8      61.1       20     19.7      0.00     17.93      56.5     0.46      1021.0     4       355        11         6        8.85     272      474.9
   03/06/2017 12:30      61.3      59.7       20     19.8      0.00     17.93      56.7     0.46      1021.0     7       348        11         0        8.85     272      483.2
   03/06/2017 12:20      60.2      59.9       20     19.3      0.00     17.93      56.6     0.46      1021.0     6         4         8       357        8.85     271      485.3
   03/06/2017 12:10      60.6      59.6       20     19.2      0.00     17.93      56.6     0.46      1021.0     7       357        10       359        8.85     271      488.4
   03/06/2017 12:00      60.5      59.3       23     21.8      0.00     17.93      56.6     0.46      1022.0     4       328         9         0        8.86     271      486.8
   03/06/2017 11:50      59.7      58.7       23     21.4      0.00     17.93      56.6     0.46      1022.0     5       353         8       318        8.86     272      487.8
   03/06/2017 11:40      59.1      58.5       24     21.8      0.00     17.93      56.5     0.46      1022.0     5         3         8         4        8.86     272      486.6
   03/06/2017 11:30      59.5      58.5       23     21.5      0.00     17.93      56.7     0.46      1022.0     6         7        10       354        8.86     272      484.2
   03/06/2017 11:20      59.1      57.7       23     20.6      0.00     17.93      56.7     0.46      1022.0     5       316         9       288        8.86     272      481.1
   03/06/2017 11:10      57.8      57.0       25     21.9      0.00     17.93      56.7     0.46      1022.0     5         7         9         4        8.86     273      476.2
   03/06/2017 11:00      57.6      56.3       25     21.8      0.00     17.93      56.5     0.46      1022.0     5       339         8       327        8.86     274      471.6
   03/06/2017 10:50      57.0      56.4       26     22.4      0.00     17.93      56.7     0.46      1023.0     8       343        10       346        8.86     274      464.5
   03/06/2017 10:40      56.2      55.6       27     22.0      0.00     17.93      56.6     0.46      1023.0     7       354        12         3        8.86     274      457.2
   03/06/2017 10:30      55.6      54.5       28     22.1      0.00     17.93      56.8     0.46      1023.0     8       332        11       330        8.86     275      448.5
   03/06/2017 10:20      55.0      54.4       29     22.8      0.00     17.93      56.8     0.46      1023.0     7       346         9         9        8.86     277      435.4
   03/06/2017 10:10      54.8      53.7       29     23.0      0.00     17.93      56.8     0.46      1023.0     6       332        10       319        8.86     279      422.3
   03/06/2017 10:00      54.1      53.1       31     23.4      0.00     17.93      56.8     0.46      1023.0     7       353        10         4        8.86     284      409.3
   03/06/2017 09:50      53.0      52.1       31     22.8      0.00     17.93      57.0     0.46      1023.0     9         3        14       348        8.86     288      395.9
   03/06/2017 09:40      52.6      52.1       32     23.1      0.00     17.93      56.8     0.46      1023.0     8       352        13       353        8.86     292      379.1
   03/06/2017 09:30      52.5      51.2       34     24.1      0.00     17.93      56.9     0.46      1023.0     7       351        11       347        8.86     296      362.0
   03/06/2017 09:20      51.3      51.0       35     24.2      0.00     17.93      57.1     0.46      1023.0     8       351         9         3        8.86     299      344.5
   03/06/2017 09:10      50.9      49.8       35     24.0      0.00     17.93      57.0     0.46      1023.0     7       357        11       350        8.86     302      326.9
   03/06/2017 09:00      49.8      49.5       37     24.3      0.00     17.93      57.0     0.46      1023.0    10       352        13       348        8.86     306      308.9
   03/06/2017 08:50      49.7      48.6       38     24.9      0.00     17.93      57.0     0.46      1023.0     7       339        13       339        8.86     311      289.5
   03/06/2017 08:40      48.4      48.0       39     24.6      0.00     17.93      57.2     0.46      1023.0    10       338        16       356        8.86     316      270.6
   03/06/2017 08:30      48.2      47.8       40     24.8      0.00     17.93      57.1     0.46      1023.0    10       325        16       317        8.86     320      251.1
   03/06/2017 08:20      47.8      46.9       41     25.1      0.00     17.93      57.1     0.46      1023.0    10       327        14       352        8.86     322      229.4
   03/06/2017 08:10      47.1      46.8       42     25.3      0.00     17.93      57.2     0.46      1023.0     9       337        15       348        8.86     327      205.1
   03/06/2017 08:00      47.1      46.5       43     25.5      0.00     17.93      57.3     0.46      1023.0     7       340        13       328        8.86     328      179.1
   03/06/2017 07:50      46.6      46.4       43     25.4      0.00     17.93      57.0     0.46      1023.0     9       357        12         3        8.87     328      151.9
   03/06/2017 07:40      46.7      46.4       44     25.6      0.00     17.93      57.2     0.46      1023.0     8         9        12       358        8.87     328      120.9
   03/06/2017 07:30      46.9      45.9       44     25.6      0.00     17.93      57.3     0.46      1023.0     4       354         8       356        8.87     329       89.0
   03/06/2017 07:20      45.8      44.1       45     25.1      0.00     17.93      57.3     0.46      1023.0     7       352        11       357        8.87     328       32.0
   03/06/2017 07:10      43.8      41.5       53     26.9      0.00     17.93      57.1     0.46      1022.0     2        44         4         7        8.87     328       -8.6
   03/06/2017 07:00      41.0      38.5       64     28.6      0.00     17.93      57.5     0.46      1022.0     2       162         3       144        8.87     326      -43.6
   03/06/2017 06:50      38.6      37.0       69     28.4      0.00     17.93      57.5     0.46      1022.0     2       129         3       121        8.87     325      -54.6
   03/06/2017 06:40      37.3      36.8       70     28.2      0.00     17.93      57.7     0.46      1022.0     2       144         3       167        8.87     324      -57.7
   03/06/2017 06:30      37.3      36.8       70     28.1      0.00     17.93      57.7     0.46      1022.0     2       137         3       136        8.87     322      -61.6
   03/06/2017 06:20      37.6      37.0       69     27.9      0.00     17.93      57.6     0.46      1022.0     2       137         2       132        8.87     321      -65.1
   03/06/2017 06:10      37.6      37.4       67     27.7      0.00     17.93      57.6     0.46      1022.0     1       177         2       161        8.87     319      -67.2
   03/06/2017 06:00      38.5      37.7       65     27.2      0.00     17.93      57.8     0.46      1022.0     2       165         3       138        8.87     317      -68.2
   03/06/2017 05:50      39.0      38.7       62     26.9      0.00     17.93      57.4     0.46      1021.0     1       185         2       173        8.87     316      -68.5
   03/06/2017 05:40      39.4      39.1       60     26.7      0.00     17.93      57.9     0.46      1021.0     1       230         1        37        8.87     315      -69.9
   03/06/2017 05:30      38.9      38.1       64     27.3      0.00     17.93      57.9     0.46      1021.0     2       130         3       158        8.87     313      -69.2
   03/06/2017 05:20      39.5      38.6       62     27.3      0.00     17.93      57.7     0.46      1021.0     2       192         3       183        8.87     312      -68.8
   03/06/2017 05:10      41.9      39.9       56     26.6      0.00     17.93      57.7     0.46      1021.0     2       139         3       139        8.87     311      -69.8
   03/06/2017 05:00      44.1      42.4       50     25.5      0.00     17.93      57.9     0.46      1021.0     1        92         3       348        8.87     310      -70.9
   03/06/2017 04:50      44.3      43.8       46     24.5      0.00     17.93      57.8     0.46      1021.0     3       337         7       306        8.87     309      -71.8
   03/06/2017 04:40      44.2      43.5       46     24.5      0.00     17.93      57.9     0.46      1021.0     4       313         7       341        8.87     308      -71.3
   03/06/2017 04:30      43.5      41.6       50     25.2      0.00     17.93      58.1     0.46      1021.0     4       294         7       319        8.87     306      -70.4
   03/06/2017 04:20      41.7      39.3       58     27.3      0.00     17.93      58.0     0.46      1021.0     3       283         3       279        8.87     306      -69.4
   03/06/2017 04:10      39.1      37.6       70     29.3      0.00     17.93      58.0     0.46      1020.0     2       227         4       264        8.87     304      -68.9
   03/06/2017 04:00      38.4      37.5       73     30.1      0.00     17.93      58.0     0.46      1020.0     2       179         4       147        8.87     303      -68.9
   03/06/2017 03:50      38.3      37.7       73     30.2      0.00     17.93      58.1     0.46      1020.0     3       150         4       135        8.87     302      -69.3
   03/06/2017 03:40      38.8      37.6       72     29.9      0.00     17.93      58.1     0.46      1020.0     2       162         3       197        8.87     301      -68.8
   03/06/2017 03:30      37.9      37.5       75     30.4      0.00     17.93      58.3     0.46      1020.0     2       186         3       160        8.87     300      -69.3
   03/06/2017 03:20      38.1      37.6       75     30.7      0.00     17.93      58.1     0.46      1020.0     1       149         2        68        8.87     299      -69.8
   03/06/2017 03:10      37.9      36.9       76     30.9      0.00     17.93      58.2     0.46      1020.0     1       173         1       183        8.87     298      -68.9
   03/06/2017 03:00      38.2      36.9       76     30.9      0.00     17.93      58.5     0.46      1020.0     1       125         2       219        8.87     296      -70.0
   03/06/2017 02:50      38.5      37.6       76     31.2      0.00     17.93      58.1     0.46      1020.0     1       152         3       196        8.87     295      -69.5
   03/06/2017 02:40      38.6      37.9       77     31.5      0.00     17.93      58.2     0.46      1020.0     1       260         2       237        8.87     294      -69.7
   03/06/2017 02:30      38.4      38.1       77     31.7      0.00     17.93      58.3     0.46      1020.0     1       109         2       359        8.87     293      -70.4
   03/06/2017 02:20      38.9      38.2       76     31.8      0.00     17.93      58.4     0.46      1020.0     1       159         1       201        8.87     292      -70.0
   03/06/2017 02:10      40.0      39.1       73     31.6      0.00     17.93      58.3     0.46      1020.0     2       178         3       165        8.87     291      -69.9
   03/06/2017 02:00      41.0      40.4       69     31.2      0.00     17.93      58.5     0.46      1020.0     2       208         3       225        8.87     290      -69.3
   03/06/2017 01:50      41.3      40.8       68     31.4      0.00     17.93      58.5     0.46      1020.0     2       208         4       218        8.87     289      -69.9
   03/06/2017 01:40      40.9      39.3       72     31.8      0.00     17.93      58.7     0.47      1020.0     2       226         4       201        8.87     288      -69.9
   03/06/2017 01:30      39.5      38.9       76     32.4      0.00     17.93      58.6     0.46      1020.0     2       226         3       223        8.87     287      -69.8
   03/06/2017 01:20      39.0      38.7       79     32.8      0.00     17.93      58.5     0.46      1020.0     1       223         2       233        8.87     286      -70.6
   03/06/2017 01:10      40.2      38.8       76     32.6      0.00     17.93      58.8     0.47      1020.0     1        71         2       353        8.87     285      -71.8
   03/06/2017 01:00      41.0      40.4       71     32.2      0.00     17.93      58.5     0.46      1020.0     1       219         2       254        8.87     284      -71.1
   03/06/2017 00:50      41.8      40.5       71     32.5      0.00     17.93      58.6     0.47      1020.0     2       231         3       226        8.87     283      -71.5
   03/06/2017 00:40      42.2      41.7       69     32.6      0.00     17.93      58.7     0.47      1020.0     2       226         3       228        8.87     283      -71.8
   03/06/2017 00:30      42.5      42.4       68     32.8      0.00     17.93      58.9     0.47      1020.0     2       216         3       215        8.87     282      -72.0
   03/06/2017 00:20      42.4      41.3       71     33.1      0.00     17.93      58.8     0.47      1020.0     2       231         4       225        8.87     281      -71.7
   03/06/2017 00:10      41.4      40.5       75     33.4      0.00     17.93      58.8     0.47      1019.0     2       231         3       221        8.87     281      -71.2
   03/06/2017 00:00      40.6      40.5       77     33.9      0.00     17.93      58.8     0.47      1019.0     1       257         2       260        8.87     280      -71.4
   03/05/2017 23:50      41.2      40.5       76     33.9      0.00     17.93      58.8     0.47      1019.0     1       283         2       228        8.87     279      -72.2
   03/05/2017 23:40      42.1      41.1       73     33.8      0.00     17.93      58.5     0.47      1019.0     1       348         1       339        8.87     278      -72.8
   03/05/2017 23:30      42.3      42.2       72     33.9      0.00     17.93      58.9     0.47      1019.0     1       230         2       258        8.87     277      -71.9
   03/05/2017 23:20      42.2      41.6       73     34.0      0.00     17.93      58.8     0.47      1019.0     1       224         2       236        8.87     277      -73.3
   03/05/2017 23:10      44.0      42.4       69     33.7      0.00     17.93      59.0     0.47      1019.0     2        64         3       208        8.87     276      -74.8
   03/05/2017 23:00      44.0      43.2       69     34.0      0.00     17.93      58.7     0.47      1019.0     3       231         5       239        8.87     276      -74.1
   03/05/2017 22:50      43.2      42.6       71     33.9      0.00     17.93      58.9     0.47      1019.0     3       237         3       232        8.87     275      -73.3
   03/05/2017 22:40      44.1      42.6       69     33.6      0.00     17.93      58.8     0.47      1019.0     2       228         3       226        8.87     275      -73.4
   03/05/2017 22:30      44.2      43.5       68     33.8      0.00     17.93      58.9     0.47      1019.0     2       227         2       218        8.87     274      -74.0
   03/05/2017 22:20      45.2      44.0       65     33.4      0.00     17.93      58.9     0.47      1019.0     1       356         2        57        8.87     274      -77.0
   03/05/2017 22:10      45.5      45.1       63     33.6      0.00     17.93      58.9     0.47      1019.0     2       220         3       235        8.87     274      -77.3
   03/05/2017 22:00      45.9      45.4       62     33.5      0.00     17.93      59.1     0.47      1019.0     2       221         3       220        8.87     273      -78.2
   03/05/2017 21:50      46.4      45.9       61     33.4      0.00     17.93      58.9     0.47      1019.0     4       232         5       253        8.87     273      -79.3
   03/05/2017 21:40      46.7      46.5       59     33.1      0.00     17.93      59.0     0.47      1019.0     4       235         6       232        8.87     273      -79.3
   03/05/2017 21:30      47.0      46.8       58     33.0      0.00     17.93      59.0     0.47      1019.0     3       230         5       226        8.87     272      -79.3
   03/05/2017 21:20      47.0      46.6       58     32.9      0.00     17.93      59.0     0.47      1019.0     4       236         5       251        8.87     272      -78.8
   03/05/2017 21:10      46.5      46.3       59     32.8      0.00     17.93      59.3     0.47      1018.0     3       228         6       216        8.87     272      -78.4
   03/05/2017 21:00      46.8      46.3       59     33.0      0.00     17.93      59.3     0.47      1018.0     2       238         3       223        8.87     272      -79.1
   03/05/2017 20:50      47.4      46.9       58     33.0      0.00     17.93      59.0     0.47      1018.0     2       218         3       232        8.87     272      -79.8
   03/05/2017 20:40      47.7      47.4       57     33.1      0.00     17.93      59.2     0.47      1018.0     3       234         5       252        8.87     272      -80.2
   03/05/2017 20:30      48.1      47.5       57     33.1      0.00     17.93      59.1     0.47      1018.0     4       227         6       248        8.87     272      -80.5
   03/05/2017 20:20      48.6      48.3       55     32.8      0.00     17.93      59.2     0.47      1018.0     5       239         8       210        8.87     271      -79.6
   03/05/2017 20:10      48.7      48.5       53     32.4      0.00     17.93      59.0     0.47      1017.0     3       358         5       263        8.87     272      -80.1
   03/05/2017 20:00      48.6      48.5       53     32.3      0.00     17.93      58.9     0.47      1017.0     3       262         7       262        8.87     271      -81.4
   03/05/2017 19:50      48.9      48.5       52     32.1      0.00     17.93      59.1     0.47      1017.0     4       230         6       241        8.87     271      -82.0
   03/05/2017 19:40      49.2      48.9       52     32.0      0.00     17.93      59.0     0.47      1017.0     5       230         7       228        8.87     272      -82.3
   03/05/2017 19:30      49.2      49.1       52     32.3      0.00     17.93      59.0     0.47      1017.0     5       230         7       250        8.87     271      -83.1
   03/05/2017 19:20      49.3      49.0       53     32.9      0.00     17.93      59.2     0.47      1016.0     5       227         9       222        8.87     271      -83.5
   03/05/2017 19:10      49.5      49.2       54     33.3      0.00     17.93      59.0     0.47      1016.0     4       227         7       251        8.87     271      -84.1
   03/05/2017 19:00      49.5      49.2       55     33.7      0.00     17.93      59.0     0.47      1016.0     5       230         8       233        8.87     271      -84.1
   03/05/2017 18:50      50.0      49.5       54     33.8      0.00     17.93      59.2     0.47      1016.0     4       232         7       222        8.87     271      -84.5
   03/05/2017 18:40      50.5      50.1       53     33.6      0.00     17.93      59.0     0.47      1016.0     5       241         8       252        8.87     270      -84.6
   03/05/2017 18:30      51.0      50.5       52     33.6      0.00     17.93      58.9     0.47      1016.0     5       250         7       258        8.87     271      -85.2
   03/05/2017 18:20      51.3      50.9       51     33.7      0.00     17.93      59.1     0.47      1016.0     6       246         9       237        8.87     270      -85.4
   03/05/2017 18:10      51.7      51.4       50     33.4      0.00     17.93      58.8     0.47      1016.0     6       247         8       284        8.87     270      -85.7
   03/05/2017 18:00      52.3      51.8       49     33.6      0.00     17.93      59.1     0.47      1015.0     8       251        16       255        8.87     270      -84.2
   03/05/2017 17:50      52.6      52.2       50     34.1      0.00     17.93      58.9     0.47      1015.0     8       246        12       245        8.87     270      -80.6
   03/05/2017 17:40      53.1      52.5       48     33.9      0.00     17.93      58.8     0.47      1015.0     9       236        18       237        8.87     270      -76.4
   03/05/2017 17:30      53.9      53.2       47     33.9      0.00     17.93      59.0     0.47      1015.0     7       235        16       237        8.87     270      -72.9
   03/05/2017 17:20      54.3      54.1       46     33.6      0.00     17.93      59.0     0.47      1015.0     5       246         8       262        8.87     269      -40.1
   03/05/2017 17:10      55.0      54.4       44     33.4      0.00     17.93      58.9     0.47      1015.0     6       231         9       254        8.87     269      -14.8
   03/05/2017 17:00      55.2      54.9       43     33.2      0.00     17.93      59.0     0.47      1015.0     9       254        15       270        8.87     269        6.6
   03/05/2017 16:50      55.9      55.5       44     34.0      0.00     17.93      58.7     0.47      1015.0     6       230        11       247        8.87     269       33.1
   03/05/2017 16:40      55.6      55.4       45     34.6      0.00     17.93      58.6     0.47      1015.0     7       226        10       244        8.87     270       61.9
   03/05/2017 16:30      56.1      55.6       44     34.0      0.00     17.93      58.7     0.47      1015.0     6       219         9       230        8.87     270       88.2
   03/05/2017 16:20      57.0      56.1       42     33.5      0.00     17.93      59.0     0.47      1014.0     7       221        11       265        8.87     270      114.8
   03/05/2017 16:10      57.0      56.4       40     32.4      0.00     17.93      58.7     0.47      1014.0     6       246        10       260        8.87     270      143.5
   03/05/2017 16:00      56.5      56.1       40     32.5      0.00     17.93      58.9     0.47      1014.0     8       224        12       218        8.87     271      171.8
   03/05/2017 15:50      56.8      56.5       45     35.4      0.00     17.93      58.7     0.47      1014.0     7       232        12       252        8.87     271      198.0
   03/05/2017 15:40      56.8      56.5       48     37.0      0.00     17.93      58.8     0.47      1014.0     7       234        11       262        8.87     271      226.1
   03/05/2017 15:30      57.0      56.4       51     38.9      0.00     17.93      58.8     0.47      1015.0     7       243        12       222        8.87     272      276.4
   03/05/2017 15:20      57.3      56.5       53     40.0      0.00     17.93      58.6     0.47      1015.0     8       231        11       233        8.87     271      255.5
   03/05/2017 15:10      57.5      56.2       53     40.1      0.00     17.93      58.6     0.47      1015.0     6       243         9       234        8.90     271      295.4
   03/05/2017 15:00      57.9      56.4       52     39.4      0.00     17.93      58.6     0.47      1015.0     9       247        13       250        8.91     270      225.5
   03/05/2017 14:50      57.5      56.7       48     37.9      0.00     17.93      58.5     0.47      1014.0    11       246        17       249        8.91     271      188.4
   03/05/2017 14:40      58.2      57.2       48     37.9      0.00     17.93      58.6     0.47      1014.0    11       253        17       261        8.91     271      286.2
   03/05/2017 14:30      58.3      57.8       49     39.2      0.00     17.93      58.7     0.47      1014.0     9       238        15       253        8.91     271      294.4
   03/05/2017 14:20      58.2      58.0       51     40.1      0.00     17.93      58.5     0.47      1014.0     7       240        15       247        8.91     272      412.7
   03/05/2017 14:10      58.5      57.9       52     40.6      0.00     17.93      58.7     0.47      1014.0     6       238        10       235        8.91     273      338.3
   03/05/2017 14:00      58.2      56.9       55     41.0      0.00     17.93      58.5     0.47      1014.0     7       233         9       221        8.91     272      303.9
   03/05/2017 13:50      57.6      56.7       53     40.5      0.00     17.93      58.4     0.47      1014.0     8       247        13       261        8.91     272      265.0
   03/05/2017 13:40      57.5      56.7       56     41.5      0.00     17.93      58.6     0.47      1015.0     7       228        12       245        8.91     273      309.7
   03/05/2017 13:30      57.1      56.4       57     41.9      0.00     17.93      58.6     0.47      1015.0     7       239        11       201        8.91     273      319.4
   03/05/2017 13:20      56.7      56.1       59     42.2      0.00     17.93      58.5     0.47      1015.0     8       233        11       239        8.91     274      252.8
   03/05/2017 13:10      57.4      56.5       60     43.4      0.00     17.93      58.5     0.47      1015.0    10       231        18       229        8.91     274      396.1
   03/05/2017 13:00      56.7      55.9       70     46.7      0.00     17.93      58.5     0.47      1015.0     7       245        10       237        8.91     276      375.9
   03/05/2017 12:50      55.8      55.0       74     47.0      0.00     17.93      58.5     0.47      1015.0     6       198        10       199        8.91     276      422.5
   03/05/2017 12:40      55.2      54.0       79     48.1      0.00     17.93      58.6     0.47      1015.0     5       171         9       168        8.91     277      449.8
   03/05/2017 12:30      54.1      52.7       84     48.6      0.00     17.93      58.3     0.47      1015.0     5       173         8       179        8.91     278      311.7
   03/05/2017 12:20      52.7      52.1       86     48.4      0.00     17.93      58.4     0.46      1015.0     7       169        10       210        8.91     279      262.3
   03/05/2017 12:10      52.8      52.2       83     47.5      0.00     17.93      58.5     0.46      1015.0     7       205        11       195        8.91     278      237.8
   03/05/2017 12:00      54.1      53.1       77     46.3      0.00     17.93      58.6     0.47      1015.0     7       192        11       213        8.91     275      225.7
   03/05/2017 11:50      54.0      53.7       77     46.9      0.00     17.93      58.4     0.47      1015.0     5       192        10       186        8.91     274      169.0
   03/05/2017 11:40      54.2      52.8       78     46.7      0.00     17.93      58.5     0.47      1015.0     6       187         9       197        8.91     274      225.8
   03/05/2017 11:30      53.8      53.1       74     45.5      0.00     17.93      58.4     0.47      1015.0     6       198        10       232        8.91     274      178.0
   03/05/2017 11:20      55.2      54.1       68     44.4      0.00     17.93      58.7     0.47      1015.0     8       188        15       200        8.91     274      128.8
   03/05/2017 11:10      56.0      55.1       62     42.9      0.00     17.93      58.5     0.47      1015.0     7       175        12       181        8.91     273       82.8
   03/05/2017 11:00      56.4      56.1       60     42.4      0.00     17.93      58.6     0.47      1015.0     9       147        13       177        8.91     273      246.3
   03/05/2017 10:50      56.2      55.0       63     43.1      0.00     17.93      58.8     0.47      1015.0     8       137        12       151        8.91     274      298.0
   03/05/2017 10:40      55.0      54.5       67     43.9      0.00     17.93      58.4     0.47      1015.0     7       167        13       167        8.91     274      190.9
   03/05/2017 10:30      54.7      54.5       67     44.0      0.00     17.93      58.4     0.47      1015.0     6       154         8       158        8.91     274       93.9
   03/05/2017 10:20      54.6      54.4       68     44.1      0.00     17.93      58.6     0.47      1015.0     5       162         7       140        8.91     274       93.2
   03/05/2017 10:10      54.6      53.9       69     44.4      0.00     17.93      58.6     0.47      1015.0     5       172         8       211        8.91     274      158.1
   03/05/2017 10:00      54.1      53.6       70     44.5      0.00     17.93      58.5     0.47      1015.0     6       154         9       173        8.91     274      146.3
   03/05/2017 09:50      54.7      53.8       66     43.3      0.00     17.93      58.6     0.47      1015.0     7       153         9       168        8.91     274       41.6
   03/05/2017 09:40      56.0      54.9       64     43.6      0.00     17.93      58.7     0.47      1015.0     8       157        13       157        8.91     274      140.5
   03/05/2017 09:30      55.7      54.5       65     43.4      0.00     17.93      58.6     0.47      1015.0     5       151         8       161        8.91     275      266.4
   03/05/2017 09:20      54.7      54.5       67     44.0      0.00     17.93      58.8     0.47      1015.0     6       155        10       133        8.91     274      121.4
   03/05/2017 09:10      55.5      54.7       67     44.4      0.00     17.93      58.7     0.47      1015.0     6       137        11       125        8.91     275      147.2
   03/05/2017 09:00      56.6      55.8       65     44.6      0.00     17.93      58.8     0.47      1015.0     6       174        12       179        8.91     275      267.4
   03/05/2017 08:50      57.0      55.1       66     45.0      0.00     17.93      58.5     0.47      1016.0     2       127         4       126        8.91     277      318.8
   03/05/2017 08:40      55.5      55.1       69     45.2      0.00     17.93      58.9     0.47      1015.0     4       141         7       115        8.91     278      262.8
   03/05/2017 08:30      55.3      54.5       72     45.9      0.00     17.93      58.9     0.47      1015.0     3       168         6       163        8.91     279      195.1
   03/05/2017 08:20      54.4      52.6       77     46.5      0.00     17.93      59.0     0.47      1015.0     1        41         2        37        8.91     280      122.4
   03/05/2017 08:10      52.6      52.0       80     46.1      0.00     17.93      58.9     0.47      1015.0     2       328         3       321        8.91     281      108.8
   03/05/2017 08:00      52.4      51.8       81     46.4      0.00     17.93      58.7     0.47      1015.0     1        52         2       107        8.91     282       21.3
   03/05/2017 07:50      51.9      50.6       84     46.4      0.00     17.93      58.7     0.47      1015.0     1       180         2       255        8.92     282      100.0
   03/05/2017 07:40      50.7      49.8       87     46.5      0.00     17.93      58.7     0.47      1015.0     3       248         4       227        8.92     283       53.8
   03/05/2017 07:30      49.6      48.4       90     46.2      0.00     17.93      58.8     0.47      1015.0     2       222         3       236        8.92     283       47.2
   03/05/2017 07:20      48.3      47.6       91     45.4      0.00     17.93      58.5     0.47      1015.0     2       194         2       147        8.92     283       14.2
   03/05/2017 07:10      47.6      47.3       91     45.0      0.00     17.93      58.8     0.47      1015.0     1       175         3       140        8.93     283        2.8
   03/05/2017 07:00      47.7      47.3       91     44.9      0.00     17.93      58.8     0.47      1015.0     1       151         2       145        8.93     283       -1.6
   03/05/2017 06:50      47.8      47.4       91     45.1      0.00     17.93      58.9     0.47      1015.0     1       252         2       234        8.93     283       -6.0
   03/05/2017 06:40      48.1      47.3       90     44.9      0.00     17.93      58.9     0.47      1015.0     1       109         1       106        8.93     282      -20.9
   03/05/2017 06:30      48.3      48.0       89     45.2      0.00     17.93      58.8     0.47      1015.0     0       322         1         7        8.93     281      -29.3
   03/05/2017 06:20      48.9      48.4       88     45.3      0.00     17.93      58.9     0.47      1014.0     1       174         1       134        8.93     281      -31.8
   03/05/2017 06:10      49.5      49.1       87     45.7      0.00     17.93      59.1     0.47      1014.0     1        75         2        65        8.93     280      -36.4
   03/05/2017 06:00      49.7      49.6       88     46.1      0.00     17.93      59.0     0.47      1015.0     1       172         2       169        8.93     280      -25.2
   03/05/2017 05:50      49.9      49.2       88     46.1      0.00     17.93      59.2     0.47      1014.0     1       181         2       143        8.93     279      -16.4
   03/05/2017 05:40      49.4      49.0       89     46.0      0.00     17.93      59.1     0.47      1015.0     2       180         3       152        8.93     280      -11.1
   03/05/2017 05:30      49.2      48.8       90     46.1      0.00     17.93      58.7     0.47      1014.0     2       200         3       203        8.93     280       -6.4
   03/05/2017 05:20      49.0      48.3       91     46.1      0.00     17.93      59.1     0.47      1014.0     2       214         3       223        8.93     280       -6.0
   03/05/2017 05:10      48.5      47.5       92     45.5      0.00     17.93      59.1     0.47      1014.0     2       224         3       220        8.93     280      -12.6
   03/05/2017 05:00      47.6      46.9       92     45.1      0.00     17.93      59.0     0.47      1014.0     2       189         2       171        8.93     280      -25.9
   03/05/2017 04:50      47.3      47.1       92     44.9      0.00     17.93      59.2     0.47      1014.0     2       158         3       166        8.93     280      -27.2
   03/05/2017 04:40      47.7      47.3       92     45.2      0.00     17.93      59.2     0.47      1014.0     2       174         2       157        8.93     279      -26.6
   03/05/2017 04:30      47.6      47.3       92     45.1      0.00     17.93      59.1     0.47      1014.0     2       149         2       143        8.93     279      -34.6
   03/05/2017 04:20      48.3      47.7       91     45.5      0.00     17.93      59.2     0.47      1014.0     2       165         3       167        8.93     278      -42.1
   03/05/2017 04:10      48.1      47.2       91     45.0      0.00     17.93      59.1     0.47      1014.0     2       158         3       159        8.93     278      -43.7
   03/05/2017 04:00      48.3      47.5       90     45.1      0.00     17.93      59.1     0.47      1014.0     2       146         2       155        8.93     278      -46.2
   03/05/2017 03:50      48.5      48.3       89     45.4      0.00     17.93      59.2     0.47      1014.0     1       170         2       142        8.93     277      -53.5
   03/05/2017 03:40      49.0      48.5       88     45.5      0.00     17.93      59.2     0.47      1014.0     2       148         2       132        8.93     277      -55.5
   03/05/2017 03:30      49.4      48.9       87     45.4      0.00     17.93      59.1     0.47      1014.0     1       119         2       160        8.93     276      -51.0
   03/05/2017 03:20      50.3      49.7       85     45.6      0.00     17.93      59.3     0.47      1014.0     1        73         1       100        8.93     276      -46.5
   03/05/2017 03:10      50.5      50.2       85     46.0      0.00     17.93      59.3     0.47      1014.0     2       221         3       225        8.93     276      -42.6
   03/05/2017 03:00      50.3      50.1       85     46.0      0.00     17.93      59.1     0.47      1014.0     2       215         3       222        8.93     275      -42.2
   03/05/2017 02:50      50.9      50.3       85     46.1      0.00     17.93      59.4     0.47      1014.0     1       148         2       163        8.93     275      -53.1
   03/05/2017 02:40      51.3      50.9       84     46.5      0.00     17.93      59.2     0.47      1014.0     2       150         2       153        8.93     275      -58.5
   03/05/2017 02:30      51.6      51.4       84     47.0      0.00     17.93      59.0     0.47      1014.0     1       101         2        80        8.93     275      -60.2
   03/05/2017 02:20      51.8      51.6       86     47.5      0.00     17.93      59.5     0.47      1014.0     1       121         2       179        8.93     274      -47.8
   03/05/2017 02:10      51.9      51.7       87     48.0      0.00     17.93      59.4     0.47      1014.0     2       160         2       158        8.93     274      -37.2
   03/05/2017 02:00      51.8      51.3       88     48.2      0.00     17.93      59.3     0.47      1014.0     2       160         3       164        8.93     274      -22.2
   03/05/2017 01:50      51.3      51.0       89     48.0      0.00     17.93      59.3     0.47      1014.0     2       152         2       143        8.93     274      -15.1
   03/05/2017 01:40      51.4      51.1       89     48.1      0.00     17.93      59.2     0.47      1014.0     1       152         1       163        8.93     274      -10.3
   03/05/2017 01:30      51.3      50.8       89     47.9      0.00     17.93      59.5     0.47      1014.0     1       144         1       163        8.93     274      -27.6
   03/05/2017 01:20      50.9      50.5       88     47.3      0.00     17.93      59.5     0.47      1015.0     1       173         2       154        8.93     274      -20.8
   03/05/2017 01:10      51.4      50.8       86     47.1      0.00     17.93      59.5     0.47      1015.0     2       137         3       149        8.93     274      -23.9
   03/05/2017 01:00      51.8      51.6       86     47.5      0.00     17.93      59.4     0.47      1015.0     1         8         1        14        8.93     274      -48.4
   03/05/2017 00:50      51.7      51.4       86     47.4      0.00     17.93      59.3     0.47      1015.0     1       316         1        27        8.93     274      -42.4
   03/05/2017 00:40      51.4      51.1       85     46.9      0.00     17.93      59.5     0.47      1015.0     0       146         1       142        8.93     274      -28.4
   03/05/2017 00:30      51.5      51.2       85     47.0      0.00     17.93      59.3     0.47      1015.0     1        43         1        63        8.93     274      -38.1
   03/05/2017 00:20      51.3      50.6       86     47.0      0.00     17.93      59.5     0.47      1015.0     1       110         2        94        8.93     274      -43.0
   03/05/2017 00:10      50.8      50.6       86     46.6      0.00     17.93      59.4     0.47      1015.0     2       127         2       138        8.93     274      -31.8
   03/05/2017 00:00      50.9      50.7       86     46.8      0.00     17.93      59.4     0.47      1016.0     1       127         1       161        8.93     274      -21.8
   03/04/2017 23:50      50.9      50.3       87     46.6      0.00     17.93      59.5     0.47      1015.0     1       196         1       172        8.93     274      -40.7
   03/04/2017 23:40      50.7      50.3       86     46.5      0.00     17.93      59.5     0.47      1016.0     1       150         2       165        8.93     274      -43.1
   03/04/2017 23:30      50.9      50.6       86     46.5      0.00     17.93      59.6     0.47      1016.0     1       152         2       141        8.93     274      -42.6
   03/04/2017 23:20      51.5      50.7       84     46.3      0.00     17.93      59.6     0.47      1016.0     2       149         2       130        8.93     273      -45.2
   03/04/2017 23:10      51.9      51.7       83     46.7      0.00     17.93      59.5     0.47      1016.0     1       110         1       109        8.93     273      -49.1
   03/04/2017 23:00      52.0      51.7       83     46.7      0.00     17.93      59.1     0.47      1016.0     2       325         2       323        8.94     273      -47.8
   03/04/2017 22:50      52.3      51.7       82     46.5      0.00     17.93      59.6     0.47      1016.0     1        86         2       148        8.94     273      -43.3
   03/04/2017 22:40      52.9      52.5       80     46.8      0.00     17.93      59.6     0.47      1016.0     1       271         1       183        8.94     273      -44.0
   03/04/2017 22:30      53.0      52.6       80     46.9      0.00     17.93      59.4     0.47      1016.0     1       285         2       264        8.94     273      -42.7
   03/04/2017 22:20      53.0      52.6       80     46.9      0.00     17.93      59.3     0.47      1016.0     2       201         2       181        8.94     273      -43.0
   03/04/2017 22:10      53.2      53.1       80     47.1      0.00     17.93      59.5     0.47      1016.0     1       183         3       143        8.94     273      -46.2
   03/04/2017 22:00      53.4      53.0       80     47.3      0.00     17.93      59.7     0.47      1016.0     3       165         5       129        8.94     273      -47.2
   03/04/2017 21:50      53.4      53.1       81     47.4      0.00     17.93      59.5     0.47      1016.0     3       140         5       143        8.94     272      -46.4
   03/04/2017 21:40      53.3      53.1       81     47.4      0.00     17.93      59.5     0.47      1016.0     3       147         4       144        8.94     273      -46.3
   03/04/2017 21:30      53.6      53.2       81     47.5      0.00     17.93      59.4     0.47      1016.0     2       131         4       137        8.94     272      -47.5
   03/04/2017 21:20      53.7      53.4       80     47.6      0.00     17.93      59.5     0.47      1016.0     4       140         5       145        8.94     272      -48.0
   03/04/2017 21:10      53.8      53.5       80     47.8      0.00     17.93      59.4     0.47      1016.0     4       142         5       139        8.94     272      -47.6
   03/04/2017 21:00      53.7      53.5       82     48.1      0.00     17.93      59.3     0.47      1016.0     3       144         6       148        8.94     272      -47.3
   03/04/2017 20:50      53.5      53.1       81     47.6      0.00     17.93      59.6     0.47      1016.0     4       148         6       138        8.94     272      -47.6
   03/04/2017 20:40      53.3      53.0       78     46.6      0.00     17.93      59.4     0.47      1016.0     2       168         4       173        8.94     272      -49.6
   03/04/2017 20:30      53.2      52.6       78     46.3      0.00     17.93      59.2     0.47      1015.0     2       188         3       173        8.94     272      -49.0
   03/04/2017 20:20      53.0      52.6       78     46.3      0.00     17.93      59.3     0.47      1015.0     1       200         1       161        8.94     272      -48.7
   03/04/2017 20:10      53.6      52.9       77     46.3      0.00     17.93      59.4     0.47      1015.0     1       141         2       158        8.94     272      -54.9
   03/04/2017 20:00      54.0      53.6       76     46.5      0.00     17.93      59.4     0.47      1015.0     1       158         2       157        8.94     272      -62.4
   03/04/2017 19:50      54.1      53.8       77     46.7      0.00     17.93      59.4     0.47      1015.0     2       147         3       137        8.94     272      -63.2
   03/04/2017 19:40      54.5      54.1       76     47.1      0.00     17.93      59.3     0.47      1015.0     3       160         4       152        8.94     271      -64.9
   03/04/2017 19:30      55.1      54.6       75     47.2      0.00     17.93      59.3     0.47      1015.0     2       149         3       163        8.94     271      -61.7
   03/04/2017 19:20      55.3      55.1       75     47.5      0.00     17.93      59.3     0.47      1015.0     3       123         4       131        8.94     271      -60.1
   03/04/2017 19:10      55.5      55.3       74     47.4      0.00     17.93      59.3     0.47      1015.0     3       120         5       149        8.94     272      -61.2
   03/04/2017 19:00      55.7      55.4       73     46.9      0.00     17.93      59.3     0.47      1015.0     5       139         7       139        8.94     271      -62.0
   03/04/2017 18:50      55.8      55.3       70     45.8      0.00     17.93      59.2     0.47      1015.0     3       147         4       129        8.94     271      -61.8
   03/04/2017 18:40      56.4      55.9       66     45.1      0.00     17.93      59.1     0.47      1015.0     2       149         4       105        8.94     271      -64.5
   03/04/2017 18:30      56.7      56.4       65     44.9      0.00     17.93      59.3     0.47      1015.0     3       133         4       140        8.94     270      -69.5
   03/04/2017 18:20      57.2      56.9       61     43.7      0.00     17.93      59.1     0.47      1015.0     4       128         6       130        8.94     271      -75.3
   03/04/2017 18:10      57.6      57.1       60     43.7      0.00     17.93      59.1     0.47      1015.0     4       106         5       119        8.94     270      -74.9
   03/04/2017 18:00      58.4      57.8       58     43.2      0.00     17.93      59.1     0.47      1015.0     3       102         5       115        8.94     270      -73.3
   03/04/2017 17:50      59.2      58.5       53     42.0      0.00     17.93      59.0     0.47      1015.0     3        81         5        58        8.94     270      -71.1
   03/04/2017 17:40      59.6      59.3       50     40.8      0.00     17.93      58.9     0.47      1015.0     2       103         3        68        8.94     270      -65.7
   03/04/2017 17:30      60.5      59.9       47     39.7      0.00     17.93      59.0     0.47      1015.0     3       111         5       103        8.95     269      -61.0
   03/04/2017 17:20      60.9      60.5       46     39.6      0.00     17.93      59.0     0.47      1015.0     3       119         5       131        8.95     269      -45.4
   03/04/2017 17:10      61.4      60.9       44     39.4      0.00     17.93      58.9     0.47      1015.0     5       137         7       138        8.95     269      -12.9
   03/04/2017 17:00      61.7      61.5       43     39.1      0.00     17.93      58.8     0.47      1015.0     4       139         8       144        8.95     269        7.2
   03/04/2017 16:50      62.2      61.8       42     38.5      0.00     17.93      58.7     0.47      1015.0     4       138         6       150        8.95     269        3.9
   03/04/2017 16:40      62.5      62.2       40     37.8      0.00     17.93      58.7     0.47      1015.0     6       134         8       150        8.95     269       19.7
   03/04/2017 16:30      62.8      62.4       40     38.1      0.00     17.93      58.6     0.47      1015.0     6       126         8       136        8.96     269       38.6
   03/04/2017 16:20      63.4      63.0       37     36.6      0.00     17.93      58.6     0.47      1015.0     5       126         8       142        8.96     269       37.5
   03/04/2017 16:10      63.7      63.3       34     34.7      0.00     17.93      58.5     0.47      1015.0     6       133         7       131        8.96     269       41.7
   03/04/2017 16:00      63.9      63.7       32     33.1      0.00     17.93      58.6     0.47      1015.0     6       131         9       162        8.96     269       49.4
   03/04/2017 15:50      64.5      64.2       29     31.5      0.00     17.93      58.3     0.47      1015.0     5       129         8       128        8.97     269       55.0
   03/04/2017 15:40      65.0      64.3       29     31.8      0.00     17.93      58.5     0.47      1015.0     7       129         8       130        8.97     269       62.9
   03/04/2017 15:30      65.4      64.8       28     31.5      0.00     17.93      58.3     0.47      1015.0     5       135         8       144        8.97     269      103.8
   03/04/2017 15:20      65.8      65.2       28     31.7      0.00     17.93      58.3     0.47      1015.0     6       133        10       128        8.97     269      146.9
   03/04/2017 15:10      66.0      65.7       27     30.9      0.00     17.93      58.3     0.47      1015.0     6       154         9       154        8.97     269      208.7
   03/04/2017 15:00      66.3      65.9       25     29.5      0.00     17.93      58.2     0.47      1015.0     5       132         8       159        8.97     269      230.4
   03/04/2017 14:50      66.3      65.5       29     32.6      0.00     17.93      58.3     0.47      1015.0     6       128        11       133        8.98     269      220.2
   03/04/2017 14:40      67.4      65.8       28     32.4      0.00     17.93      58.1     0.47      1015.0     6       132        10       128        8.98     269      226.1
   03/04/2017 14:30      68.2      67.5       27     32.4      0.00     17.93      58.1     0.47      1015.0     6       103         8       122        8.98     269      244.0
   03/04/2017 14:20      68.3      66.9       28     33.7      0.00     17.93      58.2     0.47      1015.0     4        86         7        58        8.98     270      310.3
   03/04/2017 14:10      67.7      67.0       29     34.2      0.00     17.93      58.0     0.47      1015.0     5       106        10       131        8.98     270      345.5
   03/04/2017 14:00      67.4      66.1       32     36.0      0.00     17.93      58.0     0.47      1015.0     4       122         8       141        8.98     271      357.1
   03/04/2017 13:50      67.1      66.6       33     36.6      0.00     17.93      58.0     0.47      1015.0     4       153         5       154        8.98     271      328.4
   03/04/2017 13:40      67.2      66.8       32     36.4      0.00     17.93      57.9     0.47      1015.0     3       154         8       158        8.98     270      298.6
   03/04/2017 13:30      67.4      65.9       30     34.1      0.00     17.93      58.0     0.47      1015.0     5        94         8        93        8.98     271      333.9
   03/04/2017 13:20      66.5      65.8       28     32.1      0.00     17.93      57.8     0.47      1015.0     7       112        10       120        8.98     270      332.3
   03/04/2017 13:10      67.0      65.9       29     32.9      0.00     17.93      57.9     0.47      1015.0     6       114        10       127        8.98     270      347.1
   03/04/2017 13:00      66.9      65.9       31     34.7      0.00     17.93      58.0     0.47      1015.0     6       117         7        86        8.98     270      343.1
   03/04/2017 12:50      67.6      66.3       29     33.4      0.00     17.93      57.8     0.47      1015.0     7       143        11       134        8.98     270      388.0
   03/04/2017 12:40      67.4      66.6       30     34.6      0.00     17.93      57.9     0.47      1016.0     4       130         6       109        8.98     271      411.3
   03/04/2017 12:30      67.2      66.1       29     33.5      0.00     17.93      57.7     0.47      1016.0     5       128         7       146        8.98     271      297.8
   03/04/2017 12:20      67.4      66.8       31     35.1      0.00     17.93      57.8     0.47      1016.0     4       110         6       142        8.99     271      305.7
   03/04/2017 12:10      67.1      66.2       28     32.8      0.00     17.93      57.8     0.46      1016.0     5       132        10       176        8.99     271      408.7
   03/04/2017 12:00      66.5      65.9       26     30.1      0.00     17.93      57.8     0.46      1016.0     5       133         7       138        8.99     271      465.7
   03/04/2017 11:50      66.5      66.2       24     28.3      0.00     17.93      57.8     0.46      1016.0     7       137         9       128        8.99     271      488.2
   03/04/2017 11:40      67.2      66.7       23     27.8      0.00     17.93      57.8     0.46      1016.0     4       113         6       120        8.99     271      428.0
   03/04/2017 11:30      68.4      66.9       27     32.3      0.00     17.93      57.8     0.46      1016.0     4       117         7        77        8.99     272      374.0
   03/04/2017 11:20      68.1      66.4       25     30.6      0.00     17.93      57.8     0.47      1017.0     2       142         3       135        8.99     273      430.5
   03/04/2017 11:10      66.5      65.1       26     29.8      0.00     17.93      57.8     0.47      1017.0     3       125         5       100        8.99     273      364.4
   03/04/2017 11:00      66.8      65.1       27     31.1      0.00     17.93      57.7     0.47      1017.0     5       130         8       120        8.99     273      317.5
   03/04/2017 10:50      67.0      65.3       31     34.7      0.00     17.93      57.8     0.47      1017.0     1        39         2        15        8.99     273      268.1
   03/04/2017 10:40      65.5      65.0       31     34.0      0.00     17.93      57.8     0.47      1017.0     3        19         4       358        8.99     273      233.0
   03/04/2017 10:30      65.5      64.0       32     34.0      0.00     17.93      57.8     0.46      1017.0     1       341         2         1        8.99     273      318.5
   03/04/2017 10:20      63.9      63.1       32     33.4      0.00     17.93      57.8     0.47      1017.0     2       347         3         8        8.99     273      363.2
   03/04/2017 10:10      63.5      62.9       33     33.7      0.00     17.93      57.9     0.47      1017.0     3       329         4       345        8.99     273      351.4
   03/04/2017 10:00      63.2      61.6       34     33.4      0.00     17.93      57.8     0.47      1017.0     1       264         3        42        8.99     274      252.4
   03/04/2017 09:50      62.0      61.5       35     33.5      0.00     17.93      57.8     0.47      1017.0     2         8         4       316        8.99     275      236.7
   03/04/2017 09:40      61.4      59.9       35     32.7      0.00     17.93      57.9     0.47      1017.0     2        49         3         8        8.99     275      336.0
   03/04/2017 09:30      60.1      59.7       36     32.7      0.00     17.93      57.9     0.47      1017.0     2         9         3        18        8.99     276      277.4
   03/04/2017 09:20      59.7      58.3       37     33.1      0.00     17.93      58.0     0.47      1017.0     2        17         3        20        8.99     277      288.3
   03/04/2017 09:10      58.1      57.6       39     32.9      0.00     17.93      57.9     0.47      1017.0     2        13         2        13        8.99     279      265.0
   03/04/2017 09:00      58.0      56.8       40     33.5      0.00     17.93      58.2     0.47      1017.0     1        17         2        40        8.99     281      217.7
   03/04/2017 08:50      56.5      55.5       46     35.5      0.00     17.93      57.9     0.47      1017.0     0       206         1       217        8.99     283      195.7
   03/04/2017 08:40      55.5      53.6       46     33.8      0.00     17.93      58.1     0.47      1017.0     1        48         1        30        9.00     287      172.0
   03/04/2017 08:30      53.4      52.6       52     35.5      0.00     17.93      58.1     0.47      1017.0     1       359         2        43        9.00     289      143.7
   03/04/2017 08:20      52.7      52.0       54     36.4      0.00     17.93      58.1     0.47      1017.0     1       360         2       342        9.00     291      132.3
   03/04/2017 08:10      51.8      50.2       56     35.5      0.00     17.93      58.0     0.47      1017.0     1        35         1        22        9.00     293      135.0
   03/04/2017 08:00      50.1      48.7       56     34.5      0.00     17.93      58.2     0.47      1017.0     1       358         1       331        9.00     295      107.4
   03/04/2017 07:50      48.9      47.2       59     34.4      0.00     17.93      58.0     0.47      1017.0     1        88         1       142        9.00     296       78.5
   03/04/2017 07:40      47.4      45.8       64     35.1      0.00     17.93      58.4     0.47      1017.0     1       160         1       129        9.00     297       66.1
   03/04/2017 07:30      45.6      43.3       70     35.1      0.00     17.93      58.4     0.47      1016.0     0       127         1       132        9.00     298       56.1
   03/04/2017 07:20      43.1      42.4       73     34.7      0.00     17.93      58.3     0.47      1016.0     1       121         1       137        9.00     298       10.1
   03/04/2017 07:10      42.6      42.1       70     33.3      0.00     17.93      58.3     0.47      1016.0     1       152         1       127        9.00     298       -9.6
   03/04/2017 07:00      42.2      41.6       71     33.2      0.00     17.93      58.5     0.47      1016.0     0       199         1       152        9.00     298      -25.4
   03/04/2017 06:50      41.7      41.5       72     33.3      0.00     17.93      58.5     0.47      1016.0     0       313         1       324        9.00     297      -38.2
   03/04/2017 06:40      41.6      41.2       73     33.2      0.00     17.93      58.5     0.47      1016.0     1        32         1       337        9.00     296      -48.7
   03/04/2017 06:30      41.6      41.4       71     33.0      0.00     17.93      58.5     0.47      1016.0     1       145         2       143        9.00     295      -56.4
   03/04/2017 06:20      41.6      41.5       71     32.9      0.00     17.93      58.6     0.47      1016.0     1       142         2       133        9.00     294      -60.8
   03/04/2017 06:10      42.0      41.6       70     32.7      0.00     17.93      58.7     0.47      1016.0     1       148         2       141        9.00     293      -64.5
   03/04/2017 06:00      42.1      41.9       69     32.6      0.00     17.93      58.5     0.47      1016.0     0       163         1       223        9.00     291      -66.1
   03/04/2017 05:50      42.0      41.6       72     33.3      0.00     17.93      58.5     0.47      1016.0     1       209         1       256        9.00     290      -67.1
   03/04/2017 05:40      42.3      41.7       71     33.1      0.00     17.93      58.5     0.47      1016.0     1       181         2       149        9.00     289      -68.1
   03/04/2017 05:30      42.8      42.2       70     33.5      0.00     17.93      58.6     0.47      1016.0     1       177         2       137        9.00     288      -69.5
   03/04/2017 05:20      42.6      42.2       71     33.6      0.00     17.93      58.6     0.47      1016.0     2       156         3       152        9.00     287      -69.8
   03/04/2017 05:10      43.7      42.8       67     33.1      0.00     17.93      58.8     0.47      1016.0     1       141         2       137        9.00     286      -67.7
   03/04/2017 05:00      44.0      43.7       66     33.2      0.00     17.93      58.8     0.47      1016.0     1       138         1       182        9.00     285      -66.9
   03/04/2017 04:50      44.9      44.1       64     33.1      0.00     17.93      58.6     0.47      1015.0     1       190         2       248        9.00     283      -65.4
   03/04/2017 04:40      45.3      44.8       63     33.4      0.00     17.93      58.8     0.47      1015.0     1       274         2       264        9.00     283      -68.3
   03/04/2017 04:30      45.2      44.8       64     33.7      0.00     17.93      58.7     0.47      1015.0     1       297         1       306        9.00     283      -62.6
   03/04/2017 04:20      45.5      45.1       63     33.6      0.00     17.93      58.8     0.47      1015.0     1        49         1        59        9.00     282      -53.0
   03/04/2017 04:10      45.5      45.1       63     33.3      0.00     17.93      58.9     0.47      1015.0     2       132         2       141        9.00     282      -47.6
   03/04/2017 04:00      45.8      45.1       62     33.0      0.00     17.93      58.8     0.47      1015.0     1       134         2       147        9.00     281      -45.2
   03/04/2017 03:50      46.2      46.0       59     32.8      0.00     17.93      58.9     0.47      1015.0     1       360         1       340        9.00     281      -48.9
   03/04/2017 03:40      46.1      45.8       59     32.5      0.00     17.93      59.0     0.47      1015.0     1       160         2       142        9.00     280      -45.1
   03/04/2017 03:30      46.2      45.9       58     32.3      0.00     17.93      59.1     0.47      1015.0     1       145         1       118        9.00     279      -40.8
   03/04/2017 03:20      46.3      45.6       58     32.2      0.00     17.93      59.0     0.47      1015.0     1       177         1       144        9.00     279      -45.0
   03/04/2017 03:10      46.3      45.7       59     32.7      0.00     17.93      59.1     0.47      1015.0     1       133         2       131        9.00     279      -53.0
   03/04/2017 03:00      46.8      46.5       56     31.9      0.00     17.93      59.2     0.47      1015.0     1       162         2       128        9.00     279      -56.0
   03/04/2017 02:50      47.0      46.5       57     32.5      0.00     17.93      59.2     0.47      1015.0     1       108         1       206        9.00     281      -53.3
   03/04/2017 02:40      47.0      46.6       59     33.0      0.00     17.93      59.1     0.47      1015.0     1       176         1       146        9.00     281      -52.1
   03/04/2017 02:30      46.7      46.5       59     33.3      0.00     17.93      58.9     0.47      1015.0     1       177         1       173        9.00     281      -52.5
   03/04/2017 02:20      46.8      46.6       60     33.4      0.00     17.93      59.0     0.47      1015.0     1       119         1       132        9.00     280      -42.4
   03/04/2017 02:10      47.0      46.3       58     32.7      0.00     17.93      59.2     0.47      1015.0     0       104         1       128        9.01     280      -36.7
   03/04/2017 02:00      46.4      45.9       58     32.3      0.00     17.93      59.1     0.47      1015.0     1       217         1       244        9.01     280      -38.9
   03/04/2017 01:50      46.0      45.6       60     32.8      0.00     17.93      59.1     0.47      1015.0     1       158         1       137        9.01     280      -39.1
   03/04/2017 01:40      45.9      45.6       60     32.5      0.00     17.93      59.1     0.47      1016.0     1       130         2       129        9.01     279      -39.7
   03/04/2017 01:30      45.9      45.5       60     32.4      0.00     17.93      59.1     0.47      1016.0     2       140         2       136        9.01     279      -42.9
   03/04/2017 01:20      46.2      45.9       56     31.4      0.00     17.93      59.2     0.47      1016.0     1       153         2       133        9.01     279      -53.8
   03/04/2017 01:10      46.3      45.9       57     31.6      0.00     17.93      59.4     0.47      1016.0     1       224         1       243        9.01     279      -55.8
   03/04/2017 01:00      46.1      45.9       57     31.6      0.00     17.93      59.1     0.47      1016.0     1       139         2       139        9.01     278      -54.9
   03/04/2017 00:50      46.6      46.1       55     31.1      0.00     17.93      59.5     0.47      1016.0     1       164         2       146        9.01     278      -51.6
   03/04/2017 00:40      46.5      45.9       55     30.7      0.00     17.93      59.5     0.47      1016.0     1       185         1       142        9.01     277      -53.8
   03/04/2017 00:30      46.1      45.9       55     30.7      0.00     17.93      59.4     0.47      1016.0     1       162         2       131        9.01     277      -57.5
   03/04/2017 00:20      46.2      45.9       55     30.9      0.00     17.93      59.4     0.47      1016.0     1       203         1       127        9.01     277      -60.2
   03/04/2017 00:10      46.3      45.9       55     30.9      0.00     17.93      59.3     0.47      1016.0     1       173         2       133        9.01     276      -60.8
   03/04/2017 00:00      46.5      46.3       54     30.5      0.00     17.93      59.5     0.47      1015.0     1       156         1       126        9.01     276      -62.3
   03/03/2017 23:50      47.0      46.3       54     30.7      0.00     17.93      59.4     0.47      1016.0     1       173         2       127        9.01     276      -65.9
   03/03/2017 23:40      47.8      47.0       50     29.4      0.00     17.93      59.4     0.47      1016.0     1       157         2       126        9.01     275      -68.2
   03/03/2017 23:30      47.9      47.4       48     29.1      0.00     17.93      59.4     0.47      1016.0     1       207         1       214        9.01     275      -69.5
   03/03/2017 23:20      47.8      47.4       50     30.2      0.00     17.93      59.5     0.47      1016.0     1       170         1       152        9.02     274      -71.5
   03/03/2017 23:10      47.9      47.7       52     30.8      0.00     17.93      59.5     0.47      1016.0     1       164         1       129        9.02     274      -71.9
   03/03/2017 23:00      47.9      47.7       52     30.9      0.00     17.93      59.5     0.47      1016.0     1       129         1       127        9.02     274      -72.4
   03/03/2017 22:50      48.8      47.8       52     31.4      0.00     17.93      59.5     0.47      1016.0     1       100         2       120        9.02     274      -72.8
   03/03/2017 22:40      49.0      48.8       49     30.5      0.00     17.93      59.4     0.47      1016.0     1       134         2       134        9.02     273      -72.9
   03/03/2017 22:30      49.3      49.1       47     29.9      0.00     17.93      59.4     0.47      1015.0     1       198         1       203        9.02     273      -73.3
   03/03/2017 22:20      49.8      49.4       47     29.9      0.00     17.93      59.5     0.47      1015.0     1       185         2       167        9.02     272      -73.8
   03/03/2017 22:10      49.9      49.6       47     30.4      0.00     17.93      59.7     0.47      1015.0     1       175         2       172        9.02     272      -74.6
   03/03/2017 22:00      51.3      50.0       45     29.9      0.00     17.93      59.5     0.47      1015.0     1       163         2       169        9.02     272      -75.3
   03/03/2017 21:50      51.3      51.0       42     29.1      0.00     17.93      59.4     0.47      1015.0     1       221         1       191        9.02     272      -75.3
   03/03/2017 21:40      51.3      50.7       44     29.9      0.00     17.93      59.4     0.47      1015.0     1       199         1       180        9.02     272      -75.6
   03/03/2017 21:30      51.4      51.1       44     30.4      0.00     17.93      59.4     0.47      1015.0     1       159         2       124        9.02     272      -75.4
   03/03/2017 21:20      51.9      51.1       46     31.2      0.00     17.93      59.3     0.47      1015.0     1       174         3       142        9.02     271      -75.3
   03/03/2017 21:10      52.2      51.9       43     30.4      0.00     17.93      59.4     0.47      1015.0     1       180         2       180        9.03     271      -76.5
   03/03/2017 21:00      52.6      52.2       44     31.0      0.00     17.93      59.5     0.47      1015.0     2       145         3       130        9.03     271      -77.4
   03/03/2017 20:50      54.0      52.9       41     30.1      0.00     17.93      59.5     0.47      1015.0     1       159         2       189        9.03     271      -77.3
   03/03/2017 20:40      54.9      54.1       37     29.2      0.00     17.93      59.2     0.47      1015.0     1       188         2       194        9.03     271      -77.8
   03/03/2017 20:30      55.1      54.8       36     28.7      0.00     17.93      59.5     0.47      1015.0     1       153         2       172        9.03     270      -80.1
   03/03/2017 20:20      55.3      54.7       37     29.5      0.00     17.93      59.5     0.47      1015.0     1        54         1       172        9.03     270      -80.9
   03/03/2017 20:10      56.6      55.4       38     30.8      0.00     17.93      59.1     0.47      1015.0     1       109         2       142        9.03     270      -82.2
   03/03/2017 20:00      57.7      56.8       36     30.3      0.00     17.93      59.3     0.47      1015.0     2       165         4       184        9.03     270      -81.6
   03/03/2017 19:50      59.4      58.0       34     29.9      0.00     17.93      59.3     0.47      1015.0     2       185         3       191        9.03     270      -81.3
   03/03/2017 19:40      60.0      59.0       30     27.7      0.00     17.93      59.4     0.47      1015.0     3       198         4       199        9.03     269      -81.3
   03/03/2017 19:30      59.0      58.3       34     30.3      0.00     17.93      59.1     0.47      1015.0     2       193         4       193        9.03     269      -81.6
   03/03/2017 19:20      59.5      58.1       39     33.7      0.00     17.93      59.2     0.47      1015.0     3       174         3       160        9.03     269      -82.1
   03/03/2017 19:10      61.5      59.9       36     33.4      0.00     17.93      59.2     0.47      1015.0     2       169         3       161        9.03     269      -83.0
   03/03/2017 19:00      64.1      62.1       31     32.3      0.00     17.93      59.1     0.47      1015.0     2       191         3       217        9.03     269      -84.8
   03/03/2017 18:50      64.7      64.3       30     32.7      0.00     17.93      59.2     0.47      1015.0     3       213         4       230        9.03     269      -86.3
   03/03/2017 18:40      65.0      64.5       31     33.2      0.00     17.93      59.0     0.47      1015.0     3       214         6       224        9.03     269      -86.7
   03/03/2017 18:30      65.4      64.7       30     33.1      0.00     17.93      59.0     0.47      1015.0     3       241         4       246        9.03     269      -88.5
   03/03/2017 18:20      65.9      65.5       28     32.1      0.00     17.93      58.9     0.47      1014.0     3       258         5       255        9.03     269      -91.4
   03/03/2017 18:10      67.1      65.8       29     33.0      0.00     17.93      58.9     0.47      1014.0     3       254         4       306        9.03     268      -92.4
   03/03/2017 18:00      69.2      67.6       26     32.5      0.00     17.93      58.9     0.47      1014.0     3       267         4       278        9.05     268      -94.4
   03/03/2017 17:50      70.8      69.5       24     32.1      0.00     17.93      58.8     0.47      1014.0     3       271         4       271        9.05     268      -91.5
   03/03/2017 17:40      71.9      71.1       21     29.9      0.00     17.93      58.8     0.47      1014.0     3       288         6       299        9.06     268      -87.4
   03/03/2017 17:30      73.4      71.9       16     23.8      0.00     17.93      58.6     0.47      1014.0     2       248         4       220        9.06     267      -82.0
   03/03/2017 17:20      73.8      73.4       13     18.9      0.00     17.93      58.5     0.47      1014.0     2       196         5       200        9.06     267      -63.7
   03/03/2017 17:10      75.4      74.2       13     20.0      0.00     17.93      58.5     0.47      1014.0     3       218         5       201        9.07     267      -44.1
   03/03/2017 17:00      75.7      75.2       14     22.5      0.00     17.93      58.5     0.47      1014.0     2       195         4       146        9.07     267      -14.9
   03/03/2017 16:50      75.8      75.4       12     19.9      0.00     17.93      58.5     0.47      1014.0     4       191         7       166        9.07     267       12.7
   03/03/2017 16:40      76.0      75.6       12     20.2      0.00     17.93      58.4     0.47      1013.0     5       178         6       169        9.08     267       41.1
   03/03/2017 16:30      76.3      75.8       13     21.1      0.00     17.93      58.3     0.47      1013.0     4       161         6       151        9.08     267       71.7
   03/03/2017 16:20      76.6      76.1       13     21.6      0.00     17.93      58.2     0.47      1013.0     5       163         8       190        9.09     267       92.0
   03/03/2017 16:10      77.7      76.7       13     22.2      0.00     17.93      58.1     0.47      1013.0     5       166         8       164        9.09     267      116.9
   03/03/2017 16:00      77.9      77.6       12     21.8      0.00     17.93      58.1     0.47      1013.0     3       178         5       179        9.09     268      140.7
   03/03/2017 15:50      78.1      77.8       13     22.8      0.00     17.93      58.1     0.47      1013.0     3       203         6       238        9.10     268      173.0
   03/03/2017 15:40      78.5      78.0       12     21.2      0.00     17.93      57.9     0.47      1013.0     4       217         6       170        9.10     268      207.0
   03/03/2017 15:30      78.6      78.4       12     22.6      0.00     17.93      57.9     0.47      1014.0     4       241         6       246        9.10     269      215.9
   03/03/2017 15:20      79.1      78.4       12     22.1      0.00     17.93      57.8     0.47      1014.0     3       228         5       214        9.10     268      195.9
   03/03/2017 15:10      80.2      78.5       12     22.5      0.00     17.93      57.7     0.47      1014.0     4       230         8       243        9.10     269      217.2
   03/03/2017 15:00      81.3      80.8       11     21.0      0.00     17.93      57.8     0.47      1014.0     3       283         5       253        9.10     269      215.0
   03/03/2017 14:50      80.9      80.2       10     17.9      0.00     17.93      57.6     0.47      1014.0     2       349         3        34        9.10     269      259.9
   03/03/2017 14:40      80.9      79.7        9     16.8      0.00     17.93      57.6     0.47      1014.0     2        33         4       343        9.10     269      261.3
   03/03/2017 14:30      81.4      81.0        9     17.1      0.00     17.93      57.6     0.47      1014.0     3       322         4       340        9.11     270      295.9
   03/03/2017 14:20      81.5      80.5       10     18.8      0.00     17.93      57.5     0.47      1014.0     2       217         3        73        9.11     270      327.1
   03/03/2017 14:10      81.0      80.4       11     20.6      0.00     17.93      57.4     0.47      1014.0     2       182         3        68        9.11     270      368.9
   03/03/2017 14:00      81.0      79.9        9     17.2      0.00     17.93      57.4     0.47      1014.0     2        44         4        34        9.11     270      358.9
   03/03/2017 13:50      80.6      79.5       11     19.8      0.00     17.93      57.3     0.47      1014.0     3       251         5         5        9.11     270      346.7
   03/03/2017 13:40      80.0      78.4        9     16.2      0.00     17.93      57.3     0.47      1014.0     2       352         4       336        9.12     270      355.9
   03/03/2017 13:30      79.0      77.4       12     20.8      0.00     17.93      57.2     0.47      1014.0     3       179         5       182        9.12     270      377.9
   03/03/2017 13:20      80.1      79.2        9     15.8      0.00     17.93      57.1     0.47      1015.0     2       101         4       133        9.12     270      385.2
   03/03/2017 13:10      79.8      78.5        9     15.8      0.00     17.93      57.1     0.47      1015.0     3        52         5        19        9.13     270      382.6
   03/03/2017 13:00      79.0      78.4        9     15.2      0.00     17.93      57.1     0.47      1015.0     3        18         7       343        9.13     270      367.6
   03/03/2017 12:50      79.3      78.5        9     16.1      0.00     17.93      57.1     0.47      1015.0     3        25         6        18        9.13     270      440.4
   03/03/2017 12:40      79.1      78.3        9     15.8      0.00     17.93      57.1     0.46      1015.0     3        58         5        82        9.13     271      454.5
   03/03/2017 12:30      78.3      77.0       12     19.9      0.00     17.93      57.0     0.46      1016.0     3       105         7        76        9.13     271      415.2
   03/03/2017 12:20      78.7      77.5       10     18.2      0.00     17.93      57.0     0.46      1016.0     4        97         9       122        9.13     270      417.6
   03/03/2017 12:10      78.5      77.1       10     17.4      0.00     17.93      57.1     0.46      1016.0     3        51         4        18        9.13     271      456.3
   03/03/2017 12:00      77.5      76.5       11     17.9      0.00     17.93      57.0     0.46      1016.0     3        72         5        31        9.13     271      464.8
   03/03/2017 11:50      77.3      75.7       11     17.6      0.00     17.93      57.0     0.46      1016.0     3        65         6        87        9.13     271      434.6
   03/03/2017 11:40      76.6      75.7       11     17.8      0.00     17.93      57.0     0.46      1016.0     4        88         6        89        9.13     271      389.2
   03/03/2017 11:30      77.1      76.3       10     16.7      0.00     17.93      57.0     0.46      1016.0     4        55         6        31        9.13     272      443.7
   03/03/2017 11:20      76.2      75.6       10     15.6      0.00     17.93      57.1     0.46      1016.0     2        52         4        79        9.13     272      403.0
   03/03/2017 11:10      75.7      74.4       10     15.8      0.00     17.93      57.0     0.46      1017.0     3        51         6       101        9.13     272      360.8
   03/03/2017 11:00      76.3      74.5       10     15.8      0.00     17.93      57.0     0.46      1017.0     3        37         6        26        9.13     273      385.2
   03/03/2017 10:50      76.6      75.7       11     16.9      0.00     17.93      57.2     0.46      1017.0     3        72         5        67        9.13     274      433.7
   03/03/2017 10:40      76.0      74.8       12     19.7      0.00     17.93      57.1     0.46      1017.0     2        14         3        19        9.13     275      430.2
   03/03/2017 10:30      75.5      74.6       13     20.8      0.00     17.93      57.1     0.46      1017.0     2       315         3       354        9.13     277      367.8
   03/03/2017 10:20      74.7      74.3       14     22.0      0.00     17.93      57.2     0.46      1017.0     2       266         3       102        9.13     278      418.6
   03/03/2017 10:10      74.7      73.4       14     21.8      0.00     17.93      57.2     0.47      1017.0     2        15         3         9        9.13     280      423.4
   03/03/2017 10:00      73.3      72.2       14     20.9      0.00     17.93      57.3     0.47      1017.0     2        26         3       114        9.13     281      349.3
   03/03/2017 09:50      72.0      71.0       14     19.9      0.00     17.93      57.3     0.47      1017.0     2       313         3       311        9.13     282      378.5
   03/03/2017 09:40      71.0      70.4       14     19.8      0.00     17.93      57.3     0.47      1018.0     2       247         2       195        9.13     282      367.8
   03/03/2017 09:30      71.4      70.4       15     20.8      0.00     17.93      57.2     0.47      1017.0     2       272         3       230        9.13     284      343.0
   03/03/2017 09:20      70.7      69.8       14     19.1      0.00     17.93      57.4     0.47      1017.0     2         8         4        56        9.13     286      333.1
   03/03/2017 09:10      69.8      69.3       15     19.7      0.00     17.93      57.4     0.47      1017.0     2       138         3        72        9.13     289      314.8
   03/03/2017 09:00      69.3      67.9       15     19.1      0.00     17.93      57.3     0.47      1018.0     1       171         3       115        9.13     293      296.3
   03/03/2017 08:50      68.0      66.3       18     22.3      0.00     17.93      57.5     0.47      1018.0     2       146         2       170        9.13     299      279.6
   03/03/2017 08:40      66.3      64.9       20     23.6      0.00     17.93      57.4     0.47      1018.0     3       171         4       190        9.14     305      259.6
   03/03/2017 08:30      64.7      64.2       21     23.3      0.00     17.93      57.5     0.47      1018.0     3       195         5       207        9.14     310      245.4
   03/03/2017 08:20      64.2      62.2       22     23.3      0.00     17.93      57.5     0.47      1018.0     3       199         4       186        9.14     313      224.8
   03/03/2017 08:10      61.9      59.3       37     33.9      0.00     17.93      57.5     0.47      1018.0     1       316         2       239        9.14     316      200.3
   03/03/2017 08:00      59.1      57.4       39     33.5      0.00     17.93      57.5     0.47      1018.0     1       316         2       318        9.14     317      173.4
   03/03/2017 07:50      57.1      54.4       44     34.1      0.00     17.93      57.6     0.47      1018.0     1       345         1        45        9.14     318      144.7
   03/03/2017 07:40      54.3      51.5       45     31.8      0.00     17.93      57.6     0.47      1017.0     1       245         1       215        9.14     319      115.2
   03/03/2017 07:30      51.0      48.8       48     30.9      0.00     17.93      57.7     0.47      1017.0     1       115         2       134        9.15     319       74.0
   03/03/2017 07:20      48.8      46.5       49     29.4      0.00     17.93      57.6     0.47      1017.0     1       251         1       126        9.15     318        8.4
   03/03/2017 07:10      46.5      45.9       50     28.3      0.00     17.93      57.8     0.47      1017.0     1       278         1       230        9.15     317      -20.8
   03/03/2017 07:00      45.6      43.8       51     27.7      0.00     17.93      57.6     0.47      1017.0     1       134         2       167        9.15     316      -49.4
   03/03/2017 06:50      43.9      42.5       52     26.9      0.00     17.93      57.8     0.47      1017.0     1       140         1       161        9.15     315      -52.8
   03/03/2017 06:40      43.0      42.5       52     26.5      0.00     17.93      57.9     0.47      1017.0     1       121         1       127        9.15     313      -56.8
   03/03/2017 06:30      43.1      42.7       52     26.4      0.00     17.93      57.8     0.47      1017.0     1       141         1       147        9.15     311      -61.1
   03/03/2017 06:20      43.3      43.0       52     26.6      0.00     17.93      57.8     0.47      1017.0     1       149         1       179        9.15     309      -64.9
   03/03/2017 06:10      43.8      43.1       52     27.0      0.00     17.93      57.8     0.47      1017.0     1       148         2       167        9.15     308      -66.7
   03/03/2017 06:00      44.3      43.8       51     27.1      0.00     17.93      57.7     0.47      1017.0     1       132         2       145        9.15     306      -66.5
   03/03/2017 05:50      44.3      43.6       51     26.9      0.00     17.93      58.0     0.47      1017.0     2       139         2       130        9.15     304      -66.4
   03/03/2017 05:40      44.9      44.0       49     26.4      0.00     17.93      57.9     0.47      1017.0     1       179         2       150        9.15     303      -67.0
   03/03/2017 05:30      45.2      44.7       48     26.3      0.00     17.93      58.0     0.47      1017.0     1       206         1       207        9.15     301      -67.6
   03/03/2017 05:20      45.7      45.1       47     26.5      0.00     17.93      58.0     0.47      1017.0     1       125         2       144        9.15     300      -67.1
   03/03/2017 05:10      45.9      45.1       46     25.9      0.00     17.93      57.8     0.47      1017.0     1       119         2       127        9.15     298      -66.7
   03/03/2017 05:00      46.0      45.1       46     25.9      0.00     17.93      58.0     0.47      1017.0     1       150         2       142        9.15     297      -67.0
   03/03/2017 04:50      46.1      45.4       46     26.4      0.00     17.93      58.3     0.47      1017.0     1       147         2       147        9.15     296      -67.5
   03/03/2017 04:40      46.7      45.9       45     26.1      0.00     17.93      58.3     0.47      1017.0     1       115         2       155        9.15     295      -67.6
   03/03/2017 04:30      46.5      45.6       46     26.2      0.00     17.93      58.3     0.47      1017.0     1       154         2       127        9.15     294      -67.2
   03/03/2017 04:20      46.1      45.5       47     26.7      0.00     17.93      58.1     0.47      1017.0     2       138         3       151        9.15     293      -68.0
   03/03/2017 04:10      47.2      46.0       45     26.6      0.00     17.93      58.2     0.47      1017.0     2       136         3       170        9.15     292      -67.6
   03/03/2017 04:00      48.6      47.2       42     25.9      0.00     17.93      58.2     0.47      1017.0     2       139         3       131        9.15     291      -68.2
   03/03/2017 03:50      49.8      48.5       39     25.0      0.00     17.93      58.4     0.47      1017.0     2       153         3       135        9.15     290      -68.6
   03/03/2017 03:40      49.8      48.5       38     24.7      0.00     17.93      58.3     0.47      1017.0     2       176         2       109        9.15     289      -68.9
   03/03/2017 03:30      50.1      49.0       38     24.7      0.00     17.93      58.4     0.47      1017.0     2       137         3       142        9.15     289      -69.9
   03/03/2017 03:20      49.1      48.7       39     25.1      0.00     17.93      58.2     0.47      1017.0     2       153         4       186        9.15     288      -68.5
   03/03/2017 03:10      49.7      49.0       38     25.2      0.00     17.93      58.4     0.47      1017.0     3       140         4       157        9.15     288      -68.2
   03/03/2017 03:00      49.5      48.4       39     25.0      0.00     17.93      58.3     0.47      1017.0     2       168         3       135        9.15     287      -66.9
   03/03/2017 02:50      49.3      48.5       39     24.8      0.00     17.93      58.5     0.47      1017.0     2       142         2       143        9.15     286      -67.0
   03/03/2017 02:40      48.7      48.1       41     26.0      0.00     17.93      58.5     0.47      1018.0     2       158         3       185        9.15     285      -66.4
   03/03/2017 02:30      48.8      47.9       41     25.7      0.00     17.93      58.3     0.47      1018.0     2       142         3       176        9.15     285      -66.7
   03/03/2017 02:20      48.0      47.8       43     26.2      0.00     17.93      58.6     0.47      1018.0     1       142         2       141        9.15     284      -66.7
   03/03/2017 02:10      48.3      47.7       42     26.3      0.00     17.93      58.4     0.47      1018.0     1       170         2       169        9.16     283      -67.2
   03/03/2017 02:00      47.9      47.3       44     26.7      0.00     17.93      58.6     0.47      1018.0     2       137         3       130        9.16     283      -67.3
   03/03/2017 01:50      47.7      47.4       45     27.2      0.00     17.93      58.6     0.47      1018.0     1       180         2       163        9.16     282      -68.6
   03/03/2017 01:40      47.9      47.3       45     27.1      0.00     17.93      58.5     0.47      1018.0     1       242         2       212        9.16     282      -68.4
   03/03/2017 01:30      48.3      47.3       45     27.5      0.00     17.93      58.6     0.47      1019.0     1       151         3       165        9.16     281      -68.9
   03/03/2017 01:20      48.6      48.0       43     26.8      0.00     17.93      58.4     0.47      1019.0     1       150         3       137        9.16     280      -68.7
   03/03/2017 01:10      49.1      47.9       43     27.4      0.00     17.93      58.6     0.47      1019.0     1       121         2       165        9.16     280      -68.5
   03/03/2017 01:00      49.3      48.8       41     26.1      0.00     17.93      58.6     0.47      1019.0     1       178         2       184        9.16     279      -68.0
   03/03/2017 00:50      49.5      49.1       42     27.1      0.00     17.93      58.6     0.47      1019.0     1       154         1       143        9.16     278      -69.3
   03/03/2017 00:40      50.0      49.6       41     26.9      0.00     17.93      58.7     0.47      1019.0     1       125         2       148        9.16     278      -68.6
   03/03/2017 00:30      50.7      50.1       39     26.4      0.00     17.93      58.8     0.47      1019.0     1       152         2       128        9.16     277      -68.7
   03/03/2017 00:20      51.3      50.8       37     25.7      0.00     17.93      58.6     0.47      1019.0     1       141         2       123        9.16     277      -69.2
   03/03/2017 00:10      51.1      50.6       38     26.3      0.00     17.93      58.5     0.47      1019.0     1       176         3       141        9.16     276      -70.5
   03/03/2017 00:00      51.7      50.7       38     26.1      0.00     17.93      58.7     0.47      1019.0     2       151         2       140        9.16     276      -70.2
   03/02/2017 23:50      52.2      51.2       36     25.7      0.00     17.93      58.6     0.47      1019.0     2       131         3       138        9.16     275      -70.6
   03/02/2017 23:40      52.3      51.8       36     25.8      0.00     17.93      58.7     0.47      1019.0     2       156         3       125        9.16     275      -70.2
   03/02/2017 23:30      52.8      52.2       34     25.0      0.00     17.93      58.7     0.47      1019.0     2       155         3       144        9.16     275      -71.0
   03/02/2017 23:20      53.8      52.4       34     25.7      0.00     17.93      58.7     0.47      1019.0     2       164         3       169        9.17     274      -71.0
   03/02/2017 23:10      55.1      53.3       31     23.9      0.00     17.93      58.6     0.47      1019.0     1       143         2       140        9.17     274      -72.1
   03/02/2017 23:00      53.0      52.3       35     25.5      0.00     17.93      58.7     0.47      1019.0     2       150         3       156        9.17     274      -72.1
   03/02/2017 22:50      53.4      52.9       34     25.5      0.00     17.93      58.8     0.47      1019.0     2       141         3       163        9.17     274      -73.0
   03/02/2017 22:40      54.0      53.0       34     25.7      0.00     17.93      58.5     0.47      1019.0     2       158         3       142        9.17     274      -73.1
   03/02/2017 22:30      55.8      53.8       32     25.1      0.00     17.93      58.7     0.47      1019.0     2       144         3       142        9.17     274      -72.4
   03/02/2017 22:20      55.7      54.0       30     23.8      0.00     17.93      58.7     0.47      1019.0     2       159         3       168        9.17     273      -73.0
   03/02/2017 22:10      53.9      53.1       33     25.1      0.00     17.93      58.6     0.47      1019.0     2       152         3       133        9.17     273      -73.4
   03/02/2017 22:00      53.2      52.5       35     25.8      0.00     17.93      58.6     0.47      1019.0     2       154         3       167        9.18     273      -73.6
   03/02/2017 21:50      54.8      52.8       36     27.1      0.00     17.93      58.5     0.47      1019.0     2       151         3       159        9.18     273      -74.2
   03/02/2017 21:40      55.1      54.6       31     24.6      0.00     17.93      58.6     0.47      1019.0     2       158         2       144        9.18     273      -74.3
   03/02/2017 21:30      55.1      54.3       32     25.2      0.00     17.93      59.0     0.47      1019.0     2       155         3       135        9.18     273      -75.2
   03/02/2017 21:20      55.5      55.0       31     24.9      0.00     17.93      58.6     0.47      1019.0     2       153         3       130        9.18     272      -75.5
   03/02/2017 21:10      55.6      54.9       31     25.3      0.00     17.93      58.5     0.47      1019.0     3       145         4       142        9.18     272      -76.6
   03/02/2017 21:00      56.0      55.1       30     24.4      0.00     17.93      58.6     0.47      1019.0     2       160         3       128        9.19     272      -76.3
   03/02/2017 20:50      55.4      54.1       33     26.1      0.00     17.93      58.5     0.47      1019.0     2       167         4       155        9.19     272      -77.4
   03/02/2017 20:40      57.1      54.8       32     26.2      0.00     17.93      58.6     0.47      1019.0     3       152         4       163        9.19     272      -77.9
   03/02/2017 20:30      58.4      57.4       27     23.8      0.00     17.93      58.5     0.47      1019.0     2       161         2       126        9.19     272      -77.3
   03/02/2017 20:20      59.3      58.0       25     23.2      0.00     17.93      58.6     0.47      1019.0     1       180         2       178        9.19     272      -78.3
   03/02/2017 20:10      60.0      59.7       23     21.8      0.00     17.93      58.4     0.47      1019.0     2       181         2       183        9.20     272      -78.2
   03/02/2017 20:00      60.5      59.4       24     22.5      0.00     17.93      58.3     0.47      1019.0     2       185         3       182        9.20     271      -79.7
   03/02/2017 19:50      60.8      59.5       24     22.8      0.00     17.93      58.4     0.47      1019.0     2       177         3       152        9.20     271      -81.2
   03/02/2017 19:40      60.6      58.9       25     23.6      0.00     17.93      58.4     0.47      1019.0     3       145         5       158        9.20     271      -81.5
   03/02/2017 19:30      60.5      59.4       25     24.4      0.00     17.93      58.4     0.47      1019.0     2       156         4       157        9.20     271      -81.6
   03/02/2017 19:20      62.9      60.9       23     23.3      0.00     17.93      58.4     0.47      1019.0     3       166         4       164        9.21     271      -83.0
   03/02/2017 19:10      65.8      63.6       19     21.4      0.00     17.93      58.4     0.47      1019.0     2       225         3       321        9.21     271      -84.8
   03/02/2017 19:00      67.9      66.7       15     18.0      0.00     17.93      58.2     0.47      1019.0     2       334         3         7        9.21     271      -88.0
   03/02/2017 18:50      68.5      68.1       14     17.1      0.00     17.93      58.3     0.47      1019.0     3       348         6         1        9.21     271      -90.6
   03/02/2017 18:40      69.2      68.8       13     16.6      0.00     17.93      58.1     0.47      1019.0     2       346         4       340        9.21     271      -91.9
   03/02/2017 18:30      69.8      69.1       13     16.7      0.00     17.93      58.2     0.47      1019.0     3       354         6         0        9.21     271      -94.4
   03/02/2017 18:20      70.1      69.8       13     16.1      0.00     17.93      58.1     0.47      1019.0     5       355         7       328        9.22     270      -96.2
   03/02/2017 18:10      70.5      70.3       12     16.0      0.00     17.93      58.1     0.47      1018.0     5       355         7       336        9.22     270      -97.3
   03/02/2017 18:00      71.1      70.5       12     15.9      0.00     17.93      58.0     0.47      1019.0     4       358         5         5        9.22     270      -96.3
   03/02/2017 17:50      71.7      71.2       12     16.0      0.00     17.93      57.9     0.47      1018.0     5       354         7       354        9.22     270      -95.2
   03/02/2017 17:40      72.3      71.7       12     15.8      0.00     17.93      57.8     0.47      1018.0     5       341         6       344        9.22     270      -93.1
   03/02/2017 17:30      73.2      72.5       11     16.2      0.00     17.93      57.8     0.47      1018.0     6         0        10       358        9.22     270      -89.9
   03/02/2017 17:20      73.6      73.1       11     16.5      0.00     17.93      57.8     0.47      1018.0     7       358        14         4        9.23     270      -67.7
   03/02/2017 17:10      74.3      73.6       11     16.9      0.00     17.93      57.9     0.47      1018.0     8       357        11        24        9.22     270      -49.4
   03/02/2017 17:00      74.5      74.2       11     17.2      0.00     17.93      57.7     0.47      1018.0     6       350        10       343        9.22     269      -13.4
   03/02/2017 16:50      74.6      74.3       11     16.3      0.00     17.93      57.6     0.47      1018.0     7         1        10        11        9.23     269       14.0
   03/02/2017 16:40      74.9      74.7       11     16.3      0.00     17.93      57.6     0.47      1018.0     9         2        12         3        9.24     269       48.4
   03/02/2017 16:30      75.0      74.7       11     16.5      0.00     17.93      57.5     0.47      1018.0     9       360        14         7        9.25     269       84.7
   03/02/2017 16:20      75.4      74.8       11     16.2      0.00     17.93      57.4     0.47      1018.0    11       354        19       325        9.25     269      127.4
   03/02/2017 16:10      75.6      75.2       10     16.1      0.00     17.93      57.5     0.47      1018.0    10       356        14       338        9.26     270      172.8
   03/02/2017 16:00      75.9      75.3       11     16.4      0.00     17.93      57.4     0.47      1018.0    10         3        16         1        9.26     270      231.2
   03/02/2017 15:50      75.4      74.7       11     17.3      0.00     17.93      57.2     0.47      1019.0     8         4        13        21        9.26     270      200.4
   03/02/2017 15:40      74.9      74.5       11     17.0      0.00     17.93      57.2     0.47      1019.0     9       349        13        16        9.26     270      189.3
   03/02/2017 15:30      74.5      74.1       11     17.2      0.00     17.93      57.2     0.47      1019.0     9       359        13         6        9.26     270      124.5
   03/02/2017 15:20      74.4      74.1       11     17.4      0.00     17.93      57.1     0.47      1019.0     8       355        13       358        9.26     269       75.0
   03/02/2017 15:10      74.8      74.4       12     18.2      0.00     17.93      57.1     0.47      1019.0    10       336        11       348        9.27     269       38.0
   03/02/2017 15:00      75.7      74.8       12     18.2      0.00     17.93      57.0     0.47      1019.0    10       338        16       341        9.27     269       69.5
   03/02/2017 14:50      76.3      75.9       11     18.7      0.00     17.93      56.9     0.47      1019.0    11       343        18       333        9.27     269      278.2
   03/02/2017 14:40      76.6      75.6       12     18.8      0.00     17.93      56.9     0.47      1019.0     9       343        15       331        9.27     270      355.1
   03/02/2017 14:30      76.1      75.5       11     18.5      0.00     17.93      56.9     0.47      1019.0    10       349        14       335        9.27     270      248.6
   03/02/2017 14:20      76.5      75.9       11     18.1      0.00     17.93      56.8     0.47      1019.0     9       353        16       348        9.27     270      323.1
   03/02/2017 14:10      76.5      75.6       11     17.7      0.00     17.93      56.7     0.47      1019.0    10       356        15       352        9.27     270      233.8
   03/02/2017 14:00      76.7      75.8       11     17.4      0.00     17.93      56.7     0.47      1019.0    11       345        18       326        9.28     270      417.3
   03/02/2017 13:50      76.8      76.1       11     18.0      0.00     17.93      56.6     0.47      1019.0    11       349        17       336        9.28     270      391.4
   03/02/2017 13:40      76.3      75.5       11     17.9      0.00     17.93      56.5     0.47      1020.0    10       337        14       349        9.28     271      413.7
   03/02/2017 13:30      76.5      75.5       11     18.1      0.00     17.93      56.5     0.47      1020.0     9       354        14       342        9.28     271      430.3
   03/02/2017 13:20      75.7      75.0       12     18.5      0.00     17.93      56.5     0.47      1020.0    11       337        17       333        9.28     270      440.5
   03/02/2017 13:10      75.7      75.2       12     19.0      0.00     17.93      56.4     0.47      1020.0    10       345        13       352        9.28     270      448.3
   03/02/2017 13:00      76.0      75.4       12     18.9      0.00     17.93      56.5     0.47      1020.0     9       355        17       351        9.28     270      453.1
   03/02/2017 12:50      76.2      74.5       12     19.1      0.00     17.93      56.5     0.47      1020.0     9       349        16       334        9.28     271      462.1
   03/02/2017 12:40      75.2      74.7       12     19.4      0.00     17.93      56.4     0.47      1021.0    11       337        17       355        9.28     272      468.3
   03/02/2017 12:30      75.4      74.5       12     19.9      0.00     17.93      56.5     0.47      1021.0     8       347        14       312        9.28     272      470.5
   03/02/2017 12:20      75.2      74.3       13     20.6      0.00     17.93      56.3     0.47      1021.0     8       356        11       338        9.28     271      452.4
   03/02/2017 12:10      74.2      73.7       14     21.1      0.00     17.93      56.4     0.47      1021.0     9       352        13         3        9.28     272      476.0
   03/02/2017 12:00      73.7      72.8       14     20.7      0.00     17.93      56.3     0.47      1021.0    10       346        14         7        9.28     272      484.4
   03/02/2017 11:50      73.1      72.8       14     20.4      0.00     17.93      56.3     0.47      1022.0    10       345        17         0        9.28     272      487.7
   03/02/2017 11:40      73.3      73.0       14     20.4      0.00     17.93      56.4     0.47      1022.0    10         1        14       356        9.28     272      469.6
   03/02/2017 11:30      73.2      72.5       13     20.0      0.00     17.93      56.3     0.47      1022.0     8       346        12       324        9.28     272      471.0
   03/02/2017 11:20      72.6      71.7       14     19.5      0.00     17.93      56.3     0.47      1022.0    10         4        13        13        9.28     273      464.5
   03/02/2017 11:10      72.3      71.4       14     19.3      0.00     17.93      56.3     0.47      1022.0    11       356        20       352        9.28     273      459.2
   03/02/2017 11:00      71.9      71.1       13     18.9      0.00     17.93      56.3     0.47      1022.0    11       359        18        14        9.28     273      453.0
   03/02/2017 10:50      72.0      70.7       14     19.3      0.00     17.93      56.3     0.47      1022.0     7       350        11         7        9.28     274      443.5
   03/02/2017 10:40      70.9      70.1       14     18.2      0.00     17.93      56.3     0.47      1022.0    11       353        16       332        9.29     274      436.8
   03/02/2017 10:30      70.7      70.0       14     18.5      0.00     17.93      56.3     0.47      1022.0    10       344        16       350        9.29     275      426.3
   03/02/2017 10:20      70.4      69.8       13     17.6      0.00     17.93      56.3     0.47      1022.0    12         5        16       344        9.29     275      414.0
   03/02/2017 10:10      70.4      70.0       13     18.0      0.00     17.93      56.4     0.47      1023.0     9       351        13       330        9.29     276      400.0
   03/02/2017 10:00      70.2      69.0       14     17.6      0.00     17.93      56.3     0.47      1023.0     8       349        11       357        9.29     277      384.9
   03/02/2017 09:50      69.2      68.7       14     17.2      0.00     17.93      56.5     0.47      1023.0    10       352        14         3        9.29     279      370.8
   03/02/2017 09:40      68.8      68.4       14     17.1      0.00     17.93      56.4     0.47      1023.0    11       360        15        17        9.29     280      346.3
   03/02/2017 09:30      68.5      68.1       14     17.1      0.00     17.93      56.4     0.47      1023.0    11       352        17       350        9.29     281      336.1
   03/02/2017 09:20      68.3      67.5       14     17.0      0.00     17.93      56.5     0.47      1022.0    11       357        21       354        9.29     282      320.3
   03/02/2017 09:10      67.7      67.4       14     17.3      0.00     17.93      56.4     0.47      1022.0     9       355        14       341        9.29     284      301.1
   03/02/2017 09:00      67.7      67.2       14     16.9      0.00     17.93      56.4     0.47      1022.0     9       359        15       350        9.29     286      283.8
   03/02/2017 08:50      67.3      66.3       15     16.9      0.00     17.93      56.5     0.47      1022.0     7       356        10       355        9.29     288      264.1
   03/02/2017 08:40      66.6      65.7       15     16.9      0.00     17.93      56.5     0.47      1022.0     8       360        13       350        9.29     295      244.6
   03/02/2017 08:30      65.7      64.9       15     16.5      0.00     17.93      56.5     0.47      1022.0     8       350        14       357        9.29     298      224.4
   03/02/2017 08:20      65.0      64.5       15     16.7      0.00     17.93      56.5     0.47      1022.0     7       355        13         6        9.29     301      202.7
   03/02/2017 08:10      64.6      64.2       16     16.5      0.00     17.93      56.5     0.47      1023.0     7       352        11       348        9.29     304      178.0
   03/02/2017 08:00      64.4      63.8       15     15.7      0.00     17.93      56.6     0.47      1023.0     8         9        11         9        9.29     306      150.4
   03/02/2017 07:50      63.9      63.3       15     15.7      0.00     17.93      56.7     0.47      1022.0     8        10        13         5        9.30     308      122.8
   03/02/2017 07:40      63.3      62.6       15     15.3      0.00     17.93      56.7     0.47      1022.0     8         3        11        12        9.30     310       96.1
   03/02/2017 07:30      62.7      62.3       16     15.3      0.00     17.93      56.7     0.47      1022.0     8         9        12         8        9.30     311       45.1
   03/02/2017 07:20      62.5      61.6       16     14.9      0.00     17.93      56.6     0.47      1022.0    10         6        14         5        9.30     313      -17.6
   03/02/2017 07:10      61.8      61.3       16     14.8      0.00     17.93      56.7     0.47      1022.0     7       344         9        12        9.30     314      -44.9
   03/02/2017 07:00      61.4      60.7       16     14.8      0.00     17.93      56.6     0.47      1022.0     6       355        11        13        9.30     315      -63.6
   03/02/2017 06:50      61.0      60.4       16     14.6      0.00     17.93      56.7     0.47      1022.0     7         3        11       359        9.30     316      -66.8
   03/02/2017 06:40      60.4      60.0       17     14.7      0.00     17.93      56.9     0.47      1022.0     8         9        15       355        9.30     317      -70.6
   03/02/2017 06:30      60.0      59.5       17     15.0      0.00     17.93      56.8     0.47      1022.0     7       349        11       350        9.30     319      -74.4
   03/02/2017 06:20      60.0      59.4       17     15.0      0.00     17.93      57.1     0.47      1022.0     7       354        12       344        9.30     320      -77.1
   03/02/2017 06:10      59.6      59.4       18     15.4      0.00     17.93      57.0     0.47      1022.0     6       357        11       332        9.30     320      -77.3
   03/02/2017 06:00      59.6      59.4       17     15.2      0.00     17.93      56.8     0.47      1022.0     6       356         9       349        9.30     320      -77.3
   03/02/2017 05:50      59.5      58.5       18     15.3      0.00     17.93      56.9     0.47      1022.0     6       347        10         6        9.30     320      -76.2
   03/02/2017 05:40      58.3      54.9       21     16.9      0.00     17.93      56.9     0.47      1022.0     5        26        10       352        9.30     320      -74.5
   03/02/2017 05:30      54.7      52.5       25     18.6      0.00     17.93      56.9     0.47      1022.0     3       146         6       345        9.30     319      -72.9
   03/02/2017 05:20      52.4      51.8       29     20.6      0.00     17.93      56.8     0.47      1022.0     3       143         5       165        9.30     318      -73.2
   03/02/2017 05:10      53.6      52.5       27     19.8      0.00     17.93      56.9     0.47      1022.0     2       143         5       134        9.30     318      -72.3
   03/02/2017 05:00      53.4      52.5       27     19.7      0.00     17.93      57.0     0.47      1022.0     3       157         4       154        9.30     317      -72.3
   03/02/2017 04:50      53.6      51.6       26     19.2      0.00     17.93      56.9     0.47      1022.0     3       119         5       129        9.30     315      -72.3
   03/02/2017 04:40      53.8      51.8       29     21.4      0.00     17.93      57.0     0.47      1022.0     2       144         4         7        9.30     314      -71.2
   03/02/2017 04:30      54.9      53.6       25     19.1      0.00     17.93      57.0     0.47      1022.0     2       120         3       143        9.30     312      -71.3
   03/02/2017 04:20      55.0      53.9       24     18.9      0.00     17.93      57.1     0.47      1022.0     2       143         4       104        9.30     311      -72.1
   03/02/2017 04:10      56.3      54.1       24     19.1      0.00     17.93      56.9     0.47      1022.0     2       139         4       127        9.30     310      -73.0
   03/02/2017 04:00      56.1      54.1       23     18.1      0.00     17.93      57.0     0.47      1022.0     2       211         3       328        9.30     309      -71.3
   03/02/2017 03:50      53.9      51.1       28     20.0      0.00     17.93      57.2     0.47      1022.0     2       154         3       144        9.30     308      -70.2
   03/02/2017 03:40      52.9      51.1       28     20.1      0.00     17.93      57.2     0.47      1022.0     1       133         3        34        9.30     306      -70.4
   03/02/2017 03:30      51.9      49.9       31     21.6      0.00     17.93      57.1     0.47      1022.0     2       177         3       143        9.30     305      -72.5
   03/02/2017 03:20      51.9      50.7       31     21.6      0.00     17.93      56.9     0.47      1022.0     3       160         4       176        9.30     304      -72.0
   03/02/2017 03:10      52.2      50.0       31     21.1      0.00     17.93      57.1     0.47      1022.0     2       151         4       138        9.30     302      -73.1
   03/02/2017 03:00      50.8      49.5       33     21.9      0.00     17.93      57.0     0.47      1022.0     3       147         4       164        9.30     301      -73.6
   03/02/2017 02:50      50.3      49.6       33     22.2      0.00     17.93      57.2     0.47      1022.0     2       151         4       139        9.30     300      -74.7
   03/02/2017 02:40      52.6      51.4       28     20.3      0.00     17.93      57.2     0.47      1022.0     3       148         5       170        9.30     298      -74.2
   03/02/2017 02:30      52.9      51.9       27     19.5      0.00     17.93      57.3     0.47      1022.0     3       136         4       105        9.30     297      -76.0
   03/02/2017 02:20      52.5      51.4       29     20.2      0.00     17.93      57.2     0.47      1022.0     2       132         5       145        9.30     296      -75.7
   03/02/2017 02:10      53.3      52.0       28     20.3      0.00     17.93      57.4     0.47      1022.0     3       153         3       165        9.30     295      -76.8
   03/02/2017 02:00      55.7      53.1       25     19.2      0.00     17.93      57.3     0.47      1022.0     3       136         4       150        9.30     293      -79.1
   03/02/2017 01:50      58.1      56.0       21     16.9      0.00     17.93      57.3     0.47      1023.0     3       110         5       126        9.30     293      -80.7
   03/02/2017 01:40      60.4      58.2       18     15.1      0.00     17.93      57.2     0.47      1023.0     3        69         5        26        9.30     292      -82.5
   03/02/2017 01:30      60.2      59.5       16     14.1      0.00     17.93      57.2     0.47      1023.0     4        42         6        46        9.30     292      -82.3
   03/02/2017 01:20      60.7      60.1       16     13.4      0.00     17.93      57.4     0.47      1023.0     4        24         8        38        9.30     291      -83.0
   03/02/2017 01:10      60.8      59.2       17     14.4      0.00     17.93      57.4     0.47      1023.0     3        37         6        10        9.30     291      -82.2
   03/02/2017 01:00      60.9      60.6       15     13.0      0.00     17.93      57.3     0.47      1023.0     4       350         8       346        9.30     291      -83.4
   03/02/2017 00:50      60.9      60.5       15     13.3      0.00     17.93      57.2     0.47      1023.0     4        12         7       359        9.31     290      -83.0
   03/02/2017 00:40      61.1      60.5       15     13.1      0.00     17.93      57.3     0.47      1023.0     5         7         9         7        9.31     290      -82.3
   03/02/2017 00:30      60.8      59.6       16     13.8      0.00     17.93      57.2     0.47      1023.0     4        21         7       354        9.31     290      -81.0
   03/02/2017 00:20      60.6      58.0       17     14.2      0.00     17.93      57.4     0.47      1023.0     5        14        10       358        9.31     290      -79.2
   03/02/2017 00:10      57.9      55.3       21     16.7      0.00     17.93      57.3     0.47      1023.0     4        22         7         0        9.31     290      -76.8
   03/02/2017 00:00      55.2      53.9       24     18.7      0.00     17.93      57.4     0.47      1023.0     1        49         2       116        9.31     289      -76.4
   03/01/2017 23:50      54.0      52.8       28     20.8      0.00     17.93      57.3     0.47      1023.0     2       110         3       180        9.31     288      -75.4
   03/01/2017 23:40      54.0      52.7       28     21.1      0.00     17.93      57.6     0.47      1023.0     2       153         3       129        9.31     287      -75.3
   03/01/2017 23:30      53.9      52.2       28     21.1      0.00     17.93      57.3     0.47      1023.0     2       186         3       241        9.31     286      -74.3
   03/01/2017 23:20      53.1      52.2       31     22.8      0.00     17.93      57.3     0.47      1024.0     2       146         4       164        9.31     285      -75.1
   03/01/2017 23:10      53.3      51.8       29     21.4      0.00     17.93      57.4     0.47      1024.0     1       191         2       179        9.31     284      -75.3
   03/01/2017 23:00      54.5      52.3       30     22.6      0.00     17.93      57.6     0.47      1024.0     2       132         4       149        9.31     283      -75.2
   03/01/2017 22:50      55.2      54.1       26     20.3      0.00     17.93      57.3     0.47      1024.0     2       161         3       151        9.31     282      -75.5
   03/01/2017 22:40      56.3      53.5       27     21.5      0.00     17.93      57.4     0.47      1024.0     3       134         5       157        9.31     281      -77.1
   03/01/2017 22:30      57.2      54.3       24     19.3      0.00     17.93      57.4     0.47      1024.0     3       128         6       124        9.32     280      -76.2
   03/01/2017 22:20      54.5      53.7       28     21.5      0.00     17.93      57.4     0.47      1024.0     3       142         4       127        9.32     280      -76.6
   03/01/2017 22:10      55.8      54.0       27     21.9      0.00     17.93      57.3     0.47      1024.0     3       138         5       147        9.32     280      -76.2
   03/01/2017 22:00      54.9      54.2       27     20.9      0.00     17.93      57.4     0.47      1024.0     2       137         3       122        9.32     279      -76.8
   03/01/2017 21:50      54.3      53.0       29     22.2      0.00     17.93      57.3     0.47      1024.0     3       147         5       165        9.32     278      -77.7
   03/01/2017 21:40      53.1      52.7       32     24.1      0.00     17.93      57.5     0.47      1024.0     3       149         4       154        9.32     277      -79.0
   03/01/2017 21:30      54.7      53.3       31     23.8      0.00     17.93      57.4     0.47      1024.0     3       155         4       154        9.32     276      -80.3
   03/01/2017 21:20      58.1      55.3       25     21.7      0.00     17.93      57.3     0.47      1024.0     3       134         5       141        9.33     276      -82.0
   03/01/2017 21:10      60.0      57.0       23     20.3      0.00     17.93      57.3     0.47      1024.0     2       168         3       172        9.33     275      -81.4
   03/01/2017 21:00      61.5      60.4       18     17.0      0.00     17.93      57.2     0.47      1024.0     2       127         2       129        9.33     275      -84.9
   03/01/2017 20:50      63.0      61.9       16     15.4      0.00     17.93      57.4     0.47      1024.0     3        53         4        27        9.33     275      -87.9
   03/01/2017 20:40      63.3      63.0       15     15.0      0.00     17.93      57.3     0.47      1023.0     5         6         8       350        9.33     274      -89.3
   03/01/2017 20:30      63.3      63.0       15     15.4      0.00     17.93      57.3     0.47      1023.0     6         8        10       357        9.33     274      -89.7
   03/01/2017 20:20      63.5      63.3       15     15.4      0.00     17.93      57.1     0.47      1023.0     5         8        12       352        9.33     274      -90.3
   03/01/2017 20:10      63.7      63.4       15     15.5      0.00     17.93      57.1     0.47      1023.0     8         8        12         7        9.34     274      -90.0
   03/01/2017 20:00      63.7      63.4       16     16.0      0.00     17.93      57.2     0.47      1023.0     9       357        12       345        9.34     274      -89.1
   03/01/2017 19:50      63.6      63.5       16     16.7      0.00     17.93      57.3     0.47      1023.0     7         3        12         8        9.34     274      -89.1
   03/01/2017 19:40      63.8      63.5       16     17.4      0.00     17.93      57.2     0.47      1023.0     8         2        12       358        9.34     273      -89.2
   03/01/2017 19:30      63.9      63.6       17     17.9      0.00     17.93      57.0     0.47      1023.0     7         9        12       352        9.34     273      -89.4
   03/01/2017 19:20      64.0      63.8       17     18.1      0.00     17.93      57.0     0.47      1023.0     7         0        10       354        9.34     273      -90.3
   03/01/2017 19:10      64.3      64.0       17     18.1      0.00     17.93      57.0     0.47      1023.0     6         7        10        13        9.34     273      -90.9
   03/01/2017 19:00      64.4      64.1       17     18.1      0.00     17.93      57.0     0.47      1023.0     8       355        11         1        9.35     273      -91.7
   03/01/2017 18:50      64.9      64.3       17     18.4      0.00     17.93      57.0     0.47      1023.0     7       356        12       354        9.35     273      -92.6
   03/01/2017 18:40      64.9      64.6       16     18.2      0.00     17.93      56.9     0.47      1023.0     8         0        10         7        9.35     273      -92.8
   03/01/2017 18:30      65.3      64.9       16     17.9      0.00     17.93      57.0     0.47      1023.0     8         1        14       350        9.35     273      -93.4
   03/01/2017 18:20      65.5      65.0       16     18.4      0.00     17.93      56.9     0.47      1022.0     6       347         8       340        9.35     273      -94.7
   03/01/2017 18:10      65.6      65.5       16     18.7      0.00     17.93      56.8     0.47      1022.0     9       356        12       341        9.36     273      -95.1
   03/01/2017 18:00      66.0      65.7       16     18.5      0.00     17.93      56.8     0.47      1022.0     6         0        11       344        9.36     273      -94.2
   03/01/2017 17:50      66.2      66.0       16     18.6      0.00     17.93      56.9     0.47      1022.0     7       359         9       353        9.36     273      -91.9
   03/01/2017 17:40      66.8      66.3       16     18.9      0.00     17.93      56.6     0.47      1022.0     5       354         8       349        9.36     273      -89.6
   03/01/2017 17:30      67.3      66.9       16     18.9      0.00     17.93      56.7     0.47      1022.0     7       339        13       349        9.36     272      -85.8
   03/01/2017 17:20      67.8      67.3       15     18.6      0.00     17.93      56.6     0.47      1022.0     7       357        12        17        9.37     272      -63.2
   03/01/2017 17:10      68.4      67.8       15     18.5      0.00     17.93      56.6     0.47      1022.0     9       354        15       357        9.37     272      -52.9
   03/01/2017 17:00      68.5      68.2       15     18.2      0.00     17.93      56.5     0.47      1022.0    10       351        14       319        9.37     272      -14.0
   03/01/2017 16:50      68.9      68.6       15     19.0      0.00     17.93      56.4     0.47      1022.0     9       354        14         1        9.37     272        9.7
   03/01/2017 16:40      69.2      68.9       15     19.1      0.00     17.93      56.4     0.47      1022.0     9       352        13         5        9.37     272       35.8
   03/01/2017 16:30      69.3      69.1       15     19.0      0.00     17.93      56.3     0.47      1022.0    12       360        16       338        9.37     271       62.3
   03/01/2017 16:20      69.7      69.3       15     19.1      0.00     17.93      56.3     0.47      1022.0    13       358        16       332        9.37     272       88.7
   03/01/2017 16:10      70.3      69.8       15     19.9      0.00     17.93      56.1     0.47      1022.0    11       354        16         3        9.37     272      114.8
   03/01/2017 16:00      70.6      70.2       15     20.6      0.00     17.93      56.1     0.47      1022.0     9       359        13         4        9.37     272      141.1
   03/01/2017 15:50      70.7      70.2       15     20.7      0.00     17.93      56.0     0.47      1022.0     9         6        15       354        9.37     273      165.6
   03/01/2017 15:40      70.8      70.2       15     20.5      0.00     17.93      55.9     0.47      1022.0    11       349        16       358        9.37     273      188.6
   03/01/2017 15:30      70.8      70.3       15     20.7      0.00     17.93      55.9     0.47      1022.0     9       349        14       340        9.37     273      208.1
   03/01/2017 15:20      71.3      70.3       15     21.4      0.00     17.93      55.8     0.47      1022.0     7       335        15       322        9.37     273      215.4
   03/01/2017 15:10      71.1      70.7       16     21.8      0.00     17.93      55.8     0.47      1022.0     9       337        13       337        9.37     273      232.3
   03/01/2017 15:00      71.2      70.5       16     22.4      0.00     17.93      55.7     0.47      1022.0     8       335        10       356        9.37     273      253.3
   03/01/2017 14:50      70.9      70.4       16     21.8      0.00     17.93      55.7     0.47      1022.0     9       335        13       342        9.37     273      276.4
   03/01/2017 14:40      71.0      70.6       15     21.6      0.00     17.93      55.6     0.47      1022.0     9       329        13       329        9.37     273      295.4
   03/01/2017 14:30      71.3      70.6       15     21.1      0.00     17.93      55.5     0.47      1022.0     8       334        11       349        9.37     273      321.9
   03/01/2017 14:20      71.2      70.6       15     21.1      0.00     17.93      55.5     0.47      1023.0     8       342        11       314        9.37     274      344.2
   03/01/2017 14:10      71.7      70.6       15     21.0      0.00     17.93      55.5     0.47      1023.0     8       328        13       327        9.37     274      358.3
   03/01/2017 14:00      71.4      70.6       16     21.9      0.00     17.93      55.4     0.47      1023.0     8       351        13       322        9.37     275      374.5
   03/01/2017 13:50      70.9      70.3       15     21.3      0.00     17.93      55.5     0.47      1023.0     7       320        11       298        9.37     275      388.8
   03/01/2017 13:40      71.1      70.3       16     21.7      0.00     17.93      55.3     0.47      1023.0     8       335        12         0        9.37     275      399.8
   03/01/2017 13:30      71.3      70.2       17     23.2      0.00     17.93      55.2     0.47      1023.0     7       345        10       340        9.37     275      411.6
   03/01/2017 13:20      70.7      70.3       19     25.8      0.00     17.93      55.2     0.47      1023.0     6       315        11       333        9.37     275      424.7
   03/01/2017 13:10      71.1      70.3       20     27.5      0.00     17.93      55.3     0.47      1023.0     7       334        10       309        9.37     275      432.9
   03/01/2017 13:00      70.9      69.4       21     27.9      0.00     17.93      55.1     0.47      1024.0     4       333         5        42        9.37     275      439.2
   03/01/2017 12:50      70.2      69.5       20     27.1      0.00     17.93      55.2     0.47      1024.0     6       318         9       305        9.37     275      449.0
   03/01/2017 12:40      70.8      69.2       20     26.8      0.00     17.93      55.1     0.47      1024.0     4       351         8       305        9.37     276      455.3
   03/01/2017 12:30      69.4      68.8       20     26.4      0.00     17.93      55.0     0.47      1024.0     5       355         8       308        9.37     276      460.0
   03/01/2017 12:20      69.2      68.6       21     27.4      0.00     17.93      55.0     0.47      1024.0     5       328        11       330        9.37     275      465.1
   03/01/2017 12:10      68.6      68.2       21     26.8      0.00     17.93      55.0     0.47      1024.0     6       338         9       348        9.37     276      466.7
   03/01/2017 12:00      68.6      67.9       20     26.2      0.00     17.93      55.0     0.47      1024.0     7       335        12       353        9.37     277      465.5
   03/01/2017 11:50      69.2      68.4       20     26.3      0.00     17.93      55.0     0.47      1024.0     6       341         9       356        9.37     278      465.5
   03/01/2017 11:40      69.5      68.1       21     27.1      0.00     17.93      55.1     0.47      1025.0     5       345         6       358        9.37     279      464.5
   03/01/2017 11:30      67.9      66.9       21     26.1      0.00     17.93      55.1     0.47      1025.0     6       331         7       309        9.37     280      463.4
   03/01/2017 11:20      67.6      66.6       21     26.1      0.00     17.93      55.1     0.47      1025.0     6       349        12         6        9.36     283      461.1
   03/01/2017 11:10      67.2      66.7       21     26.0      0.00     17.93      55.2     0.47      1025.0     8       332        13       340        9.36     286      457.2
   03/01/2017 11:00      67.3      66.7       21     26.3      0.00     17.93      55.2     0.47      1025.0     7       341        10        10        9.35     290      448.0
   03/01/2017 10:50      66.8      66.2       22     26.0      0.00     17.93      55.1     0.47      1025.0     6       344         9         3        9.34     294      441.6
   03/01/2017 10:40      66.3      65.3       22     25.9      0.00     17.93      55.2     0.47      1025.0     6       346         9       354        9.33     297      433.8
   03/01/2017 10:30      65.6      65.0       23     26.8      0.00     17.93      55.1     0.47      1025.0     8       355        13       347        9.31     302      425.0
   03/01/2017 10:20      65.0      64.4       24     26.8      0.00     17.93      55.2     0.47      1025.0     7         9        10         5        9.29     309      415.8
   03/01/2017 10:10      64.8      64.3       24     27.3      0.00     17.93      55.3     0.47      1025.0     7       347        11       316        9.27     315      402.8
   03/01/2017 10:00      64.8      63.5       26     28.6      0.00     17.93      55.2     0.47      1025.0     5       352         9       340        9.24     325      387.7
   03/01/2017 09:50      63.8      62.7       27     28.1      0.00     17.93      55.2     0.47      1025.0     5        18         8         9        9.20     336      374.3
   03/01/2017 09:40      62.9      61.8       27     27.7      0.00     17.93      55.3     0.47      1025.0     4       358         5       350        9.16     348      358.7
   03/01/2017 09:30      62.4      61.3       28     28.4      0.00     17.93      55.3     0.47      1025.0     5       354         6       341        9.12     360      343.4
   03/01/2017 09:20      61.6      61.1       28     27.9      0.00     17.93      55.4     0.47      1025.0     5       355         8       324        9.10     371      327.9
   03/01/2017 09:10      61.5      60.0       28     27.9      0.00     17.93      55.5     0.47      1025.0     3         1         9       332        9.07     382      310.8
   03/01/2017 09:00      60.4      60.0       29     28.0      0.00     17.93      55.4     0.47      1025.0     5       346         7       313        9.04     393      294.8
   03/01/2017 08:50      60.9      60.3       31     29.7      0.00     17.93      55.4     0.47      1025.0     2       151         8       319        9.04     403      275.6
   03/01/2017 08:40      60.6      59.4       31     29.2      0.00     17.93      55.4     0.47      1025.0     1         8         2        79        9.04     412      257.5
   03/01/2017 08:30      59.4      58.0       33     29.2      0.00     17.93      55.6     0.47      1025.0     2       152         2       151        9.04     419      237.7
   03/01/2017 08:20      58.2      57.6       34     29.8      0.00     17.93      55.5     0.47      1025.0     1       174         2       190        9.04     421      215.3
   03/01/2017 08:10      58.0      57.3       36     30.8      0.00     17.93      55.6     0.47      1025.0     2       138         2       150        9.04     424      189.8
   03/01/2017 08:00      57.5      55.5       37     30.6      0.00     17.93      55.6     0.47      1025.0     1       345         4       264        9.04     426      162.2
   03/01/2017 07:50      55.6      53.2       38     29.4      0.00     17.93      55.5     0.47      1025.0     2       355         3        14        9.04     428      137.7
   03/01/2017 07:40      52.8      49.7       48     32.0      0.00     17.93      55.8     0.47      1024.0     1       153         3       228        9.04     428       96.0
   03/01/2017 07:30      49.7      47.1       62     36.0      0.00     17.93      55.6     0.47      1024.0     2       214         2       218        9.04     429       32.8
   03/01/2017 07:20      47.1      45.3       61     33.3      0.00     17.93      55.7     0.47      1024.0     2       150         2       171        9.04     429        4.1
   03/01/2017 07:10      45.3      44.7       60     32.0      0.00     17.93      55.8     0.47      1024.0     2       162         2       150        9.04     429      -37.8
   03/01/2017 07:00      44.6      43.8       61     31.4      0.00     17.93      55.6     0.47      1024.0     1       158         2       198        9.04     429      -46.3
   03/01/2017 06:50      43.8      41.4       64     30.9      0.00     17.93      55.7     0.47      1024.0     1       165         2       156        9.04     428      -49.2
   03/01/2017 06:40      41.6      40.5       67     31.1      0.00     17.93      55.9     0.47      1024.0     2       153         3       137        9.04     427      -54.4
   03/01/2017 06:30      41.3      40.4       68     31.0      0.00     17.93      56.0     0.47      1024.0     1       133         2       141        9.04     426      -59.2
   03/01/2017 06:20      41.6      41.0       66     30.8      0.00     17.93      55.6     0.47      1024.0     1       143         2       113        9.04     428      -62.0
   03/01/2017 06:10      41.2      40.5       67     30.9      0.00     17.93      55.9     0.47      1024.0     1       171         2       203        9.04     427      -62.1
   03/01/2017 06:00      40.8      40.2       70     31.3      0.00     17.93      55.8     0.47      1024.0     2       150         2       166        9.04     425      -62.8
   03/01/2017 05:50      40.3      39.2       72     31.6      0.00     17.93      56.0     0.47      1024.0     2       146         3       136        9.04     424      -62.5
   03/01/2017 05:40      39.3      38.9       75     31.9      0.00     17.93      55.7     0.47      1024.0     2       142         2       134        9.04     422      -62.4
   03/01/2017 05:30      39.0      38.7       76     32.0      0.00     17.93      55.9     0.47      1023.0     1       159         2       152        9.04     421      -62.6
   03/01/2017 05:20      39.3      38.7       74     31.4      0.00     17.93      56.2     0.47      1023.0     1       122         2       130        9.04     422      -63.7
   03/01/2017 05:10      39.1      38.8       75     31.7      0.00     17.93      56.0     0.47      1023.0     1       223         1       197        9.04     420      -63.8
   03/01/2017 05:00      38.8      38.5       77     32.2      0.00     17.93      56.1     0.47      1023.0     1       249         1       217        9.04     420      -64.3
   03/01/2017 04:50      39.0      38.8       77     32.2      0.00     17.93      56.3     0.47      1023.0     1       116         2       120        9.04     418      -64.7
   03/01/2017 04:40      39.1      38.8       76     32.0      0.00     17.93      56.1     0.47      1023.0     1       157         2       136        9.04     416      -64.2
   03/01/2017 04:30      39.2      39.1       75     31.9      0.00     17.93      56.2     0.47      1023.0     1       166         1       144        9.04     414      -64.5
   03/01/2017 04:20      39.2      38.9       75     31.9      0.00     17.93      56.3     0.47      1023.0     1       171         2       194        9.04     414      -64.7
   03/01/2017 04:10      39.5      39.1       76     32.3      0.00     17.93      56.5     0.47      1023.0     0        98         1       120        9.04     413      -65.4
   03/01/2017 04:00      39.9      39.5       73     32.0      0.00     17.93      56.3     0.47      1023.0     1       146         2       132        9.04     410      -64.8
   03/01/2017 03:50      40.5      39.9       71     31.7      0.00     17.93      56.1     0.47      1023.0     1       142         2       103        9.05     409      -65.4
   03/01/2017 03:40      40.8      40.6       70     31.8      0.00     17.93      56.2     0.47      1023.0     1        74         1       138        9.04     407      -66.5
   03/01/2017 03:30      41.4      40.9       68     31.6      0.00     17.93      56.1     0.47      1023.0     2       144         3       138        9.04     405      -66.8
   03/01/2017 03:20      41.8      41.1       67     31.3      0.00     17.93      56.5     0.47      1023.0     1       151         2       148        9.04     403      -66.6
   03/01/2017 03:10      42.0      41.7       65     31.0      0.00     17.93      56.6     0.47      1023.0     1       198         1       183        9.04     401      -67.1
   03/01/2017 03:00      42.0      41.9       65     31.2      0.00     17.93      56.5     0.47      1023.0     1       170         2       125        9.04     398      -67.7
   03/01/2017 02:50      42.5      42.2       64     31.2      0.00     17.93      56.4     0.47      1023.0     2       157         2       141        9.04     396      -67.7
   03/01/2017 02:40      42.6      42.0       65     31.3      0.00     17.93      56.5     0.47      1023.0     2       151         3       151        9.04     394      -67.6
   03/01/2017 02:30      42.8      42.2       63     31.0      0.00     17.93      56.4     0.47      1023.0     2       152         3       168        9.04     392      -66.5
   03/01/2017 02:20      43.2      42.5       63     31.0      0.00     17.93      56.5     0.47      1023.0     2       157         3       141        9.05     391      -66.8
   03/01/2017 02:10      43.2      42.6       63     31.3      0.00     17.93      56.4     0.47      1023.0     1       189         2       232        9.05     389      -68.6
   03/01/2017 02:00      43.5      43.2       63     31.6      0.00     17.93      56.6     0.47      1023.0     2       166         3       163        9.04     387      -70.0
   03/01/2017 01:50      43.9      43.2       63     31.7      0.00     17.93      56.7     0.47      1023.0     3       150         4       163        9.04     386      -69.2
   03/01/2017 01:40      45.4      44.4       57     30.9      0.00     17.93      56.6     0.47      1023.0     2       161         3       156        9.04     384      -69.9
   03/01/2017 01:30      46.5      45.4       55     30.9      0.00     17.93      56.8     0.47      1023.0     2       177         3       226        9.04     381      -71.0
   03/01/2017 01:20      46.8      46.0       55     31.0      0.00     17.93      56.8     0.47      1023.0     3       249         5       262        9.04     380      -70.8
   03/01/2017 01:10      47.1      46.5       54     31.1      0.00     17.93      56.7     0.47      1023.0     3       208         4       232        9.04     378      -70.8
   03/01/2017 01:00      47.2      46.1       58     32.4      0.00     17.93      56.8     0.47      1023.0     2       195         4       163        9.05     375      -73.3
   03/01/2017 00:50      48.4      47.5       53     31.9      0.00     17.93      56.6     0.47      1023.0     4       267         7       252        9.05     374      -74.3
   03/01/2017 00:40      48.6      46.4       54     31.6      0.00     17.93      56.5     0.47      1023.0     6       275        10       247        9.05     373      -72.2
   03/01/2017 00:30      46.3      45.2       60     33.1      0.00     17.93      56.9     0.47      1023.0     5       262         8       254        9.05     372      -71.8
   03/01/2017 00:20      45.1      42.8       66     33.4      0.00     17.93      56.7     0.47      1023.0     2       299         4       286        9.05     372      -70.8
   03/01/2017 00:10      42.9      42.6       73     34.9      0.00     17.93      56.6     0.47      1023.0     2       158         2       256        9.05     370      -70.0
   03/01/2017 00:00      42.8      42.5       75     35.2      0.00     17.93      56.7     0.47      1023.0     1       217         2       240        9.05     367      -70.8


<<Back to data home page